<?xml version="1.0" encoding="UTF-8" standalone="no" ?>
<gpx xmlns="http://www.topografix.com/GPX/1/1" xmlns:xsi="http://www.w3.org/2001/XMLSchema-instance" xsi:schemaLocation="http://www.topografix.com/GPX/1/1 http://www.topografix.com/GPX/1/1/gpx.xsd" version="1.1" creator="VisuGPX - https://www.visugpx.com">
  <metadata>
    <name>reco entrainement tignes 2011</name>
    <desc><![CDATA[Parcours sur Tignes. ]]></desc>
  </metadata>
  <wpt lat="38.85555" lon="-94.79902">
    <ele>3.01</ele>
    <name><![CDATA[GARMIN]]></name>
  </wpt>
  <wpt lat="50.98288" lon="-1.4639">
    <ele>3.01</ele>
    <name><![CDATA[GRMEUR]]></name>
  </wpt>
  <wpt lat="25.06178" lon="121.64027">
    <ele>3.01</ele>
    <name><![CDATA[GRMTWN]]></name>
  </wpt>
  <trk>
    <name><![CDATA[ACTIVE LOG: 26 JUN 2011 09:48]]></name>
    <trkseg>
      <trkpt lat="45.4017" lon="6.99206">
        <ele>2589.93</ele>
        <time>2011-06-26T07:48:48Z</time>
      </trkpt>
      <trkpt lat="45.4017" lon="6.99206">
        <ele>1395.01</ele>
        <time>2011-06-26T07:48:50Z</time>
      </trkpt>
      <trkpt lat="45.4017" lon="6.99206">
        <ele>1395.97</ele>
        <time>2011-06-26T07:49:04Z</time>
      </trkpt>
      <trkpt lat="45.4017" lon="6.99206">
        <ele>1396.93</ele>
        <time>2011-06-26T07:49:20Z</time>
      </trkpt>
      <trkpt lat="45.4017" lon="6.99206">
        <ele>1393.57</ele>
        <time>2011-06-26T07:49:29Z</time>
      </trkpt>
      <trkpt lat="45.4017" lon="6.99206">
        <ele>1396.45</ele>
        <time>2011-06-26T07:49:30Z</time>
      </trkpt>
      <trkpt lat="45.4017" lon="6.99206">
        <ele>1394.53</ele>
        <time>2011-06-26T07:49:33Z</time>
      </trkpt>
      <trkpt lat="45.4017" lon="6.99206">
        <ele>1390.68</ele>
        <time>2011-06-26T07:49:44Z</time>
      </trkpt>
      <trkpt lat="45.4017" lon="6.99206">
        <ele>1391.17</ele>
        <time>2011-06-26T07:50:08Z</time>
      </trkpt>
      <trkpt lat="45.53234" lon="6.90969">
        <ele>1398.37</ele>
        <time>2011-06-26T07:50:10Z</time>
      </trkpt>
      <trkpt lat="45.53232" lon="6.90969">
        <ele>1402.7</ele>
        <time>2011-06-26T07:50:11Z</time>
      </trkpt>
      <trkpt lat="45.5323" lon="6.90969">
        <ele>1407.51</ele>
        <time>2011-06-26T07:50:12Z</time>
      </trkpt>
      <trkpt lat="45.53228" lon="6.9097">
        <ele>1411.83</ele>
        <time>2011-06-26T07:50:13Z</time>
      </trkpt>
      <trkpt lat="45.53224" lon="6.90973">
        <ele>1416.64</ele>
        <time>2011-06-26T07:50:15Z</time>
      </trkpt>
      <trkpt lat="45.53222" lon="6.90974">
        <ele>1420.97</ele>
        <time>2011-06-26T07:50:16Z</time>
      </trkpt>
      <trkpt lat="45.53219" lon="6.90975">
        <ele>1427.21</ele>
        <time>2011-06-26T07:50:18Z</time>
      </trkpt>
      <trkpt lat="45.53216" lon="6.90977">
        <ele>1433.94</ele>
        <time>2011-06-26T07:50:20Z</time>
      </trkpt>
      <trkpt lat="45.53214" lon="6.90978">
        <ele>1438.75</ele>
        <time>2011-06-26T07:50:22Z</time>
      </trkpt>
      <trkpt lat="45.53212" lon="6.90978">
        <ele>1444.52</ele>
        <time>2011-06-26T07:50:24Z</time>
      </trkpt>
      <trkpt lat="45.53208" lon="6.90976">
        <ele>1450.77</ele>
        <time>2011-06-26T07:50:27Z</time>
      </trkpt>
      <trkpt lat="45.53206" lon="6.90975">
        <ele>1454.13</ele>
        <time>2011-06-26T07:50:28Z</time>
      </trkpt>
      <trkpt lat="45.53205" lon="6.90973">
        <ele>1455.57</ele>
        <time>2011-06-26T07:50:29Z</time>
      </trkpt>
      <trkpt lat="45.53202" lon="6.90969">
        <ele>1459.42</ele>
        <time>2011-06-26T07:50:31Z</time>
      </trkpt>
      <trkpt lat="45.53197" lon="6.90964">
        <ele>1464.71</ele>
        <time>2011-06-26T07:50:34Z</time>
      </trkpt>
      <trkpt lat="45.53193" lon="6.9096">
        <ele>1467.59</ele>
        <time>2011-06-26T07:50:36Z</time>
      </trkpt>
      <trkpt lat="45.53191" lon="6.90958">
        <ele>1472.4</ele>
        <time>2011-06-26T07:50:39Z</time>
      </trkpt>
      <trkpt lat="45.5319" lon="6.90954">
        <ele>1475.76</ele>
        <time>2011-06-26T07:50:42Z</time>
      </trkpt>
      <trkpt lat="45.53189" lon="6.90952">
        <ele>1476.72</ele>
        <time>2011-06-26T07:50:43Z</time>
      </trkpt>
      <trkpt lat="45.53184" lon="6.90948">
        <ele>1480.09</ele>
        <time>2011-06-26T07:50:46Z</time>
      </trkpt>
      <trkpt lat="45.53182" lon="6.90946">
        <ele>1481.53</ele>
        <time>2011-06-26T07:50:47Z</time>
      </trkpt>
      <trkpt lat="45.53172" lon="6.90939">
        <ele>1485.37</ele>
        <time>2011-06-26T07:50:51Z</time>
      </trkpt>
      <trkpt lat="45.5317" lon="6.90936">
        <ele>1486.34</ele>
        <time>2011-06-26T07:50:52Z</time>
      </trkpt>
      <trkpt lat="45.53164" lon="6.90931">
        <ele>1486.82</ele>
        <time>2011-06-26T07:50:54Z</time>
      </trkpt>
      <trkpt lat="45.53157" lon="6.90924">
        <ele>1487.3</ele>
        <time>2011-06-26T07:50:56Z</time>
      </trkpt>
      <trkpt lat="45.53147" lon="6.90917">
        <ele>1489.22</ele>
        <time>2011-06-26T07:50:59Z</time>
      </trkpt>
      <trkpt lat="45.53134" lon="6.90912">
        <ele>1491.62</ele>
        <time>2011-06-26T07:51:03Z</time>
      </trkpt>
      <trkpt lat="45.53124" lon="6.90908">
        <ele>1492.58</ele>
        <time>2011-06-26T07:51:06Z</time>
      </trkpt>
      <trkpt lat="45.531" lon="6.90877">
        <ele>1494.99</ele>
        <time>2011-06-26T07:51:15Z</time>
      </trkpt>
      <trkpt lat="45.53087" lon="6.90856">
        <ele>1500.27</ele>
        <time>2011-06-26T07:51:23Z</time>
      </trkpt>
      <trkpt lat="45.53086" lon="6.90834">
        <ele>1500.27</ele>
        <time>2011-06-26T07:51:28Z</time>
      </trkpt>
      <trkpt lat="45.53081" lon="6.90803">
        <ele>1500.76</ele>
        <time>2011-06-26T07:51:36Z</time>
      </trkpt>
      <trkpt lat="45.53078" lon="6.90802">
        <ele>1500.76</ele>
        <time>2011-06-26T07:51:37Z</time>
      </trkpt>
      <trkpt lat="45.53042" lon="6.90815">
        <ele>1500.76</ele>
        <time>2011-06-26T07:51:49Z</time>
      </trkpt>
      <trkpt lat="45.53025" lon="6.90808">
        <ele>1501.72</ele>
        <time>2011-06-26T07:51:58Z</time>
      </trkpt>
      <trkpt lat="45.53016" lon="6.90801">
        <ele>1505.08</ele>
        <time>2011-06-26T07:52:03Z</time>
      </trkpt>
      <trkpt lat="45.53" lon="6.90794">
        <ele>1508.93</ele>
        <time>2011-06-26T07:52:14Z</time>
      </trkpt>
      <trkpt lat="45.52992" lon="6.9079">
        <ele>1509.89</ele>
        <time>2011-06-26T07:52:18Z</time>
      </trkpt>
      <trkpt lat="45.52973" lon="6.90787">
        <ele>1512.77</ele>
        <time>2011-06-26T07:52:28Z</time>
      </trkpt>
      <trkpt lat="45.52947" lon="6.90795">
        <ele>1514.21</ele>
        <time>2011-06-26T07:52:39Z</time>
      </trkpt>
      <trkpt lat="45.52927" lon="6.90806">
        <ele>1515.18</ele>
        <time>2011-06-26T07:52:49Z</time>
      </trkpt>
      <trkpt lat="45.52905" lon="6.90815">
        <ele>1519.02</ele>
        <time>2011-06-26T07:53:00Z</time>
      </trkpt>
      <trkpt lat="45.52896" lon="6.90817">
        <ele>1518.06</ele>
        <time>2011-06-26T07:53:06Z</time>
      </trkpt>
      <trkpt lat="45.52874" lon="6.90828">
        <ele>1518.54</ele>
        <time>2011-06-26T07:53:17Z</time>
      </trkpt>
      <trkpt lat="45.52867" lon="6.9085">
        <ele>1517.1</ele>
        <time>2011-06-26T07:53:26Z</time>
      </trkpt>
      <trkpt lat="45.52838" lon="6.90859">
        <ele>1519.98</ele>
        <time>2011-06-26T07:53:37Z</time>
      </trkpt>
      <trkpt lat="45.52813" lon="6.90863">
        <ele>1520.94</ele>
        <time>2011-06-26T07:53:49Z</time>
      </trkpt>
      <trkpt lat="45.52795" lon="6.90872">
        <ele>1521.9</ele>
        <time>2011-06-26T07:53:57Z</time>
      </trkpt>
      <trkpt lat="45.5278" lon="6.90864">
        <ele>1521.9</ele>
        <time>2011-06-26T07:54:07Z</time>
      </trkpt>
      <trkpt lat="45.52773" lon="6.90864">
        <ele>1522.39</ele>
        <time>2011-06-26T07:54:11Z</time>
      </trkpt>
      <trkpt lat="45.5274" lon="6.90879">
        <ele>1524.79</ele>
        <time>2011-06-26T07:54:28Z</time>
      </trkpt>
      <trkpt lat="45.52719" lon="6.90887">
        <ele>1527.67</ele>
        <time>2011-06-26T07:54:38Z</time>
      </trkpt>
      <trkpt lat="45.527" lon="6.90888">
        <ele>1529.11</ele>
        <time>2011-06-26T07:54:47Z</time>
      </trkpt>
      <trkpt lat="45.52683" lon="6.90886">
        <ele>1531.04</ele>
        <time>2011-06-26T07:54:56Z</time>
      </trkpt>
      <trkpt lat="45.52679" lon="6.9088">
        <ele>1531.04</ele>
        <time>2011-06-26T07:55:00Z</time>
      </trkpt>
      <trkpt lat="45.5266" lon="6.90878">
        <ele>1532</ele>
        <time>2011-06-26T07:55:10Z</time>
      </trkpt>
      <trkpt lat="45.52655" lon="6.90879">
        <ele>1534.88</ele>
        <time>2011-06-26T07:55:14Z</time>
      </trkpt>
      <trkpt lat="45.52639" lon="6.90878">
        <ele>1538.25</ele>
        <time>2011-06-26T07:55:27Z</time>
      </trkpt>
      <trkpt lat="45.52621" lon="6.90884">
        <ele>1540.17</ele>
        <time>2011-06-26T07:55:41Z</time>
      </trkpt>
      <trkpt lat="45.52596" lon="6.90887">
        <ele>1542.09</ele>
        <time>2011-06-26T07:55:55Z</time>
      </trkpt>
      <trkpt lat="45.52575" lon="6.90896">
        <ele>1541.61</ele>
        <time>2011-06-26T07:56:07Z</time>
      </trkpt>
      <trkpt lat="45.52556" lon="6.90903">
        <ele>1538.25</ele>
        <time>2011-06-26T07:56:16Z</time>
      </trkpt>
      <trkpt lat="45.52553" lon="6.909">
        <ele>1539.21</ele>
        <time>2011-06-26T07:56:30Z</time>
      </trkpt>
      <trkpt lat="45.52549" lon="6.909">
        <ele>1539.21</ele>
        <time>2011-06-26T07:56:33Z</time>
      </trkpt>
      <trkpt lat="45.52543" lon="6.90899">
        <ele>1540.65</ele>
        <time>2011-06-26T07:56:36Z</time>
      </trkpt>
      <trkpt lat="45.52536" lon="6.90899">
        <ele>1540.65</ele>
        <time>2011-06-26T07:56:40Z</time>
      </trkpt>
      <trkpt lat="45.52512" lon="6.9091">
        <ele>1539.69</ele>
        <time>2011-06-26T07:56:52Z</time>
      </trkpt>
      <trkpt lat="45.52488" lon="6.90923">
        <ele>1539.21</ele>
        <time>2011-06-26T07:57:03Z</time>
      </trkpt>
      <trkpt lat="45.52467" lon="6.90943">
        <ele>1537.29</ele>
        <time>2011-06-26T07:57:13Z</time>
      </trkpt>
      <trkpt lat="45.5244" lon="6.90964">
        <ele>1537.29</ele>
        <time>2011-06-26T07:57:25Z</time>
      </trkpt>
      <trkpt lat="45.52415" lon="6.90978">
        <ele>1534.88</ele>
        <time>2011-06-26T07:57:35Z</time>
      </trkpt>
      <trkpt lat="45.52409" lon="6.90979">
        <ele>1534.4</ele>
        <time>2011-06-26T07:57:37Z</time>
      </trkpt>
      <trkpt lat="45.52388" lon="6.90993">
        <ele>1533.92</ele>
        <time>2011-06-26T07:57:49Z</time>
      </trkpt>
      <trkpt lat="45.52366" lon="6.91014">
        <ele>1534.4</ele>
        <time>2011-06-26T07:58:00Z</time>
      </trkpt>
      <trkpt lat="45.52362" lon="6.91022">
        <ele>1533.92</ele>
        <time>2011-06-26T07:58:03Z</time>
      </trkpt>
      <trkpt lat="45.52344" lon="6.91035">
        <ele>1533.44</ele>
        <time>2011-06-26T07:58:12Z</time>
      </trkpt>
      <trkpt lat="45.52323" lon="6.91051">
        <ele>1533.92</ele>
        <time>2011-06-26T07:58:24Z</time>
      </trkpt>
      <trkpt lat="45.52313" lon="6.91053">
        <ele>1534.4</ele>
        <time>2011-06-26T07:58:29Z</time>
      </trkpt>
      <trkpt lat="45.52307" lon="6.91054">
        <ele>1533.44</ele>
        <time>2011-06-26T07:58:32Z</time>
      </trkpt>
      <trkpt lat="45.52287" lon="6.91066">
        <ele>1534.4</ele>
        <time>2011-06-26T07:58:43Z</time>
      </trkpt>
      <trkpt lat="45.5228" lon="6.9107">
        <ele>1533.44</ele>
        <time>2011-06-26T07:58:47Z</time>
      </trkpt>
      <trkpt lat="45.52263" lon="6.91092">
        <ele>1534.88</ele>
        <time>2011-06-26T07:58:57Z</time>
      </trkpt>
      <trkpt lat="45.52242" lon="6.91108">
        <ele>1535.84</ele>
        <time>2011-06-26T07:59:07Z</time>
      </trkpt>
      <trkpt lat="45.52232" lon="6.91112">
        <ele>1538.25</ele>
        <time>2011-06-26T07:59:14Z</time>
      </trkpt>
      <trkpt lat="45.52224" lon="6.91118">
        <ele>1537.77</ele>
        <time>2011-06-26T07:59:20Z</time>
      </trkpt>
      <trkpt lat="45.52212" lon="6.91131">
        <ele>1538.73</ele>
        <time>2011-06-26T07:59:32Z</time>
      </trkpt>
      <trkpt lat="45.52212" lon="6.91131">
        <ele>1540.17</ele>
        <time>2011-06-26T07:59:35Z</time>
      </trkpt>
      <trkpt lat="45.52201" lon="6.9114">
        <ele>1540.17</ele>
        <time>2011-06-26T07:59:45Z</time>
      </trkpt>
      <trkpt lat="45.5219" lon="6.91148">
        <ele>1543.05</ele>
        <time>2011-06-26T07:59:54Z</time>
      </trkpt>
      <trkpt lat="45.52181" lon="6.91153">
        <ele>1543.05</ele>
        <time>2011-06-26T08:00:01Z</time>
      </trkpt>
      <trkpt lat="45.52173" lon="6.91158">
        <ele>1542.57</ele>
        <time>2011-06-26T08:00:06Z</time>
      </trkpt>
      <trkpt lat="45.52144" lon="6.91176">
        <ele>1541.61</ele>
        <time>2011-06-26T08:00:19Z</time>
      </trkpt>
      <trkpt lat="45.52121" lon="6.9119">
        <ele>1540.17</ele>
        <time>2011-06-26T08:00:29Z</time>
      </trkpt>
      <trkpt lat="45.52093" lon="6.91195">
        <ele>1541.13</ele>
        <time>2011-06-26T08:00:42Z</time>
      </trkpt>
      <trkpt lat="45.5207" lon="6.91203">
        <ele>1538.73</ele>
        <time>2011-06-26T08:00:53Z</time>
      </trkpt>
      <trkpt lat="45.52047" lon="6.91208">
        <ele>1536.8</ele>
        <time>2011-06-26T08:01:03Z</time>
      </trkpt>
      <trkpt lat="45.52034" lon="6.9121">
        <ele>1534.88</ele>
        <time>2011-06-26T08:01:09Z</time>
      </trkpt>
      <trkpt lat="45.52025" lon="6.9121">
        <ele>1533.92</ele>
        <time>2011-06-26T08:01:13Z</time>
      </trkpt>
      <trkpt lat="45.52006" lon="6.91212">
        <ele>1531.04</ele>
        <time>2011-06-26T08:01:20Z</time>
      </trkpt>
      <trkpt lat="45.51993" lon="6.9122">
        <ele>1526.71</ele>
        <time>2011-06-26T08:01:25Z</time>
      </trkpt>
      <trkpt lat="45.51991" lon="6.91222">
        <ele>1526.71</ele>
        <time>2011-06-26T08:01:26Z</time>
      </trkpt>
      <trkpt lat="45.51988" lon="6.91224">
        <ele>1525.27</ele>
        <time>2011-06-26T08:01:28Z</time>
      </trkpt>
      <trkpt lat="45.51986" lon="6.91239">
        <ele>1524.31</ele>
        <time>2011-06-26T08:01:34Z</time>
      </trkpt>
      <trkpt lat="45.51989" lon="6.91246">
        <ele>1525.27</ele>
        <time>2011-06-26T08:01:37Z</time>
      </trkpt>
      <trkpt lat="45.51988" lon="6.91255">
        <ele>1525.75</ele>
        <time>2011-06-26T08:01:41Z</time>
      </trkpt>
      <trkpt lat="45.51981" lon="6.9126">
        <ele>1528.15</ele>
        <time>2011-06-26T08:01:46Z</time>
      </trkpt>
      <trkpt lat="45.51968" lon="6.91275">
        <ele>1528.63</ele>
        <time>2011-06-26T08:01:55Z</time>
      </trkpt>
      <trkpt lat="45.51964" lon="6.91278">
        <ele>1528.63</ele>
        <time>2011-06-26T08:01:57Z</time>
      </trkpt>
      <trkpt lat="45.51959" lon="6.91285">
        <ele>1529.59</ele>
        <time>2011-06-26T08:02:02Z</time>
      </trkpt>
      <trkpt lat="45.51948" lon="6.91293">
        <ele>1529.59</ele>
        <time>2011-06-26T08:02:09Z</time>
      </trkpt>
      <trkpt lat="45.51938" lon="6.9129">
        <ele>1531.04</ele>
        <time>2011-06-26T08:02:17Z</time>
      </trkpt>
      <trkpt lat="45.51936" lon="6.9129">
        <ele>1532.48</ele>
        <time>2011-06-26T08:02:20Z</time>
      </trkpt>
      <trkpt lat="45.51929" lon="6.91296">
        <ele>1533.92</ele>
        <time>2011-06-26T08:02:26Z</time>
      </trkpt>
      <trkpt lat="45.51913" lon="6.913">
        <ele>1533.44</ele>
        <time>2011-06-26T08:02:35Z</time>
      </trkpt>
      <trkpt lat="45.51911" lon="6.913">
        <ele>1532.96</ele>
        <time>2011-06-26T08:02:36Z</time>
      </trkpt>
      <trkpt lat="45.519" lon="6.91307">
        <ele>1532.48</ele>
        <time>2011-06-26T08:02:42Z</time>
      </trkpt>
      <trkpt lat="45.5188" lon="6.91317">
        <ele>1533.44</ele>
        <time>2011-06-26T08:02:53Z</time>
      </trkpt>
      <trkpt lat="45.51874" lon="6.91319">
        <ele>1533.92</ele>
        <time>2011-06-26T08:02:56Z</time>
      </trkpt>
      <trkpt lat="45.51855" lon="6.91328">
        <ele>1532</ele>
        <time>2011-06-26T08:03:06Z</time>
      </trkpt>
      <trkpt lat="45.51853" lon="6.91327">
        <ele>1530.56</ele>
        <time>2011-06-26T08:03:07Z</time>
      </trkpt>
      <trkpt lat="45.5184" lon="6.91317">
        <ele>1531.04</ele>
        <time>2011-06-26T08:03:16Z</time>
      </trkpt>
      <trkpt lat="45.51837" lon="6.91316">
        <ele>1530.56</ele>
        <time>2011-06-26T08:03:18Z</time>
      </trkpt>
      <trkpt lat="45.51827" lon="6.91313">
        <ele>1532</ele>
        <time>2011-06-26T08:03:26Z</time>
      </trkpt>
      <trkpt lat="45.51826" lon="6.91315">
        <ele>1532</ele>
        <time>2011-06-26T08:03:30Z</time>
      </trkpt>
      <trkpt lat="45.51825" lon="6.91316">
        <ele>1533.44</ele>
        <time>2011-06-26T08:03:32Z</time>
      </trkpt>
      <trkpt lat="45.51816" lon="6.9132">
        <ele>1533.92</ele>
        <time>2011-06-26T08:03:39Z</time>
      </trkpt>
      <trkpt lat="45.51813" lon="6.91321">
        <ele>1534.4</ele>
        <time>2011-06-26T08:03:41Z</time>
      </trkpt>
      <trkpt lat="45.51808" lon="6.91324">
        <ele>1535.36</ele>
        <time>2011-06-26T08:03:47Z</time>
      </trkpt>
      <trkpt lat="45.51792" lon="6.91327">
        <ele>1535.36</ele>
        <time>2011-06-26T08:03:58Z</time>
      </trkpt>
      <trkpt lat="45.51789" lon="6.91328">
        <ele>1532.96</ele>
        <time>2011-06-26T08:04:00Z</time>
      </trkpt>
      <trkpt lat="45.51785" lon="6.9133">
        <ele>1533.92</ele>
        <time>2011-06-26T08:04:02Z</time>
      </trkpt>
      <trkpt lat="45.51783" lon="6.91331">
        <ele>1538.25</ele>
        <time>2011-06-26T08:04:03Z</time>
      </trkpt>
      <trkpt lat="45.51781" lon="6.91332">
        <ele>1536.8</ele>
        <time>2011-06-26T08:04:04Z</time>
      </trkpt>
      <trkpt lat="45.51778" lon="6.91334">
        <ele>1535.84</ele>
        <time>2011-06-26T08:04:06Z</time>
      </trkpt>
      <trkpt lat="45.51777" lon="6.91335">
        <ele>1538.73</ele>
        <time>2011-06-26T08:04:07Z</time>
      </trkpt>
      <trkpt lat="45.51776" lon="6.91336">
        <ele>1535.36</ele>
        <time>2011-06-26T08:04:08Z</time>
      </trkpt>
      <trkpt lat="45.51775" lon="6.91337">
        <ele>1540.17</ele>
        <time>2011-06-26T08:04:09Z</time>
      </trkpt>
      <trkpt lat="45.51774" lon="6.91338">
        <ele>1535.84</ele>
        <time>2011-06-26T08:04:11Z</time>
      </trkpt>
      <trkpt lat="45.51773" lon="6.91338">
        <ele>1539.21</ele>
        <time>2011-06-26T08:04:12Z</time>
      </trkpt>
      <trkpt lat="45.51772" lon="6.9134">
        <ele>1537.77</ele>
        <time>2011-06-26T08:04:17Z</time>
      </trkpt>
      <trkpt lat="45.51771" lon="6.91341">
        <ele>1542.57</ele>
        <time>2011-06-26T08:04:22Z</time>
      </trkpt>
      <trkpt lat="45.5177" lon="6.91341">
        <ele>1541.61</ele>
        <time>2011-06-26T08:04:23Z</time>
      </trkpt>
      <trkpt lat="45.51769" lon="6.91343">
        <ele>1543.05</ele>
        <time>2011-06-26T08:04:26Z</time>
      </trkpt>
      <trkpt lat="45.51767" lon="6.91348">
        <ele>1544.01</ele>
        <time>2011-06-26T08:04:30Z</time>
      </trkpt>
      <trkpt lat="45.51763" lon="6.91358">
        <ele>1542.09</ele>
        <time>2011-06-26T08:04:41Z</time>
      </trkpt>
      <trkpt lat="45.51763" lon="6.91358">
        <ele>1546.42</ele>
        <time>2011-06-26T08:04:42Z</time>
      </trkpt>
      <trkpt lat="45.51761" lon="6.91358">
        <ele>1542.09</ele>
        <time>2011-06-26T08:04:44Z</time>
      </trkpt>
      <trkpt lat="45.5176" lon="6.91358">
        <ele>1544.5</ele>
        <time>2011-06-26T08:04:45Z</time>
      </trkpt>
      <trkpt lat="45.51753" lon="6.91361">
        <ele>1540.17</ele>
        <time>2011-06-26T08:04:49Z</time>
      </trkpt>
      <trkpt lat="45.51752" lon="6.91361">
        <ele>1543.53</ele>
        <time>2011-06-26T08:04:50Z</time>
      </trkpt>
      <trkpt lat="45.5175" lon="6.91362">
        <ele>1542.57</ele>
        <time>2011-06-26T08:04:51Z</time>
      </trkpt>
      <trkpt lat="45.51746" lon="6.91364">
        <ele>1544.5</ele>
        <time>2011-06-26T08:04:53Z</time>
      </trkpt>
      <trkpt lat="45.51743" lon="6.91365">
        <ele>1544.5</ele>
        <time>2011-06-26T08:04:54Z</time>
      </trkpt>
      <trkpt lat="45.51738" lon="6.91365">
        <ele>1544.98</ele>
        <time>2011-06-26T08:04:56Z</time>
      </trkpt>
      <trkpt lat="45.51728" lon="6.91364">
        <ele>1540.65</ele>
        <time>2011-06-26T08:05:00Z</time>
      </trkpt>
      <trkpt lat="45.51726" lon="6.91363">
        <ele>1544.01</ele>
        <time>2011-06-26T08:05:01Z</time>
      </trkpt>
      <trkpt lat="45.51723" lon="6.91363">
        <ele>1540.17</ele>
        <time>2011-06-26T08:05:02Z</time>
      </trkpt>
      <trkpt lat="45.51719" lon="6.91364">
        <ele>1542.09</ele>
        <time>2011-06-26T08:05:04Z</time>
      </trkpt>
      <trkpt lat="45.51716" lon="6.91366">
        <ele>1545.46</ele>
        <time>2011-06-26T08:05:06Z</time>
      </trkpt>
      <trkpt lat="45.51713" lon="6.91367">
        <ele>1542.09</ele>
        <time>2011-06-26T08:05:08Z</time>
      </trkpt>
      <trkpt lat="45.51706" lon="6.91369">
        <ele>1537.77</ele>
        <time>2011-06-26T08:05:11Z</time>
      </trkpt>
      <trkpt lat="45.51704" lon="6.9137">
        <ele>1543.53</ele>
        <time>2011-06-26T08:05:12Z</time>
      </trkpt>
      <trkpt lat="45.51699" lon="6.91373">
        <ele>1541.13</ele>
        <time>2011-06-26T08:05:14Z</time>
      </trkpt>
      <trkpt lat="45.51686" lon="6.91376">
        <ele>1541.61</ele>
        <time>2011-06-26T08:05:20Z</time>
      </trkpt>
      <trkpt lat="45.51678" lon="6.91379">
        <ele>1540.17</ele>
        <time>2011-06-26T08:05:23Z</time>
      </trkpt>
      <trkpt lat="45.51675" lon="6.9138">
        <ele>1541.61</ele>
        <time>2011-06-26T08:05:24Z</time>
      </trkpt>
      <trkpt lat="45.51666" lon="6.91386">
        <ele>1538.25</ele>
        <time>2011-06-26T08:05:31Z</time>
      </trkpt>
      <trkpt lat="45.51652" lon="6.91394">
        <ele>1542.57</ele>
        <time>2011-06-26T08:05:36Z</time>
      </trkpt>
      <trkpt lat="45.51649" lon="6.91395">
        <ele>1538.73</ele>
        <time>2011-06-26T08:05:37Z</time>
      </trkpt>
      <trkpt lat="45.51644" lon="6.91398">
        <ele>1543.05</ele>
        <time>2011-06-26T08:05:39Z</time>
      </trkpt>
      <trkpt lat="45.51641" lon="6.91399">
        <ele>1542.09</ele>
        <time>2011-06-26T08:05:40Z</time>
      </trkpt>
      <trkpt lat="45.5163" lon="6.91404">
        <ele>1544.98</ele>
        <time>2011-06-26T08:05:45Z</time>
      </trkpt>
      <trkpt lat="45.51617" lon="6.91419">
        <ele>1544.98</ele>
        <time>2011-06-26T08:05:52Z</time>
      </trkpt>
      <trkpt lat="45.51614" lon="6.91424">
        <ele>1539.69</ele>
        <time>2011-06-26T08:05:54Z</time>
      </trkpt>
      <trkpt lat="45.51612" lon="6.9143">
        <ele>1544.98</ele>
        <time>2011-06-26T08:05:56Z</time>
      </trkpt>
      <trkpt lat="45.51609" lon="6.91433">
        <ele>1545.94</ele>
        <time>2011-06-26T08:05:58Z</time>
      </trkpt>
      <trkpt lat="45.51603" lon="6.91434">
        <ele>1547.86</ele>
        <time>2011-06-26T08:06:02Z</time>
      </trkpt>
      <trkpt lat="45.51601" lon="6.91432">
        <ele>1542.09</ele>
        <time>2011-06-26T08:06:04Z</time>
      </trkpt>
      <trkpt lat="45.51601" lon="6.91431">
        <ele>1547.38</ele>
        <time>2011-06-26T08:06:05Z</time>
      </trkpt>
      <trkpt lat="45.516" lon="6.91431">
        <ele>1543.05</ele>
        <time>2011-06-26T08:06:06Z</time>
      </trkpt>
      <trkpt lat="45.51599" lon="6.91432">
        <ele>1546.42</ele>
        <time>2011-06-26T08:06:08Z</time>
      </trkpt>
      <trkpt lat="45.51597" lon="6.91436">
        <ele>1549.78</ele>
        <time>2011-06-26T08:06:12Z</time>
      </trkpt>
      <trkpt lat="45.51596" lon="6.91438">
        <ele>1545.94</ele>
        <time>2011-06-26T08:06:13Z</time>
      </trkpt>
      <trkpt lat="45.51593" lon="6.91444">
        <ele>1551.22</ele>
        <time>2011-06-26T08:06:16Z</time>
      </trkpt>
      <trkpt lat="45.51591" lon="6.91447">
        <ele>1550.26</ele>
        <time>2011-06-26T08:06:18Z</time>
      </trkpt>
      <trkpt lat="45.5159" lon="6.91447">
        <ele>1546.42</ele>
        <time>2011-06-26T08:06:19Z</time>
      </trkpt>
      <trkpt lat="45.51582" lon="6.91451">
        <ele>1554.59</ele>
        <time>2011-06-26T08:06:25Z</time>
      </trkpt>
      <trkpt lat="45.51575" lon="6.91459">
        <ele>1553.15</ele>
        <time>2011-06-26T08:06:31Z</time>
      </trkpt>
      <trkpt lat="45.51574" lon="6.9146">
        <ele>1551.22</ele>
        <time>2011-06-26T08:06:32Z</time>
      </trkpt>
      <trkpt lat="45.51563" lon="6.91471">
        <ele>1549.3</ele>
        <time>2011-06-26T08:06:41Z</time>
      </trkpt>
      <trkpt lat="45.51557" lon="6.91477">
        <ele>1551.71</ele>
        <time>2011-06-26T08:06:45Z</time>
      </trkpt>
      <trkpt lat="45.51554" lon="6.91482">
        <ele>1554.11</ele>
        <time>2011-06-26T08:06:47Z</time>
      </trkpt>
      <trkpt lat="45.51552" lon="6.91485">
        <ele>1549.3</ele>
        <time>2011-06-26T08:06:48Z</time>
      </trkpt>
      <trkpt lat="45.51551" lon="6.91487">
        <ele>1550.74</ele>
        <time>2011-06-26T08:06:49Z</time>
      </trkpt>
      <trkpt lat="45.51546" lon="6.91493">
        <ele>1553.63</ele>
        <time>2011-06-26T08:06:51Z</time>
      </trkpt>
      <trkpt lat="45.51544" lon="6.91496">
        <ele>1548.82</ele>
        <time>2011-06-26T08:06:52Z</time>
      </trkpt>
      <trkpt lat="45.5153" lon="6.91506">
        <ele>1551.71</ele>
        <time>2011-06-26T08:06:58Z</time>
      </trkpt>
      <trkpt lat="45.51527" lon="6.91506">
        <ele>1548.82</ele>
        <time>2011-06-26T08:06:59Z</time>
      </trkpt>
      <trkpt lat="45.51521" lon="6.91505">
        <ele>1553.63</ele>
        <time>2011-06-26T08:07:02Z</time>
      </trkpt>
      <trkpt lat="45.51519" lon="6.91504">
        <ele>1548.34</ele>
        <time>2011-06-26T08:07:03Z</time>
      </trkpt>
      <trkpt lat="45.51515" lon="6.91502">
        <ele>1551.71</ele>
        <time>2011-06-26T08:07:05Z</time>
      </trkpt>
      <trkpt lat="45.51501" lon="6.91493">
        <ele>1546.9</ele>
        <time>2011-06-26T08:07:12Z</time>
      </trkpt>
      <trkpt lat="45.51499" lon="6.91491">
        <ele>1553.15</ele>
        <time>2011-06-26T08:07:13Z</time>
      </trkpt>
      <trkpt lat="45.51496" lon="6.91484">
        <ele>1548.82</ele>
        <time>2011-06-26T08:07:16Z</time>
      </trkpt>
      <trkpt lat="45.51497" lon="6.91477">
        <ele>1549.3</ele>
        <time>2011-06-26T08:07:18Z</time>
      </trkpt>
      <trkpt lat="45.51497" lon="6.91474">
        <ele>1544.5</ele>
        <time>2011-06-26T08:07:19Z</time>
      </trkpt>
      <trkpt lat="45.51499" lon="6.91467">
        <ele>1545.46</ele>
        <time>2011-06-26T08:07:21Z</time>
      </trkpt>
      <trkpt lat="45.515" lon="6.91464">
        <ele>1548.82</ele>
        <time>2011-06-26T08:07:22Z</time>
      </trkpt>
      <trkpt lat="45.51501" lon="6.91458">
        <ele>1551.22</ele>
        <time>2011-06-26T08:07:24Z</time>
      </trkpt>
      <trkpt lat="45.51501" lon="6.91456">
        <ele>1548.82</ele>
        <time>2011-06-26T08:07:25Z</time>
      </trkpt>
      <trkpt lat="45.51492" lon="6.91448">
        <ele>1548.82</ele>
        <time>2011-06-26T08:07:29Z</time>
      </trkpt>
      <trkpt lat="45.5148" lon="6.91445">
        <ele>1552.19</ele>
        <time>2011-06-26T08:07:33Z</time>
      </trkpt>
      <trkpt lat="45.51477" lon="6.91444">
        <ele>1550.26</ele>
        <time>2011-06-26T08:07:34Z</time>
      </trkpt>
      <trkpt lat="45.51474" lon="6.91444">
        <ele>1545.94</ele>
        <time>2011-06-26T08:07:35Z</time>
      </trkpt>
      <trkpt lat="45.51472" lon="6.91444">
        <ele>1550.26</ele>
        <time>2011-06-26T08:07:36Z</time>
      </trkpt>
      <trkpt lat="45.51464" lon="6.91444">
        <ele>1552.19</ele>
        <time>2011-06-26T08:07:39Z</time>
      </trkpt>
      <trkpt lat="45.51461" lon="6.91444">
        <ele>1546.9</ele>
        <time>2011-06-26T08:07:40Z</time>
      </trkpt>
      <trkpt lat="45.51458" lon="6.91445">
        <ele>1550.26</ele>
        <time>2011-06-26T08:07:41Z</time>
      </trkpt>
      <trkpt lat="45.51445" lon="6.91444">
        <ele>1548.82</ele>
        <time>2011-06-26T08:07:46Z</time>
      </trkpt>
      <trkpt lat="45.5142" lon="6.91453">
        <ele>1555.07</ele>
        <time>2011-06-26T08:07:56Z</time>
      </trkpt>
      <trkpt lat="45.51418" lon="6.91454">
        <ele>1546.9</ele>
        <time>2011-06-26T08:07:57Z</time>
      </trkpt>
      <trkpt lat="45.51416" lon="6.91455">
        <ele>1551.22</ele>
        <time>2011-06-26T08:07:58Z</time>
      </trkpt>
      <trkpt lat="45.51395" lon="6.91461">
        <ele>1552.67</ele>
        <time>2011-06-26T08:08:06Z</time>
      </trkpt>
      <trkpt lat="45.51389" lon="6.91462">
        <ele>1551.22</ele>
        <time>2011-06-26T08:08:08Z</time>
      </trkpt>
      <trkpt lat="45.51365" lon="6.91466">
        <ele>1551.71</ele>
        <time>2011-06-26T08:08:18Z</time>
      </trkpt>
      <trkpt lat="45.51357" lon="6.91467">
        <ele>1548.34</ele>
        <time>2011-06-26T08:08:22Z</time>
      </trkpt>
      <trkpt lat="45.51355" lon="6.91466">
        <ele>1551.22</ele>
        <time>2011-06-26T08:08:23Z</time>
      </trkpt>
      <trkpt lat="45.51333" lon="6.9147">
        <ele>1550.74</ele>
        <time>2011-06-26T08:08:33Z</time>
      </trkpt>
      <trkpt lat="45.51309" lon="6.91476">
        <ele>1547.86</ele>
        <time>2011-06-26T08:08:44Z</time>
      </trkpt>
      <trkpt lat="45.51304" lon="6.91477">
        <ele>1552.19</ele>
        <time>2011-06-26T08:08:46Z</time>
      </trkpt>
      <trkpt lat="45.51296" lon="6.91477">
        <ele>1550.26</ele>
        <time>2011-06-26T08:08:50Z</time>
      </trkpt>
      <trkpt lat="45.51289" lon="6.91477">
        <ele>1550.26</ele>
        <time>2011-06-26T08:08:53Z</time>
      </trkpt>
      <trkpt lat="45.51279" lon="6.91479">
        <ele>1551.71</ele>
        <time>2011-06-26T08:08:58Z</time>
      </trkpt>
      <trkpt lat="45.51274" lon="6.91481">
        <ele>1550.26</ele>
        <time>2011-06-26T08:09:00Z</time>
      </trkpt>
      <trkpt lat="45.51265" lon="6.91487">
        <ele>1547.86</ele>
        <time>2011-06-26T08:09:05Z</time>
      </trkpt>
      <trkpt lat="45.51262" lon="6.9149">
        <ele>1546.9</ele>
        <time>2011-06-26T08:09:07Z</time>
      </trkpt>
      <trkpt lat="45.51258" lon="6.91493">
        <ele>1547.86</ele>
        <time>2011-06-26T08:09:10Z</time>
      </trkpt>
      <trkpt lat="45.51254" lon="6.91495">
        <ele>1547.38</ele>
        <time>2011-06-26T08:09:12Z</time>
      </trkpt>
      <trkpt lat="45.51252" lon="6.91497">
        <ele>1550.26</ele>
        <time>2011-06-26T08:09:13Z</time>
      </trkpt>
      <trkpt lat="45.51243" lon="6.91507">
        <ele>1553.63</ele>
        <time>2011-06-26T08:09:18Z</time>
      </trkpt>
      <trkpt lat="45.51237" lon="6.91513">
        <ele>1549.3</ele>
        <time>2011-06-26T08:09:21Z</time>
      </trkpt>
      <trkpt lat="45.5123" lon="6.91517">
        <ele>1544.5</ele>
        <time>2011-06-26T08:09:25Z</time>
      </trkpt>
      <trkpt lat="45.51227" lon="6.91518">
        <ele>1552.67</ele>
        <time>2011-06-26T08:09:26Z</time>
      </trkpt>
      <trkpt lat="45.51225" lon="6.9152">
        <ele>1552.67</ele>
        <time>2011-06-26T08:09:27Z</time>
      </trkpt>
      <trkpt lat="45.51219" lon="6.91525">
        <ele>1549.78</ele>
        <time>2011-06-26T08:09:30Z</time>
      </trkpt>
      <trkpt lat="45.51203" lon="6.91534">
        <ele>1553.15</ele>
        <time>2011-06-26T08:09:37Z</time>
      </trkpt>
      <trkpt lat="45.51194" lon="6.91538">
        <ele>1548.82</ele>
        <time>2011-06-26T08:09:41Z</time>
      </trkpt>
      <trkpt lat="45.51192" lon="6.91539">
        <ele>1550.74</ele>
        <time>2011-06-26T08:09:42Z</time>
      </trkpt>
      <trkpt lat="45.51188" lon="6.91541">
        <ele>1552.67</ele>
        <time>2011-06-26T08:09:44Z</time>
      </trkpt>
      <trkpt lat="45.5118" lon="6.91547">
        <ele>1551.71</ele>
        <time>2011-06-26T08:09:48Z</time>
      </trkpt>
      <trkpt lat="45.5117" lon="6.91555">
        <ele>1547.86</ele>
        <time>2011-06-26T08:09:53Z</time>
      </trkpt>
      <trkpt lat="45.51168" lon="6.91556">
        <ele>1554.11</ele>
        <time>2011-06-26T08:09:54Z</time>
      </trkpt>
      <trkpt lat="45.51164" lon="6.91558">
        <ele>1546.9</ele>
        <time>2011-06-26T08:09:56Z</time>
      </trkpt>
      <trkpt lat="45.51162" lon="6.91559">
        <ele>1548.34</ele>
        <time>2011-06-26T08:09:57Z</time>
      </trkpt>
      <trkpt lat="45.5116" lon="6.91561">
        <ele>1551.71</ele>
        <time>2011-06-26T08:09:58Z</time>
      </trkpt>
      <trkpt lat="45.51151" lon="6.91566">
        <ele>1553.63</ele>
        <time>2011-06-26T08:10:03Z</time>
      </trkpt>
      <trkpt lat="45.51147" lon="6.91569">
        <ele>1546.42</ele>
        <time>2011-06-26T08:10:05Z</time>
      </trkpt>
      <trkpt lat="45.51145" lon="6.9157">
        <ele>1550.74</ele>
        <time>2011-06-26T08:10:06Z</time>
      </trkpt>
      <trkpt lat="45.51127" lon="6.91583">
        <ele>1550.26</ele>
        <time>2011-06-26T08:10:14Z</time>
      </trkpt>
      <trkpt lat="45.51125" lon="6.91584">
        <ele>1554.59</ele>
        <time>2011-06-26T08:10:15Z</time>
      </trkpt>
      <trkpt lat="45.51123" lon="6.91585">
        <ele>1550.74</ele>
        <time>2011-06-26T08:10:16Z</time>
      </trkpt>
      <trkpt lat="45.51119" lon="6.91586">
        <ele>1549.3</ele>
        <time>2011-06-26T08:10:18Z</time>
      </trkpt>
      <trkpt lat="45.51104" lon="6.91589">
        <ele>1554.59</ele>
        <time>2011-06-26T08:10:24Z</time>
      </trkpt>
      <trkpt lat="45.51102" lon="6.9159">
        <ele>1554.11</ele>
        <time>2011-06-26T08:10:25Z</time>
      </trkpt>
      <trkpt lat="45.51091" lon="6.91596">
        <ele>1550.74</ele>
        <time>2011-06-26T08:10:30Z</time>
      </trkpt>
      <trkpt lat="45.51088" lon="6.91599">
        <ele>1548.82</ele>
        <time>2011-06-26T08:10:32Z</time>
      </trkpt>
      <trkpt lat="45.51085" lon="6.91603">
        <ele>1549.78</ele>
        <time>2011-06-26T08:10:34Z</time>
      </trkpt>
      <trkpt lat="45.51081" lon="6.9161">
        <ele>1544.5</ele>
        <time>2011-06-26T08:10:37Z</time>
      </trkpt>
      <trkpt lat="45.51079" lon="6.91612">
        <ele>1549.78</ele>
        <time>2011-06-26T08:10:38Z</time>
      </trkpt>
      <trkpt lat="45.51076" lon="6.91617">
        <ele>1552.67</ele>
        <time>2011-06-26T08:10:40Z</time>
      </trkpt>
      <trkpt lat="45.51067" lon="6.91626">
        <ele>1549.3</ele>
        <time>2011-06-26T08:10:44Z</time>
      </trkpt>
      <trkpt lat="45.51061" lon="6.91631">
        <ele>1553.63</ele>
        <time>2011-06-26T08:10:47Z</time>
      </trkpt>
      <trkpt lat="45.51059" lon="6.91632">
        <ele>1546.42</ele>
        <time>2011-06-26T08:10:48Z</time>
      </trkpt>
      <trkpt lat="45.51056" lon="6.91633">
        <ele>1553.15</ele>
        <time>2011-06-26T08:10:49Z</time>
      </trkpt>
      <trkpt lat="45.51052" lon="6.91634">
        <ele>1547.86</ele>
        <time>2011-06-26T08:10:51Z</time>
      </trkpt>
      <trkpt lat="45.51051" lon="6.91634">
        <ele>1555.55</ele>
        <time>2011-06-26T08:10:52Z</time>
      </trkpt>
      <trkpt lat="45.51048" lon="6.91635">
        <ele>1550.26</ele>
        <time>2011-06-26T08:10:53Z</time>
      </trkpt>
      <trkpt lat="45.51044" lon="6.91635">
        <ele>1549.78</ele>
        <time>2011-06-26T08:10:55Z</time>
      </trkpt>
      <trkpt lat="45.5104" lon="6.91635">
        <ele>1546.42</ele>
        <time>2011-06-26T08:10:57Z</time>
      </trkpt>
      <trkpt lat="45.51038" lon="6.91635">
        <ele>1546.42</ele>
        <time>2011-06-26T08:10:58Z</time>
      </trkpt>
      <trkpt lat="45.51035" lon="6.91635">
        <ele>1553.63</ele>
        <time>2011-06-26T08:10:59Z</time>
      </trkpt>
      <trkpt lat="45.51033" lon="6.91635">
        <ele>1547.38</ele>
        <time>2011-06-26T08:11:00Z</time>
      </trkpt>
      <trkpt lat="45.51031" lon="6.91635">
        <ele>1551.71</ele>
        <time>2011-06-26T08:11:01Z</time>
      </trkpt>
      <trkpt lat="45.51027" lon="6.91635">
        <ele>1547.86</ele>
        <time>2011-06-26T08:11:03Z</time>
      </trkpt>
      <trkpt lat="45.51025" lon="6.91636">
        <ele>1548.34</ele>
        <time>2011-06-26T08:11:04Z</time>
      </trkpt>
      <trkpt lat="45.51023" lon="6.91636">
        <ele>1552.67</ele>
        <time>2011-06-26T08:11:05Z</time>
      </trkpt>
      <trkpt lat="45.51021" lon="6.91636">
        <ele>1551.71</ele>
        <time>2011-06-26T08:11:06Z</time>
      </trkpt>
      <trkpt lat="45.51015" lon="6.91639">
        <ele>1548.34</ele>
        <time>2011-06-26T08:11:09Z</time>
      </trkpt>
      <trkpt lat="45.51013" lon="6.91639">
        <ele>1554.11</ele>
        <time>2011-06-26T08:11:10Z</time>
      </trkpt>
      <trkpt lat="45.51008" lon="6.9164">
        <ele>1548.82</ele>
        <time>2011-06-26T08:11:12Z</time>
      </trkpt>
      <trkpt lat="45.51006" lon="6.9164">
        <ele>1552.67</ele>
        <time>2011-06-26T08:11:13Z</time>
      </trkpt>
      <trkpt lat="45.51001" lon="6.9164">
        <ele>1548.82</ele>
        <time>2011-06-26T08:11:15Z</time>
      </trkpt>
      <trkpt lat="45.50999" lon="6.9164">
        <ele>1550.26</ele>
        <time>2011-06-26T08:11:16Z</time>
      </trkpt>
      <trkpt lat="45.50992" lon="6.91638">
        <ele>1546.42</ele>
        <time>2011-06-26T08:11:19Z</time>
      </trkpt>
      <trkpt lat="45.50988" lon="6.91636">
        <ele>1550.74</ele>
        <time>2011-06-26T08:11:21Z</time>
      </trkpt>
      <trkpt lat="45.50978" lon="6.91634">
        <ele>1554.11</ele>
        <time>2011-06-26T08:11:25Z</time>
      </trkpt>
      <trkpt lat="45.50976" lon="6.91634">
        <ele>1554.11</ele>
        <time>2011-06-26T08:11:26Z</time>
      </trkpt>
      <trkpt lat="45.50973" lon="6.91634">
        <ele>1549.3</ele>
        <time>2011-06-26T08:11:27Z</time>
      </trkpt>
      <trkpt lat="45.50971" lon="6.91634">
        <ele>1552.67</ele>
        <time>2011-06-26T08:11:28Z</time>
      </trkpt>
      <trkpt lat="45.50967" lon="6.91634">
        <ele>1549.78</ele>
        <time>2011-06-26T08:11:30Z</time>
      </trkpt>
      <trkpt lat="45.50955" lon="6.91637">
        <ele>1553.15</ele>
        <time>2011-06-26T08:11:35Z</time>
      </trkpt>
      <trkpt lat="45.50946" lon="6.9164">
        <ele>1545.46</ele>
        <time>2011-06-26T08:11:39Z</time>
      </trkpt>
      <trkpt lat="45.50943" lon="6.91641">
        <ele>1547.86</ele>
        <time>2011-06-26T08:11:40Z</time>
      </trkpt>
      <trkpt lat="45.50941" lon="6.91643">
        <ele>1544.5</ele>
        <time>2011-06-26T08:11:41Z</time>
      </trkpt>
      <trkpt lat="45.50939" lon="6.91644">
        <ele>1550.74</ele>
        <time>2011-06-26T08:11:42Z</time>
      </trkpt>
      <trkpt lat="45.5093" lon="6.91647">
        <ele>1546.42</ele>
        <time>2011-06-26T08:11:46Z</time>
      </trkpt>
      <trkpt lat="45.50928" lon="6.91648">
        <ele>1547.86</ele>
        <time>2011-06-26T08:11:47Z</time>
      </trkpt>
      <trkpt lat="45.50925" lon="6.9165">
        <ele>1553.15</ele>
        <time>2011-06-26T08:11:49Z</time>
      </trkpt>
      <trkpt lat="45.50923" lon="6.91651">
        <ele>1544.5</ele>
        <time>2011-06-26T08:11:50Z</time>
      </trkpt>
      <trkpt lat="45.50921" lon="6.91653">
        <ele>1550.74</ele>
        <time>2011-06-26T08:11:51Z</time>
      </trkpt>
      <trkpt lat="45.50919" lon="6.91654">
        <ele>1544.98</ele>
        <time>2011-06-26T08:11:52Z</time>
      </trkpt>
      <trkpt lat="45.50917" lon="6.91656">
        <ele>1548.34</ele>
        <time>2011-06-26T08:11:53Z</time>
      </trkpt>
      <trkpt lat="45.50915" lon="6.91657">
        <ele>1551.71</ele>
        <time>2011-06-26T08:11:54Z</time>
      </trkpt>
      <trkpt lat="45.50913" lon="6.91659">
        <ele>1547.38</ele>
        <time>2011-06-26T08:11:55Z</time>
      </trkpt>
      <trkpt lat="45.50909" lon="6.91662">
        <ele>1554.11</ele>
        <time>2011-06-26T08:11:57Z</time>
      </trkpt>
      <trkpt lat="45.50907" lon="6.91664">
        <ele>1549.3</ele>
        <time>2011-06-26T08:11:58Z</time>
      </trkpt>
      <trkpt lat="45.50905" lon="6.91666">
        <ele>1552.67</ele>
        <time>2011-06-26T08:11:59Z</time>
      </trkpt>
      <trkpt lat="45.50903" lon="6.91667">
        <ele>1547.86</ele>
        <time>2011-06-26T08:12:00Z</time>
      </trkpt>
      <trkpt lat="45.50896" lon="6.91671">
        <ele>1552.19</ele>
        <time>2011-06-26T08:12:04Z</time>
      </trkpt>
      <trkpt lat="45.50888" lon="6.91678">
        <ele>1546.9</ele>
        <time>2011-06-26T08:12:08Z</time>
      </trkpt>
      <trkpt lat="45.50886" lon="6.9168">
        <ele>1552.19</ele>
        <time>2011-06-26T08:12:09Z</time>
      </trkpt>
      <trkpt lat="45.5087" lon="6.91694">
        <ele>1547.38</ele>
        <time>2011-06-26T08:12:18Z</time>
      </trkpt>
      <trkpt lat="45.50867" lon="6.91696">
        <ele>1549.3</ele>
        <time>2011-06-26T08:12:19Z</time>
      </trkpt>
      <trkpt lat="45.50856" lon="6.91705">
        <ele>1556.51</ele>
        <time>2011-06-26T08:12:24Z</time>
      </trkpt>
      <trkpt lat="45.50853" lon="6.91707">
        <ele>1547.38</ele>
        <time>2011-06-26T08:12:25Z</time>
      </trkpt>
      <trkpt lat="45.50841" lon="6.91711">
        <ele>1550.26</ele>
        <time>2011-06-26T08:12:30Z</time>
      </trkpt>
      <trkpt lat="45.50839" lon="6.91712">
        <ele>1556.03</ele>
        <time>2011-06-26T08:12:31Z</time>
      </trkpt>
      <trkpt lat="45.50836" lon="6.91713">
        <ele>1551.71</ele>
        <time>2011-06-26T08:12:32Z</time>
      </trkpt>
      <trkpt lat="45.50824" lon="6.91721">
        <ele>1549.3</ele>
        <time>2011-06-26T08:12:38Z</time>
      </trkpt>
      <trkpt lat="45.50813" lon="6.91734">
        <ele>1553.15</ele>
        <time>2011-06-26T08:12:44Z</time>
      </trkpt>
      <trkpt lat="45.50811" lon="6.91736">
        <ele>1553.15</ele>
        <time>2011-06-26T08:12:45Z</time>
      </trkpt>
      <trkpt lat="45.50809" lon="6.91741">
        <ele>1548.82</ele>
        <time>2011-06-26T08:12:47Z</time>
      </trkpt>
      <trkpt lat="45.50808" lon="6.91743">
        <ele>1549.78</ele>
        <time>2011-06-26T08:12:48Z</time>
      </trkpt>
      <trkpt lat="45.50807" lon="6.91751">
        <ele>1554.11</ele>
        <time>2011-06-26T08:12:51Z</time>
      </trkpt>
      <trkpt lat="45.50807" lon="6.91753">
        <ele>1550.74</ele>
        <time>2011-06-26T08:12:52Z</time>
      </trkpt>
      <trkpt lat="45.50805" lon="6.91776">
        <ele>1551.22</ele>
        <time>2011-06-26T08:12:59Z</time>
      </trkpt>
      <trkpt lat="45.50804" lon="6.9178">
        <ele>1560.84</ele>
        <time>2011-06-26T08:13:00Z</time>
      </trkpt>
      <trkpt lat="45.50803" lon="6.91783">
        <ele>1554.11</ele>
        <time>2011-06-26T08:13:01Z</time>
      </trkpt>
      <trkpt lat="45.50802" lon="6.91785">
        <ele>1548.82</ele>
        <time>2011-06-26T08:13:02Z</time>
      </trkpt>
      <trkpt lat="45.508" lon="6.91788">
        <ele>1553.63</ele>
        <time>2011-06-26T08:13:03Z</time>
      </trkpt>
      <trkpt lat="45.50792" lon="6.91802">
        <ele>1554.11</ele>
        <time>2011-06-26T08:13:08Z</time>
      </trkpt>
      <trkpt lat="45.5079" lon="6.91803">
        <ele>1556.99</ele>
        <time>2011-06-26T08:13:09Z</time>
      </trkpt>
      <trkpt lat="45.50787" lon="6.91806">
        <ele>1553.15</ele>
        <time>2011-06-26T08:13:11Z</time>
      </trkpt>
      <trkpt lat="45.50786" lon="6.91808">
        <ele>1549.3</ele>
        <time>2011-06-26T08:13:12Z</time>
      </trkpt>
      <trkpt lat="45.50784" lon="6.91809">
        <ele>1555.07</ele>
        <time>2011-06-26T08:13:13Z</time>
      </trkpt>
      <trkpt lat="45.50782" lon="6.91811">
        <ele>1549.3</ele>
        <time>2011-06-26T08:13:14Z</time>
      </trkpt>
      <trkpt lat="45.50779" lon="6.91814">
        <ele>1555.55</ele>
        <time>2011-06-26T08:13:16Z</time>
      </trkpt>
      <trkpt lat="45.50775" lon="6.91818">
        <ele>1546.9</ele>
        <time>2011-06-26T08:13:18Z</time>
      </trkpt>
      <trkpt lat="45.50773" lon="6.91819">
        <ele>1556.99</ele>
        <time>2011-06-26T08:13:19Z</time>
      </trkpt>
      <trkpt lat="45.50767" lon="6.91825">
        <ele>1550.74</ele>
        <time>2011-06-26T08:13:22Z</time>
      </trkpt>
      <trkpt lat="45.50765" lon="6.91827">
        <ele>1551.22</ele>
        <time>2011-06-26T08:13:23Z</time>
      </trkpt>
      <trkpt lat="45.50745" lon="6.91844">
        <ele>1552.19</ele>
        <time>2011-06-26T08:13:33Z</time>
      </trkpt>
      <trkpt lat="45.50734" lon="6.91852">
        <ele>1551.71</ele>
        <time>2011-06-26T08:13:39Z</time>
      </trkpt>
      <trkpt lat="45.50732" lon="6.91854">
        <ele>1548.34</ele>
        <time>2011-06-26T08:13:40Z</time>
      </trkpt>
      <trkpt lat="45.5073" lon="6.91855">
        <ele>1556.03</ele>
        <time>2011-06-26T08:13:41Z</time>
      </trkpt>
      <trkpt lat="45.50729" lon="6.91857">
        <ele>1544.98</ele>
        <time>2011-06-26T08:13:42Z</time>
      </trkpt>
      <trkpt lat="45.50727" lon="6.91859">
        <ele>1550.26</ele>
        <time>2011-06-26T08:13:43Z</time>
      </trkpt>
      <trkpt lat="45.50708" lon="6.91881">
        <ele>1549.78</ele>
        <time>2011-06-26T08:13:53Z</time>
      </trkpt>
      <trkpt lat="45.50704" lon="6.91885">
        <ele>1556.51</ele>
        <time>2011-06-26T08:13:55Z</time>
      </trkpt>
      <trkpt lat="45.50702" lon="6.91887">
        <ele>1554.59</ele>
        <time>2011-06-26T08:13:56Z</time>
      </trkpt>
      <trkpt lat="45.50701" lon="6.91889">
        <ele>1546.9</ele>
        <time>2011-06-26T08:13:57Z</time>
      </trkpt>
      <trkpt lat="45.50699" lon="6.91891">
        <ele>1548.34</ele>
        <time>2011-06-26T08:13:58Z</time>
      </trkpt>
      <trkpt lat="45.50695" lon="6.91895">
        <ele>1554.11</ele>
        <time>2011-06-26T08:14:00Z</time>
      </trkpt>
      <trkpt lat="45.50694" lon="6.91897">
        <ele>1550.26</ele>
        <time>2011-06-26T08:14:01Z</time>
      </trkpt>
      <trkpt lat="45.5069" lon="6.91901">
        <ele>1553.15</ele>
        <time>2011-06-26T08:14:03Z</time>
      </trkpt>
      <trkpt lat="45.50675" lon="6.91914">
        <ele>1555.55</ele>
        <time>2011-06-26T08:14:11Z</time>
      </trkpt>
      <trkpt lat="45.50673" lon="6.91916">
        <ele>1554.11</ele>
        <time>2011-06-26T08:14:12Z</time>
      </trkpt>
      <trkpt lat="45.50668" lon="6.91919">
        <ele>1550.74</ele>
        <time>2011-06-26T08:14:14Z</time>
      </trkpt>
      <trkpt lat="45.50661" lon="6.91923">
        <ele>1555.55</ele>
        <time>2011-06-26T08:14:17Z</time>
      </trkpt>
      <trkpt lat="45.50659" lon="6.91925">
        <ele>1551.71</ele>
        <time>2011-06-26T08:14:18Z</time>
      </trkpt>
      <trkpt lat="45.50657" lon="6.91926">
        <ele>1553.15</ele>
        <time>2011-06-26T08:14:19Z</time>
      </trkpt>
      <trkpt lat="45.50654" lon="6.91928">
        <ele>1550.26</ele>
        <time>2011-06-26T08:14:21Z</time>
      </trkpt>
      <trkpt lat="45.50652" lon="6.91928">
        <ele>1550.74</ele>
        <time>2011-06-26T08:14:22Z</time>
      </trkpt>
      <trkpt lat="45.50651" lon="6.9193">
        <ele>1556.99</ele>
        <time>2011-06-26T08:14:23Z</time>
      </trkpt>
      <trkpt lat="45.50649" lon="6.91931">
        <ele>1552.67</ele>
        <time>2011-06-26T08:14:24Z</time>
      </trkpt>
      <trkpt lat="45.50645" lon="6.91937">
        <ele>1550.74</ele>
        <time>2011-06-26T08:14:27Z</time>
      </trkpt>
      <trkpt lat="45.50639" lon="6.91944">
        <ele>1556.03</ele>
        <time>2011-06-26T08:14:31Z</time>
      </trkpt>
      <trkpt lat="45.50638" lon="6.91946">
        <ele>1554.59</ele>
        <time>2011-06-26T08:14:32Z</time>
      </trkpt>
      <trkpt lat="45.50636" lon="6.91948">
        <ele>1549.78</ele>
        <time>2011-06-26T08:14:33Z</time>
      </trkpt>
      <trkpt lat="45.50635" lon="6.9195">
        <ele>1553.63</ele>
        <time>2011-06-26T08:14:34Z</time>
      </trkpt>
      <trkpt lat="45.50632" lon="6.91954">
        <ele>1550.26</ele>
        <time>2011-06-26T08:14:36Z</time>
      </trkpt>
      <trkpt lat="45.50628" lon="6.91959">
        <ele>1552.67</ele>
        <time>2011-06-26T08:14:39Z</time>
      </trkpt>
      <trkpt lat="45.50626" lon="6.91962">
        <ele>1554.11</ele>
        <time>2011-06-26T08:14:41Z</time>
      </trkpt>
      <trkpt lat="45.50623" lon="6.91967">
        <ele>1550.26</ele>
        <time>2011-06-26T08:14:44Z</time>
      </trkpt>
      <trkpt lat="45.50621" lon="6.91969">
        <ele>1554.59</ele>
        <time>2011-06-26T08:14:46Z</time>
      </trkpt>
      <trkpt lat="45.50618" lon="6.9197">
        <ele>1554.11</ele>
        <time>2011-06-26T08:14:48Z</time>
      </trkpt>
      <trkpt lat="45.50612" lon="6.9197">
        <ele>1556.03</ele>
        <time>2011-06-26T08:14:53Z</time>
      </trkpt>
      <trkpt lat="45.50611" lon="6.9197">
        <ele>1552.19</ele>
        <time>2011-06-26T08:14:54Z</time>
      </trkpt>
      <trkpt lat="45.5061" lon="6.9197">
        <ele>1558.43</ele>
        <time>2011-06-26T08:14:55Z</time>
      </trkpt>
      <trkpt lat="45.50609" lon="6.91969">
        <ele>1558.43</ele>
        <time>2011-06-26T08:14:56Z</time>
      </trkpt>
      <trkpt lat="45.50605" lon="6.91969">
        <ele>1554.11</ele>
        <time>2011-06-26T08:14:59Z</time>
      </trkpt>
      <trkpt lat="45.50603" lon="6.91969">
        <ele>1555.55</ele>
        <time>2011-06-26T08:15:01Z</time>
      </trkpt>
      <trkpt lat="45.50599" lon="6.91969">
        <ele>1554.59</ele>
        <time>2011-06-26T08:15:04Z</time>
      </trkpt>
      <trkpt lat="45.50593" lon="6.91972">
        <ele>1551.71</ele>
        <time>2011-06-26T08:15:09Z</time>
      </trkpt>
      <trkpt lat="45.5059" lon="6.91972">
        <ele>1555.07</ele>
        <time>2011-06-26T08:15:11Z</time>
      </trkpt>
      <trkpt lat="45.50589" lon="6.91973">
        <ele>1558.43</ele>
        <time>2011-06-26T08:15:12Z</time>
      </trkpt>
      <trkpt lat="45.5058" lon="6.91976">
        <ele>1562.28</ele>
        <time>2011-06-26T08:15:18Z</time>
      </trkpt>
      <trkpt lat="45.50577" lon="6.91977">
        <ele>1554.59</ele>
        <time>2011-06-26T08:15:20Z</time>
      </trkpt>
      <trkpt lat="45.50569" lon="6.91978">
        <ele>1559.4</ele>
        <time>2011-06-26T08:15:24Z</time>
      </trkpt>
      <trkpt lat="45.50567" lon="6.91977">
        <ele>1556.03</ele>
        <time>2011-06-26T08:15:25Z</time>
      </trkpt>
      <trkpt lat="45.50564" lon="6.91975">
        <ele>1558.43</ele>
        <time>2011-06-26T08:15:27Z</time>
      </trkpt>
      <trkpt lat="45.50559" lon="6.91953">
        <ele>1562.28</ele>
        <time>2011-06-26T08:15:36Z</time>
      </trkpt>
      <trkpt lat="45.50558" lon="6.9195">
        <ele>1556.51</ele>
        <time>2011-06-26T08:15:37Z</time>
      </trkpt>
      <trkpt lat="45.50557" lon="6.91944">
        <ele>1560.84</ele>
        <time>2011-06-26T08:15:39Z</time>
      </trkpt>
      <trkpt lat="45.50557" lon="6.91941">
        <ele>1557.47</ele>
        <time>2011-06-26T08:15:40Z</time>
      </trkpt>
      <trkpt lat="45.50556" lon="6.91935">
        <ele>1559.88</ele>
        <time>2011-06-26T08:15:43Z</time>
      </trkpt>
      <trkpt lat="45.50555" lon="6.91922">
        <ele>1563.24</ele>
        <time>2011-06-26T08:15:51Z</time>
      </trkpt>
      <trkpt lat="45.50555" lon="6.9192">
        <ele>1559.4</ele>
        <time>2011-06-26T08:15:52Z</time>
      </trkpt>
      <trkpt lat="45.50553" lon="6.91909">
        <ele>1560.84</ele>
        <time>2011-06-26T08:15:57Z</time>
      </trkpt>
      <trkpt lat="45.50552" lon="6.91906">
        <ele>1559.88</ele>
        <time>2011-06-26T08:15:59Z</time>
      </trkpt>
      <trkpt lat="45.50551" lon="6.91906">
        <ele>1562.76</ele>
        <time>2011-06-26T08:16:00Z</time>
      </trkpt>
      <trkpt lat="45.5055" lon="6.91906">
        <ele>1559.4</ele>
        <time>2011-06-26T08:16:01Z</time>
      </trkpt>
      <trkpt lat="45.50549" lon="6.91907">
        <ele>1559.4</ele>
        <time>2011-06-26T08:16:02Z</time>
      </trkpt>
      <trkpt lat="45.50548" lon="6.91909">
        <ele>1565.64</ele>
        <time>2011-06-26T08:16:04Z</time>
      </trkpt>
      <trkpt lat="45.50548" lon="6.9191">
        <ele>1568.53</ele>
        <time>2011-06-26T08:16:05Z</time>
      </trkpt>
      <trkpt lat="45.50546" lon="6.91912">
        <ele>1565.16</ele>
        <time>2011-06-26T08:16:07Z</time>
      </trkpt>
      <trkpt lat="45.50544" lon="6.9191">
        <ele>1566.12</ele>
        <time>2011-06-26T08:16:12Z</time>
      </trkpt>
      <trkpt lat="45.50543" lon="6.91907">
        <ele>1567.57</ele>
        <time>2011-06-26T08:16:15Z</time>
      </trkpt>
      <trkpt lat="45.50542" lon="6.91903">
        <ele>1563.24</ele>
        <time>2011-06-26T08:16:18Z</time>
      </trkpt>
      <trkpt lat="45.50541" lon="6.91902">
        <ele>1568.53</ele>
        <time>2011-06-26T08:16:19Z</time>
      </trkpt>
      <trkpt lat="45.50541" lon="6.91901">
        <ele>1569.01</ele>
        <time>2011-06-26T08:16:20Z</time>
      </trkpt>
      <trkpt lat="45.50538" lon="6.919">
        <ele>1571.89</ele>
        <time>2011-06-26T08:16:24Z</time>
      </trkpt>
      <trkpt lat="45.50537" lon="6.919">
        <ele>1567.57</ele>
        <time>2011-06-26T08:16:25Z</time>
      </trkpt>
      <trkpt lat="45.50534" lon="6.91897">
        <ele>1571.41</ele>
        <time>2011-06-26T08:16:30Z</time>
      </trkpt>
      <trkpt lat="45.50534" lon="6.91897">
        <ele>1570.45</ele>
        <time>2011-06-26T08:16:31Z</time>
      </trkpt>
      <trkpt lat="45.50533" lon="6.91895">
        <ele>1574.78</ele>
        <time>2011-06-26T08:16:33Z</time>
      </trkpt>
      <trkpt lat="45.50533" lon="6.91893">
        <ele>1569.01</ele>
        <time>2011-06-26T08:16:35Z</time>
      </trkpt>
      <trkpt lat="45.50532" lon="6.91892">
        <ele>1569.01</ele>
        <time>2011-06-26T08:16:36Z</time>
      </trkpt>
      <trkpt lat="45.50532" lon="6.9189">
        <ele>1575.74</ele>
        <time>2011-06-26T08:16:38Z</time>
      </trkpt>
      <trkpt lat="45.50532" lon="6.91889">
        <ele>1571.41</ele>
        <time>2011-06-26T08:16:39Z</time>
      </trkpt>
      <trkpt lat="45.50532" lon="6.91887">
        <ele>1574.3</ele>
        <time>2011-06-26T08:16:41Z</time>
      </trkpt>
      <trkpt lat="45.50531" lon="6.91884">
        <ele>1570.93</ele>
        <time>2011-06-26T08:16:43Z</time>
      </trkpt>
      <trkpt lat="45.50529" lon="6.91881">
        <ele>1573.33</ele>
        <time>2011-06-26T08:16:46Z</time>
      </trkpt>
      <trkpt lat="45.50524" lon="6.9187">
        <ele>1578.62</ele>
        <time>2011-06-26T08:16:54Z</time>
      </trkpt>
      <trkpt lat="45.50524" lon="6.91869">
        <ele>1574.78</ele>
        <time>2011-06-26T08:16:55Z</time>
      </trkpt>
      <trkpt lat="45.50523" lon="6.91866">
        <ele>1573.33</ele>
        <time>2011-06-26T08:16:57Z</time>
      </trkpt>
      <trkpt lat="45.50521" lon="6.91859">
        <ele>1581.51</ele>
        <time>2011-06-26T08:17:05Z</time>
      </trkpt>
      <trkpt lat="45.50521" lon="6.91857">
        <ele>1576.7</ele>
        <time>2011-06-26T08:17:06Z</time>
      </trkpt>
      <trkpt lat="45.50519" lon="6.91854">
        <ele>1580.54</ele>
        <time>2011-06-26T08:17:10Z</time>
      </trkpt>
      <trkpt lat="45.50518" lon="6.91854">
        <ele>1579.1</ele>
        <time>2011-06-26T08:17:11Z</time>
      </trkpt>
      <trkpt lat="45.50512" lon="6.91847">
        <ele>1583.91</ele>
        <time>2011-06-26T08:17:25Z</time>
      </trkpt>
      <trkpt lat="45.50512" lon="6.91846">
        <ele>1582.95</ele>
        <time>2011-06-26T08:17:26Z</time>
      </trkpt>
      <trkpt lat="45.50511" lon="6.91845">
        <ele>1579.58</ele>
        <time>2011-06-26T08:17:27Z</time>
      </trkpt>
      <trkpt lat="45.5051" lon="6.91845">
        <ele>1581.51</ele>
        <time>2011-06-26T08:17:28Z</time>
      </trkpt>
      <trkpt lat="45.50506" lon="6.91844">
        <ele>1585.83</ele>
        <time>2011-06-26T08:17:31Z</time>
      </trkpt>
      <trkpt lat="45.50505" lon="6.91844">
        <ele>1584.87</ele>
        <time>2011-06-26T08:17:32Z</time>
      </trkpt>
      <trkpt lat="45.50504" lon="6.91843">
        <ele>1581.99</ele>
        <time>2011-06-26T08:17:34Z</time>
      </trkpt>
      <trkpt lat="45.505" lon="6.91839">
        <ele>1584.87</ele>
        <time>2011-06-26T08:17:39Z</time>
      </trkpt>
      <trkpt lat="45.50496" lon="6.91833">
        <ele>1588.72</ele>
        <time>2011-06-26T08:17:47Z</time>
      </trkpt>
      <trkpt lat="45.50495" lon="6.91832">
        <ele>1587.27</ele>
        <time>2011-06-26T08:17:48Z</time>
      </trkpt>
      <trkpt lat="45.50495" lon="6.91831">
        <ele>1586.79</ele>
        <time>2011-06-26T08:17:49Z</time>
      </trkpt>
      <trkpt lat="45.50493" lon="6.91828">
        <ele>1583.43</ele>
        <time>2011-06-26T08:17:51Z</time>
      </trkpt>
      <trkpt lat="45.50492" lon="6.91827">
        <ele>1587.27</ele>
        <time>2011-06-26T08:17:52Z</time>
      </trkpt>
      <trkpt lat="45.5049" lon="6.91807">
        <ele>1587.75</ele>
        <time>2011-06-26T08:18:01Z</time>
      </trkpt>
      <trkpt lat="45.50485" lon="6.91801">
        <ele>1591.6</ele>
        <time>2011-06-26T08:18:09Z</time>
      </trkpt>
      <trkpt lat="45.50484" lon="6.918">
        <ele>1585.35</ele>
        <time>2011-06-26T08:18:10Z</time>
      </trkpt>
      <trkpt lat="45.50484" lon="6.91799">
        <ele>1591.12</ele>
        <time>2011-06-26T08:18:11Z</time>
      </trkpt>
      <trkpt lat="45.50483" lon="6.91799">
        <ele>1586.31</ele>
        <time>2011-06-26T08:18:12Z</time>
      </trkpt>
      <trkpt lat="45.50482" lon="6.91797">
        <ele>1590.64</ele>
        <time>2011-06-26T08:18:14Z</time>
      </trkpt>
      <trkpt lat="45.50481" lon="6.91791">
        <ele>1594</ele>
        <time>2011-06-26T08:18:19Z</time>
      </trkpt>
      <trkpt lat="45.5048" lon="6.9179">
        <ele>1590.16</ele>
        <time>2011-06-26T08:18:20Z</time>
      </trkpt>
      <trkpt lat="45.5048" lon="6.91789">
        <ele>1595.93</ele>
        <time>2011-06-26T08:18:21Z</time>
      </trkpt>
      <trkpt lat="45.50479" lon="6.91788">
        <ele>1592.56</ele>
        <time>2011-06-26T08:18:22Z</time>
      </trkpt>
      <trkpt lat="45.50477" lon="6.91786">
        <ele>1594</ele>
        <time>2011-06-26T08:18:30Z</time>
      </trkpt>
      <trkpt lat="45.50475" lon="6.91784">
        <ele>1591.6</ele>
        <time>2011-06-26T08:18:33Z</time>
      </trkpt>
      <trkpt lat="45.50475" lon="6.91783">
        <ele>1597.37</ele>
        <time>2011-06-26T08:18:34Z</time>
      </trkpt>
      <trkpt lat="45.50475" lon="6.91783">
        <ele>1596.89</ele>
        <time>2011-06-26T08:18:35Z</time>
      </trkpt>
      <trkpt lat="45.50473" lon="6.91781">
        <ele>1598.81</ele>
        <time>2011-06-26T08:18:42Z</time>
      </trkpt>
      <trkpt lat="45.50473" lon="6.9178">
        <ele>1594.48</ele>
        <time>2011-06-26T08:18:43Z</time>
      </trkpt>
      <trkpt lat="45.50473" lon="6.9178">
        <ele>1595.93</ele>
        <time>2011-06-26T08:18:44Z</time>
      </trkpt>
      <trkpt lat="45.50472" lon="6.91778">
        <ele>1597.37</ele>
        <time>2011-06-26T08:18:47Z</time>
      </trkpt>
      <trkpt lat="45.50471" lon="6.91778">
        <ele>1601.21</ele>
        <time>2011-06-26T08:18:49Z</time>
      </trkpt>
      <trkpt lat="45.5047" lon="6.9178">
        <ele>1602.66</ele>
        <time>2011-06-26T08:18:52Z</time>
      </trkpt>
      <trkpt lat="45.50469" lon="6.91782">
        <ele>1601.21</ele>
        <time>2011-06-26T08:18:54Z</time>
      </trkpt>
      <trkpt lat="45.50469" lon="6.91784">
        <ele>1602.66</ele>
        <time>2011-06-26T08:18:56Z</time>
      </trkpt>
      <trkpt lat="45.50468" lon="6.91785">
        <ele>1598.81</ele>
        <time>2011-06-26T08:18:58Z</time>
      </trkpt>
      <trkpt lat="45.50468" lon="6.91785">
        <ele>1601.69</ele>
        <time>2011-06-26T08:19:00Z</time>
      </trkpt>
      <trkpt lat="45.50467" lon="6.91784">
        <ele>1599.77</ele>
        <time>2011-06-26T08:19:01Z</time>
      </trkpt>
      <trkpt lat="45.50466" lon="6.91781">
        <ele>1596.41</ele>
        <time>2011-06-26T08:19:04Z</time>
      </trkpt>
      <trkpt lat="45.50466" lon="6.9178">
        <ele>1601.21</ele>
        <time>2011-06-26T08:19:05Z</time>
      </trkpt>
      <trkpt lat="45.50465" lon="6.91778">
        <ele>1602.66</ele>
        <time>2011-06-26T08:19:07Z</time>
      </trkpt>
      <trkpt lat="45.50465" lon="6.91775">
        <ele>1606.5</ele>
        <time>2011-06-26T08:19:09Z</time>
      </trkpt>
      <trkpt lat="45.50465" lon="6.91774">
        <ele>1603.14</ele>
        <time>2011-06-26T08:19:10Z</time>
      </trkpt>
      <trkpt lat="45.50464" lon="6.9177">
        <ele>1600.25</ele>
        <time>2011-06-26T08:19:15Z</time>
      </trkpt>
      <trkpt lat="45.50463" lon="6.91769">
        <ele>1603.62</ele>
        <time>2011-06-26T08:19:16Z</time>
      </trkpt>
      <trkpt lat="45.50461" lon="6.91765">
        <ele>1609.38</ele>
        <time>2011-06-26T08:19:20Z</time>
      </trkpt>
      <trkpt lat="45.50461" lon="6.91764">
        <ele>1604.1</ele>
        <time>2011-06-26T08:19:21Z</time>
      </trkpt>
      <trkpt lat="45.5046" lon="6.91763">
        <ele>1607.46</ele>
        <time>2011-06-26T08:19:22Z</time>
      </trkpt>
      <trkpt lat="45.5046" lon="6.91762">
        <ele>1611.31</ele>
        <time>2011-06-26T08:19:24Z</time>
      </trkpt>
      <trkpt lat="45.50459" lon="6.91763">
        <ele>1606.02</ele>
        <time>2011-06-26T08:19:25Z</time>
      </trkpt>
      <trkpt lat="45.50458" lon="6.91765">
        <ele>1609.38</ele>
        <time>2011-06-26T08:19:27Z</time>
      </trkpt>
      <trkpt lat="45.50458" lon="6.91768">
        <ele>1607.94</ele>
        <time>2011-06-26T08:19:29Z</time>
      </trkpt>
      <trkpt lat="45.50457" lon="6.9177">
        <ele>1606.98</ele>
        <time>2011-06-26T08:19:31Z</time>
      </trkpt>
      <trkpt lat="45.50457" lon="6.91773">
        <ele>1609.86</ele>
        <time>2011-06-26T08:19:35Z</time>
      </trkpt>
      <trkpt lat="45.50456" lon="6.91775">
        <ele>1610.83</ele>
        <time>2011-06-26T08:19:38Z</time>
      </trkpt>
      <trkpt lat="45.50456" lon="6.91779">
        <ele>1611.31</ele>
        <time>2011-06-26T08:19:42Z</time>
      </trkpt>
      <trkpt lat="45.50456" lon="6.9178">
        <ele>1610.83</ele>
        <time>2011-06-26T08:19:43Z</time>
      </trkpt>
      <trkpt lat="45.50456" lon="6.9178">
        <ele>1609.86</ele>
        <time>2011-06-26T08:19:45Z</time>
      </trkpt>
      <trkpt lat="45.50455" lon="6.91779">
        <ele>1606.02</ele>
        <time>2011-06-26T08:19:47Z</time>
      </trkpt>
      <trkpt lat="45.50454" lon="6.91778">
        <ele>1611.31</ele>
        <time>2011-06-26T08:19:48Z</time>
      </trkpt>
      <trkpt lat="45.50454" lon="6.91777">
        <ele>1611.79</ele>
        <time>2011-06-26T08:19:49Z</time>
      </trkpt>
      <trkpt lat="45.50452" lon="6.91774">
        <ele>1611.79</ele>
        <time>2011-06-26T08:19:52Z</time>
      </trkpt>
      <trkpt lat="45.5045" lon="6.91771">
        <ele>1611.79</ele>
        <time>2011-06-26T08:19:55Z</time>
      </trkpt>
      <trkpt lat="45.50449" lon="6.91769">
        <ele>1612.75</ele>
        <time>2011-06-26T08:19:57Z</time>
      </trkpt>
      <trkpt lat="45.50449" lon="6.91766">
        <ele>1611.31</ele>
        <time>2011-06-26T08:20:00Z</time>
      </trkpt>
      <trkpt lat="45.50448" lon="6.91764">
        <ele>1616.11</ele>
        <time>2011-06-26T08:20:01Z</time>
      </trkpt>
      <trkpt lat="45.50448" lon="6.91763">
        <ele>1614.19</ele>
        <time>2011-06-26T08:20:02Z</time>
      </trkpt>
      <trkpt lat="45.50447" lon="6.91759">
        <ele>1612.75</ele>
        <time>2011-06-26T08:20:05Z</time>
      </trkpt>
      <trkpt lat="45.50447" lon="6.91756">
        <ele>1614.19</ele>
        <time>2011-06-26T08:20:07Z</time>
      </trkpt>
      <trkpt lat="45.50446" lon="6.91753">
        <ele>1618.04</ele>
        <time>2011-06-26T08:20:11Z</time>
      </trkpt>
      <trkpt lat="45.50445" lon="6.91757">
        <ele>1613.23</ele>
        <time>2011-06-26T08:20:15Z</time>
      </trkpt>
      <trkpt lat="45.50445" lon="6.91759">
        <ele>1616.59</ele>
        <time>2011-06-26T08:20:16Z</time>
      </trkpt>
      <trkpt lat="45.50445" lon="6.91762">
        <ele>1614.19</ele>
        <time>2011-06-26T08:20:18Z</time>
      </trkpt>
      <trkpt lat="45.50446" lon="6.91767">
        <ele>1621.4</ele>
        <time>2011-06-26T08:20:21Z</time>
      </trkpt>
      <trkpt lat="45.50446" lon="6.91768">
        <ele>1617.07</ele>
        <time>2011-06-26T08:20:22Z</time>
      </trkpt>
      <trkpt lat="45.50446" lon="6.9177">
        <ele>1618.52</ele>
        <time>2011-06-26T08:20:24Z</time>
      </trkpt>
      <trkpt lat="45.50445" lon="6.91768">
        <ele>1616.59</ele>
        <time>2011-06-26T08:20:28Z</time>
      </trkpt>
      <trkpt lat="45.50444" lon="6.91762">
        <ele>1617.56</ele>
        <time>2011-06-26T08:20:33Z</time>
      </trkpt>
      <trkpt lat="45.50444" lon="6.91759">
        <ele>1620.92</ele>
        <time>2011-06-26T08:20:35Z</time>
      </trkpt>
      <trkpt lat="45.50444" lon="6.91757">
        <ele>1619.96</ele>
        <time>2011-06-26T08:20:37Z</time>
      </trkpt>
      <trkpt lat="45.5044" lon="6.91755">
        <ele>1625.25</ele>
        <time>2011-06-26T08:20:44Z</time>
      </trkpt>
      <trkpt lat="45.50439" lon="6.91756">
        <ele>1619.48</ele>
        <time>2011-06-26T08:20:45Z</time>
      </trkpt>
      <trkpt lat="45.50438" lon="6.91756">
        <ele>1622.84</ele>
        <time>2011-06-26T08:20:46Z</time>
      </trkpt>
      <trkpt lat="45.50436" lon="6.91759">
        <ele>1619</ele>
        <time>2011-06-26T08:20:50Z</time>
      </trkpt>
      <trkpt lat="45.50437" lon="6.9176">
        <ele>1620.92</ele>
        <time>2011-06-26T08:20:51Z</time>
      </trkpt>
      <trkpt lat="45.50438" lon="6.91762">
        <ele>1625.73</ele>
        <time>2011-06-26T08:20:54Z</time>
      </trkpt>
      <trkpt lat="45.50436" lon="6.91764">
        <ele>1620.92</ele>
        <time>2011-06-26T08:20:59Z</time>
      </trkpt>
      <trkpt lat="45.50436" lon="6.91765">
        <ele>1621.88</ele>
        <time>2011-06-26T08:21:00Z</time>
      </trkpt>
      <trkpt lat="45.50435" lon="6.91765">
        <ele>1628.61</ele>
        <time>2011-06-26T08:21:01Z</time>
      </trkpt>
      <trkpt lat="45.50434" lon="6.91766">
        <ele>1625.25</ele>
        <time>2011-06-26T08:21:02Z</time>
      </trkpt>
      <trkpt lat="45.5044" lon="6.91763">
        <ele>1629.09</ele>
        <time>2011-06-26T08:21:09Z</time>
      </trkpt>
      <trkpt lat="45.50441" lon="6.91763">
        <ele>1624.77</ele>
        <time>2011-06-26T08:21:10Z</time>
      </trkpt>
      <trkpt lat="45.5044" lon="6.91763">
        <ele>1627.65</ele>
        <time>2011-06-26T08:21:11Z</time>
      </trkpt>
      <trkpt lat="45.50436" lon="6.91766">
        <ele>1631.49</ele>
        <time>2011-06-26T08:21:15Z</time>
      </trkpt>
      <trkpt lat="45.50434" lon="6.91767">
        <ele>1625.73</ele>
        <time>2011-06-26T08:21:16Z</time>
      </trkpt>
      <trkpt lat="45.50431" lon="6.91771">
        <ele>1627.17</ele>
        <time>2011-06-26T08:21:18Z</time>
      </trkpt>
      <trkpt lat="45.50428" lon="6.91775">
        <ele>1631.01</ele>
        <time>2011-06-26T08:21:20Z</time>
      </trkpt>
      <trkpt lat="45.50427" lon="6.91776">
        <ele>1626.21</ele>
        <time>2011-06-26T08:21:21Z</time>
      </trkpt>
      <trkpt lat="45.50425" lon="6.91778">
        <ele>1630.53</ele>
        <time>2011-06-26T08:21:22Z</time>
      </trkpt>
      <trkpt lat="45.5042" lon="6.91782">
        <ele>1630.53</ele>
        <time>2011-06-26T08:21:26Z</time>
      </trkpt>
      <trkpt lat="45.50414" lon="6.91788">
        <ele>1633.42</ele>
        <time>2011-06-26T08:21:31Z</time>
      </trkpt>
      <trkpt lat="45.50413" lon="6.91789">
        <ele>1629.09</ele>
        <time>2011-06-26T08:21:32Z</time>
      </trkpt>
      <trkpt lat="45.5041" lon="6.91792">
        <ele>1629.09</ele>
        <time>2011-06-26T08:21:34Z</time>
      </trkpt>
      <trkpt lat="45.50405" lon="6.91797">
        <ele>1634.86</ele>
        <time>2011-06-26T08:21:38Z</time>
      </trkpt>
      <trkpt lat="45.50404" lon="6.91798">
        <ele>1631.01</ele>
        <time>2011-06-26T08:21:39Z</time>
      </trkpt>
      <trkpt lat="45.50401" lon="6.91799">
        <ele>1631.01</ele>
        <time>2011-06-26T08:21:41Z</time>
      </trkpt>
      <trkpt lat="45.50398" lon="6.91798">
        <ele>1627.65</ele>
        <time>2011-06-26T08:21:43Z</time>
      </trkpt>
      <trkpt lat="45.50397" lon="6.91798">
        <ele>1631.49</ele>
        <time>2011-06-26T08:21:44Z</time>
      </trkpt>
      <trkpt lat="45.50395" lon="6.91799">
        <ele>1635.34</ele>
        <time>2011-06-26T08:21:47Z</time>
      </trkpt>
      <trkpt lat="45.50393" lon="6.918">
        <ele>1629.57</ele>
        <time>2011-06-26T08:21:49Z</time>
      </trkpt>
      <trkpt lat="45.50392" lon="6.918">
        <ele>1635.82</ele>
        <time>2011-06-26T08:21:50Z</time>
      </trkpt>
      <trkpt lat="45.50389" lon="6.91801">
        <ele>1631.01</ele>
        <time>2011-06-26T08:21:54Z</time>
      </trkpt>
      <trkpt lat="45.50388" lon="6.91801">
        <ele>1631.01</ele>
        <time>2011-06-26T08:21:55Z</time>
      </trkpt>
      <trkpt lat="45.50388" lon="6.91802">
        <ele>1634.38</ele>
        <time>2011-06-26T08:21:56Z</time>
      </trkpt>
      <trkpt lat="45.50387" lon="6.91802">
        <ele>1637.74</ele>
        <time>2011-06-26T08:21:57Z</time>
      </trkpt>
      <trkpt lat="45.50386" lon="6.91802">
        <ele>1633.9</ele>
        <time>2011-06-26T08:21:58Z</time>
      </trkpt>
      <trkpt lat="45.50382" lon="6.91802">
        <ele>1638.7</ele>
        <time>2011-06-26T08:22:05Z</time>
      </trkpt>
      <trkpt lat="45.50381" lon="6.91802">
        <ele>1634.38</ele>
        <time>2011-06-26T08:22:06Z</time>
      </trkpt>
      <trkpt lat="45.50381" lon="6.91802">
        <ele>1641.59</ele>
        <time>2011-06-26T08:22:07Z</time>
      </trkpt>
      <trkpt lat="45.5038" lon="6.91802">
        <ele>1641.11</ele>
        <time>2011-06-26T08:22:08Z</time>
      </trkpt>
      <trkpt lat="45.50378" lon="6.91801">
        <ele>1635.34</ele>
        <time>2011-06-26T08:22:10Z</time>
      </trkpt>
      <trkpt lat="45.50378" lon="6.91801">
        <ele>1638.22</ele>
        <time>2011-06-26T08:22:11Z</time>
      </trkpt>
      <trkpt lat="45.50376" lon="6.918">
        <ele>1641.59</ele>
        <time>2011-06-26T08:22:14Z</time>
      </trkpt>
      <trkpt lat="45.50375" lon="6.918">
        <ele>1635.34</ele>
        <time>2011-06-26T08:22:15Z</time>
      </trkpt>
      <trkpt lat="45.50375" lon="6.91799">
        <ele>1640.63</ele>
        <time>2011-06-26T08:22:16Z</time>
      </trkpt>
      <trkpt lat="45.50374" lon="6.91798">
        <ele>1644.47</ele>
        <time>2011-06-26T08:22:18Z</time>
      </trkpt>
      <trkpt lat="45.50373" lon="6.91798">
        <ele>1633.9</ele>
        <time>2011-06-26T08:22:19Z</time>
      </trkpt>
      <trkpt lat="45.50372" lon="6.91797">
        <ele>1637.74</ele>
        <time>2011-06-26T08:22:20Z</time>
      </trkpt>
      <trkpt lat="45.5037" lon="6.91798">
        <ele>1643.99</ele>
        <time>2011-06-26T08:22:23Z</time>
      </trkpt>
      <trkpt lat="45.50369" lon="6.91799">
        <ele>1643.03</ele>
        <time>2011-06-26T08:22:24Z</time>
      </trkpt>
      <trkpt lat="45.50368" lon="6.91799">
        <ele>1646.4</ele>
        <time>2011-06-26T08:22:25Z</time>
      </trkpt>
      <trkpt lat="45.50367" lon="6.918">
        <ele>1641.59</ele>
        <time>2011-06-26T08:22:26Z</time>
      </trkpt>
      <trkpt lat="45.50365" lon="6.91801">
        <ele>1645.91</ele>
        <time>2011-06-26T08:22:28Z</time>
      </trkpt>
      <trkpt lat="45.50364" lon="6.91802">
        <ele>1639.19</ele>
        <time>2011-06-26T08:22:29Z</time>
      </trkpt>
      <trkpt lat="45.50362" lon="6.91802">
        <ele>1643.99</ele>
        <time>2011-06-26T08:22:31Z</time>
      </trkpt>
      <trkpt lat="45.50359" lon="6.91801">
        <ele>1640.15</ele>
        <time>2011-06-26T08:22:34Z</time>
      </trkpt>
      <trkpt lat="45.50359" lon="6.91801">
        <ele>1643.51</ele>
        <time>2011-06-26T08:22:35Z</time>
      </trkpt>
      <trkpt lat="45.50357" lon="6.918">
        <ele>1645.43</ele>
        <time>2011-06-26T08:22:37Z</time>
      </trkpt>
      <trkpt lat="45.50353" lon="6.918">
        <ele>1648.8</ele>
        <time>2011-06-26T08:22:45Z</time>
      </trkpt>
      <trkpt lat="45.50353" lon="6.91801">
        <ele>1647.36</ele>
        <time>2011-06-26T08:22:46Z</time>
      </trkpt>
      <trkpt lat="45.50351" lon="6.91802">
        <ele>1650.24</ele>
        <time>2011-06-26T08:22:48Z</time>
      </trkpt>
      <trkpt lat="45.50351" lon="6.91802">
        <ele>1643.99</ele>
        <time>2011-06-26T08:22:49Z</time>
      </trkpt>
      <trkpt lat="45.5035" lon="6.91803">
        <ele>1647.84</ele>
        <time>2011-06-26T08:22:50Z</time>
      </trkpt>
      <trkpt lat="45.50348" lon="6.91804">
        <ele>1643.51</ele>
        <time>2011-06-26T08:22:52Z</time>
      </trkpt>
      <trkpt lat="45.50347" lon="6.91804">
        <ele>1652.16</ele>
        <time>2011-06-26T08:22:53Z</time>
      </trkpt>
      <trkpt lat="45.50345" lon="6.91804">
        <ele>1648.8</ele>
        <time>2011-06-26T08:22:55Z</time>
      </trkpt>
      <trkpt lat="45.50331" lon="6.91809">
        <ele>1645.43</ele>
        <time>2011-06-26T08:23:07Z</time>
      </trkpt>
      <trkpt lat="45.50328" lon="6.9181">
        <ele>1649.28</ele>
        <time>2011-06-26T08:23:09Z</time>
      </trkpt>
      <trkpt lat="45.50327" lon="6.91811">
        <ele>1653.12</ele>
        <time>2011-06-26T08:23:10Z</time>
      </trkpt>
      <trkpt lat="45.50326" lon="6.91812">
        <ele>1653.12</ele>
        <time>2011-06-26T08:23:11Z</time>
      </trkpt>
      <trkpt lat="45.50324" lon="6.91815">
        <ele>1650.24</ele>
        <time>2011-06-26T08:23:13Z</time>
      </trkpt>
      <trkpt lat="45.50323" lon="6.91815">
        <ele>1654.09</ele>
        <time>2011-06-26T08:23:14Z</time>
      </trkpt>
      <trkpt lat="45.5032" lon="6.91816">
        <ele>1650.24</ele>
        <time>2011-06-26T08:23:17Z</time>
      </trkpt>
      <trkpt lat="45.5032" lon="6.91814">
        <ele>1655.05</ele>
        <time>2011-06-26T08:23:19Z</time>
      </trkpt>
      <trkpt lat="45.50324" lon="6.918">
        <ele>1654.09</ele>
        <time>2011-06-26T08:23:28Z</time>
      </trkpt>
      <trkpt lat="45.50326" lon="6.91796">
        <ele>1656.01</ele>
        <time>2011-06-26T08:23:31Z</time>
      </trkpt>
      <trkpt lat="45.50327" lon="6.91791">
        <ele>1655.53</ele>
        <time>2011-06-26T08:23:35Z</time>
      </trkpt>
      <trkpt lat="45.50327" lon="6.91788">
        <ele>1656.97</ele>
        <time>2011-06-26T08:23:37Z</time>
      </trkpt>
      <trkpt lat="45.50328" lon="6.91785">
        <ele>1656.97</ele>
        <time>2011-06-26T08:23:40Z</time>
      </trkpt>
      <trkpt lat="45.50328" lon="6.9178">
        <ele>1658.89</ele>
        <time>2011-06-26T08:23:44Z</time>
      </trkpt>
      <trkpt lat="45.50329" lon="6.91774">
        <ele>1661.78</ele>
        <time>2011-06-26T08:23:48Z</time>
      </trkpt>
      <trkpt lat="45.5033" lon="6.91773">
        <ele>1658.41</ele>
        <time>2011-06-26T08:23:49Z</time>
      </trkpt>
      <trkpt lat="45.50331" lon="6.9177">
        <ele>1661.78</ele>
        <time>2011-06-26T08:23:52Z</time>
      </trkpt>
      <trkpt lat="45.50331" lon="6.91769">
        <ele>1661.3</ele>
        <time>2011-06-26T08:23:53Z</time>
      </trkpt>
      <trkpt lat="45.50333" lon="6.91767">
        <ele>1660.81</ele>
        <time>2011-06-26T08:23:56Z</time>
      </trkpt>
      <trkpt lat="45.50335" lon="6.91765">
        <ele>1664.66</ele>
        <time>2011-06-26T08:23:59Z</time>
      </trkpt>
      <trkpt lat="45.50335" lon="6.91764">
        <ele>1660.81</ele>
        <time>2011-06-26T08:24:00Z</time>
      </trkpt>
      <trkpt lat="45.50337" lon="6.91763">
        <ele>1663.22</ele>
        <time>2011-06-26T08:24:03Z</time>
      </trkpt>
      <trkpt lat="45.50339" lon="6.9176">
        <ele>1666.58</ele>
        <time>2011-06-26T08:24:06Z</time>
      </trkpt>
      <trkpt lat="45.5034" lon="6.91757">
        <ele>1664.66</ele>
        <time>2011-06-26T08:24:09Z</time>
      </trkpt>
      <trkpt lat="45.5034" lon="6.91755">
        <ele>1663.22</ele>
        <time>2011-06-26T08:24:12Z</time>
      </trkpt>
      <trkpt lat="45.50332" lon="6.91753">
        <ele>1665.62</ele>
        <time>2011-06-26T08:24:21Z</time>
      </trkpt>
      <trkpt lat="45.50331" lon="6.91754">
        <ele>1669.47</ele>
        <time>2011-06-26T08:24:24Z</time>
      </trkpt>
      <trkpt lat="45.5033" lon="6.91753">
        <ele>1668.99</ele>
        <time>2011-06-26T08:24:25Z</time>
      </trkpt>
      <trkpt lat="45.50321" lon="6.91747">
        <ele>1671.39</ele>
        <time>2011-06-26T08:24:40Z</time>
      </trkpt>
      <trkpt lat="45.50321" lon="6.9174">
        <ele>1671.87</ele>
        <time>2011-06-26T08:24:44Z</time>
      </trkpt>
      <trkpt lat="45.5033" lon="6.9174">
        <ele>1674.75</ele>
        <time>2011-06-26T08:24:51Z</time>
      </trkpt>
      <trkpt lat="45.50331" lon="6.9174">
        <ele>1671.39</ele>
        <time>2011-06-26T08:24:52Z</time>
      </trkpt>
      <trkpt lat="45.50332" lon="6.91741">
        <ele>1672.83</ele>
        <time>2011-06-26T08:24:53Z</time>
      </trkpt>
      <trkpt lat="45.50335" lon="6.9174">
        <ele>1672.35</ele>
        <time>2011-06-26T08:24:56Z</time>
      </trkpt>
      <trkpt lat="45.50339" lon="6.91736">
        <ele>1673.31</ele>
        <time>2011-06-26T08:25:01Z</time>
      </trkpt>
      <trkpt lat="45.5034" lon="6.91735">
        <ele>1677.16</ele>
        <time>2011-06-26T08:25:02Z</time>
      </trkpt>
      <trkpt lat="45.50341" lon="6.91734">
        <ele>1676.2</ele>
        <time>2011-06-26T08:25:03Z</time>
      </trkpt>
      <trkpt lat="45.50343" lon="6.9173">
        <ele>1679.08</ele>
        <time>2011-06-26T08:25:06Z</time>
      </trkpt>
      <trkpt lat="45.50345" lon="6.91722">
        <ele>1679.56</ele>
        <time>2011-06-26T08:25:11Z</time>
      </trkpt>
      <trkpt lat="45.50345" lon="6.91721">
        <ele>1679.08</ele>
        <time>2011-06-26T08:25:12Z</time>
      </trkpt>
      <trkpt lat="45.50346" lon="6.91718">
        <ele>1674.75</ele>
        <time>2011-06-26T08:25:14Z</time>
      </trkpt>
      <trkpt lat="45.50347" lon="6.91717">
        <ele>1677.16</ele>
        <time>2011-06-26T08:25:15Z</time>
      </trkpt>
      <trkpt lat="45.50355" lon="6.91711">
        <ele>1682.44</ele>
        <time>2011-06-26T08:25:25Z</time>
      </trkpt>
      <trkpt lat="45.50355" lon="6.9171">
        <ele>1677.64</ele>
        <time>2011-06-26T08:25:26Z</time>
      </trkpt>
      <trkpt lat="45.50356" lon="6.91709">
        <ele>1678.6</ele>
        <time>2011-06-26T08:25:27Z</time>
      </trkpt>
      <trkpt lat="45.50358" lon="6.91706">
        <ele>1681.48</ele>
        <time>2011-06-26T08:25:29Z</time>
      </trkpt>
      <trkpt lat="45.50359" lon="6.91705">
        <ele>1681.48</ele>
        <time>2011-06-26T08:25:30Z</time>
      </trkpt>
      <trkpt lat="45.50361" lon="6.91702">
        <ele>1681.96</ele>
        <time>2011-06-26T08:25:32Z</time>
      </trkpt>
      <trkpt lat="45.50363" lon="6.917">
        <ele>1677.64</ele>
        <time>2011-06-26T08:25:34Z</time>
      </trkpt>
      <trkpt lat="45.50363" lon="6.91698">
        <ele>1679.56</ele>
        <time>2011-06-26T08:25:35Z</time>
      </trkpt>
      <trkpt lat="45.50364" lon="6.91694">
        <ele>1685.81</ele>
        <time>2011-06-26T08:25:38Z</time>
      </trkpt>
      <trkpt lat="45.50365" lon="6.91693">
        <ele>1682.93</ele>
        <time>2011-06-26T08:25:39Z</time>
      </trkpt>
      <trkpt lat="45.50371" lon="6.91685">
        <ele>1686.29</ele>
        <time>2011-06-26T08:25:51Z</time>
      </trkpt>
      <trkpt lat="45.50371" lon="6.91683">
        <ele>1685.33</ele>
        <time>2011-06-26T08:25:55Z</time>
      </trkpt>
      <trkpt lat="45.50372" lon="6.91682">
        <ele>1686.77</ele>
        <time>2011-06-26T08:25:57Z</time>
      </trkpt>
      <trkpt lat="45.50375" lon="6.9168">
        <ele>1688.21</ele>
        <time>2011-06-26T08:26:00Z</time>
      </trkpt>
      <trkpt lat="45.5038" lon="6.91678">
        <ele>1690.62</ele>
        <time>2011-06-26T08:26:05Z</time>
      </trkpt>
      <trkpt lat="45.50382" lon="6.91676">
        <ele>1688.69</ele>
        <time>2011-06-26T08:26:07Z</time>
      </trkpt>
      <trkpt lat="45.50382" lon="6.91673">
        <ele>1692.54</ele>
        <time>2011-06-26T08:26:09Z</time>
      </trkpt>
      <trkpt lat="45.50383" lon="6.91662">
        <ele>1688.69</ele>
        <time>2011-06-26T08:26:16Z</time>
      </trkpt>
      <trkpt lat="45.50384" lon="6.91661">
        <ele>1692.06</ele>
        <time>2011-06-26T08:26:17Z</time>
      </trkpt>
      <trkpt lat="45.50388" lon="6.91648">
        <ele>1695.42</ele>
        <time>2011-06-26T08:26:30Z</time>
      </trkpt>
      <trkpt lat="45.50388" lon="6.91644">
        <ele>1693.98</ele>
        <time>2011-06-26T08:26:33Z</time>
      </trkpt>
      <trkpt lat="45.50386" lon="6.91639">
        <ele>1698.79</ele>
        <time>2011-06-26T08:26:37Z</time>
      </trkpt>
      <trkpt lat="45.50386" lon="6.91638">
        <ele>1695.9</ele>
        <time>2011-06-26T08:26:38Z</time>
      </trkpt>
      <trkpt lat="45.50386" lon="6.91636">
        <ele>1699.27</ele>
        <time>2011-06-26T08:26:40Z</time>
      </trkpt>
      <trkpt lat="45.50386" lon="6.91632">
        <ele>1695.9</ele>
        <time>2011-06-26T08:26:44Z</time>
      </trkpt>
      <trkpt lat="45.50386" lon="6.91628">
        <ele>1695.9</ele>
        <time>2011-06-26T08:26:48Z</time>
      </trkpt>
      <trkpt lat="45.50387" lon="6.91628">
        <ele>1699.27</ele>
        <time>2011-06-26T08:26:49Z</time>
      </trkpt>
      <trkpt lat="45.50387" lon="6.91627">
        <ele>1697.34</ele>
        <time>2011-06-26T08:26:50Z</time>
      </trkpt>
      <trkpt lat="45.50388" lon="6.91624">
        <ele>1700.71</ele>
        <time>2011-06-26T08:26:55Z</time>
      </trkpt>
      <trkpt lat="45.50388" lon="6.91621">
        <ele>1697.83</ele>
        <time>2011-06-26T08:26:57Z</time>
      </trkpt>
      <trkpt lat="45.50387" lon="6.9162">
        <ele>1698.31</ele>
        <time>2011-06-26T08:26:58Z</time>
      </trkpt>
      <trkpt lat="45.50387" lon="6.91616">
        <ele>1699.75</ele>
        <time>2011-06-26T08:27:00Z</time>
      </trkpt>
      <trkpt lat="45.50386" lon="6.91611">
        <ele>1703.11</ele>
        <time>2011-06-26T08:27:03Z</time>
      </trkpt>
      <trkpt lat="45.50386" lon="6.91607">
        <ele>1699.27</ele>
        <time>2011-06-26T08:27:05Z</time>
      </trkpt>
      <trkpt lat="45.50387" lon="6.91606">
        <ele>1700.23</ele>
        <time>2011-06-26T08:27:06Z</time>
      </trkpt>
      <trkpt lat="45.50387" lon="6.91599">
        <ele>1703.59</ele>
        <time>2011-06-26T08:27:11Z</time>
      </trkpt>
      <trkpt lat="45.50387" lon="6.91597">
        <ele>1702.63</ele>
        <time>2011-06-26T08:27:15Z</time>
      </trkpt>
      <trkpt lat="45.50386" lon="6.91599">
        <ele>1706.96</ele>
        <time>2011-06-26T08:27:20Z</time>
      </trkpt>
      <trkpt lat="45.50385" lon="6.91607">
        <ele>1703.59</ele>
        <time>2011-06-26T08:27:23Z</time>
      </trkpt>
      <trkpt lat="45.50383" lon="6.91613">
        <ele>1709.36</ele>
        <time>2011-06-26T08:27:26Z</time>
      </trkpt>
      <trkpt lat="45.50383" lon="6.91615">
        <ele>1706.48</ele>
        <time>2011-06-26T08:27:27Z</time>
      </trkpt>
      <trkpt lat="45.50381" lon="6.91621">
        <ele>1710.32</ele>
        <time>2011-06-26T08:27:33Z</time>
      </trkpt>
      <trkpt lat="45.50381" lon="6.91621">
        <ele>1706.96</ele>
        <time>2011-06-26T08:27:34Z</time>
      </trkpt>
      <trkpt lat="45.5038" lon="6.91622">
        <ele>1709.36</ele>
        <time>2011-06-26T08:27:38Z</time>
      </trkpt>
      <trkpt lat="45.50379" lon="6.91624">
        <ele>1710.8</ele>
        <time>2011-06-26T08:27:41Z</time>
      </trkpt>
      <trkpt lat="45.50376" lon="6.9163">
        <ele>1707.44</ele>
        <time>2011-06-26T08:27:47Z</time>
      </trkpt>
      <trkpt lat="45.50375" lon="6.91631">
        <ele>1711.28</ele>
        <time>2011-06-26T08:27:48Z</time>
      </trkpt>
      <trkpt lat="45.50375" lon="6.91631">
        <ele>1710.32</ele>
        <time>2011-06-26T08:27:49Z</time>
      </trkpt>
      <trkpt lat="45.50373" lon="6.91631">
        <ele>1711.76</ele>
        <time>2011-06-26T08:27:52Z</time>
      </trkpt>
      <trkpt lat="45.50372" lon="6.91631">
        <ele>1709.84</ele>
        <time>2011-06-26T08:27:55Z</time>
      </trkpt>
      <trkpt lat="45.50371" lon="6.91632">
        <ele>1712.73</ele>
        <time>2011-06-26T08:27:58Z</time>
      </trkpt>
      <trkpt lat="45.50368" lon="6.91635">
        <ele>1714.17</ele>
        <time>2011-06-26T08:28:02Z</time>
      </trkpt>
      <trkpt lat="45.50366" lon="6.91636">
        <ele>1712.25</ele>
        <time>2011-06-26T08:28:04Z</time>
      </trkpt>
      <trkpt lat="45.50361" lon="6.91634">
        <ele>1715.61</ele>
        <time>2011-06-26T08:28:11Z</time>
      </trkpt>
      <trkpt lat="45.50342" lon="6.91641">
        <ele>1714.17</ele>
        <time>2011-06-26T08:28:29Z</time>
      </trkpt>
      <trkpt lat="45.50341" lon="6.91641">
        <ele>1718.01</ele>
        <time>2011-06-26T08:28:30Z</time>
      </trkpt>
      <trkpt lat="45.50336" lon="6.91639">
        <ele>1719.94</ele>
        <time>2011-06-26T08:28:36Z</time>
      </trkpt>
      <trkpt lat="45.50335" lon="6.9164">
        <ele>1716.09</ele>
        <time>2011-06-26T08:28:37Z</time>
      </trkpt>
      <trkpt lat="45.50334" lon="6.91641">
        <ele>1717.05</ele>
        <time>2011-06-26T08:28:38Z</time>
      </trkpt>
      <trkpt lat="45.50328" lon="6.91648">
        <ele>1718.97</ele>
        <time>2011-06-26T08:28:45Z</time>
      </trkpt>
      <trkpt lat="45.50322" lon="6.91649">
        <ele>1719.46</ele>
        <time>2011-06-26T08:28:49Z</time>
      </trkpt>
      <trkpt lat="45.50319" lon="6.91651">
        <ele>1718.97</ele>
        <time>2011-06-26T08:28:52Z</time>
      </trkpt>
      <trkpt lat="45.50316" lon="6.91651">
        <ele>1721.86</ele>
        <time>2011-06-26T08:28:54Z</time>
      </trkpt>
      <trkpt lat="45.50315" lon="6.91651">
        <ele>1718.49</ele>
        <time>2011-06-26T08:28:55Z</time>
      </trkpt>
      <trkpt lat="45.50314" lon="6.91651">
        <ele>1722.34</ele>
        <time>2011-06-26T08:28:56Z</time>
      </trkpt>
      <trkpt lat="45.50314" lon="6.91651">
        <ele>1719.46</ele>
        <time>2011-06-26T08:28:57Z</time>
      </trkpt>
      <trkpt lat="45.50311" lon="6.91651">
        <ele>1718.97</ele>
        <time>2011-06-26T08:29:01Z</time>
      </trkpt>
      <trkpt lat="45.50309" lon="6.9165">
        <ele>1721.86</ele>
        <time>2011-06-26T08:29:03Z</time>
      </trkpt>
      <trkpt lat="45.50307" lon="6.91648">
        <ele>1724.26</ele>
        <time>2011-06-26T08:29:05Z</time>
      </trkpt>
      <trkpt lat="45.50307" lon="6.91645">
        <ele>1720.9</ele>
        <time>2011-06-26T08:29:07Z</time>
      </trkpt>
      <trkpt lat="45.50307" lon="6.91644">
        <ele>1721.86</ele>
        <time>2011-06-26T08:29:08Z</time>
      </trkpt>
      <trkpt lat="45.50308" lon="6.91641">
        <ele>1723.78</ele>
        <time>2011-06-26T08:29:10Z</time>
      </trkpt>
      <trkpt lat="45.5031" lon="6.91628">
        <ele>1724.26</ele>
        <time>2011-06-26T08:29:18Z</time>
      </trkpt>
      <trkpt lat="45.50313" lon="6.91617">
        <ele>1727.63</ele>
        <time>2011-06-26T08:29:23Z</time>
      </trkpt>
      <trkpt lat="45.50314" lon="6.91616">
        <ele>1725.7</ele>
        <time>2011-06-26T08:29:27Z</time>
      </trkpt>
      <trkpt lat="45.50319" lon="6.91609">
        <ele>1730.99</ele>
        <time>2011-06-26T08:29:37Z</time>
      </trkpt>
      <trkpt lat="45.5032" lon="6.91608">
        <ele>1728.11</ele>
        <time>2011-06-26T08:29:38Z</time>
      </trkpt>
      <trkpt lat="45.5032" lon="6.91607">
        <ele>1731.47</ele>
        <time>2011-06-26T08:29:39Z</time>
      </trkpt>
      <trkpt lat="45.50323" lon="6.91598">
        <ele>1732.43</ele>
        <time>2011-06-26T08:29:45Z</time>
      </trkpt>
      <trkpt lat="45.50324" lon="6.91595">
        <ele>1733.39</ele>
        <time>2011-06-26T08:29:47Z</time>
      </trkpt>
      <trkpt lat="45.50325" lon="6.91593">
        <ele>1732.91</ele>
        <time>2011-06-26T08:29:49Z</time>
      </trkpt>
      <trkpt lat="45.50331" lon="6.91583">
        <ele>1737.24</ele>
        <time>2011-06-26T08:30:00Z</time>
      </trkpt>
      <trkpt lat="45.50332" lon="6.91583">
        <ele>1732.91</ele>
        <time>2011-06-26T08:30:01Z</time>
      </trkpt>
      <trkpt lat="45.50332" lon="6.91582">
        <ele>1735.8</ele>
        <time>2011-06-26T08:30:02Z</time>
      </trkpt>
      <trkpt lat="45.50335" lon="6.91579">
        <ele>1736.76</ele>
        <time>2011-06-26T08:30:08Z</time>
      </trkpt>
      <trkpt lat="45.50343" lon="6.91561">
        <ele>1739.64</ele>
        <time>2011-06-26T08:30:22Z</time>
      </trkpt>
      <trkpt lat="45.50344" lon="6.91559">
        <ele>1739.16</ele>
        <time>2011-06-26T08:30:24Z</time>
      </trkpt>
      <trkpt lat="45.50346" lon="6.91543">
        <ele>1742.53</ele>
        <time>2011-06-26T08:30:33Z</time>
      </trkpt>
      <trkpt lat="45.50346" lon="6.91528">
        <ele>1745.89</ele>
        <time>2011-06-26T08:30:48Z</time>
      </trkpt>
      <trkpt lat="45.50345" lon="6.91536">
        <ele>1749.74</ele>
        <time>2011-06-26T08:30:56Z</time>
      </trkpt>
      <trkpt lat="45.50344" lon="6.91538">
        <ele>1745.89</ele>
        <time>2011-06-26T08:30:58Z</time>
      </trkpt>
      <trkpt lat="45.50339" lon="6.91545">
        <ele>1748.78</ele>
        <time>2011-06-26T08:31:05Z</time>
      </trkpt>
      <trkpt lat="45.50337" lon="6.91547">
        <ele>1748.78</ele>
        <time>2011-06-26T08:31:08Z</time>
      </trkpt>
      <trkpt lat="45.50337" lon="6.91548">
        <ele>1751.18</ele>
        <time>2011-06-26T08:31:10Z</time>
      </trkpt>
      <trkpt lat="45.50338" lon="6.91541">
        <ele>1750.22</ele>
        <time>2011-06-26T08:31:15Z</time>
      </trkpt>
      <trkpt lat="45.50342" lon="6.91535">
        <ele>1755.02</ele>
        <time>2011-06-26T08:31:24Z</time>
      </trkpt>
      <trkpt lat="45.50334" lon="6.91546">
        <ele>1753.58</ele>
        <time>2011-06-26T08:31:37Z</time>
      </trkpt>
      <trkpt lat="45.50335" lon="6.91544">
        <ele>1755.02</ele>
        <time>2011-06-26T08:31:39Z</time>
      </trkpt>
      <trkpt lat="45.50337" lon="6.91539">
        <ele>1757.43</ele>
        <time>2011-06-26T08:31:43Z</time>
      </trkpt>
      <trkpt lat="45.50336" lon="6.91527">
        <ele>1755.5</ele>
        <time>2011-06-26T08:31:49Z</time>
      </trkpt>
      <trkpt lat="45.50339" lon="6.91522">
        <ele>1758.39</ele>
        <time>2011-06-26T08:31:53Z</time>
      </trkpt>
      <trkpt lat="45.50335" lon="6.91517">
        <ele>1759.83</ele>
        <time>2011-06-26T08:31:58Z</time>
      </trkpt>
      <trkpt lat="45.50326" lon="6.91527">
        <ele>1762.71</ele>
        <time>2011-06-26T08:32:11Z</time>
      </trkpt>
      <trkpt lat="45.50318" lon="6.9153">
        <ele>1766.56</ele>
        <time>2011-06-26T08:32:23Z</time>
      </trkpt>
      <trkpt lat="45.50317" lon="6.9153">
        <ele>1766.08</ele>
        <time>2011-06-26T08:32:24Z</time>
      </trkpt>
      <trkpt lat="45.50312" lon="6.91535">
        <ele>1767.52</ele>
        <time>2011-06-26T08:32:33Z</time>
      </trkpt>
      <trkpt lat="45.50307" lon="6.9154">
        <ele>1769.92</ele>
        <time>2011-06-26T08:32:44Z</time>
      </trkpt>
      <trkpt lat="45.50302" lon="6.9154">
        <ele>1771.37</ele>
        <time>2011-06-26T08:32:49Z</time>
      </trkpt>
      <trkpt lat="45.50287" lon="6.9154">
        <ele>1774.25</ele>
        <time>2011-06-26T08:33:06Z</time>
      </trkpt>
      <trkpt lat="45.50279" lon="6.91542">
        <ele>1775.21</ele>
        <time>2011-06-26T08:33:12Z</time>
      </trkpt>
      <trkpt lat="45.50277" lon="6.91542">
        <ele>1776.17</ele>
        <time>2011-06-26T08:33:14Z</time>
      </trkpt>
      <trkpt lat="45.50271" lon="6.91541">
        <ele>1778.1</ele>
        <time>2011-06-26T08:33:23Z</time>
      </trkpt>
      <trkpt lat="45.5026" lon="6.91535">
        <ele>1780.98</ele>
        <time>2011-06-26T08:33:36Z</time>
      </trkpt>
      <trkpt lat="45.5025" lon="6.91536">
        <ele>1784.34</ele>
        <time>2011-06-26T08:33:47Z</time>
      </trkpt>
      <trkpt lat="45.50249" lon="6.91536">
        <ele>1784.34</ele>
        <time>2011-06-26T08:33:48Z</time>
      </trkpt>
      <trkpt lat="45.50246" lon="6.91535">
        <ele>1785.31</ele>
        <time>2011-06-26T08:33:53Z</time>
      </trkpt>
      <trkpt lat="45.5024" lon="6.91534">
        <ele>1786.27</ele>
        <time>2011-06-26T08:34:00Z</time>
      </trkpt>
      <trkpt lat="45.50228" lon="6.91528">
        <ele>1791.07</ele>
        <time>2011-06-26T08:34:17Z</time>
      </trkpt>
      <trkpt lat="45.50223" lon="6.91528">
        <ele>1793</ele>
        <time>2011-06-26T08:34:24Z</time>
      </trkpt>
      <trkpt lat="45.50214" lon="6.91529">
        <ele>1796.36</ele>
        <time>2011-06-26T08:34:40Z</time>
      </trkpt>
      <trkpt lat="45.50207" lon="6.9153">
        <ele>1797.8</ele>
        <time>2011-06-26T08:34:53Z</time>
      </trkpt>
      <trkpt lat="45.502" lon="6.91533">
        <ele>1801.65</ele>
        <time>2011-06-26T08:35:05Z</time>
      </trkpt>
      <trkpt lat="45.50193" lon="6.91536">
        <ele>1803.09</ele>
        <time>2011-06-26T08:35:17Z</time>
      </trkpt>
      <trkpt lat="45.50188" lon="6.91534">
        <ele>1806.94</ele>
        <time>2011-06-26T08:35:29Z</time>
      </trkpt>
      <trkpt lat="45.50182" lon="6.91536">
        <ele>1809.34</ele>
        <time>2011-06-26T08:35:40Z</time>
      </trkpt>
      <trkpt lat="45.50178" lon="6.91536">
        <ele>1811.26</ele>
        <time>2011-06-26T08:35:45Z</time>
      </trkpt>
      <trkpt lat="45.50169" lon="6.91538">
        <ele>1814.15</ele>
        <time>2011-06-26T08:35:58Z</time>
      </trkpt>
      <trkpt lat="45.50163" lon="6.91532">
        <ele>1813.66</ele>
        <time>2011-06-26T08:36:06Z</time>
      </trkpt>
      <trkpt lat="45.50161" lon="6.91532">
        <ele>1816.07</ele>
        <time>2011-06-26T08:36:08Z</time>
      </trkpt>
      <trkpt lat="45.50149" lon="6.9154">
        <ele>1819.43</ele>
        <time>2011-06-26T08:36:21Z</time>
      </trkpt>
      <trkpt lat="45.50133" lon="6.91554">
        <ele>1821.84</ele>
        <time>2011-06-26T08:36:35Z</time>
      </trkpt>
      <trkpt lat="45.5012" lon="6.91559">
        <ele>1824.24</ele>
        <time>2011-06-26T08:36:45Z</time>
      </trkpt>
      <trkpt lat="45.50103" lon="6.9157">
        <ele>1827.12</ele>
        <time>2011-06-26T08:36:59Z</time>
      </trkpt>
      <trkpt lat="45.50098" lon="6.91577">
        <ele>1828.08</ele>
        <time>2011-06-26T08:37:08Z</time>
      </trkpt>
      <trkpt lat="45.50095" lon="6.91588">
        <ele>1830.01</ele>
        <time>2011-06-26T08:37:20Z</time>
      </trkpt>
      <trkpt lat="45.50094" lon="6.9159">
        <ele>1831.93</ele>
        <time>2011-06-26T08:37:27Z</time>
      </trkpt>
      <trkpt lat="45.50093" lon="6.91592">
        <ele>1833.37</ele>
        <time>2011-06-26T08:37:31Z</time>
      </trkpt>
      <trkpt lat="45.50087" lon="6.91605">
        <ele>1834.33</ele>
        <time>2011-06-26T08:37:39Z</time>
      </trkpt>
      <trkpt lat="45.50083" lon="6.91614">
        <ele>1833.37</ele>
        <time>2011-06-26T08:37:44Z</time>
      </trkpt>
      <trkpt lat="45.50083" lon="6.91633">
        <ele>1833.85</ele>
        <time>2011-06-26T08:37:51Z</time>
      </trkpt>
      <trkpt lat="45.50083" lon="6.91647">
        <ele>1833.37</ele>
        <time>2011-06-26T08:37:56Z</time>
      </trkpt>
      <trkpt lat="45.50081" lon="6.91658">
        <ele>1833.85</ele>
        <time>2011-06-26T08:37:59Z</time>
      </trkpt>
      <trkpt lat="45.50062" lon="6.91689">
        <ele>1832.41</ele>
        <time>2011-06-26T08:38:08Z</time>
      </trkpt>
      <trkpt lat="45.50036" lon="6.91724">
        <ele>1831.45</ele>
        <time>2011-06-26T08:38:20Z</time>
      </trkpt>
      <trkpt lat="45.50015" lon="6.9174">
        <ele>1832.89</ele>
        <time>2011-06-26T08:38:30Z</time>
      </trkpt>
      <trkpt lat="45.49996" lon="6.91746">
        <ele>1836.26</ele>
        <time>2011-06-26T08:38:40Z</time>
      </trkpt>
      <trkpt lat="45.49993" lon="6.91746">
        <ele>1836.74</ele>
        <time>2011-06-26T08:38:42Z</time>
      </trkpt>
      <trkpt lat="45.49978" lon="6.9175">
        <ele>1838.66</ele>
        <time>2011-06-26T08:38:51Z</time>
      </trkpt>
      <trkpt lat="45.49962" lon="6.91761">
        <ele>1842.02</ele>
        <time>2011-06-26T08:39:03Z</time>
      </trkpt>
      <trkpt lat="45.49951" lon="6.91772">
        <ele>1842.02</ele>
        <time>2011-06-26T08:39:13Z</time>
      </trkpt>
      <trkpt lat="45.49939" lon="6.91791">
        <ele>1845.39</ele>
        <time>2011-06-26T08:39:25Z</time>
      </trkpt>
      <trkpt lat="45.49915" lon="6.91811">
        <ele>1846.83</ele>
        <time>2011-06-26T08:39:40Z</time>
      </trkpt>
      <trkpt lat="45.49909" lon="6.91815">
        <ele>1845.87</ele>
        <time>2011-06-26T08:39:44Z</time>
      </trkpt>
      <trkpt lat="45.49899" lon="6.91819">
        <ele>1846.83</ele>
        <time>2011-06-26T08:39:49Z</time>
      </trkpt>
      <trkpt lat="45.49867" lon="6.91826">
        <ele>1846.35</ele>
        <time>2011-06-26T08:40:04Z</time>
      </trkpt>
      <trkpt lat="45.49844" lon="6.91829">
        <ele>1847.79</ele>
        <time>2011-06-26T08:40:14Z</time>
      </trkpt>
      <trkpt lat="45.49842" lon="6.91829">
        <ele>1846.83</ele>
        <time>2011-06-26T08:40:15Z</time>
      </trkpt>
      <trkpt lat="45.4982" lon="6.91838">
        <ele>1845.87</ele>
        <time>2011-06-26T08:40:26Z</time>
      </trkpt>
      <trkpt lat="45.49799" lon="6.91851">
        <ele>1842.5</ele>
        <time>2011-06-26T08:40:35Z</time>
      </trkpt>
      <trkpt lat="45.49784" lon="6.91862">
        <ele>1839.14</ele>
        <time>2011-06-26T08:40:42Z</time>
      </trkpt>
      <trkpt lat="45.49763" lon="6.9189">
        <ele>1836.26</ele>
        <time>2011-06-26T08:40:54Z</time>
      </trkpt>
      <trkpt lat="45.49742" lon="6.91899">
        <ele>1832.41</ele>
        <time>2011-06-26T08:41:02Z</time>
      </trkpt>
      <trkpt lat="45.49739" lon="6.91899">
        <ele>1832.41</ele>
        <time>2011-06-26T08:41:03Z</time>
      </trkpt>
      <trkpt lat="45.49737" lon="6.91899">
        <ele>1832.41</ele>
        <time>2011-06-26T08:41:04Z</time>
      </trkpt>
      <trkpt lat="45.49733" lon="6.91899">
        <ele>1833.37</ele>
        <time>2011-06-26T08:41:06Z</time>
      </trkpt>
      <trkpt lat="45.49718" lon="6.91931">
        <ele>1833.37</ele>
        <time>2011-06-26T08:41:18Z</time>
      </trkpt>
      <trkpt lat="45.49694" lon="6.91939">
        <ele>1834.81</ele>
        <time>2011-06-26T08:41:28Z</time>
      </trkpt>
      <trkpt lat="45.49686" lon="6.91936">
        <ele>1836.26</ele>
        <time>2011-06-26T08:41:33Z</time>
      </trkpt>
      <trkpt lat="45.49669" lon="6.91948">
        <ele>1839.62</ele>
        <time>2011-06-26T08:41:45Z</time>
      </trkpt>
      <trkpt lat="45.49668" lon="6.9195">
        <ele>1839.62</ele>
        <time>2011-06-26T08:41:46Z</time>
      </trkpt>
      <trkpt lat="45.49668" lon="6.91956">
        <ele>1840.58</ele>
        <time>2011-06-26T08:41:51Z</time>
      </trkpt>
      <trkpt lat="45.49657" lon="6.91971">
        <ele>1843.47</ele>
        <time>2011-06-26T08:42:07Z</time>
      </trkpt>
      <trkpt lat="45.4964" lon="6.91993">
        <ele>1845.87</ele>
        <time>2011-06-26T08:42:23Z</time>
      </trkpt>
      <trkpt lat="45.49622" lon="6.92009">
        <ele>1846.35</ele>
        <time>2011-06-26T08:42:37Z</time>
      </trkpt>
      <trkpt lat="45.49615" lon="6.92011">
        <ele>1846.35</ele>
        <time>2011-06-26T08:42:42Z</time>
      </trkpt>
      <trkpt lat="45.49601" lon="6.9202">
        <ele>1848.27</ele>
        <time>2011-06-26T08:42:52Z</time>
      </trkpt>
      <trkpt lat="45.49585" lon="6.92041">
        <ele>1850.68</ele>
        <time>2011-06-26T08:43:08Z</time>
      </trkpt>
      <trkpt lat="45.49578" lon="6.92046">
        <ele>1849.71</ele>
        <time>2011-06-26T08:43:13Z</time>
      </trkpt>
      <trkpt lat="45.49559" lon="6.92062">
        <ele>1850.68</ele>
        <time>2011-06-26T08:43:24Z</time>
      </trkpt>
      <trkpt lat="45.49542" lon="6.92075">
        <ele>1853.56</ele>
        <time>2011-06-26T08:43:36Z</time>
      </trkpt>
      <trkpt lat="45.49519" lon="6.92095">
        <ele>1854.04</ele>
        <time>2011-06-26T08:43:49Z</time>
      </trkpt>
      <trkpt lat="45.49502" lon="6.92108">
        <ele>1855.48</ele>
        <time>2011-06-26T08:43:58Z</time>
      </trkpt>
      <trkpt lat="45.49482" lon="6.92115">
        <ele>1856.92</ele>
        <time>2011-06-26T08:44:11Z</time>
      </trkpt>
      <trkpt lat="45.49462" lon="6.92116">
        <ele>1856.44</ele>
        <time>2011-06-26T08:44:25Z</time>
      </trkpt>
      <trkpt lat="45.49442" lon="6.92114">
        <ele>1858.85</ele>
        <time>2011-06-26T08:44:39Z</time>
      </trkpt>
      <trkpt lat="45.49429" lon="6.92116">
        <ele>1861.73</ele>
        <time>2011-06-26T08:44:50Z</time>
      </trkpt>
      <trkpt lat="45.49428" lon="6.92116">
        <ele>1861.25</ele>
        <time>2011-06-26T08:44:51Z</time>
      </trkpt>
      <trkpt lat="45.49424" lon="6.92116">
        <ele>1861.73</ele>
        <time>2011-06-26T08:44:55Z</time>
      </trkpt>
      <trkpt lat="45.49422" lon="6.92117">
        <ele>1862.69</ele>
        <time>2011-06-26T08:44:57Z</time>
      </trkpt>
      <trkpt lat="45.49419" lon="6.92118">
        <ele>1863.17</ele>
        <time>2011-06-26T08:45:00Z</time>
      </trkpt>
      <trkpt lat="45.49417" lon="6.92118">
        <ele>1863.17</ele>
        <time>2011-06-26T08:45:02Z</time>
      </trkpt>
      <trkpt lat="45.49411" lon="6.92121">
        <ele>1865.09</ele>
        <time>2011-06-26T08:45:07Z</time>
      </trkpt>
      <trkpt lat="45.49403" lon="6.92124">
        <ele>1867.02</ele>
        <time>2011-06-26T08:45:14Z</time>
      </trkpt>
      <trkpt lat="45.49389" lon="6.92132">
        <ele>1868.46</ele>
        <time>2011-06-26T08:45:27Z</time>
      </trkpt>
      <trkpt lat="45.49382" lon="6.92133">
        <ele>1871.34</ele>
        <time>2011-06-26T08:45:33Z</time>
      </trkpt>
      <trkpt lat="45.49376" lon="6.92134">
        <ele>1871.82</ele>
        <time>2011-06-26T08:45:39Z</time>
      </trkpt>
      <trkpt lat="45.49361" lon="6.92138">
        <ele>1875.67</ele>
        <time>2011-06-26T08:45:55Z</time>
      </trkpt>
      <trkpt lat="45.49346" lon="6.92144">
        <ele>1878.55</ele>
        <time>2011-06-26T08:46:12Z</time>
      </trkpt>
      <trkpt lat="45.49337" lon="6.92148">
        <ele>1880.96</ele>
        <time>2011-06-26T08:46:22Z</time>
      </trkpt>
      <trkpt lat="45.4933" lon="6.92148">
        <ele>1882.4</ele>
        <time>2011-06-26T08:46:30Z</time>
      </trkpt>
      <trkpt lat="45.49319" lon="6.9215">
        <ele>1885.76</ele>
        <time>2011-06-26T08:46:43Z</time>
      </trkpt>
      <trkpt lat="45.49313" lon="6.9215">
        <ele>1888.17</ele>
        <time>2011-06-26T08:46:50Z</time>
      </trkpt>
      <trkpt lat="45.4931" lon="6.92151">
        <ele>1888.17</ele>
        <time>2011-06-26T08:46:54Z</time>
      </trkpt>
      <trkpt lat="45.49301" lon="6.92154">
        <ele>1892.01</ele>
        <time>2011-06-26T08:47:04Z</time>
      </trkpt>
      <trkpt lat="45.49296" lon="6.92153">
        <ele>1892.01</ele>
        <time>2011-06-26T08:47:10Z</time>
      </trkpt>
      <trkpt lat="45.49294" lon="6.92155">
        <ele>1892.49</ele>
        <time>2011-06-26T08:47:13Z</time>
      </trkpt>
      <trkpt lat="45.49289" lon="6.92154">
        <ele>1894.9</ele>
        <time>2011-06-26T08:47:20Z</time>
      </trkpt>
      <trkpt lat="45.49286" lon="6.92153">
        <ele>1894.42</ele>
        <time>2011-06-26T08:47:23Z</time>
      </trkpt>
      <trkpt lat="45.49284" lon="6.92152">
        <ele>1895.86</ele>
        <time>2011-06-26T08:47:25Z</time>
      </trkpt>
      <trkpt lat="45.49272" lon="6.9215">
        <ele>1899.7</ele>
        <time>2011-06-26T08:47:35Z</time>
      </trkpt>
      <trkpt lat="45.49271" lon="6.9215">
        <ele>1898.26</ele>
        <time>2011-06-26T08:47:36Z</time>
      </trkpt>
      <trkpt lat="45.49261" lon="6.92149">
        <ele>1900.18</ele>
        <time>2011-06-26T08:47:49Z</time>
      </trkpt>
      <trkpt lat="45.49256" lon="6.92149">
        <ele>1902.11</ele>
        <time>2011-06-26T08:47:56Z</time>
      </trkpt>
      <trkpt lat="45.49253" lon="6.92148">
        <ele>1903.55</ele>
        <time>2011-06-26T08:48:00Z</time>
      </trkpt>
      <trkpt lat="45.49246" lon="6.92148">
        <ele>1906.43</ele>
        <time>2011-06-26T08:48:12Z</time>
      </trkpt>
      <trkpt lat="45.49244" lon="6.92148">
        <ele>1906.43</ele>
        <time>2011-06-26T08:48:15Z</time>
      </trkpt>
      <trkpt lat="45.49242" lon="6.92149">
        <ele>1907.87</ele>
        <time>2011-06-26T08:48:18Z</time>
      </trkpt>
      <trkpt lat="45.49235" lon="6.92149">
        <ele>1910.76</ele>
        <time>2011-06-26T08:48:31Z</time>
      </trkpt>
      <trkpt lat="45.49232" lon="6.9215">
        <ele>1911.24</ele>
        <time>2011-06-26T08:48:35Z</time>
      </trkpt>
      <trkpt lat="45.49225" lon="6.9215">
        <ele>1916.53</ele>
        <time>2011-06-26T08:48:45Z</time>
      </trkpt>
      <trkpt lat="45.49225" lon="6.9215">
        <ele>1912.2</ele>
        <time>2011-06-26T08:48:46Z</time>
      </trkpt>
      <trkpt lat="45.49224" lon="6.92149">
        <ele>1915.08</ele>
        <time>2011-06-26T08:48:47Z</time>
      </trkpt>
      <trkpt lat="45.49217" lon="6.92149">
        <ele>1918.93</ele>
        <time>2011-06-26T08:49:01Z</time>
      </trkpt>
      <trkpt lat="45.49212" lon="6.92149">
        <ele>1920.37</ele>
        <time>2011-06-26T08:49:09Z</time>
      </trkpt>
    </trkseg>
  </trk>
  <trk>
    <name><![CDATA[ACTIVE LOG: 26 JUN 2011 10:49]]></name>
    <trkseg>
      <trkpt lat="45.49201" lon="6.92149">
        <ele>1922.29</ele>
        <time>2011-06-26T08:49:30Z</time>
      </trkpt>
      <trkpt lat="45.49197" lon="6.92148">
        <ele>1925.66</ele>
        <time>2011-06-26T08:49:38Z</time>
      </trkpt>
      <trkpt lat="45.49191" lon="6.92148">
        <ele>1927.1</ele>
        <time>2011-06-26T08:49:48Z</time>
      </trkpt>
      <trkpt lat="45.49185" lon="6.92148">
        <ele>1931.91</ele>
        <time>2011-06-26T08:49:57Z</time>
      </trkpt>
      <trkpt lat="45.49178" lon="6.92147">
        <ele>1934.79</ele>
        <time>2011-06-26T08:50:09Z</time>
      </trkpt>
      <trkpt lat="45.49178" lon="6.92147">
        <ele>1930.95</ele>
        <time>2011-06-26T08:50:10Z</time>
      </trkpt>
      <trkpt lat="45.49177" lon="6.92147">
        <ele>1934.31</ele>
        <time>2011-06-26T08:50:11Z</time>
      </trkpt>
      <trkpt lat="45.49171" lon="6.92148">
        <ele>1934.31</ele>
        <time>2011-06-26T08:50:22Z</time>
      </trkpt>
      <trkpt lat="45.49168" lon="6.92149">
        <ele>1938.16</ele>
        <time>2011-06-26T08:50:27Z</time>
      </trkpt>
      <trkpt lat="45.49163" lon="6.92154">
        <ele>1939.12</ele>
        <time>2011-06-26T08:50:33Z</time>
      </trkpt>
      <trkpt lat="45.49161" lon="6.92155">
        <ele>1938.64</ele>
        <time>2011-06-26T08:50:36Z</time>
      </trkpt>
      <trkpt lat="45.49154" lon="6.92163">
        <ele>1941.04</ele>
        <time>2011-06-26T08:50:47Z</time>
      </trkpt>
      <trkpt lat="45.49151" lon="6.92164">
        <ele>1942</ele>
        <time>2011-06-26T08:50:51Z</time>
      </trkpt>
      <trkpt lat="45.49143" lon="6.92171">
        <ele>1944.88</ele>
        <time>2011-06-26T08:51:05Z</time>
      </trkpt>
      <trkpt lat="45.49134" lon="6.92177">
        <ele>1948.73</ele>
        <time>2011-06-26T08:51:19Z</time>
      </trkpt>
      <trkpt lat="45.49128" lon="6.92184">
        <ele>1949.21</ele>
        <time>2011-06-26T08:51:29Z</time>
      </trkpt>
      <trkpt lat="45.49123" lon="6.92182">
        <ele>1951.61</ele>
        <time>2011-06-26T08:51:36Z</time>
      </trkpt>
      <trkpt lat="45.49117" lon="6.92187">
        <ele>1953.06</ele>
        <time>2011-06-26T08:51:47Z</time>
      </trkpt>
      <trkpt lat="45.49111" lon="6.92186">
        <ele>1954.98</ele>
        <time>2011-06-26T08:51:57Z</time>
      </trkpt>
      <trkpt lat="45.49109" lon="6.92192">
        <ele>1957.38</ele>
        <time>2011-06-26T08:52:03Z</time>
      </trkpt>
      <trkpt lat="45.49103" lon="6.92192">
        <ele>1958.34</ele>
        <time>2011-06-26T08:52:09Z</time>
      </trkpt>
      <trkpt lat="45.491" lon="6.92196">
        <ele>1959.3</ele>
        <time>2011-06-26T08:52:14Z</time>
      </trkpt>
      <trkpt lat="45.49095" lon="6.92203">
        <ele>1960.75</ele>
        <time>2011-06-26T08:52:21Z</time>
      </trkpt>
      <trkpt lat="45.49092" lon="6.92205">
        <ele>1962.67</ele>
        <time>2011-06-26T08:52:24Z</time>
      </trkpt>
      <trkpt lat="45.4909" lon="6.92209">
        <ele>1962.19</ele>
        <time>2011-06-26T08:52:40Z</time>
      </trkpt>
      <trkpt lat="45.49083" lon="6.92222">
        <ele>1965.55</ele>
        <time>2011-06-26T08:53:05Z</time>
      </trkpt>
      <trkpt lat="45.4908" lon="6.92229">
        <ele>1966.99</ele>
        <time>2011-06-26T08:53:11Z</time>
      </trkpt>
      <trkpt lat="45.49074" lon="6.92237">
        <ele>1969.88</ele>
        <time>2011-06-26T08:53:23Z</time>
      </trkpt>
      <trkpt lat="45.49067" lon="6.92243">
        <ele>1973.24</ele>
        <time>2011-06-26T08:53:34Z</time>
      </trkpt>
      <trkpt lat="45.49059" lon="6.92249">
        <ele>1975.65</ele>
        <time>2011-06-26T08:53:47Z</time>
      </trkpt>
      <trkpt lat="45.4905" lon="6.92248">
        <ele>1979.01</ele>
        <time>2011-06-26T08:54:00Z</time>
      </trkpt>
      <trkpt lat="45.49049" lon="6.92249">
        <ele>1979.01</ele>
        <time>2011-06-26T08:54:01Z</time>
      </trkpt>
      <trkpt lat="45.49041" lon="6.92248">
        <ele>1979.97</ele>
        <time>2011-06-26T08:54:11Z</time>
      </trkpt>
      <trkpt lat="45.49039" lon="6.92244">
        <ele>1981.9</ele>
        <time>2011-06-26T08:54:15Z</time>
      </trkpt>
      <trkpt lat="45.49037" lon="6.9224">
        <ele>1982.38</ele>
        <time>2011-06-26T08:54:18Z</time>
      </trkpt>
      <trkpt lat="45.49037" lon="6.92228">
        <ele>1984.3</ele>
        <time>2011-06-26T08:54:25Z</time>
      </trkpt>
      <trkpt lat="45.49035" lon="6.92205">
        <ele>1987.18</ele>
        <time>2011-06-26T08:54:40Z</time>
      </trkpt>
      <trkpt lat="45.49036" lon="6.92197">
        <ele>1990.55</ele>
        <time>2011-06-26T08:54:48Z</time>
      </trkpt>
      <trkpt lat="45.49038" lon="6.9219">
        <ele>1991.51</ele>
        <time>2011-06-26T08:54:54Z</time>
      </trkpt>
      <trkpt lat="45.49042" lon="6.92171">
        <ele>1993.43</ele>
        <time>2011-06-26T08:55:06Z</time>
      </trkpt>
      <trkpt lat="45.49046" lon="6.92159">
        <ele>1995.83</ele>
        <time>2011-06-26T08:55:16Z</time>
      </trkpt>
      <trkpt lat="45.49052" lon="6.92139">
        <ele>2000.16</ele>
        <time>2011-06-26T08:55:32Z</time>
      </trkpt>
      <trkpt lat="45.49053" lon="6.92135">
        <ele>2000.16</ele>
        <time>2011-06-26T08:55:35Z</time>
      </trkpt>
      <trkpt lat="45.49057" lon="6.92121">
        <ele>2003.04</ele>
        <time>2011-06-26T08:55:47Z</time>
      </trkpt>
      <trkpt lat="45.49058" lon="6.92119">
        <ele>2008.81</ele>
        <time>2011-06-26T08:55:50Z</time>
      </trkpt>
      <trkpt lat="45.49058" lon="6.92118">
        <ele>2002.56</ele>
        <time>2011-06-26T08:55:51Z</time>
      </trkpt>
      <trkpt lat="45.4906" lon="6.92115">
        <ele>2001.6</ele>
        <time>2011-06-26T08:55:54Z</time>
      </trkpt>
      <trkpt lat="45.49061" lon="6.92114">
        <ele>2005.45</ele>
        <time>2011-06-26T08:55:55Z</time>
      </trkpt>
      <trkpt lat="45.49063" lon="6.9211">
        <ele>2006.89</ele>
        <time>2011-06-26T08:56:00Z</time>
      </trkpt>
      <trkpt lat="45.49063" lon="6.92109">
        <ele>2004.01</ele>
        <time>2011-06-26T08:56:01Z</time>
      </trkpt>
      <trkpt lat="45.49064" lon="6.92101">
        <ele>2008.33</ele>
        <time>2011-06-26T08:56:07Z</time>
      </trkpt>
      <trkpt lat="45.49064" lon="6.921">
        <ele>2008.81</ele>
        <time>2011-06-26T08:56:08Z</time>
      </trkpt>
      <trkpt lat="45.49064" lon="6.92099">
        <ele>2004.49</ele>
        <time>2011-06-26T08:56:09Z</time>
      </trkpt>
      <trkpt lat="45.49064" lon="6.92098">
        <ele>2004.97</ele>
        <time>2011-06-26T08:56:10Z</time>
      </trkpt>
      <trkpt lat="45.49065" lon="6.92095">
        <ele>2009.29</ele>
        <time>2011-06-26T08:56:12Z</time>
      </trkpt>
      <trkpt lat="45.4907" lon="6.92081">
        <ele>2010.73</ele>
        <time>2011-06-26T08:56:27Z</time>
      </trkpt>
      <trkpt lat="45.49071" lon="6.92078">
        <ele>2009.77</ele>
        <time>2011-06-26T08:56:29Z</time>
      </trkpt>
      <trkpt lat="45.49074" lon="6.92072">
        <ele>2013.62</ele>
        <time>2011-06-26T08:56:33Z</time>
      </trkpt>
      <trkpt lat="45.49074" lon="6.9207">
        <ele>2010.73</ele>
        <time>2011-06-26T08:56:34Z</time>
      </trkpt>
      <trkpt lat="45.49079" lon="6.92063">
        <ele>2013.14</ele>
        <time>2011-06-26T08:56:39Z</time>
      </trkpt>
      <trkpt lat="45.49084" lon="6.92052">
        <ele>2014.1</ele>
        <time>2011-06-26T08:56:45Z</time>
      </trkpt>
      <trkpt lat="45.49091" lon="6.92041">
        <ele>2016.02</ele>
        <time>2011-06-26T08:56:55Z</time>
      </trkpt>
      <trkpt lat="45.49098" lon="6.92033">
        <ele>2017.94</ele>
        <time>2011-06-26T08:57:02Z</time>
      </trkpt>
      <trkpt lat="45.49108" lon="6.92025">
        <ele>2019.39</ele>
        <time>2011-06-26T08:57:11Z</time>
      </trkpt>
      <trkpt lat="45.49123" lon="6.92013">
        <ele>2022.75</ele>
        <time>2011-06-26T08:57:25Z</time>
      </trkpt>
      <trkpt lat="45.49124" lon="6.92012">
        <ele>2022.75</ele>
        <time>2011-06-26T08:57:26Z</time>
      </trkpt>
      <trkpt lat="45.49133" lon="6.92006">
        <ele>2025.64</ele>
        <time>2011-06-26T08:57:35Z</time>
      </trkpt>
      <trkpt lat="45.49136" lon="6.92003">
        <ele>2025.64</ele>
        <time>2011-06-26T08:57:38Z</time>
      </trkpt>
      <trkpt lat="45.4914" lon="6.92">
        <ele>2026.6</ele>
        <time>2011-06-26T08:57:42Z</time>
      </trkpt>
      <trkpt lat="45.49147" lon="6.91996">
        <ele>2027.56</ele>
        <time>2011-06-26T08:57:48Z</time>
      </trkpt>
      <trkpt lat="45.49156" lon="6.91991">
        <ele>2029.48</ele>
        <time>2011-06-26T08:57:56Z</time>
      </trkpt>
      <trkpt lat="45.49168" lon="6.91983">
        <ele>2032.36</ele>
        <time>2011-06-26T08:58:07Z</time>
      </trkpt>
      <trkpt lat="45.49173" lon="6.91981">
        <ele>2032.84</ele>
        <time>2011-06-26T08:58:12Z</time>
      </trkpt>
      <trkpt lat="45.4918" lon="6.91977">
        <ele>2034.29</ele>
        <time>2011-06-26T08:58:19Z</time>
      </trkpt>
      <trkpt lat="45.49185" lon="6.91973">
        <ele>2034.29</ele>
        <time>2011-06-26T08:58:23Z</time>
      </trkpt>
      <trkpt lat="45.49187" lon="6.91971">
        <ele>2037.17</ele>
        <time>2011-06-26T08:58:25Z</time>
      </trkpt>
      <trkpt lat="45.492" lon="6.91957">
        <ele>2039.57</ele>
        <time>2011-06-26T08:58:39Z</time>
      </trkpt>
      <trkpt lat="45.49201" lon="6.91956">
        <ele>2038.61</ele>
        <time>2011-06-26T08:58:40Z</time>
      </trkpt>
      <trkpt lat="45.49205" lon="6.91948">
        <ele>2040.54</ele>
        <time>2011-06-26T08:58:45Z</time>
      </trkpt>
      <trkpt lat="45.4922" lon="6.91935">
        <ele>2042.46</ele>
        <time>2011-06-26T08:58:58Z</time>
      </trkpt>
      <trkpt lat="45.49225" lon="6.91929">
        <ele>2043.42</ele>
        <time>2011-06-26T08:59:04Z</time>
      </trkpt>
      <trkpt lat="45.49237" lon="6.91914">
        <ele>2046.3</ele>
        <time>2011-06-26T08:59:16Z</time>
      </trkpt>
      <trkpt lat="45.49239" lon="6.91911">
        <ele>2046.78</ele>
        <time>2011-06-26T08:59:18Z</time>
      </trkpt>
      <trkpt lat="45.49243" lon="6.91904">
        <ele>2047.26</ele>
        <time>2011-06-26T08:59:23Z</time>
      </trkpt>
      <trkpt lat="45.49257" lon="6.91879">
        <ele>2050.15</ele>
        <time>2011-06-26T08:59:39Z</time>
      </trkpt>
      <trkpt lat="45.49274" lon="6.91858">
        <ele>2050.63</ele>
        <time>2011-06-26T08:59:54Z</time>
      </trkpt>
      <trkpt lat="45.49282" lon="6.91846">
        <ele>2053.99</ele>
        <time>2011-06-26T09:00:02Z</time>
      </trkpt>
      <trkpt lat="45.49288" lon="6.91838">
        <ele>2053.99</ele>
        <time>2011-06-26T09:00:07Z</time>
      </trkpt>
      <trkpt lat="45.49305" lon="6.91822">
        <ele>2055.44</ele>
        <time>2011-06-26T09:00:21Z</time>
      </trkpt>
      <trkpt lat="45.49312" lon="6.91809">
        <ele>2056.88</ele>
        <time>2011-06-26T09:00:28Z</time>
      </trkpt>
      <trkpt lat="45.49318" lon="6.91793">
        <ele>2058.32</ele>
        <time>2011-06-26T09:00:36Z</time>
      </trkpt>
      <trkpt lat="45.49325" lon="6.91778">
        <ele>2059.76</ele>
        <time>2011-06-26T09:00:46Z</time>
      </trkpt>
      <trkpt lat="45.49334" lon="6.91743">
        <ele>2063.61</ele>
        <time>2011-06-26T09:01:05Z</time>
      </trkpt>
      <trkpt lat="45.49331" lon="6.91728">
        <ele>2066.97</ele>
        <time>2011-06-26T09:01:17Z</time>
      </trkpt>
      <trkpt lat="45.49332" lon="6.91713">
        <ele>2069.38</ele>
        <time>2011-06-26T09:01:30Z</time>
      </trkpt>
      <trkpt lat="45.49332" lon="6.91703">
        <ele>2071.78</ele>
        <time>2011-06-26T09:01:39Z</time>
      </trkpt>
      <trkpt lat="45.49338" lon="6.91683">
        <ele>2074.66</ele>
        <time>2011-06-26T09:01:55Z</time>
      </trkpt>
      <trkpt lat="45.49342" lon="6.91671">
        <ele>2076.1</ele>
        <time>2011-06-26T09:02:04Z</time>
      </trkpt>
      <trkpt lat="45.49345" lon="6.91655">
        <ele>2079.95</ele>
        <time>2011-06-26T09:02:16Z</time>
      </trkpt>
      <trkpt lat="45.49347" lon="6.91645">
        <ele>2081.39</ele>
        <time>2011-06-26T09:02:24Z</time>
      </trkpt>
      <trkpt lat="45.49349" lon="6.91641">
        <ele>2082.35</ele>
        <time>2011-06-26T09:02:29Z</time>
      </trkpt>
      <trkpt lat="45.49351" lon="6.91638">
        <ele>2083.79</ele>
        <time>2011-06-26T09:02:32Z</time>
      </trkpt>
      <trkpt lat="45.49357" lon="6.91625">
        <ele>2087.16</ele>
        <time>2011-06-26T09:02:44Z</time>
      </trkpt>
      <trkpt lat="45.49358" lon="6.91624">
        <ele>2086.2</ele>
        <time>2011-06-26T09:02:45Z</time>
      </trkpt>
      <trkpt lat="45.49361" lon="6.9162">
        <ele>2087.64</ele>
        <time>2011-06-26T09:02:49Z</time>
      </trkpt>
      <trkpt lat="45.49363" lon="6.91613">
        <ele>2089.08</ele>
        <time>2011-06-26T09:02:55Z</time>
      </trkpt>
      <trkpt lat="45.49361" lon="6.91594">
        <ele>2091.49</ele>
        <time>2011-06-26T09:03:10Z</time>
      </trkpt>
      <trkpt lat="45.49359" lon="6.91593">
        <ele>2091.97</ele>
        <time>2011-06-26T09:03:13Z</time>
      </trkpt>
      <trkpt lat="45.49346" lon="6.91592">
        <ele>2095.81</ele>
        <time>2011-06-26T09:03:27Z</time>
      </trkpt>
      <trkpt lat="45.49342" lon="6.91593">
        <ele>2096.77</ele>
        <time>2011-06-26T09:03:31Z</time>
      </trkpt>
      <trkpt lat="45.49335" lon="6.91596">
        <ele>2099.18</ele>
        <time>2011-06-26T09:03:38Z</time>
      </trkpt>
      <trkpt lat="45.49331" lon="6.91599">
        <ele>2099.18</ele>
        <time>2011-06-26T09:03:42Z</time>
      </trkpt>
      <trkpt lat="45.49321" lon="6.91599">
        <ele>2102.54</ele>
        <time>2011-06-26T09:03:52Z</time>
      </trkpt>
      <trkpt lat="45.49311" lon="6.91597">
        <ele>2105.91</ele>
        <time>2011-06-26T09:04:03Z</time>
      </trkpt>
      <trkpt lat="45.49299" lon="6.91585">
        <ele>2108.31</ele>
        <time>2011-06-26T09:04:17Z</time>
      </trkpt>
      <trkpt lat="45.49296" lon="6.91573">
        <ele>2110.23</ele>
        <time>2011-06-26T09:04:26Z</time>
      </trkpt>
      <trkpt lat="45.49296" lon="6.91559">
        <ele>2113.6</ele>
        <time>2011-06-26T09:04:36Z</time>
      </trkpt>
      <trkpt lat="45.49297" lon="6.91548">
        <ele>2114.08</ele>
        <time>2011-06-26T09:04:44Z</time>
      </trkpt>
      <trkpt lat="45.49295" lon="6.91523">
        <ele>2117.44</ele>
        <time>2011-06-26T09:05:00Z</time>
      </trkpt>
      <trkpt lat="45.4929" lon="6.91512">
        <ele>2119.84</ele>
        <time>2011-06-26T09:05:10Z</time>
      </trkpt>
      <trkpt lat="45.49283" lon="6.91511">
        <ele>2122.25</ele>
        <time>2011-06-26T09:05:17Z</time>
      </trkpt>
      <trkpt lat="45.49273" lon="6.91508">
        <ele>2125.13</ele>
        <time>2011-06-26T09:05:28Z</time>
      </trkpt>
      <trkpt lat="45.49267" lon="6.91502">
        <ele>2126.09</ele>
        <time>2011-06-26T09:05:35Z</time>
      </trkpt>
      <trkpt lat="45.49255" lon="6.91497">
        <ele>2129.46</ele>
        <time>2011-06-26T09:05:47Z</time>
      </trkpt>
      <trkpt lat="45.49241" lon="6.91489">
        <ele>2130.42</ele>
        <time>2011-06-26T09:06:02Z</time>
      </trkpt>
      <trkpt lat="45.49234" lon="6.91485">
        <ele>2132.34</ele>
        <time>2011-06-26T09:06:09Z</time>
      </trkpt>
      <trkpt lat="45.49211" lon="6.91471">
        <ele>2135.23</ele>
        <time>2011-06-26T09:06:27Z</time>
      </trkpt>
      <trkpt lat="45.49189" lon="6.91454">
        <ele>2137.15</ele>
        <time>2011-06-26T09:06:44Z</time>
      </trkpt>
      <trkpt lat="45.49181" lon="6.91447">
        <ele>2139.07</ele>
        <time>2011-06-26T09:06:49Z</time>
      </trkpt>
      <trkpt lat="45.49161" lon="6.91434">
        <ele>2141.47</ele>
        <time>2011-06-26T09:07:00Z</time>
      </trkpt>
      <trkpt lat="45.49142" lon="6.91421">
        <ele>2144.84</ele>
        <time>2011-06-26T09:07:11Z</time>
      </trkpt>
      <trkpt lat="45.49136" lon="6.91418">
        <ele>2145.32</ele>
        <time>2011-06-26T09:07:16Z</time>
      </trkpt>
      <trkpt lat="45.49127" lon="6.91413">
        <ele>2147.72</ele>
        <time>2011-06-26T09:07:23Z</time>
      </trkpt>
      <trkpt lat="45.4911" lon="6.91403">
        <ele>2149.16</ele>
        <time>2011-06-26T09:07:37Z</time>
      </trkpt>
      <trkpt lat="45.49098" lon="6.914">
        <ele>2150.13</ele>
        <time>2011-06-26T09:07:52Z</time>
      </trkpt>
      <trkpt lat="45.4908" lon="6.91396">
        <ele>2152.53</ele>
        <time>2011-06-26T09:08:08Z</time>
      </trkpt>
      <trkpt lat="45.49059" lon="6.91384">
        <ele>2152.53</ele>
        <time>2011-06-26T09:08:24Z</time>
      </trkpt>
      <trkpt lat="45.49041" lon="6.91381">
        <ele>2153.49</ele>
        <time>2011-06-26T09:08:37Z</time>
      </trkpt>
      <trkpt lat="45.49029" lon="6.91379">
        <ele>2153.49</ele>
        <time>2011-06-26T09:08:45Z</time>
      </trkpt>
      <trkpt lat="45.49002" lon="6.91385">
        <ele>2153.97</ele>
        <time>2011-06-26T09:09:04Z</time>
      </trkpt>
      <trkpt lat="45.48987" lon="6.91391">
        <ele>2153.01</ele>
        <time>2011-06-26T09:09:14Z</time>
      </trkpt>
      <trkpt lat="45.48962" lon="6.91408">
        <ele>2153.01</ele>
        <time>2011-06-26T09:09:25Z</time>
      </trkpt>
      <trkpt lat="45.48944" lon="6.91397">
        <ele>2152.53</ele>
        <time>2011-06-26T09:09:36Z</time>
      </trkpt>
      <trkpt lat="45.48924" lon="6.9138">
        <ele>2154.93</ele>
        <time>2011-06-26T09:09:53Z</time>
      </trkpt>
      <trkpt lat="45.48923" lon="6.91379">
        <ele>2155.89</ele>
        <time>2011-06-26T09:09:54Z</time>
      </trkpt>
      <trkpt lat="45.48911" lon="6.91357">
        <ele>2157.82</ele>
        <time>2011-06-26T09:10:09Z</time>
      </trkpt>
      <trkpt lat="45.4891" lon="6.9135">
        <ele>2158.78</ele>
        <time>2011-06-26T09:10:13Z</time>
      </trkpt>
      <trkpt lat="45.48908" lon="6.91339">
        <ele>2159.74</ele>
        <time>2011-06-26T09:10:20Z</time>
      </trkpt>
      <trkpt lat="45.489" lon="6.91313">
        <ele>2161.66</ele>
        <time>2011-06-26T09:10:37Z</time>
      </trkpt>
      <trkpt lat="45.48897" lon="6.91307">
        <ele>2161.66</ele>
        <time>2011-06-26T09:10:41Z</time>
      </trkpt>
      <trkpt lat="45.48887" lon="6.91297">
        <ele>2163.58</ele>
        <time>2011-06-26T09:10:52Z</time>
      </trkpt>
      <trkpt lat="45.48875" lon="6.91291">
        <ele>2166.47</ele>
        <time>2011-06-26T09:11:05Z</time>
      </trkpt>
      <trkpt lat="45.48869" lon="6.91288">
        <ele>2168.39</ele>
        <time>2011-06-26T09:11:13Z</time>
      </trkpt>
      <trkpt lat="45.48857" lon="6.91283">
        <ele>2171.27</ele>
        <time>2011-06-26T09:11:28Z</time>
      </trkpt>
      <trkpt lat="45.48849" lon="6.91277">
        <ele>2173.2</ele>
        <time>2011-06-26T09:11:40Z</time>
      </trkpt>
      <trkpt lat="45.4884" lon="6.91273">
        <ele>2175.6</ele>
        <time>2011-06-26T09:11:53Z</time>
      </trkpt>
      <trkpt lat="45.48832" lon="6.91267">
        <ele>2178.97</ele>
        <time>2011-06-26T09:12:04Z</time>
      </trkpt>
      <trkpt lat="45.48831" lon="6.91266">
        <ele>2178.97</ele>
        <time>2011-06-26T09:12:05Z</time>
      </trkpt>
      <trkpt lat="45.48829" lon="6.91264">
        <ele>2179.45</ele>
        <time>2011-06-26T09:12:08Z</time>
      </trkpt>
      <trkpt lat="45.48828" lon="6.91259">
        <ele>2179.45</ele>
        <time>2011-06-26T09:12:12Z</time>
      </trkpt>
      <trkpt lat="45.48818" lon="6.91253">
        <ele>2182.33</ele>
        <time>2011-06-26T09:12:24Z</time>
      </trkpt>
      <trkpt lat="45.48814" lon="6.91253">
        <ele>2182.81</ele>
        <time>2011-06-26T09:12:28Z</time>
      </trkpt>
      <trkpt lat="45.48806" lon="6.91251">
        <ele>2184.25</ele>
        <time>2011-06-26T09:12:40Z</time>
      </trkpt>
      <trkpt lat="45.48805" lon="6.91251">
        <ele>2185.69</ele>
        <time>2011-06-26T09:12:41Z</time>
      </trkpt>
      <trkpt lat="45.48796" lon="6.91246">
        <ele>2188.1</ele>
        <time>2011-06-26T09:12:53Z</time>
      </trkpt>
      <trkpt lat="45.48791" lon="6.91248">
        <ele>2188.1</ele>
        <time>2011-06-26T09:12:58Z</time>
      </trkpt>
      <trkpt lat="45.48784" lon="6.91245">
        <ele>2191.46</ele>
        <time>2011-06-26T09:13:07Z</time>
      </trkpt>
      <trkpt lat="45.48777" lon="6.91233">
        <ele>2194.35</ele>
        <time>2011-06-26T09:13:20Z</time>
      </trkpt>
      <trkpt lat="45.48772" lon="6.91229">
        <ele>2196.75</ele>
        <time>2011-06-26T09:13:28Z</time>
      </trkpt>
      <trkpt lat="45.48766" lon="6.91223">
        <ele>2200.59</ele>
        <time>2011-06-26T09:13:39Z</time>
      </trkpt>
      <trkpt lat="45.48766" lon="6.91223">
        <ele>2200.11</ele>
        <time>2011-06-26T09:13:40Z</time>
      </trkpt>
      <trkpt lat="45.48762" lon="6.91217">
        <ele>2201.08</ele>
        <time>2011-06-26T09:13:47Z</time>
      </trkpt>
      <trkpt lat="45.48757" lon="6.91212">
        <ele>2203.48</ele>
        <time>2011-06-26T09:13:57Z</time>
      </trkpt>
      <trkpt lat="45.48753" lon="6.91208">
        <ele>2205.4</ele>
        <time>2011-06-26T09:14:07Z</time>
      </trkpt>
      <trkpt lat="45.48746" lon="6.91202">
        <ele>2208.77</ele>
        <time>2011-06-26T09:14:20Z</time>
      </trkpt>
      <trkpt lat="45.48741" lon="6.912">
        <ele>2210.21</ele>
        <time>2011-06-26T09:14:28Z</time>
      </trkpt>
      <trkpt lat="45.48724" lon="6.91195">
        <ele>2212.61</ele>
        <time>2011-06-26T09:14:45Z</time>
      </trkpt>
      <trkpt lat="45.48703" lon="6.91186">
        <ele>2214.05</ele>
        <time>2011-06-26T09:15:04Z</time>
      </trkpt>
      <trkpt lat="45.48693" lon="6.9118">
        <ele>2215.98</ele>
        <time>2011-06-26T09:15:14Z</time>
      </trkpt>
      <trkpt lat="45.4869" lon="6.91179">
        <ele>2215.98</ele>
        <time>2011-06-26T09:15:17Z</time>
      </trkpt>
      <trkpt lat="45.48677" lon="6.91179">
        <ele>2219.34</ele>
        <time>2011-06-26T09:15:29Z</time>
      </trkpt>
      <trkpt lat="45.4867" lon="6.91177">
        <ele>2220.3</ele>
        <time>2011-06-26T09:15:36Z</time>
      </trkpt>
      <trkpt lat="45.48663" lon="6.91176">
        <ele>2222.22</ele>
        <time>2011-06-26T09:15:43Z</time>
      </trkpt>
      <trkpt lat="45.48653" lon="6.91175">
        <ele>2224.63</ele>
        <time>2011-06-26T09:15:53Z</time>
      </trkpt>
      <trkpt lat="45.48641" lon="6.91169">
        <ele>2228.47</ele>
        <time>2011-06-26T09:16:09Z</time>
      </trkpt>
      <trkpt lat="45.4864" lon="6.91169">
        <ele>2228.47</ele>
        <time>2011-06-26T09:16:10Z</time>
      </trkpt>
      <trkpt lat="45.48638" lon="6.91167">
        <ele>2228.47</ele>
        <time>2011-06-26T09:16:13Z</time>
      </trkpt>
      <trkpt lat="45.48636" lon="6.91164">
        <ele>2228.47</ele>
        <time>2011-06-26T09:16:22Z</time>
      </trkpt>
      <trkpt lat="45.48633" lon="6.91162">
        <ele>2229.92</ele>
        <time>2011-06-26T09:16:27Z</time>
      </trkpt>
      <trkpt lat="45.48625" lon="6.91161">
        <ele>2233.28</ele>
        <time>2011-06-26T09:16:37Z</time>
      </trkpt>
      <trkpt lat="45.4862" lon="6.91155">
        <ele>2233.76</ele>
        <time>2011-06-26T09:16:46Z</time>
      </trkpt>
      <trkpt lat="45.48618" lon="6.91154">
        <ele>2234.72</ele>
        <time>2011-06-26T09:16:49Z</time>
      </trkpt>
      <trkpt lat="45.48616" lon="6.91153">
        <ele>2235.2</ele>
        <time>2011-06-26T09:16:51Z</time>
      </trkpt>
      <trkpt lat="45.48613" lon="6.91153">
        <ele>2235.68</ele>
        <time>2011-06-26T09:16:55Z</time>
      </trkpt>
      <trkpt lat="45.48603" lon="6.9115">
        <ele>2238.57</ele>
        <time>2011-06-26T09:17:06Z</time>
      </trkpt>
      <trkpt lat="45.48593" lon="6.9115">
        <ele>2241.93</ele>
        <time>2011-06-26T09:17:19Z</time>
      </trkpt>
      <trkpt lat="45.48586" lon="6.91149">
        <ele>2243.85</ele>
        <time>2011-06-26T09:17:28Z</time>
      </trkpt>
      <trkpt lat="45.48578" lon="6.91145">
        <ele>2246.74</ele>
        <time>2011-06-26T09:17:38Z</time>
      </trkpt>
      <trkpt lat="45.48577" lon="6.91145">
        <ele>2245.78</ele>
        <time>2011-06-26T09:17:39Z</time>
      </trkpt>
      <trkpt lat="45.48567" lon="6.91144">
        <ele>2248.66</ele>
        <time>2011-06-26T09:17:50Z</time>
      </trkpt>
      <trkpt lat="45.48562" lon="6.91144">
        <ele>2248.66</ele>
        <time>2011-06-26T09:17:56Z</time>
      </trkpt>
      <trkpt lat="45.4856" lon="6.91144">
        <ele>2250.1</ele>
        <time>2011-06-26T09:18:00Z</time>
      </trkpt>
      <trkpt lat="45.48555" lon="6.91141">
        <ele>2252.03</ele>
        <time>2011-06-26T09:18:06Z</time>
      </trkpt>
      <trkpt lat="45.48545" lon="6.91141">
        <ele>2254.43</ele>
        <time>2011-06-26T09:18:21Z</time>
      </trkpt>
      <trkpt lat="45.4854" lon="6.91139">
        <ele>2257.31</ele>
        <time>2011-06-26T09:18:29Z</time>
      </trkpt>
      <trkpt lat="45.48533" lon="6.9114">
        <ele>2261.16</ele>
        <time>2011-06-26T09:18:40Z</time>
      </trkpt>
      <trkpt lat="45.4852" lon="6.91143">
        <ele>2263.56</ele>
        <time>2011-06-26T09:18:58Z</time>
      </trkpt>
      <trkpt lat="45.48515" lon="6.91144">
        <ele>2263.56</ele>
        <time>2011-06-26T09:19:06Z</time>
      </trkpt>
      <trkpt lat="45.48508" lon="6.91146">
        <ele>2267.89</ele>
        <time>2011-06-26T09:19:15Z</time>
      </trkpt>
      <trkpt lat="45.48502" lon="6.91149">
        <ele>2269.33</ele>
        <time>2011-06-26T09:19:23Z</time>
      </trkpt>
      <trkpt lat="45.48494" lon="6.91156">
        <ele>2272.21</ele>
        <time>2011-06-26T09:19:35Z</time>
      </trkpt>
      <trkpt lat="45.4849" lon="6.9116">
        <ele>2271.73</ele>
        <time>2011-06-26T09:19:41Z</time>
      </trkpt>
      <trkpt lat="45.48489" lon="6.91162">
        <ele>2273.17</ele>
        <time>2011-06-26T09:19:43Z</time>
      </trkpt>
      <trkpt lat="45.48486" lon="6.91164">
        <ele>2273.66</ele>
        <time>2011-06-26T09:19:52Z</time>
      </trkpt>
      <trkpt lat="45.48486" lon="6.91163">
        <ele>2274.14</ele>
        <time>2011-06-26T09:19:54Z</time>
      </trkpt>
      <trkpt lat="45.48483" lon="6.91154">
        <ele>2276.06</ele>
        <time>2011-06-26T09:20:00Z</time>
      </trkpt>
      <trkpt lat="45.48479" lon="6.91148">
        <ele>2277.5</ele>
        <time>2011-06-26T09:20:06Z</time>
      </trkpt>
      <trkpt lat="45.48477" lon="6.91151">
        <ele>2278.46</ele>
        <time>2011-06-26T09:20:11Z</time>
      </trkpt>
      <trkpt lat="45.48472" lon="6.9115">
        <ele>2279.9</ele>
        <time>2011-06-26T09:20:17Z</time>
      </trkpt>
      <trkpt lat="45.48466" lon="6.91142">
        <ele>2281.35</ele>
        <time>2011-06-26T09:20:28Z</time>
      </trkpt>
      <trkpt lat="45.48465" lon="6.91141">
        <ele>2282.79</ele>
        <time>2011-06-26T09:20:30Z</time>
      </trkpt>
      <trkpt lat="45.48464" lon="6.91139">
        <ele>2281.35</ele>
        <time>2011-06-26T09:20:32Z</time>
      </trkpt>
      <trkpt lat="45.48461" lon="6.91138">
        <ele>2284.71</ele>
        <time>2011-06-26T09:20:37Z</time>
      </trkpt>
      <trkpt lat="45.48461" lon="6.91139">
        <ele>2284.71</ele>
        <time>2011-06-26T09:20:38Z</time>
      </trkpt>
      <trkpt lat="45.48459" lon="6.9114">
        <ele>2282.79</ele>
        <time>2011-06-26T09:20:40Z</time>
      </trkpt>
      <trkpt lat="45.48459" lon="6.91141">
        <ele>2286.63</ele>
        <time>2011-06-26T09:20:41Z</time>
      </trkpt>
      <trkpt lat="45.48458" lon="6.91143">
        <ele>2285.67</ele>
        <time>2011-06-26T09:20:42Z</time>
      </trkpt>
      <trkpt lat="45.48456" lon="6.91148">
        <ele>2289.52</ele>
        <time>2011-06-26T09:20:49Z</time>
      </trkpt>
      <trkpt lat="45.48456" lon="6.91147">
        <ele>2285.67</ele>
        <time>2011-06-26T09:20:50Z</time>
      </trkpt>
      <trkpt lat="45.48454" lon="6.91146">
        <ele>2289.52</ele>
        <time>2011-06-26T09:20:52Z</time>
      </trkpt>
      <trkpt lat="45.48454" lon="6.91145">
        <ele>2288.08</ele>
        <time>2011-06-26T09:20:53Z</time>
      </trkpt>
      <trkpt lat="45.48449" lon="6.91141">
        <ele>2290.96</ele>
        <time>2011-06-26T09:21:00Z</time>
      </trkpt>
      <trkpt lat="45.48443" lon="6.91144">
        <ele>2291.44</ele>
        <time>2011-06-26T09:21:05Z</time>
      </trkpt>
      <trkpt lat="45.48441" lon="6.91148">
        <ele>2293.36</ele>
        <time>2011-06-26T09:21:11Z</time>
      </trkpt>
      <trkpt lat="45.48441" lon="6.91147">
        <ele>2290</ele>
        <time>2011-06-26T09:21:12Z</time>
      </trkpt>
      <trkpt lat="45.48441" lon="6.91146">
        <ele>2293.36</ele>
        <time>2011-06-26T09:21:14Z</time>
      </trkpt>
      <trkpt lat="45.4844" lon="6.91144">
        <ele>2290.48</ele>
        <time>2011-06-26T09:21:16Z</time>
      </trkpt>
      <trkpt lat="45.4844" lon="6.91144">
        <ele>2294.8</ele>
        <time>2011-06-26T09:21:17Z</time>
      </trkpt>
      <trkpt lat="45.4844" lon="6.91143">
        <ele>2294.32</ele>
        <time>2011-06-26T09:21:18Z</time>
      </trkpt>
      <trkpt lat="45.48436" lon="6.91145">
        <ele>2296.73</ele>
        <time>2011-06-26T09:21:26Z</time>
      </trkpt>
      <trkpt lat="45.48428" lon="6.9114">
        <ele>2299.61</ele>
        <time>2011-06-26T09:21:39Z</time>
      </trkpt>
      <trkpt lat="45.48426" lon="6.91143">
        <ele>2299.13</ele>
        <time>2011-06-26T09:21:43Z</time>
      </trkpt>
      <trkpt lat="45.48424" lon="6.91144">
        <ele>2300.09</ele>
        <time>2011-06-26T09:21:45Z</time>
      </trkpt>
      <trkpt lat="45.48422" lon="6.9114">
        <ele>2301.05</ele>
        <time>2011-06-26T09:21:50Z</time>
      </trkpt>
      <trkpt lat="45.4842" lon="6.91136">
        <ele>2302.98</ele>
        <time>2011-06-26T09:21:54Z</time>
      </trkpt>
      <trkpt lat="45.48413" lon="6.9114">
        <ele>2305.86</ele>
        <time>2011-06-26T09:22:06Z</time>
      </trkpt>
      <trkpt lat="45.48407" lon="6.91124">
        <ele>2308.26</ele>
        <time>2011-06-26T09:22:21Z</time>
      </trkpt>
      <trkpt lat="45.48402" lon="6.91116">
        <ele>2310.19</ele>
        <time>2011-06-26T09:22:31Z</time>
      </trkpt>
      <trkpt lat="45.48393" lon="6.91124">
        <ele>2313.55</ele>
        <time>2011-06-26T09:22:43Z</time>
      </trkpt>
      <trkpt lat="45.48389" lon="6.91126">
        <ele>2315.47</ele>
        <time>2011-06-26T09:22:48Z</time>
      </trkpt>
      <trkpt lat="45.48385" lon="6.91124">
        <ele>2315.47</ele>
        <time>2011-06-26T09:22:52Z</time>
      </trkpt>
      <trkpt lat="45.48384" lon="6.91116">
        <ele>2317.88</ele>
        <time>2011-06-26T09:22:58Z</time>
      </trkpt>
      <trkpt lat="45.48381" lon="6.91102">
        <ele>2320.76</ele>
        <time>2011-06-26T09:23:08Z</time>
      </trkpt>
      <trkpt lat="45.48382" lon="6.91093">
        <ele>2321.24</ele>
        <time>2011-06-26T09:23:15Z</time>
      </trkpt>
      <trkpt lat="45.48381" lon="6.91092">
        <ele>2320.28</ele>
        <time>2011-06-26T09:23:17Z</time>
      </trkpt>
      <trkpt lat="45.48377" lon="6.91093">
        <ele>2322.2</ele>
        <time>2011-06-26T09:23:21Z</time>
      </trkpt>
      <trkpt lat="45.48376" lon="6.91093">
        <ele>2323.16</ele>
        <time>2011-06-26T09:23:22Z</time>
      </trkpt>
      <trkpt lat="45.48373" lon="6.91091">
        <ele>2322.68</ele>
        <time>2011-06-26T09:23:26Z</time>
      </trkpt>
      <trkpt lat="45.48365" lon="6.9109">
        <ele>2326.53</ele>
        <time>2011-06-26T09:23:37Z</time>
      </trkpt>
      <trkpt lat="45.48363" lon="6.91088">
        <ele>2327.97</ele>
        <time>2011-06-26T09:23:40Z</time>
      </trkpt>
      <trkpt lat="45.48363" lon="6.91083">
        <ele>2328.93</ele>
        <time>2011-06-26T09:23:44Z</time>
      </trkpt>
      <trkpt lat="45.48361" lon="6.9107">
        <ele>2331.33</ele>
        <time>2011-06-26T09:23:54Z</time>
      </trkpt>
      <trkpt lat="45.48359" lon="6.91069">
        <ele>2331.33</ele>
        <time>2011-06-26T09:23:57Z</time>
      </trkpt>
      <trkpt lat="45.48351" lon="6.91067">
        <ele>2334.7</ele>
        <time>2011-06-26T09:24:05Z</time>
      </trkpt>
      <trkpt lat="45.48346" lon="6.91064">
        <ele>2334.22</ele>
        <time>2011-06-26T09:24:10Z</time>
      </trkpt>
      <trkpt lat="45.48343" lon="6.91057">
        <ele>2335.18</ele>
        <time>2011-06-26T09:24:16Z</time>
      </trkpt>
      <trkpt lat="45.48342" lon="6.91039">
        <ele>2338.54</ele>
        <time>2011-06-26T09:24:30Z</time>
      </trkpt>
      <trkpt lat="45.48343" lon="6.91037">
        <ele>2339.51</ele>
        <time>2011-06-26T09:24:32Z</time>
      </trkpt>
      <trkpt lat="45.48352" lon="6.91013">
        <ele>2343.35</ele>
        <time>2011-06-26T09:24:48Z</time>
      </trkpt>
      <trkpt lat="45.48365" lon="6.90992">
        <ele>2345.27</ele>
        <time>2011-06-26T09:25:03Z</time>
      </trkpt>
      <trkpt lat="45.48368" lon="6.90985">
        <ele>2347.68</ele>
        <time>2011-06-26T09:25:08Z</time>
      </trkpt>
      <trkpt lat="45.48372" lon="6.90965">
        <ele>2350.56</ele>
        <time>2011-06-26T09:25:23Z</time>
      </trkpt>
      <trkpt lat="45.48376" lon="6.90942">
        <ele>2354.41</ele>
        <time>2011-06-26T09:25:38Z</time>
      </trkpt>
      <trkpt lat="45.48382" lon="6.90916">
        <ele>2357.29</ele>
        <time>2011-06-26T09:25:54Z</time>
      </trkpt>
      <trkpt lat="45.48386" lon="6.9089">
        <ele>2360.17</ele>
        <time>2011-06-26T09:26:10Z</time>
      </trkpt>
      <trkpt lat="45.48389" lon="6.9086">
        <ele>2363.54</ele>
        <time>2011-06-26T09:26:27Z</time>
      </trkpt>
      <trkpt lat="45.48388" lon="6.90853">
        <ele>2364.02</ele>
        <time>2011-06-26T09:26:31Z</time>
      </trkpt>
      <trkpt lat="45.48388" lon="6.90831">
        <ele>2364.98</ele>
        <time>2011-06-26T09:26:46Z</time>
      </trkpt>
      <trkpt lat="45.48388" lon="6.90829">
        <ele>2365.94</ele>
        <time>2011-06-26T09:26:57Z</time>
      </trkpt>
      <trkpt lat="45.48384" lon="6.90812">
        <ele>2366.9</ele>
        <time>2011-06-26T09:27:10Z</time>
      </trkpt>
      <trkpt lat="45.48381" lon="6.90802">
        <ele>2370.27</ele>
        <time>2011-06-26T09:27:18Z</time>
      </trkpt>
      <trkpt lat="45.48381" lon="6.90801">
        <ele>2370.27</ele>
        <time>2011-06-26T09:27:19Z</time>
      </trkpt>
      <trkpt lat="45.48378" lon="6.90788">
        <ele>2371.23</ele>
        <time>2011-06-26T09:27:30Z</time>
      </trkpt>
      <trkpt lat="45.48378" lon="6.90787">
        <ele>2370.75</ele>
        <time>2011-06-26T09:27:31Z</time>
      </trkpt>
      <trkpt lat="45.4837" lon="6.90773">
        <ele>2374.11</ele>
        <time>2011-06-26T09:27:44Z</time>
      </trkpt>
      <trkpt lat="45.4836" lon="6.90759">
        <ele>2373.63</ele>
        <time>2011-06-26T09:27:56Z</time>
      </trkpt>
      <trkpt lat="45.48353" lon="6.90747">
        <ele>2377</ele>
        <time>2011-06-26T09:28:06Z</time>
      </trkpt>
      <trkpt lat="45.48347" lon="6.90738">
        <ele>2379.4</ele>
        <time>2011-06-26T09:28:14Z</time>
      </trkpt>
      <trkpt lat="45.48344" lon="6.90734">
        <ele>2378.92</ele>
        <time>2011-06-26T09:28:18Z</time>
      </trkpt>
      <trkpt lat="45.48341" lon="6.9073">
        <ele>2379.88</ele>
        <time>2011-06-26T09:28:22Z</time>
      </trkpt>
      <trkpt lat="45.48337" lon="6.90724">
        <ele>2380.36</ele>
        <time>2011-06-26T09:28:28Z</time>
      </trkpt>
      <trkpt lat="45.48328" lon="6.90711">
        <ele>2383.73</ele>
        <time>2011-06-26T09:28:41Z</time>
      </trkpt>
      <trkpt lat="45.48327" lon="6.9071">
        <ele>2383.73</ele>
        <time>2011-06-26T09:28:43Z</time>
      </trkpt>
      <trkpt lat="45.48324" lon="6.90709">
        <ele>2385.17</ele>
        <time>2011-06-26T09:28:47Z</time>
      </trkpt>
      <trkpt lat="45.48314" lon="6.90703">
        <ele>2387.09</ele>
        <time>2011-06-26T09:28:59Z</time>
      </trkpt>
      <trkpt lat="45.48308" lon="6.90703">
        <ele>2388.05</ele>
        <time>2011-06-26T09:29:06Z</time>
      </trkpt>
      <trkpt lat="45.48304" lon="6.90704">
        <ele>2389.49</ele>
        <time>2011-06-26T09:29:10Z</time>
      </trkpt>
      <trkpt lat="45.48297" lon="6.90704">
        <ele>2390.94</ele>
        <time>2011-06-26T09:29:19Z</time>
      </trkpt>
      <trkpt lat="45.48296" lon="6.90705">
        <ele>2391.42</ele>
        <time>2011-06-26T09:29:21Z</time>
      </trkpt>
      <trkpt lat="45.4829" lon="6.90703">
        <ele>2395.74</ele>
        <time>2011-06-26T09:29:31Z</time>
      </trkpt>
      <trkpt lat="45.4829" lon="6.90702">
        <ele>2391.42</ele>
        <time>2011-06-26T09:29:32Z</time>
      </trkpt>
      <trkpt lat="45.48289" lon="6.90701">
        <ele>2392.38</ele>
        <time>2011-06-26T09:29:49Z</time>
      </trkpt>
    </trkseg>
  </trk>
  <trk>
    <name><![CDATA[ACTIVE LOG: 26 JUN 2011 11:34]]></name>
    <trkseg>
      <trkpt lat="45.48296" lon="6.90502">
        <ele>2388.05</ele>
        <time>2011-06-26T09:34:59Z</time>
      </trkpt>
      <trkpt lat="45.48296" lon="6.90502">
        <ele>2388.05</ele>
        <time>2011-06-26T09:35:00Z</time>
      </trkpt>
      <trkpt lat="45.483" lon="6.90501">
        <ele>2388.05</ele>
        <time>2011-06-26T09:35:04Z</time>
      </trkpt>
      <trkpt lat="45.48307" lon="6.90498">
        <ele>2390.46</ele>
        <time>2011-06-26T09:35:15Z</time>
      </trkpt>
      <trkpt lat="45.48313" lon="6.90492">
        <ele>2394.3</ele>
        <time>2011-06-26T09:35:25Z</time>
      </trkpt>
      <trkpt lat="45.4832" lon="6.90486">
        <ele>2396.7</ele>
        <time>2011-06-26T09:35:36Z</time>
      </trkpt>
      <trkpt lat="45.4833" lon="6.90483">
        <ele>2399.59</ele>
        <time>2011-06-26T09:35:49Z</time>
      </trkpt>
      <trkpt lat="45.48333" lon="6.90482">
        <ele>2401.03</ele>
        <time>2011-06-26T09:35:53Z</time>
      </trkpt>
      <trkpt lat="45.48342" lon="6.90477">
        <ele>2403.91</ele>
        <time>2011-06-26T09:36:05Z</time>
      </trkpt>
      <trkpt lat="45.48342" lon="6.90472">
        <ele>2405.36</ele>
        <time>2011-06-26T09:36:09Z</time>
      </trkpt>
      <trkpt lat="45.48343" lon="6.9046">
        <ele>2407.76</ele>
        <time>2011-06-26T09:36:20Z</time>
      </trkpt>
      <trkpt lat="45.48352" lon="6.90457">
        <ele>2411.12</ele>
        <time>2011-06-26T09:36:30Z</time>
      </trkpt>
      <trkpt lat="45.48356" lon="6.90451">
        <ele>2413.05</ele>
        <time>2011-06-26T09:36:39Z</time>
      </trkpt>
      <trkpt lat="45.48354" lon="6.90446">
        <ele>2413.53</ele>
        <time>2011-06-26T09:36:43Z</time>
      </trkpt>
      <trkpt lat="45.48354" lon="6.90444">
        <ele>2412.57</ele>
        <time>2011-06-26T09:36:45Z</time>
      </trkpt>
      <trkpt lat="45.48354" lon="6.90436">
        <ele>2414.97</ele>
        <time>2011-06-26T09:36:51Z</time>
      </trkpt>
      <trkpt lat="45.48356" lon="6.90432">
        <ele>2416.41</ele>
        <time>2011-06-26T09:36:55Z</time>
      </trkpt>
      <trkpt lat="45.4836" lon="6.90432">
        <ele>2415.45</ele>
        <time>2011-06-26T09:36:59Z</time>
      </trkpt>
      <trkpt lat="45.4837" lon="6.9042">
        <ele>2419.3</ele>
        <time>2011-06-26T09:37:10Z</time>
      </trkpt>
      <trkpt lat="45.48383" lon="6.90403">
        <ele>2422.18</ele>
        <time>2011-06-26T09:37:26Z</time>
      </trkpt>
      <trkpt lat="45.48391" lon="6.90393">
        <ele>2425.06</ele>
        <time>2011-06-26T09:37:36Z</time>
      </trkpt>
      <trkpt lat="45.48405" lon="6.90374">
        <ele>2426.5</ele>
        <time>2011-06-26T09:37:50Z</time>
      </trkpt>
      <trkpt lat="45.48423" lon="6.90355">
        <ele>2428.43</ele>
        <time>2011-06-26T09:38:07Z</time>
      </trkpt>
      <trkpt lat="45.48424" lon="6.90354">
        <ele>2429.87</ele>
        <time>2011-06-26T09:38:08Z</time>
      </trkpt>
      <trkpt lat="45.48432" lon="6.90343">
        <ele>2432.27</ele>
        <time>2011-06-26T09:38:19Z</time>
      </trkpt>
      <trkpt lat="45.48435" lon="6.90338">
        <ele>2433.23</ele>
        <time>2011-06-26T09:38:24Z</time>
      </trkpt>
      <trkpt lat="45.48442" lon="6.90324">
        <ele>2439</ele>
        <time>2011-06-26T09:38:39Z</time>
      </trkpt>
      <trkpt lat="45.48447" lon="6.903">
        <ele>2441.89</ele>
        <time>2011-06-26T09:38:56Z</time>
      </trkpt>
      <trkpt lat="45.48447" lon="6.90296">
        <ele>2441.89</ele>
        <time>2011-06-26T09:38:59Z</time>
      </trkpt>
      <trkpt lat="45.48435" lon="6.90304">
        <ele>2444.77</ele>
        <time>2011-06-26T09:39:09Z</time>
      </trkpt>
      <trkpt lat="45.48427" lon="6.90308">
        <ele>2445.73</ele>
        <time>2011-06-26T09:39:20Z</time>
      </trkpt>
      <trkpt lat="45.48425" lon="6.90308">
        <ele>2446.69</ele>
        <time>2011-06-26T09:39:22Z</time>
      </trkpt>
      <trkpt lat="45.48423" lon="6.90308">
        <ele>2449.1</ele>
        <time>2011-06-26T09:39:24Z</time>
      </trkpt>
      <trkpt lat="45.48419" lon="6.90307">
        <ele>2448.62</ele>
        <time>2011-06-26T09:39:28Z</time>
      </trkpt>
      <trkpt lat="45.48417" lon="6.90305">
        <ele>2450.06</ele>
        <time>2011-06-26T09:39:31Z</time>
      </trkpt>
      <trkpt lat="45.48411" lon="6.90294">
        <ele>2452.46</ele>
        <time>2011-06-26T09:39:42Z</time>
      </trkpt>
      <trkpt lat="45.48406" lon="6.90278">
        <ele>2455.82</ele>
        <time>2011-06-26T09:39:57Z</time>
      </trkpt>
      <trkpt lat="45.48404" lon="6.90274">
        <ele>2456.31</ele>
        <time>2011-06-26T09:40:01Z</time>
      </trkpt>
      <trkpt lat="45.48402" lon="6.90253">
        <ele>2459.67</ele>
        <time>2011-06-26T09:40:14Z</time>
      </trkpt>
      <trkpt lat="45.48402" lon="6.90232">
        <ele>2462.55</ele>
        <time>2011-06-26T09:40:29Z</time>
      </trkpt>
      <trkpt lat="45.48398" lon="6.90238">
        <ele>2465.92</ele>
        <time>2011-06-26T09:40:38Z</time>
      </trkpt>
      <trkpt lat="45.48395" lon="6.90228">
        <ele>2467.36</ele>
        <time>2011-06-26T09:40:49Z</time>
      </trkpt>
      <trkpt lat="45.48393" lon="6.90221">
        <ele>2470.73</ele>
        <time>2011-06-26T09:41:00Z</time>
      </trkpt>
      <trkpt lat="45.48392" lon="6.90214">
        <ele>2473.13</ele>
        <time>2011-06-26T09:41:14Z</time>
      </trkpt>
      <trkpt lat="45.48393" lon="6.90204">
        <ele>2476.49</ele>
        <time>2011-06-26T09:41:26Z</time>
      </trkpt>
      <trkpt lat="45.48395" lon="6.90191">
        <ele>2479.86</ele>
        <time>2011-06-26T09:41:41Z</time>
      </trkpt>
      <trkpt lat="45.484" lon="6.90182">
        <ele>2481.3</ele>
        <time>2011-06-26T09:41:52Z</time>
      </trkpt>
      <trkpt lat="45.48402" lon="6.9018">
        <ele>2483.22</ele>
        <time>2011-06-26T09:41:55Z</time>
      </trkpt>
      <trkpt lat="45.48408" lon="6.90169">
        <ele>2486.11</ele>
        <time>2011-06-26T09:42:10Z</time>
      </trkpt>
      <trkpt lat="45.48411" lon="6.90164">
        <ele>2488.99</ele>
        <time>2011-06-26T09:42:21Z</time>
      </trkpt>
      <trkpt lat="45.48416" lon="6.90162">
        <ele>2491.39</ele>
        <time>2011-06-26T09:42:32Z</time>
      </trkpt>
      <trkpt lat="45.48419" lon="6.90155">
        <ele>2493.8</ele>
        <time>2011-06-26T09:42:42Z</time>
      </trkpt>
      <trkpt lat="45.48419" lon="6.90154">
        <ele>2494.76</ele>
        <time>2011-06-26T09:42:44Z</time>
      </trkpt>
      <trkpt lat="45.4842" lon="6.90144">
        <ele>2498.12</ele>
        <time>2011-06-26T09:42:59Z</time>
      </trkpt>
      <trkpt lat="45.48425" lon="6.90142">
        <ele>2501.49</ele>
        <time>2011-06-26T09:43:10Z</time>
      </trkpt>
      <trkpt lat="45.48432" lon="6.90134">
        <ele>2503.41</ele>
        <time>2011-06-26T09:43:22Z</time>
      </trkpt>
      <trkpt lat="45.48433" lon="6.90134">
        <ele>2504.37</ele>
        <time>2011-06-26T09:43:35Z</time>
      </trkpt>
      <trkpt lat="45.48437" lon="6.90128">
        <ele>2507.74</ele>
        <time>2011-06-26T09:43:45Z</time>
      </trkpt>
      <trkpt lat="45.48439" lon="6.90124">
        <ele>2508.22</ele>
        <time>2011-06-26T09:43:51Z</time>
      </trkpt>
      <trkpt lat="45.48444" lon="6.90118">
        <ele>2511.58</ele>
        <time>2011-06-26T09:44:02Z</time>
      </trkpt>
      <trkpt lat="45.48448" lon="6.90111">
        <ele>2513.5</ele>
        <time>2011-06-26T09:44:11Z</time>
      </trkpt>
      <trkpt lat="45.48457" lon="6.90105">
        <ele>2516.39</ele>
        <time>2011-06-26T09:44:23Z</time>
      </trkpt>
      <trkpt lat="45.48458" lon="6.90105">
        <ele>2516.87</ele>
        <time>2011-06-26T09:44:24Z</time>
      </trkpt>
      <trkpt lat="45.48462" lon="6.90105">
        <ele>2518.31</ele>
        <time>2011-06-26T09:44:28Z</time>
      </trkpt>
      <trkpt lat="45.48464" lon="6.90104">
        <ele>2518.79</ele>
        <time>2011-06-26T09:44:30Z</time>
      </trkpt>
      <trkpt lat="45.48467" lon="6.90103">
        <ele>2520.23</ele>
        <time>2011-06-26T09:44:34Z</time>
      </trkpt>
      <trkpt lat="45.4847" lon="6.90102">
        <ele>2519.75</ele>
        <time>2011-06-26T09:44:37Z</time>
      </trkpt>
      <trkpt lat="45.48474" lon="6.90097">
        <ele>2522.16</ele>
        <time>2011-06-26T09:44:42Z</time>
      </trkpt>
      <trkpt lat="45.48477" lon="6.90093">
        <ele>2523.12</ele>
        <time>2011-06-26T09:44:46Z</time>
      </trkpt>
      <trkpt lat="45.48478" lon="6.90084">
        <ele>2526.48</ele>
        <time>2011-06-26T09:44:58Z</time>
      </trkpt>
      <trkpt lat="45.48481" lon="6.90078">
        <ele>2530.81</ele>
        <time>2011-06-26T09:45:12Z</time>
      </trkpt>
      <trkpt lat="45.48478" lon="6.90073">
        <ele>2533.69</ele>
        <time>2011-06-26T09:45:25Z</time>
      </trkpt>
      <trkpt lat="45.48477" lon="6.90069">
        <ele>2535.13</ele>
        <time>2011-06-26T09:45:41Z</time>
      </trkpt>
      <trkpt lat="45.48472" lon="6.90074">
        <ele>2538.02</ele>
        <time>2011-06-26T09:45:47Z</time>
      </trkpt>
      <trkpt lat="45.48468" lon="6.90075">
        <ele>2539.46</ele>
        <time>2011-06-26T09:45:52Z</time>
      </trkpt>
      <trkpt lat="45.48461" lon="6.90075">
        <ele>2541.38</ele>
        <time>2011-06-26T09:46:01Z</time>
      </trkpt>
      <trkpt lat="45.48455" lon="6.90071">
        <ele>2544.75</ele>
        <time>2011-06-26T09:46:13Z</time>
      </trkpt>
      <trkpt lat="45.48453" lon="6.90069">
        <ele>2547.15</ele>
        <time>2011-06-26T09:46:18Z</time>
      </trkpt>
      <trkpt lat="45.48446" lon="6.90064">
        <ele>2549.07</ele>
        <time>2011-06-26T09:46:32Z</time>
      </trkpt>
      <trkpt lat="45.48442" lon="6.90062">
        <ele>2552.92</ele>
        <time>2011-06-26T09:46:53Z</time>
      </trkpt>
      <trkpt lat="45.48436" lon="6.90057">
        <ele>2555.8</ele>
        <time>2011-06-26T09:47:06Z</time>
      </trkpt>
      <trkpt lat="45.48434" lon="6.90051">
        <ele>2556.76</ele>
        <time>2011-06-26T09:47:17Z</time>
      </trkpt>
      <trkpt lat="45.48428" lon="6.90048">
        <ele>2560.13</ele>
        <time>2011-06-26T09:47:28Z</time>
      </trkpt>
      <trkpt lat="45.48427" lon="6.90047">
        <ele>2560.61</ele>
        <time>2011-06-26T09:47:30Z</time>
      </trkpt>
      <trkpt lat="45.48418" lon="6.90041">
        <ele>2562.53</ele>
        <time>2011-06-26T09:47:43Z</time>
      </trkpt>
      <trkpt lat="45.48416" lon="6.9004">
        <ele>2563.97</ele>
        <time>2011-06-26T09:47:46Z</time>
      </trkpt>
      <trkpt lat="45.4841" lon="6.90037">
        <ele>2565.42</ele>
        <time>2011-06-26T09:47:53Z</time>
      </trkpt>
      <trkpt lat="45.48404" lon="6.90026">
        <ele>2567.34</ele>
        <time>2011-06-26T09:48:04Z</time>
      </trkpt>
      <trkpt lat="45.48401" lon="6.9002">
        <ele>2570.22</ele>
        <time>2011-06-26T09:48:11Z</time>
      </trkpt>
      <trkpt lat="45.48397" lon="6.90017">
        <ele>2570.7</ele>
        <time>2011-06-26T09:48:16Z</time>
      </trkpt>
      <trkpt lat="45.48394" lon="6.90014">
        <ele>2571.18</ele>
        <time>2011-06-26T09:48:20Z</time>
      </trkpt>
      <trkpt lat="45.48392" lon="6.9001">
        <ele>2571.66</ele>
        <time>2011-06-26T09:48:24Z</time>
      </trkpt>
      <trkpt lat="45.48391" lon="6.90001">
        <ele>2574.55</ele>
        <time>2011-06-26T09:48:35Z</time>
      </trkpt>
      <trkpt lat="45.48386" lon="6.89996">
        <ele>2578.87</ele>
        <time>2011-06-26T09:48:44Z</time>
      </trkpt>
      <trkpt lat="45.48383" lon="6.89978">
        <ele>2580.32</ele>
        <time>2011-06-26T09:48:56Z</time>
      </trkpt>
      <trkpt lat="45.48381" lon="6.89961">
        <ele>2583.68</ele>
        <time>2011-06-26T09:49:08Z</time>
      </trkpt>
      <trkpt lat="45.48382" lon="6.89959">
        <ele>2583.2</ele>
        <time>2011-06-26T09:49:21Z</time>
      </trkpt>
      <trkpt lat="45.48382" lon="6.89959">
        <ele>2583.2</ele>
        <time>2011-06-26T09:49:40Z</time>
      </trkpt>
      <trkpt lat="45.48384" lon="6.8996">
        <ele>2583.2</ele>
        <time>2011-06-26T09:49:55Z</time>
      </trkpt>
      <trkpt lat="45.48383" lon="6.89957">
        <ele>2585.6</ele>
        <time>2011-06-26T09:50:23Z</time>
      </trkpt>
      <trkpt lat="45.4838" lon="6.89953">
        <ele>2587.04</ele>
        <time>2011-06-26T09:50:27Z</time>
      </trkpt>
      <trkpt lat="45.48379" lon="6.89952">
        <ele>2588.01</ele>
        <time>2011-06-26T09:50:30Z</time>
      </trkpt>
      <trkpt lat="45.48375" lon="6.89952">
        <ele>2588.49</ele>
        <time>2011-06-26T09:50:36Z</time>
      </trkpt>
      <trkpt lat="45.48373" lon="6.8995">
        <ele>2590.41</ele>
        <time>2011-06-26T09:50:40Z</time>
      </trkpt>
      <trkpt lat="45.48366" lon="6.89945">
        <ele>2592.81</ele>
        <time>2011-06-26T09:50:52Z</time>
      </trkpt>
      <trkpt lat="45.48364" lon="6.8994">
        <ele>2593.29</ele>
        <time>2011-06-26T09:50:57Z</time>
      </trkpt>
      <trkpt lat="45.48362" lon="6.89936">
        <ele>2596.66</ele>
        <time>2011-06-26T09:51:00Z</time>
      </trkpt>
      <trkpt lat="45.48361" lon="6.89934">
        <ele>2594.74</ele>
        <time>2011-06-26T09:51:02Z</time>
      </trkpt>
      <trkpt lat="45.48358" lon="6.89921">
        <ele>2598.1</ele>
        <time>2011-06-26T09:51:14Z</time>
      </trkpt>
      <trkpt lat="45.48356" lon="6.89912">
        <ele>2600.98</ele>
        <time>2011-06-26T09:51:24Z</time>
      </trkpt>
      <trkpt lat="45.48351" lon="6.89905">
        <ele>2603.39</ele>
        <time>2011-06-26T09:51:36Z</time>
      </trkpt>
      <trkpt lat="45.48345" lon="6.89892">
        <ele>2606.27</ele>
        <time>2011-06-26T09:51:50Z</time>
      </trkpt>
      <trkpt lat="45.48343" lon="6.89864">
        <ele>2608.19</ele>
        <time>2011-06-26T09:52:04Z</time>
      </trkpt>
      <trkpt lat="45.48337" lon="6.89845">
        <ele>2609.16</ele>
        <time>2011-06-26T09:52:15Z</time>
      </trkpt>
      <trkpt lat="45.48334" lon="6.89838">
        <ele>2609.64</ele>
        <time>2011-06-26T09:52:19Z</time>
      </trkpt>
      <trkpt lat="45.48326" lon="6.89817">
        <ele>2611.56</ele>
        <time>2011-06-26T09:52:30Z</time>
      </trkpt>
      <trkpt lat="45.48319" lon="6.89791">
        <ele>2615.4</ele>
        <time>2011-06-26T09:52:44Z</time>
      </trkpt>
      <trkpt lat="45.48319" lon="6.89789">
        <ele>2614.44</ele>
        <time>2011-06-26T09:52:45Z</time>
      </trkpt>
      <trkpt lat="45.48312" lon="6.89768">
        <ele>2617.33</ele>
        <time>2011-06-26T09:52:57Z</time>
      </trkpt>
      <trkpt lat="45.48309" lon="6.89762">
        <ele>2618.29</ele>
        <time>2011-06-26T09:53:02Z</time>
      </trkpt>
      <trkpt lat="45.48308" lon="6.89736">
        <ele>2622.13</ele>
        <time>2011-06-26T09:53:18Z</time>
      </trkpt>
      <trkpt lat="45.48309" lon="6.89735">
        <ele>2621.65</ele>
        <time>2011-06-26T09:53:19Z</time>
      </trkpt>
      <trkpt lat="45.48312" lon="6.89706">
        <ele>2622.61</ele>
        <time>2011-06-26T09:53:36Z</time>
      </trkpt>
      <trkpt lat="45.48314" lon="6.89697">
        <ele>2624.06</ele>
        <time>2011-06-26T09:53:42Z</time>
      </trkpt>
      <trkpt lat="45.48318" lon="6.89689">
        <ele>2627.42</ele>
        <time>2011-06-26T09:53:52Z</time>
      </trkpt>
      <trkpt lat="45.48318" lon="6.89675">
        <ele>2629.34</ele>
        <time>2011-06-26T09:54:05Z</time>
      </trkpt>
      <trkpt lat="45.48315" lon="6.89651">
        <ele>2632.71</ele>
        <time>2011-06-26T09:54:20Z</time>
      </trkpt>
      <trkpt lat="45.48314" lon="6.89636">
        <ele>2636.07</ele>
        <time>2011-06-26T09:54:33Z</time>
      </trkpt>
      <trkpt lat="45.48314" lon="6.89635">
        <ele>2636.07</ele>
        <time>2011-06-26T09:54:34Z</time>
      </trkpt>
      <trkpt lat="45.48316" lon="6.89621">
        <ele>2639.44</ele>
        <time>2011-06-26T09:54:49Z</time>
      </trkpt>
      <trkpt lat="45.48317" lon="6.89621">
        <ele>2639.92</ele>
        <time>2011-06-26T09:54:50Z</time>
      </trkpt>
      <trkpt lat="45.48315" lon="6.89618">
        <ele>2642.8</ele>
        <time>2011-06-26T09:55:04Z</time>
      </trkpt>
      <trkpt lat="45.48316" lon="6.89612">
        <ele>2645.21</ele>
        <time>2011-06-26T09:55:16Z</time>
      </trkpt>
      <trkpt lat="45.48317" lon="6.89606">
        <ele>2648.09</ele>
        <time>2011-06-26T09:55:27Z</time>
      </trkpt>
      <trkpt lat="45.48316" lon="6.89598">
        <ele>2649.53</ele>
        <time>2011-06-26T09:55:38Z</time>
      </trkpt>
      <trkpt lat="45.48314" lon="6.8959">
        <ele>2652.9</ele>
        <time>2011-06-26T09:55:48Z</time>
      </trkpt>
      <trkpt lat="45.48313" lon="6.89585">
        <ele>2654.82</ele>
        <time>2011-06-26T09:55:58Z</time>
      </trkpt>
      <trkpt lat="45.48313" lon="6.89574">
        <ele>2657.22</ele>
        <time>2011-06-26T09:56:11Z</time>
      </trkpt>
      <trkpt lat="45.48314" lon="6.89564">
        <ele>2660.59</ele>
        <time>2011-06-26T09:56:20Z</time>
      </trkpt>
      <trkpt lat="45.48314" lon="6.89559">
        <ele>2661.07</ele>
        <time>2011-06-26T09:56:25Z</time>
      </trkpt>
      <trkpt lat="45.48314" lon="6.89558">
        <ele>2661.55</ele>
        <time>2011-06-26T09:56:26Z</time>
      </trkpt>
      <trkpt lat="45.48315" lon="6.89555">
        <ele>2662.03</ele>
        <time>2011-06-26T09:56:29Z</time>
      </trkpt>
      <trkpt lat="45.48318" lon="6.89548">
        <ele>2665.87</ele>
        <time>2011-06-26T09:56:41Z</time>
      </trkpt>
      <trkpt lat="45.48324" lon="6.89532">
        <ele>2668.76</ele>
        <time>2011-06-26T09:56:57Z</time>
      </trkpt>
      <trkpt lat="45.48327" lon="6.8952">
        <ele>2672.12</ele>
        <time>2011-06-26T09:57:08Z</time>
      </trkpt>
      <trkpt lat="45.48326" lon="6.89514">
        <ele>2675.49</ele>
        <time>2011-06-26T09:57:15Z</time>
      </trkpt>
      <trkpt lat="45.48324" lon="6.89511">
        <ele>2675.01</ele>
        <time>2011-06-26T09:57:19Z</time>
      </trkpt>
      <trkpt lat="45.48324" lon="6.89513">
        <ele>2675.49</ele>
        <time>2011-06-26T09:57:31Z</time>
      </trkpt>
      <trkpt lat="45.48325" lon="6.89513">
        <ele>2675.97</ele>
        <time>2011-06-26T09:57:43Z</time>
      </trkpt>
      <trkpt lat="45.48324" lon="6.89515">
        <ele>2675.49</ele>
        <time>2011-06-26T09:58:01Z</time>
      </trkpt>
      <trkpt lat="45.48322" lon="6.89517">
        <ele>2676.93</ele>
        <time>2011-06-26T09:58:08Z</time>
      </trkpt>
      <trkpt lat="45.48323" lon="6.89515">
        <ele>2675.97</ele>
        <time>2011-06-26T09:58:10Z</time>
      </trkpt>
      <trkpt lat="45.4832" lon="6.89496">
        <ele>2679.81</ele>
        <time>2011-06-26T09:58:23Z</time>
      </trkpt>
      <trkpt lat="45.48319" lon="6.89495">
        <ele>2678.85</ele>
        <time>2011-06-26T09:58:24Z</time>
      </trkpt>
      <trkpt lat="45.48317" lon="6.89494">
        <ele>2681.25</ele>
        <time>2011-06-26T09:58:27Z</time>
      </trkpt>
      <trkpt lat="45.48316" lon="6.89491">
        <ele>2684.14</ele>
        <time>2011-06-26T09:58:31Z</time>
      </trkpt>
      <trkpt lat="45.4832" lon="6.89477">
        <ele>2685.1</ele>
        <time>2011-06-26T09:58:43Z</time>
      </trkpt>
      <trkpt lat="45.48321" lon="6.89475">
        <ele>2686.54</ele>
        <time>2011-06-26T09:58:46Z</time>
      </trkpt>
      <trkpt lat="45.48324" lon="6.89468">
        <ele>2689.91</ele>
        <time>2011-06-26T09:58:56Z</time>
      </trkpt>
      <trkpt lat="45.48325" lon="6.89461">
        <ele>2689.91</ele>
        <time>2011-06-26T09:59:03Z</time>
      </trkpt>
      <trkpt lat="45.48325" lon="6.89453">
        <ele>2692.79</ele>
        <time>2011-06-26T09:59:09Z</time>
      </trkpt>
      <trkpt lat="45.48324" lon="6.89441">
        <ele>2695.19</ele>
        <time>2011-06-26T09:59:19Z</time>
      </trkpt>
      <trkpt lat="45.48324" lon="6.89438">
        <ele>2691.35</ele>
        <time>2011-06-26T09:59:21Z</time>
      </trkpt>
      <trkpt lat="45.48324" lon="6.89437">
        <ele>2695.19</ele>
        <time>2011-06-26T09:59:22Z</time>
      </trkpt>
      <trkpt lat="45.48323" lon="6.89425">
        <ele>2696.15</ele>
        <time>2011-06-26T09:59:31Z</time>
      </trkpt>
      <trkpt lat="45.48322" lon="6.89418">
        <ele>2699.04</ele>
        <time>2011-06-26T09:59:37Z</time>
      </trkpt>
      <trkpt lat="45.48321" lon="6.89414">
        <ele>2697.6</ele>
        <time>2011-06-26T09:59:40Z</time>
      </trkpt>
      <trkpt lat="45.48321" lon="6.89411">
        <ele>2697.12</ele>
        <time>2011-06-26T09:59:42Z</time>
      </trkpt>
      <trkpt lat="45.48321" lon="6.89406">
        <ele>2698.56</ele>
        <time>2011-06-26T09:59:45Z</time>
      </trkpt>
      <trkpt lat="45.48322" lon="6.894">
        <ele>2702.88</ele>
        <time>2011-06-26T09:59:51Z</time>
      </trkpt>
      <trkpt lat="45.48321" lon="6.89399">
        <ele>2701.92</ele>
        <time>2011-06-26T09:59:52Z</time>
      </trkpt>
      <trkpt lat="45.48321" lon="6.89397">
        <ele>2701.44</ele>
        <time>2011-06-26T09:59:54Z</time>
      </trkpt>
      <trkpt lat="45.4832" lon="6.89394">
        <ele>2703.36</ele>
        <time>2011-06-26T09:59:58Z</time>
      </trkpt>
      <trkpt lat="45.48323" lon="6.89385">
        <ele>2705.77</ele>
        <time>2011-06-26T10:00:06Z</time>
      </trkpt>
      <trkpt lat="45.48323" lon="6.89383">
        <ele>2707.21</ele>
        <time>2011-06-26T10:00:08Z</time>
      </trkpt>
      <trkpt lat="45.48323" lon="6.8938">
        <ele>2706.73</ele>
        <time>2011-06-26T10:00:10Z</time>
      </trkpt>
      <trkpt lat="45.48324" lon="6.89378">
        <ele>2707.69</ele>
        <time>2011-06-26T10:00:12Z</time>
      </trkpt>
      <trkpt lat="45.48324" lon="6.89369">
        <ele>2709.61</ele>
        <time>2011-06-26T10:00:18Z</time>
      </trkpt>
      <trkpt lat="45.48324" lon="6.89361">
        <ele>2711.54</ele>
        <time>2011-06-26T10:00:28Z</time>
      </trkpt>
      <trkpt lat="45.48325" lon="6.89357">
        <ele>2714.42</ele>
        <time>2011-06-26T10:00:32Z</time>
      </trkpt>
      <trkpt lat="45.48319" lon="6.89358">
        <ele>2715.38</ele>
        <time>2011-06-26T10:00:46Z</time>
      </trkpt>
      <trkpt lat="45.48319" lon="6.89358">
        <ele>2714.9</ele>
        <time>2011-06-26T10:00:47Z</time>
      </trkpt>
      <trkpt lat="45.48318" lon="6.89358">
        <ele>2718.27</ele>
        <time>2011-06-26T10:00:50Z</time>
      </trkpt>
      <trkpt lat="45.48317" lon="6.89359">
        <ele>2714.42</ele>
        <time>2011-06-26T10:00:52Z</time>
      </trkpt>
      <trkpt lat="45.48315" lon="6.89362">
        <ele>2718.75</ele>
        <time>2011-06-26T10:00:55Z</time>
      </trkpt>
      <trkpt lat="45.48314" lon="6.89362">
        <ele>2715.38</ele>
        <time>2011-06-26T10:00:56Z</time>
      </trkpt>
      <trkpt lat="45.48313" lon="6.89364">
        <ele>2718.75</ele>
        <time>2011-06-26T10:00:59Z</time>
      </trkpt>
      <trkpt lat="45.48313" lon="6.89352">
        <ele>2722.59</ele>
        <time>2011-06-26T10:01:10Z</time>
      </trkpt>
      <trkpt lat="45.48315" lon="6.89343">
        <ele>2722.59</ele>
        <time>2011-06-26T10:01:16Z</time>
      </trkpt>
      <trkpt lat="45.48316" lon="6.89341">
        <ele>2724.03</ele>
        <time>2011-06-26T10:01:18Z</time>
      </trkpt>
      <trkpt lat="45.48317" lon="6.89339">
        <ele>2723.07</ele>
        <time>2011-06-26T10:01:20Z</time>
      </trkpt>
      <trkpt lat="45.48317" lon="6.89338">
        <ele>2724.03</ele>
        <time>2011-06-26T10:01:22Z</time>
      </trkpt>
      <trkpt lat="45.48313" lon="6.89335">
        <ele>2726.92</ele>
        <time>2011-06-26T10:01:32Z</time>
      </trkpt>
      <trkpt lat="45.48313" lon="6.89332">
        <ele>2726.92</ele>
        <time>2011-06-26T10:01:34Z</time>
      </trkpt>
      <trkpt lat="45.48316" lon="6.89328">
        <ele>2728.36</ele>
        <time>2011-06-26T10:01:38Z</time>
      </trkpt>
      <trkpt lat="45.48318" lon="6.89321">
        <ele>2731.72</ele>
        <time>2011-06-26T10:01:44Z</time>
      </trkpt>
    </trkseg>
  </trk>
  <trk>
    <name><![CDATA[ACTIVE LOG: 26 JUN 2011 12:03]]></name>
    <trkseg>
      <trkpt lat="45.48325" lon="6.89317">
        <ele>2683.66</ele>
        <time>2011-06-26T10:03:20Z</time>
      </trkpt>
      <trkpt lat="45.48325" lon="6.89317">
        <ele>2689.43</ele>
        <time>2011-06-26T10:03:22Z</time>
      </trkpt>
      <trkpt lat="45.48325" lon="6.89316">
        <ele>2692.79</ele>
        <time>2011-06-26T10:03:23Z</time>
      </trkpt>
      <trkpt lat="45.48325" lon="6.89316">
        <ele>2692.31</ele>
        <time>2011-06-26T10:03:24Z</time>
      </trkpt>
      <trkpt lat="45.48325" lon="6.89316">
        <ele>2698.08</ele>
        <time>2011-06-26T10:03:26Z</time>
      </trkpt>
      <trkpt lat="45.48325" lon="6.89316">
        <ele>2702.4</ele>
        <time>2011-06-26T10:03:28Z</time>
      </trkpt>
      <trkpt lat="45.48325" lon="6.89316">
        <ele>2706.25</ele>
        <time>2011-06-26T10:03:30Z</time>
      </trkpt>
      <trkpt lat="45.48324" lon="6.89315">
        <ele>2710.57</ele>
        <time>2011-06-26T10:03:32Z</time>
      </trkpt>
      <trkpt lat="45.48324" lon="6.89315">
        <ele>2713.94</ele>
        <time>2011-06-26T10:03:33Z</time>
      </trkpt>
      <trkpt lat="45.48324" lon="6.89315">
        <ele>2717.3</ele>
        <time>2011-06-26T10:03:35Z</time>
      </trkpt>
      <trkpt lat="45.48324" lon="6.89315">
        <ele>2721.15</ele>
        <time>2011-06-26T10:03:37Z</time>
      </trkpt>
      <trkpt lat="45.48324" lon="6.89315">
        <ele>2724.03</ele>
        <time>2011-06-26T10:03:39Z</time>
      </trkpt>
      <trkpt lat="45.48324" lon="6.89315">
        <ele>2727.4</ele>
        <time>2011-06-26T10:03:41Z</time>
      </trkpt>
      <trkpt lat="45.48323" lon="6.89314">
        <ele>2731.24</ele>
        <time>2011-06-26T10:03:43Z</time>
      </trkpt>
      <trkpt lat="45.48323" lon="6.89314">
        <ele>2731.24</ele>
        <time>2011-06-26T10:03:44Z</time>
      </trkpt>
      <trkpt lat="45.48323" lon="6.89314">
        <ele>2734.61</ele>
        <time>2011-06-26T10:03:46Z</time>
      </trkpt>
      <trkpt lat="45.48323" lon="6.89314">
        <ele>2739.41</ele>
        <time>2011-06-26T10:03:49Z</time>
      </trkpt>
      <trkpt lat="45.48323" lon="6.89314">
        <ele>2739.41</ele>
        <time>2011-06-26T10:03:50Z</time>
      </trkpt>
      <trkpt lat="45.48323" lon="6.89313">
        <ele>2740.86</ele>
        <time>2011-06-26T10:03:57Z</time>
      </trkpt>
      <trkpt lat="45.48323" lon="6.89313">
        <ele>2748.55</ele>
        <time>2011-06-26T10:03:58Z</time>
      </trkpt>
      <trkpt lat="45.48323" lon="6.89313">
        <ele>2747.59</ele>
        <time>2011-06-26T10:03:59Z</time>
      </trkpt>
    </trkseg>
  </trk>
  <trk>
    <name><![CDATA[ACTIVE LOG: 26 JUN 2011 12:12]]></name>
    <trkseg>
      <trkpt lat="45.48318" lon="6.89349">
        <ele>2678.37</ele>
        <time>2011-06-26T10:12:11Z</time>
      </trkpt>
      <trkpt lat="45.48313" lon="6.89347">
        <ele>2676.45</ele>
        <time>2011-06-26T10:12:16Z</time>
      </trkpt>
      <trkpt lat="45.48317" lon="6.8934">
        <ele>2675.49</ele>
        <time>2011-06-26T10:12:20Z</time>
      </trkpt>
      <trkpt lat="45.48317" lon="6.89344">
        <ele>2675.49</ele>
        <time>2011-06-26T10:12:23Z</time>
      </trkpt>
      <trkpt lat="45.48315" lon="6.8936">
        <ele>2672.12</ele>
        <time>2011-06-26T10:12:32Z</time>
      </trkpt>
      <trkpt lat="45.48317" lon="6.89361">
        <ele>2671.16</ele>
        <time>2011-06-26T10:12:35Z</time>
      </trkpt>
      <trkpt lat="45.48321" lon="6.89358">
        <ele>2669.72</ele>
        <time>2011-06-26T10:12:39Z</time>
      </trkpt>
      <trkpt lat="45.48325" lon="6.89358">
        <ele>2666.83</ele>
        <time>2011-06-26T10:12:46Z</time>
      </trkpt>
      <trkpt lat="45.48334" lon="6.8935">
        <ele>2664.43</ele>
        <time>2011-06-26T10:12:55Z</time>
      </trkpt>
      <trkpt lat="45.48341" lon="6.89348">
        <ele>2662.99</ele>
        <time>2011-06-26T10:13:03Z</time>
      </trkpt>
      <trkpt lat="45.48346" lon="6.89337">
        <ele>2660.11</ele>
        <time>2011-06-26T10:13:16Z</time>
      </trkpt>
      <trkpt lat="45.48347" lon="6.89334">
        <ele>2660.59</ele>
        <time>2011-06-26T10:13:30Z</time>
      </trkpt>
      <trkpt lat="45.48348" lon="6.89334">
        <ele>2661.07</ele>
        <time>2011-06-26T10:13:36Z</time>
      </trkpt>
      <trkpt lat="45.48349" lon="6.89333">
        <ele>2662.03</ele>
        <time>2011-06-26T10:13:54Z</time>
      </trkpt>
      <trkpt lat="45.48349" lon="6.8933">
        <ele>2660.11</ele>
        <time>2011-06-26T10:13:57Z</time>
      </trkpt>
      <trkpt lat="45.48351" lon="6.89325">
        <ele>2659.14</ele>
        <time>2011-06-26T10:14:02Z</time>
      </trkpt>
      <trkpt lat="45.48349" lon="6.89318">
        <ele>2659.62</ele>
        <time>2011-06-26T10:14:09Z</time>
      </trkpt>
      <trkpt lat="45.48354" lon="6.89301">
        <ele>2657.22</ele>
        <time>2011-06-26T10:14:19Z</time>
      </trkpt>
      <trkpt lat="45.48346" lon="6.89274">
        <ele>2657.7</ele>
        <time>2011-06-26T10:14:31Z</time>
      </trkpt>
      <trkpt lat="45.48346" lon="6.89251">
        <ele>2654.34</ele>
        <time>2011-06-26T10:14:42Z</time>
      </trkpt>
      <trkpt lat="45.48346" lon="6.89245">
        <ele>2654.82</ele>
        <time>2011-06-26T10:14:44Z</time>
      </trkpt>
      <trkpt lat="45.4834" lon="6.89215">
        <ele>2654.34</ele>
        <time>2011-06-26T10:14:56Z</time>
      </trkpt>
      <trkpt lat="45.48337" lon="6.89207">
        <ele>2656.74</ele>
        <time>2011-06-26T10:15:02Z</time>
      </trkpt>
      <trkpt lat="45.48337" lon="6.89206">
        <ele>2655.78</ele>
        <time>2011-06-26T10:15:06Z</time>
      </trkpt>
      <trkpt lat="45.48337" lon="6.89201">
        <ele>2655.78</ele>
        <time>2011-06-26T10:15:10Z</time>
      </trkpt>
      <trkpt lat="45.48339" lon="6.89189">
        <ele>2654.34</ele>
        <time>2011-06-26T10:15:15Z</time>
      </trkpt>
      <trkpt lat="45.48339" lon="6.89174">
        <ele>2652.9</ele>
        <time>2011-06-26T10:15:22Z</time>
      </trkpt>
      <trkpt lat="45.48339" lon="6.89171">
        <ele>2654.34</ele>
        <time>2011-06-26T10:15:39Z</time>
      </trkpt>
      <trkpt lat="45.48337" lon="6.89164">
        <ele>2650.97</ele>
        <time>2011-06-26T10:16:03Z</time>
      </trkpt>
      <trkpt lat="45.48338" lon="6.89149">
        <ele>2648.09</ele>
        <time>2011-06-26T10:16:10Z</time>
      </trkpt>
      <trkpt lat="45.48343" lon="6.89129">
        <ele>2645.69</ele>
        <time>2011-06-26T10:16:19Z</time>
      </trkpt>
      <trkpt lat="45.48347" lon="6.89116">
        <ele>2644.24</ele>
        <time>2011-06-26T10:16:24Z</time>
      </trkpt>
      <trkpt lat="45.48347" lon="6.89106">
        <ele>2644.24</ele>
        <time>2011-06-26T10:16:28Z</time>
      </trkpt>
      <trkpt lat="45.48343" lon="6.89095">
        <ele>2639.44</ele>
        <time>2011-06-26T10:16:34Z</time>
      </trkpt>
      <trkpt lat="45.48337" lon="6.89078">
        <ele>2634.15</ele>
        <time>2011-06-26T10:16:45Z</time>
      </trkpt>
      <trkpt lat="45.48336" lon="6.89076">
        <ele>2634.63</ele>
        <time>2011-06-26T10:16:46Z</time>
      </trkpt>
      <trkpt lat="45.48336" lon="6.89068">
        <ele>2637.03</ele>
        <time>2011-06-26T10:17:02Z</time>
      </trkpt>
      <trkpt lat="45.48336" lon="6.89068">
        <ele>2637.03</ele>
        <time>2011-06-26T10:17:03Z</time>
      </trkpt>
      <trkpt lat="45.48337" lon="6.89069">
        <ele>2636.55</ele>
        <time>2011-06-26T10:17:16Z</time>
      </trkpt>
      <trkpt lat="45.48339" lon="6.89045">
        <ele>2639.92</ele>
        <time>2011-06-26T10:17:30Z</time>
      </trkpt>
      <trkpt lat="45.48339" lon="6.89027">
        <ele>2644.24</ele>
        <time>2011-06-26T10:17:45Z</time>
      </trkpt>
      <trkpt lat="45.48337" lon="6.89027">
        <ele>2647.61</ele>
        <time>2011-06-26T10:18:26Z</time>
      </trkpt>
      <trkpt lat="45.48338" lon="6.89025">
        <ele>2644.24</ele>
        <time>2011-06-26T10:18:29Z</time>
      </trkpt>
      <trkpt lat="45.48339" lon="6.89021">
        <ele>2647.61</ele>
        <time>2011-06-26T10:18:32Z</time>
      </trkpt>
      <trkpt lat="45.48339" lon="6.89012">
        <ele>2650.97</ele>
        <time>2011-06-26T10:18:40Z</time>
      </trkpt>
      <trkpt lat="45.4834" lon="6.89011">
        <ele>2650.97</ele>
        <time>2011-06-26T10:18:41Z</time>
      </trkpt>
      <trkpt lat="45.48339" lon="6.89006">
        <ele>2650.97</ele>
        <time>2011-06-26T10:18:53Z</time>
      </trkpt>
      <trkpt lat="45.4834" lon="6.89006">
        <ele>2651.93</ele>
        <time>2011-06-26T10:18:54Z</time>
      </trkpt>
      <trkpt lat="45.48339" lon="6.89007">
        <ele>2650.97</ele>
        <time>2011-06-26T10:18:57Z</time>
      </trkpt>
      <trkpt lat="45.4834" lon="6.89009">
        <ele>2652.9</ele>
        <time>2011-06-26T10:18:59Z</time>
      </trkpt>
      <trkpt lat="45.48339" lon="6.89008">
        <ele>2653.86</ele>
        <time>2011-06-26T10:19:23Z</time>
      </trkpt>
      <trkpt lat="45.48339" lon="6.89009">
        <ele>2654.82</ele>
        <time>2011-06-26T10:19:26Z</time>
      </trkpt>
      <trkpt lat="45.48344" lon="6.89017">
        <ele>2654.34</ele>
        <time>2011-06-26T10:19:38Z</time>
      </trkpt>
      <trkpt lat="45.48345" lon="6.89016">
        <ele>2656.74</ele>
        <time>2011-06-26T10:19:39Z</time>
      </trkpt>
      <trkpt lat="45.48347" lon="6.89012">
        <ele>2659.14</ele>
        <time>2011-06-26T10:19:46Z</time>
      </trkpt>
      <trkpt lat="45.4835" lon="6.8901">
        <ele>2659.62</ele>
        <time>2011-06-26T10:19:56Z</time>
      </trkpt>
      <trkpt lat="45.48352" lon="6.8901">
        <ele>2662.99</ele>
        <time>2011-06-26T10:20:03Z</time>
      </trkpt>
      <trkpt lat="45.48352" lon="6.89008">
        <ele>2664.43</ele>
        <time>2011-06-26T10:20:16Z</time>
      </trkpt>
      <trkpt lat="45.48352" lon="6.89008">
        <ele>2664.43</ele>
        <time>2011-06-26T10:20:23Z</time>
      </trkpt>
      <trkpt lat="45.48352" lon="6.89008">
        <ele>2661.07</ele>
        <time>2011-06-26T10:20:29Z</time>
      </trkpt>
      <trkpt lat="45.48352" lon="6.89008">
        <ele>2664.43</ele>
        <time>2011-06-26T10:20:30Z</time>
      </trkpt>
      <trkpt lat="45.48352" lon="6.89008">
        <ele>2661.07</ele>
        <time>2011-06-26T10:20:35Z</time>
      </trkpt>
      <trkpt lat="45.48352" lon="6.89008">
        <ele>2664.43</ele>
        <time>2011-06-26T10:20:43Z</time>
      </trkpt>
      <trkpt lat="45.48352" lon="6.89008">
        <ele>2664.43</ele>
        <time>2011-06-26T10:20:47Z</time>
      </trkpt>
      <trkpt lat="45.48352" lon="6.89008">
        <ele>2662.99</ele>
        <time>2011-06-26T10:20:56Z</time>
      </trkpt>
      <trkpt lat="45.48353" lon="6.89005">
        <ele>2666.35</ele>
        <time>2011-06-26T10:21:18Z</time>
      </trkpt>
      <trkpt lat="45.48352" lon="6.89002">
        <ele>2669.24</ele>
        <time>2011-06-26T10:21:20Z</time>
      </trkpt>
      <trkpt lat="45.48354" lon="6.89">
        <ele>2667.31</ele>
        <time>2011-06-26T10:21:31Z</time>
      </trkpt>
      <trkpt lat="45.48358" lon="6.88999">
        <ele>2669.72</ele>
        <time>2011-06-26T10:21:41Z</time>
      </trkpt>
      <trkpt lat="45.48358" lon="6.88998">
        <ele>2666.83</ele>
        <time>2011-06-26T10:21:42Z</time>
      </trkpt>
      <trkpt lat="45.48362" lon="6.8899">
        <ele>2671.16</ele>
        <time>2011-06-26T10:21:49Z</time>
      </trkpt>
      <trkpt lat="45.48366" lon="6.88982">
        <ele>2673.08</ele>
        <time>2011-06-26T10:21:56Z</time>
      </trkpt>
      <trkpt lat="45.48369" lon="6.88973">
        <ele>2673.08</ele>
        <time>2011-06-26T10:22:02Z</time>
      </trkpt>
      <trkpt lat="45.48374" lon="6.88968">
        <ele>2672.12</ele>
        <time>2011-06-26T10:22:07Z</time>
      </trkpt>
      <trkpt lat="45.48377" lon="6.88962">
        <ele>2673.56</ele>
        <time>2011-06-26T10:22:12Z</time>
      </trkpt>
      <trkpt lat="45.48379" lon="6.88961">
        <ele>2672.12</ele>
        <time>2011-06-26T10:22:14Z</time>
      </trkpt>
      <trkpt lat="45.48397" lon="6.8895">
        <ele>2673.56</ele>
        <time>2011-06-26T10:22:29Z</time>
      </trkpt>
      <trkpt lat="45.48398" lon="6.88949">
        <ele>2669.72</ele>
        <time>2011-06-26T10:22:32Z</time>
      </trkpt>
      <trkpt lat="45.48398" lon="6.88949">
        <ele>2675.01</ele>
        <time>2011-06-26T10:22:33Z</time>
      </trkpt>
      <trkpt lat="45.484" lon="6.88947">
        <ele>2672.12</ele>
        <time>2011-06-26T10:22:38Z</time>
      </trkpt>
      <trkpt lat="45.48407" lon="6.88938">
        <ele>2673.08</ele>
        <time>2011-06-26T10:22:43Z</time>
      </trkpt>
      <trkpt lat="45.48415" lon="6.88921">
        <ele>2671.16</ele>
        <time>2011-06-26T10:22:50Z</time>
      </trkpt>
      <trkpt lat="45.48417" lon="6.88903">
        <ele>2670.2</ele>
        <time>2011-06-26T10:22:58Z</time>
      </trkpt>
      <trkpt lat="45.48419" lon="6.88891">
        <ele>2672.12</ele>
        <time>2011-06-26T10:23:05Z</time>
      </trkpt>
      <trkpt lat="45.48414" lon="6.88882">
        <ele>2670.68</ele>
        <time>2011-06-26T10:23:10Z</time>
      </trkpt>
      <trkpt lat="45.48411" lon="6.88874">
        <ele>2669.72</ele>
        <time>2011-06-26T10:23:14Z</time>
      </trkpt>
      <trkpt lat="45.48406" lon="6.88868">
        <ele>2669.72</ele>
        <time>2011-06-26T10:23:17Z</time>
      </trkpt>
      <trkpt lat="45.484" lon="6.88858">
        <ele>2664.91</ele>
        <time>2011-06-26T10:23:23Z</time>
      </trkpt>
      <trkpt lat="45.484" lon="6.88855">
        <ele>2665.39</ele>
        <time>2011-06-26T10:23:24Z</time>
      </trkpt>
      <trkpt lat="45.484" lon="6.88849">
        <ele>2663.47</ele>
        <time>2011-06-26T10:23:27Z</time>
      </trkpt>
      <trkpt lat="45.48403" lon="6.88835">
        <ele>2660.59</ele>
        <time>2011-06-26T10:23:34Z</time>
      </trkpt>
      <trkpt lat="45.48407" lon="6.88815">
        <ele>2656.74</ele>
        <time>2011-06-26T10:23:43Z</time>
      </trkpt>
      <trkpt lat="45.4841" lon="6.88801">
        <ele>2653.38</ele>
        <time>2011-06-26T10:23:49Z</time>
      </trkpt>
      <trkpt lat="45.48411" lon="6.88799">
        <ele>2652.9</ele>
        <time>2011-06-26T10:23:50Z</time>
      </trkpt>
      <trkpt lat="45.48412" lon="6.88795">
        <ele>2652.42</ele>
        <time>2011-06-26T10:23:52Z</time>
      </trkpt>
      <trkpt lat="45.48411" lon="6.88785">
        <ele>2652.9</ele>
        <time>2011-06-26T10:23:56Z</time>
      </trkpt>
      <trkpt lat="45.48405" lon="6.88785">
        <ele>2650.49</ele>
        <time>2011-06-26T10:24:13Z</time>
      </trkpt>
      <trkpt lat="45.48404" lon="6.88784">
        <ele>2650.97</ele>
        <time>2011-06-26T10:24:37Z</time>
      </trkpt>
      <trkpt lat="45.48403" lon="6.88784">
        <ele>2651.93</ele>
        <time>2011-06-26T10:24:39Z</time>
      </trkpt>
      <trkpt lat="45.48399" lon="6.88785">
        <ele>2649.53</ele>
        <time>2011-06-26T10:24:42Z</time>
      </trkpt>
      <trkpt lat="45.48394" lon="6.88789">
        <ele>2646.17</ele>
        <time>2011-06-26T10:24:46Z</time>
      </trkpt>
      <trkpt lat="45.48389" lon="6.88789">
        <ele>2646.65</ele>
        <time>2011-06-26T10:24:49Z</time>
      </trkpt>
      <trkpt lat="45.48379" lon="6.88789">
        <ele>2644.24</ele>
        <time>2011-06-26T10:24:56Z</time>
      </trkpt>
      <trkpt lat="45.48373" lon="6.88791">
        <ele>2641.36</ele>
        <time>2011-06-26T10:25:00Z</time>
      </trkpt>
      <trkpt lat="45.48372" lon="6.88791">
        <ele>2645.21</ele>
        <time>2011-06-26T10:25:01Z</time>
      </trkpt>
      <trkpt lat="45.48371" lon="6.88791">
        <ele>2641.36</ele>
        <time>2011-06-26T10:25:02Z</time>
      </trkpt>
      <trkpt lat="45.48365" lon="6.88791">
        <ele>2640.4</ele>
        <time>2011-06-26T10:25:08Z</time>
      </trkpt>
      <trkpt lat="45.48361" lon="6.8879">
        <ele>2639.44</ele>
        <time>2011-06-26T10:25:12Z</time>
      </trkpt>
      <trkpt lat="45.48359" lon="6.88789">
        <ele>2638.48</ele>
        <time>2011-06-26T10:25:14Z</time>
      </trkpt>
      <trkpt lat="45.48356" lon="6.88788">
        <ele>2637.51</ele>
        <time>2011-06-26T10:25:18Z</time>
      </trkpt>
      <trkpt lat="45.48352" lon="6.88789">
        <ele>2635.11</ele>
        <time>2011-06-26T10:25:23Z</time>
      </trkpt>
      <trkpt lat="45.48347" lon="6.88787">
        <ele>2632.71</ele>
        <time>2011-06-26T10:25:27Z</time>
      </trkpt>
      <trkpt lat="45.48345" lon="6.88786">
        <ele>2634.15</ele>
        <time>2011-06-26T10:25:29Z</time>
      </trkpt>
      <trkpt lat="45.48344" lon="6.88785">
        <ele>2631.75</ele>
        <time>2011-06-26T10:25:31Z</time>
      </trkpt>
      <trkpt lat="45.48335" lon="6.88785">
        <ele>2631.75</ele>
        <time>2011-06-26T10:25:39Z</time>
      </trkpt>
      <trkpt lat="45.48331" lon="6.88786">
        <ele>2628.86</ele>
        <time>2011-06-26T10:25:42Z</time>
      </trkpt>
      <trkpt lat="45.48329" lon="6.88788">
        <ele>2628.86</ele>
        <time>2011-06-26T10:25:44Z</time>
      </trkpt>
      <trkpt lat="45.48324" lon="6.88788">
        <ele>2629.82</ele>
        <time>2011-06-26T10:25:49Z</time>
      </trkpt>
      <trkpt lat="45.48322" lon="6.88788">
        <ele>2627.42</ele>
        <time>2011-06-26T10:25:51Z</time>
      </trkpt>
      <trkpt lat="45.48319" lon="6.88789">
        <ele>2628.38</ele>
        <time>2011-06-26T10:25:54Z</time>
      </trkpt>
      <trkpt lat="45.48318" lon="6.8879">
        <ele>2625.02</ele>
        <time>2011-06-26T10:25:55Z</time>
      </trkpt>
      <trkpt lat="45.48314" lon="6.88791">
        <ele>2625.5</ele>
        <time>2011-06-26T10:25:58Z</time>
      </trkpt>
      <trkpt lat="45.48309" lon="6.88792">
        <ele>2624.54</ele>
        <time>2011-06-26T10:26:03Z</time>
      </trkpt>
      <trkpt lat="45.48308" lon="6.88792">
        <ele>2623.58</ele>
        <time>2011-06-26T10:26:04Z</time>
      </trkpt>
      <trkpt lat="45.48297" lon="6.88793">
        <ele>2620.69</ele>
        <time>2011-06-26T10:26:15Z</time>
      </trkpt>
      <trkpt lat="45.48296" lon="6.88794">
        <ele>2620.69</ele>
        <time>2011-06-26T10:26:16Z</time>
      </trkpt>
      <trkpt lat="45.48288" lon="6.88797">
        <ele>2616.85</ele>
        <time>2011-06-26T10:26:23Z</time>
      </trkpt>
      <trkpt lat="45.48276" lon="6.88782">
        <ele>2616.37</ele>
        <time>2011-06-26T10:26:34Z</time>
      </trkpt>
      <trkpt lat="45.48283" lon="6.88773">
        <ele>2613</ele>
        <time>2011-06-26T10:26:39Z</time>
      </trkpt>
      <trkpt lat="45.48292" lon="6.88756">
        <ele>2609.16</ele>
        <time>2011-06-26T10:26:50Z</time>
      </trkpt>
      <trkpt lat="45.48293" lon="6.88754">
        <ele>2610.12</ele>
        <time>2011-06-26T10:26:51Z</time>
      </trkpt>
      <trkpt lat="45.48296" lon="6.88745">
        <ele>2607.71</ele>
        <time>2011-06-26T10:26:56Z</time>
      </trkpt>
      <trkpt lat="45.48299" lon="6.88731">
        <ele>2603.87</ele>
        <time>2011-06-26T10:27:03Z</time>
      </trkpt>
      <trkpt lat="45.48301" lon="6.88723">
        <ele>2602.91</ele>
        <time>2011-06-26T10:27:07Z</time>
      </trkpt>
      <trkpt lat="45.48303" lon="6.88719">
        <ele>2600.5</ele>
        <time>2011-06-26T10:27:10Z</time>
      </trkpt>
      <trkpt lat="45.48306" lon="6.8871">
        <ele>2600.02</ele>
        <time>2011-06-26T10:27:15Z</time>
      </trkpt>
      <trkpt lat="45.48307" lon="6.88705">
        <ele>2598.58</ele>
        <time>2011-06-26T10:27:18Z</time>
      </trkpt>
      <trkpt lat="45.48308" lon="6.88696">
        <ele>2595.7</ele>
        <time>2011-06-26T10:27:22Z</time>
      </trkpt>
      <trkpt lat="45.48308" lon="6.88679">
        <ele>2592.33</ele>
        <time>2011-06-26T10:27:30Z</time>
      </trkpt>
      <trkpt lat="45.48307" lon="6.88677">
        <ele>2595.22</ele>
        <time>2011-06-26T10:27:31Z</time>
      </trkpt>
      <trkpt lat="45.48305" lon="6.88669">
        <ele>2590.41</ele>
        <time>2011-06-26T10:27:35Z</time>
      </trkpt>
      <trkpt lat="45.48301" lon="6.88659">
        <ele>2590.89</ele>
        <time>2011-06-26T10:27:40Z</time>
      </trkpt>
      <trkpt lat="45.48299" lon="6.88654">
        <ele>2588.01</ele>
        <time>2011-06-26T10:27:42Z</time>
      </trkpt>
      <trkpt lat="45.48298" lon="6.8865">
        <ele>2588.49</ele>
        <time>2011-06-26T10:27:44Z</time>
      </trkpt>
      <trkpt lat="45.48292" lon="6.88643">
        <ele>2588.97</ele>
        <time>2011-06-26T10:27:49Z</time>
      </trkpt>
      <trkpt lat="45.48288" lon="6.8864">
        <ele>2586.56</ele>
        <time>2011-06-26T10:27:52Z</time>
      </trkpt>
      <trkpt lat="45.48279" lon="6.88639">
        <ele>2585.6</ele>
        <time>2011-06-26T10:27:56Z</time>
      </trkpt>
      <trkpt lat="45.48271" lon="6.88635">
        <ele>2582.72</ele>
        <time>2011-06-26T10:28:01Z</time>
      </trkpt>
      <trkpt lat="45.4826" lon="6.88621">
        <ele>2580.32</ele>
        <time>2011-06-26T10:28:10Z</time>
      </trkpt>
      <trkpt lat="45.48255" lon="6.88615">
        <ele>2577.43</ele>
        <time>2011-06-26T10:28:14Z</time>
      </trkpt>
      <trkpt lat="45.48252" lon="6.88612">
        <ele>2577.43</ele>
        <time>2011-06-26T10:28:16Z</time>
      </trkpt>
      <trkpt lat="45.4824" lon="6.88592">
        <ele>2571.18</ele>
        <time>2011-06-26T10:28:27Z</time>
      </trkpt>
      <trkpt lat="45.48239" lon="6.88589">
        <ele>2574.55</ele>
        <time>2011-06-26T10:28:28Z</time>
      </trkpt>
      <trkpt lat="45.48236" lon="6.88583">
        <ele>2571.18</ele>
        <time>2011-06-26T10:28:31Z</time>
      </trkpt>
      <trkpt lat="45.48234" lon="6.88579">
        <ele>2572.63</ele>
        <time>2011-06-26T10:28:33Z</time>
      </trkpt>
      <trkpt lat="45.48228" lon="6.88549">
        <ele>2569.26</ele>
        <time>2011-06-26T10:28:44Z</time>
      </trkpt>
      <trkpt lat="45.48228" lon="6.88546">
        <ele>2568.78</ele>
        <time>2011-06-26T10:28:45Z</time>
      </trkpt>
      <trkpt lat="45.48229" lon="6.88509">
        <ele>2567.82</ele>
        <time>2011-06-26T10:28:58Z</time>
      </trkpt>
      <trkpt lat="45.48226" lon="6.88493">
        <ele>2565.9</ele>
        <time>2011-06-26T10:29:04Z</time>
      </trkpt>
      <trkpt lat="45.48225" lon="6.88491">
        <ele>2567.82</ele>
        <time>2011-06-26T10:29:05Z</time>
      </trkpt>
      <trkpt lat="45.48221" lon="6.88486">
        <ele>2565.9</ele>
        <time>2011-06-26T10:29:08Z</time>
      </trkpt>
      <trkpt lat="45.48216" lon="6.88483">
        <ele>2562.53</ele>
        <time>2011-06-26T10:29:13Z</time>
      </trkpt>
      <trkpt lat="45.48216" lon="6.88484">
        <ele>2565.9</ele>
        <time>2011-06-26T10:29:18Z</time>
      </trkpt>
      <trkpt lat="45.4821" lon="6.88491">
        <ele>2562.05</ele>
        <time>2011-06-26T10:29:25Z</time>
      </trkpt>
      <trkpt lat="45.48207" lon="6.88494">
        <ele>2563.01</ele>
        <time>2011-06-26T10:29:26Z</time>
      </trkpt>
      <trkpt lat="45.48202" lon="6.88501">
        <ele>2558.69</ele>
        <time>2011-06-26T10:29:29Z</time>
      </trkpt>
      <trkpt lat="45.482" lon="6.88505">
        <ele>2562.05</ele>
        <time>2011-06-26T10:29:31Z</time>
      </trkpt>
      <trkpt lat="45.48196" lon="6.8851">
        <ele>2558.69</ele>
        <time>2011-06-26T10:29:34Z</time>
      </trkpt>
      <trkpt lat="45.48195" lon="6.88512">
        <ele>2560.13</ele>
        <time>2011-06-26T10:29:35Z</time>
      </trkpt>
      <trkpt lat="45.48191" lon="6.88516">
        <ele>2557.73</ele>
        <time>2011-06-26T10:29:38Z</time>
      </trkpt>
      <trkpt lat="45.48188" lon="6.88518">
        <ele>2556.28</ele>
        <time>2011-06-26T10:29:40Z</time>
      </trkpt>
      <trkpt lat="45.48181" lon="6.88526">
        <ele>2552.44</ele>
        <time>2011-06-26T10:29:45Z</time>
      </trkpt>
      <trkpt lat="45.4818" lon="6.88528">
        <ele>2552.44</ele>
        <time>2011-06-26T10:29:46Z</time>
      </trkpt>
      <trkpt lat="45.48174" lon="6.88536">
        <ele>2549.07</ele>
        <time>2011-06-26T10:29:50Z</time>
      </trkpt>
      <trkpt lat="45.48173" lon="6.88538">
        <ele>2549.07</ele>
        <time>2011-06-26T10:29:51Z</time>
      </trkpt>
      <trkpt lat="45.48163" lon="6.88561">
        <ele>2546.19</ele>
        <time>2011-06-26T10:30:00Z</time>
      </trkpt>
      <trkpt lat="45.48162" lon="6.88563">
        <ele>2547.15</ele>
        <time>2011-06-26T10:30:01Z</time>
      </trkpt>
      <trkpt lat="45.48152" lon="6.88582">
        <ele>2543.79</ele>
        <time>2011-06-26T10:30:11Z</time>
      </trkpt>
      <trkpt lat="45.48149" lon="6.88586">
        <ele>2543.31</ele>
        <time>2011-06-26T10:30:14Z</time>
      </trkpt>
      <trkpt lat="45.48139" lon="6.88596">
        <ele>2539.46</ele>
        <time>2011-06-26T10:30:22Z</time>
      </trkpt>
      <trkpt lat="45.48138" lon="6.88597">
        <ele>2539.46</ele>
        <time>2011-06-26T10:30:23Z</time>
      </trkpt>
      <trkpt lat="45.48127" lon="6.88609">
        <ele>2535.61</ele>
        <time>2011-06-26T10:30:33Z</time>
      </trkpt>
      <trkpt lat="45.48126" lon="6.8861">
        <ele>2539.46</ele>
        <time>2011-06-26T10:30:34Z</time>
      </trkpt>
      <trkpt lat="45.48125" lon="6.88612">
        <ele>2537.54</ele>
        <time>2011-06-26T10:30:35Z</time>
      </trkpt>
      <trkpt lat="45.4812" lon="6.88618">
        <ele>2534.17</ele>
        <time>2011-06-26T10:30:39Z</time>
      </trkpt>
      <trkpt lat="45.48115" lon="6.88623">
        <ele>2532.73</ele>
        <time>2011-06-26T10:30:44Z</time>
      </trkpt>
      <trkpt lat="45.48109" lon="6.88628">
        <ele>2530.81</ele>
        <time>2011-06-26T10:30:49Z</time>
      </trkpt>
      <trkpt lat="45.48096" lon="6.88635">
        <ele>2528.4</ele>
        <time>2011-06-26T10:30:57Z</time>
      </trkpt>
      <trkpt lat="45.48085" lon="6.8864">
        <ele>2525.04</ele>
        <time>2011-06-26T10:31:05Z</time>
      </trkpt>
      <trkpt lat="45.48073" lon="6.88645">
        <ele>2518.31</ele>
        <time>2011-06-26T10:31:13Z</time>
      </trkpt>
      <trkpt lat="45.48072" lon="6.88645">
        <ele>2519.27</ele>
        <time>2011-06-26T10:31:14Z</time>
      </trkpt>
      <trkpt lat="45.48056" lon="6.88645">
        <ele>2515.43</ele>
        <time>2011-06-26T10:31:23Z</time>
      </trkpt>
      <trkpt lat="45.48039" lon="6.88639">
        <ele>2511.1</ele>
        <time>2011-06-26T10:31:31Z</time>
      </trkpt>
      <trkpt lat="45.48033" lon="6.88635">
        <ele>2514.95</ele>
        <time>2011-06-26T10:31:34Z</time>
      </trkpt>
      <trkpt lat="45.48032" lon="6.88633">
        <ele>2510.62</ele>
        <time>2011-06-26T10:31:35Z</time>
      </trkpt>
      <trkpt lat="45.48031" lon="6.88632">
        <ele>2512.06</ele>
        <time>2011-06-26T10:31:36Z</time>
      </trkpt>
      <trkpt lat="45.48016" lon="6.8863">
        <ele>2515.43</ele>
        <time>2011-06-26T10:31:47Z</time>
      </trkpt>
      <trkpt lat="45.48015" lon="6.8863">
        <ele>2512.06</ele>
        <time>2011-06-26T10:31:48Z</time>
      </trkpt>
      <trkpt lat="45.48014" lon="6.8863">
        <ele>2512.06</ele>
        <time>2011-06-26T10:31:49Z</time>
      </trkpt>
      <trkpt lat="45.48001" lon="6.88632">
        <ele>2514.47</ele>
        <time>2011-06-26T10:31:57Z</time>
      </trkpt>
      <trkpt lat="45.48" lon="6.88632">
        <ele>2510.62</ele>
        <time>2011-06-26T10:31:58Z</time>
      </trkpt>
      <trkpt lat="45.47998" lon="6.88633">
        <ele>2513.02</ele>
        <time>2011-06-26T10:31:59Z</time>
      </trkpt>
      <trkpt lat="45.4799" lon="6.88636">
        <ele>2518.31</ele>
        <time>2011-06-26T10:32:06Z</time>
      </trkpt>
      <trkpt lat="45.47989" lon="6.88637">
        <ele>2514.47</ele>
        <time>2011-06-26T10:32:07Z</time>
      </trkpt>
      <trkpt lat="45.47975" lon="6.88657">
        <ele>2513.5</ele>
        <time>2011-06-26T10:32:21Z</time>
      </trkpt>
      <trkpt lat="45.47973" lon="6.88663">
        <ele>2515.43</ele>
        <time>2011-06-26T10:32:24Z</time>
      </trkpt>
      <trkpt lat="45.4797" lon="6.88677">
        <ele>2510.14</ele>
        <time>2011-06-26T10:32:31Z</time>
      </trkpt>
      <trkpt lat="45.47969" lon="6.88679">
        <ele>2512.54</ele>
        <time>2011-06-26T10:32:32Z</time>
      </trkpt>
      <trkpt lat="45.47957" lon="6.88695">
        <ele>2512.06</ele>
        <time>2011-06-26T10:32:39Z</time>
      </trkpt>
      <trkpt lat="45.47943" lon="6.88708">
        <ele>2509.18</ele>
        <time>2011-06-26T10:32:46Z</time>
      </trkpt>
      <trkpt lat="45.47941" lon="6.88709">
        <ele>2512.06</ele>
        <time>2011-06-26T10:32:47Z</time>
      </trkpt>
      <trkpt lat="45.47939" lon="6.88713">
        <ele>2507.26</ele>
        <time>2011-06-26T10:32:49Z</time>
      </trkpt>
      <trkpt lat="45.47938" lon="6.88714">
        <ele>2510.62</ele>
        <time>2011-06-26T10:32:50Z</time>
      </trkpt>
      <trkpt lat="45.47934" lon="6.88719">
        <ele>2507.26</ele>
        <time>2011-06-26T10:32:53Z</time>
      </trkpt>
      <trkpt lat="45.47924" lon="6.88732">
        <ele>2507.74</ele>
        <time>2011-06-26T10:32:58Z</time>
      </trkpt>
      <trkpt lat="45.47909" lon="6.88747">
        <ele>2504.37</ele>
        <time>2011-06-26T10:33:06Z</time>
      </trkpt>
      <trkpt lat="45.47897" lon="6.88761">
        <ele>2499.08</ele>
        <time>2011-06-26T10:33:13Z</time>
      </trkpt>
      <trkpt lat="45.47895" lon="6.88764">
        <ele>2500.53</ele>
        <time>2011-06-26T10:33:14Z</time>
      </trkpt>
      <trkpt lat="45.47887" lon="6.88778">
        <ele>2497.16</ele>
        <time>2011-06-26T10:33:19Z</time>
      </trkpt>
      <trkpt lat="45.47885" lon="6.88781">
        <ele>2500.05</ele>
        <time>2011-06-26T10:33:20Z</time>
      </trkpt>
      <trkpt lat="45.47867" lon="6.88806">
        <ele>2498.12</ele>
        <time>2011-06-26T10:33:29Z</time>
      </trkpt>
      <trkpt lat="45.47855" lon="6.88819">
        <ele>2496.68</ele>
        <time>2011-06-26T10:33:35Z</time>
      </trkpt>
      <trkpt lat="45.47822" lon="6.88842">
        <ele>2498.12</ele>
        <time>2011-06-26T10:33:48Z</time>
      </trkpt>
      <trkpt lat="45.47816" lon="6.88843">
        <ele>2496.2</ele>
        <time>2011-06-26T10:33:50Z</time>
      </trkpt>
      <trkpt lat="45.47813" lon="6.88843">
        <ele>2499.57</ele>
        <time>2011-06-26T10:33:51Z</time>
      </trkpt>
      <trkpt lat="45.47808" lon="6.88844">
        <ele>2494.28</ele>
        <time>2011-06-26T10:33:53Z</time>
      </trkpt>
      <trkpt lat="45.47805" lon="6.88845">
        <ele>2496.2</ele>
        <time>2011-06-26T10:33:54Z</time>
      </trkpt>
      <trkpt lat="45.47794" lon="6.88849">
        <ele>2492.36</ele>
        <time>2011-06-26T10:33:59Z</time>
      </trkpt>
      <trkpt lat="45.4779" lon="6.88855">
        <ele>2491.87</ele>
        <time>2011-06-26T10:34:10Z</time>
      </trkpt>
      <trkpt lat="45.47787" lon="6.88863">
        <ele>2490.91</ele>
        <time>2011-06-26T10:34:19Z</time>
      </trkpt>
      <trkpt lat="45.47785" lon="6.88879">
        <ele>2487.07</ele>
        <time>2011-06-26T10:34:23Z</time>
      </trkpt>
      <trkpt lat="45.47785" lon="6.88898">
        <ele>2488.03</ele>
        <time>2011-06-26T10:34:28Z</time>
      </trkpt>
      <trkpt lat="45.47782" lon="6.88918">
        <ele>2485.15</ele>
        <time>2011-06-26T10:34:34Z</time>
      </trkpt>
      <trkpt lat="45.47764" lon="6.88941">
        <ele>2486.59</ele>
        <time>2011-06-26T10:34:43Z</time>
      </trkpt>
      <trkpt lat="45.47747" lon="6.88937">
        <ele>2481.78</ele>
        <time>2011-06-26T10:34:49Z</time>
      </trkpt>
      <trkpt lat="45.47723" lon="6.88929">
        <ele>2478.9</ele>
        <time>2011-06-26T10:34:58Z</time>
      </trkpt>
      <trkpt lat="45.4772" lon="6.88929">
        <ele>2480.82</ele>
        <time>2011-06-26T10:34:59Z</time>
      </trkpt>
      <trkpt lat="45.47706" lon="6.8893">
        <ele>2474.57</ele>
        <time>2011-06-26T10:35:05Z</time>
      </trkpt>
      <trkpt lat="45.47703" lon="6.8893">
        <ele>2478.9</ele>
        <time>2011-06-26T10:35:06Z</time>
      </trkpt>
      <trkpt lat="45.47694" lon="6.88931">
        <ele>2469.76</ele>
        <time>2011-06-26T10:35:10Z</time>
      </trkpt>
      <trkpt lat="45.47691" lon="6.88931">
        <ele>2474.09</ele>
        <time>2011-06-26T10:35:11Z</time>
      </trkpt>
      <trkpt lat="45.47687" lon="6.8893">
        <ele>2475.05</ele>
        <time>2011-06-26T10:35:13Z</time>
      </trkpt>
      <trkpt lat="45.47685" lon="6.8893">
        <ele>2471.69</ele>
        <time>2011-06-26T10:35:14Z</time>
      </trkpt>
      <trkpt lat="45.47683" lon="6.8893">
        <ele>2472.17</ele>
        <time>2011-06-26T10:35:15Z</time>
      </trkpt>
      <trkpt lat="45.47675" lon="6.88929">
        <ele>2468.8</ele>
        <time>2011-06-26T10:35:19Z</time>
      </trkpt>
      <trkpt lat="45.47666" lon="6.88927">
        <ele>2466.88</ele>
        <time>2011-06-26T10:35:24Z</time>
      </trkpt>
      <trkpt lat="45.47662" lon="6.88925">
        <ele>2462.07</ele>
        <time>2011-06-26T10:35:26Z</time>
      </trkpt>
      <trkpt lat="45.4766" lon="6.88924">
        <ele>2464</ele>
        <time>2011-06-26T10:35:27Z</time>
      </trkpt>
      <trkpt lat="45.47653" lon="6.88921">
        <ele>2462.55</ele>
        <time>2011-06-26T10:35:31Z</time>
      </trkpt>
      <trkpt lat="45.47641" lon="6.88916">
        <ele>2457.27</ele>
        <time>2011-06-26T10:35:37Z</time>
      </trkpt>
      <trkpt lat="45.4764" lon="6.88915">
        <ele>2458.23</ele>
        <time>2011-06-26T10:35:38Z</time>
      </trkpt>
      <trkpt lat="45.47638" lon="6.88914">
        <ele>2458.23</ele>
        <time>2011-06-26T10:35:39Z</time>
      </trkpt>
      <trkpt lat="45.47627" lon="6.88896">
        <ele>2453.42</ele>
        <time>2011-06-26T10:35:48Z</time>
      </trkpt>
      <trkpt lat="45.47626" lon="6.88893">
        <ele>2448.62</ele>
        <time>2011-06-26T10:35:49Z</time>
      </trkpt>
      <trkpt lat="45.47625" lon="6.88889">
        <ele>2455.82</ele>
        <time>2011-06-26T10:35:50Z</time>
      </trkpt>
      <trkpt lat="45.47624" lon="6.88885">
        <ele>2451.98</ele>
        <time>2011-06-26T10:35:51Z</time>
      </trkpt>
      <trkpt lat="45.47624" lon="6.88881">
        <ele>2451.5</ele>
        <time>2011-06-26T10:35:52Z</time>
      </trkpt>
      <trkpt lat="45.47619" lon="6.88872">
        <ele>2449.1</ele>
        <time>2011-06-26T10:35:56Z</time>
      </trkpt>
      <trkpt lat="45.47615" lon="6.88867">
        <ele>2445.73</ele>
        <time>2011-06-26T10:35:59Z</time>
      </trkpt>
      <trkpt lat="45.47609" lon="6.88859">
        <ele>2446.21</ele>
        <time>2011-06-26T10:36:04Z</time>
      </trkpt>
      <trkpt lat="45.47592" lon="6.88832">
        <ele>2441.41</ele>
        <time>2011-06-26T10:36:15Z</time>
      </trkpt>
      <trkpt lat="45.4759" lon="6.88828">
        <ele>2439.48</ele>
        <time>2011-06-26T10:36:17Z</time>
      </trkpt>
      <trkpt lat="45.47582" lon="6.88817">
        <ele>2435.16</ele>
        <time>2011-06-26T10:36:23Z</time>
      </trkpt>
      <trkpt lat="45.4758" lon="6.88814">
        <ele>2436.12</ele>
        <time>2011-06-26T10:36:24Z</time>
      </trkpt>
      <trkpt lat="45.47577" lon="6.88811">
        <ele>2436.6</ele>
        <time>2011-06-26T10:36:26Z</time>
      </trkpt>
      <trkpt lat="45.47576" lon="6.88809">
        <ele>2433.71</ele>
        <time>2011-06-26T10:36:27Z</time>
      </trkpt>
      <trkpt lat="45.47575" lon="6.88807">
        <ele>2437.56</ele>
        <time>2011-06-26T10:36:28Z</time>
      </trkpt>
      <trkpt lat="45.47571" lon="6.88803">
        <ele>2432.27</ele>
        <time>2011-06-26T10:36:31Z</time>
      </trkpt>
      <trkpt lat="45.4757" lon="6.88802">
        <ele>2433.23</ele>
        <time>2011-06-26T10:36:32Z</time>
      </trkpt>
      <trkpt lat="45.47569" lon="6.888">
        <ele>2432.75</ele>
        <time>2011-06-26T10:36:34Z</time>
      </trkpt>
      <trkpt lat="45.47565" lon="6.88798">
        <ele>2432.27</ele>
        <time>2011-06-26T10:36:37Z</time>
      </trkpt>
      <trkpt lat="45.47555" lon="6.88794">
        <ele>2429.39</ele>
        <time>2011-06-26T10:36:44Z</time>
      </trkpt>
      <trkpt lat="45.47547" lon="6.88785">
        <ele>2425.54</ele>
        <time>2011-06-26T10:36:49Z</time>
      </trkpt>
      <trkpt lat="45.47543" lon="6.88782">
        <ele>2428.43</ele>
        <time>2011-06-26T10:36:51Z</time>
      </trkpt>
      <trkpt lat="45.47535" lon="6.88777">
        <ele>2425.06</ele>
        <time>2011-06-26T10:36:55Z</time>
      </trkpt>
      <trkpt lat="45.4752" lon="6.88768">
        <ele>2428.43</ele>
        <time>2011-06-26T10:37:03Z</time>
      </trkpt>
      <trkpt lat="45.47518" lon="6.88767">
        <ele>2425.06</ele>
        <time>2011-06-26T10:37:04Z</time>
      </trkpt>
      <trkpt lat="45.47517" lon="6.88767">
        <ele>2428.91</ele>
        <time>2011-06-26T10:37:05Z</time>
      </trkpt>
      <trkpt lat="45.47511" lon="6.88763">
        <ele>2425.06</ele>
        <time>2011-06-26T10:37:08Z</time>
      </trkpt>
      <trkpt lat="45.47509" lon="6.88761">
        <ele>2428.43</ele>
        <time>2011-06-26T10:37:09Z</time>
      </trkpt>
      <trkpt lat="45.47504" lon="6.88758">
        <ele>2425.06</ele>
        <time>2011-06-26T10:37:11Z</time>
      </trkpt>
      <trkpt lat="45.47502" lon="6.88756">
        <ele>2425.06</ele>
        <time>2011-06-26T10:37:12Z</time>
      </trkpt>
      <trkpt lat="45.47497" lon="6.88755">
        <ele>2426.5</ele>
        <time>2011-06-26T10:37:14Z</time>
      </trkpt>
      <trkpt lat="45.47494" lon="6.88755">
        <ele>2430.83</ele>
        <time>2011-06-26T10:37:15Z</time>
      </trkpt>
      <trkpt lat="45.47491" lon="6.88755">
        <ele>2425.06</ele>
        <time>2011-06-26T10:37:16Z</time>
      </trkpt>
      <trkpt lat="45.47482" lon="6.88758">
        <ele>2429.39</ele>
        <time>2011-06-26T10:37:20Z</time>
      </trkpt>
      <trkpt lat="45.4748" lon="6.88759">
        <ele>2424.58</ele>
        <time>2011-06-26T10:37:21Z</time>
      </trkpt>
      <trkpt lat="45.47474" lon="6.88761">
        <ele>2426.02</ele>
        <time>2011-06-26T10:37:24Z</time>
      </trkpt>
      <trkpt lat="45.47467" lon="6.88762">
        <ele>2424.58</ele>
        <time>2011-06-26T10:37:27Z</time>
      </trkpt>
      <trkpt lat="45.47457" lon="6.88765">
        <ele>2421.22</ele>
        <time>2011-06-26T10:37:31Z</time>
      </trkpt>
      <trkpt lat="45.47454" lon="6.88765">
        <ele>2421.22</ele>
        <time>2011-06-26T10:37:32Z</time>
      </trkpt>
      <trkpt lat="45.47443" lon="6.88767">
        <ele>2417.85</ele>
        <time>2011-06-26T10:37:37Z</time>
      </trkpt>
      <trkpt lat="45.47426" lon="6.88769">
        <ele>2414.97</ele>
        <time>2011-06-26T10:37:44Z</time>
      </trkpt>
      <trkpt lat="45.47416" lon="6.88775">
        <ele>2417.85</ele>
        <time>2011-06-26T10:37:49Z</time>
      </trkpt>
      <trkpt lat="45.47414" lon="6.88777">
        <ele>2414.49</ele>
        <time>2011-06-26T10:37:50Z</time>
      </trkpt>
      <trkpt lat="45.47413" lon="6.88779">
        <ele>2415.45</ele>
        <time>2011-06-26T10:37:51Z</time>
      </trkpt>
      <trkpt lat="45.47403" lon="6.8879">
        <ele>2420.74</ele>
        <time>2011-06-26T10:37:57Z</time>
      </trkpt>
      <trkpt lat="45.47401" lon="6.88792">
        <ele>2415.45</ele>
        <time>2011-06-26T10:37:58Z</time>
      </trkpt>
      <trkpt lat="45.4739" lon="6.88799">
        <ele>2413.53</ele>
        <time>2011-06-26T10:38:04Z</time>
      </trkpt>
      <trkpt lat="45.47387" lon="6.88802">
        <ele>2411.12</ele>
        <time>2011-06-26T10:38:06Z</time>
      </trkpt>
      <trkpt lat="45.47368" lon="6.88817">
        <ele>2407.28</ele>
        <time>2011-06-26T10:38:15Z</time>
      </trkpt>
      <trkpt lat="45.47363" lon="6.88819">
        <ele>2412.09</ele>
        <time>2011-06-26T10:38:17Z</time>
      </trkpt>
      <trkpt lat="45.47361" lon="6.8882">
        <ele>2404.88</ele>
        <time>2011-06-26T10:38:18Z</time>
      </trkpt>
      <trkpt lat="45.47359" lon="6.88821">
        <ele>2406.8</ele>
        <time>2011-06-26T10:38:19Z</time>
      </trkpt>
      <trkpt lat="45.47345" lon="6.88837">
        <ele>2410.16</ele>
        <time>2011-06-26T10:38:26Z</time>
      </trkpt>
      <trkpt lat="45.47338" lon="6.88846">
        <ele>2407.28</ele>
        <time>2011-06-26T10:38:30Z</time>
      </trkpt>
      <trkpt lat="45.47321" lon="6.8887">
        <ele>2402.47</ele>
        <time>2011-06-26T10:38:40Z</time>
      </trkpt>
      <trkpt lat="45.47316" lon="6.88878">
        <ele>2406.32</ele>
        <time>2011-06-26T10:38:43Z</time>
      </trkpt>
      <trkpt lat="45.47309" lon="6.88891">
        <ele>2401.99</ele>
        <time>2011-06-26T10:38:48Z</time>
      </trkpt>
      <trkpt lat="45.47307" lon="6.88893">
        <ele>2403.91</ele>
        <time>2011-06-26T10:38:49Z</time>
      </trkpt>
      <trkpt lat="45.47305" lon="6.88896">
        <ele>2399.59</ele>
        <time>2011-06-26T10:38:50Z</time>
      </trkpt>
      <trkpt lat="45.47302" lon="6.88901">
        <ele>2404.88</ele>
        <time>2011-06-26T10:38:52Z</time>
      </trkpt>
      <trkpt lat="45.47301" lon="6.88903">
        <ele>2397.67</ele>
        <time>2011-06-26T10:38:53Z</time>
      </trkpt>
      <trkpt lat="45.47299" lon="6.88906">
        <ele>2406.32</ele>
        <time>2011-06-26T10:38:54Z</time>
      </trkpt>
      <trkpt lat="45.47297" lon="6.88913">
        <ele>2403.91</ele>
        <time>2011-06-26T10:38:56Z</time>
      </trkpt>
      <trkpt lat="45.4729" lon="6.88925">
        <ele>2401.51</ele>
        <time>2011-06-26T10:39:01Z</time>
      </trkpt>
      <trkpt lat="45.47285" lon="6.88927">
        <ele>2400.55</ele>
        <time>2011-06-26T10:39:03Z</time>
      </trkpt>
      <trkpt lat="45.47279" lon="6.88928">
        <ele>2404.88</ele>
        <time>2011-06-26T10:39:05Z</time>
      </trkpt>
      <trkpt lat="45.47277" lon="6.88928">
        <ele>2401.03</ele>
        <time>2011-06-26T10:39:06Z</time>
      </trkpt>
      <trkpt lat="45.47264" lon="6.88932">
        <ele>2398.15</ele>
        <time>2011-06-26T10:39:11Z</time>
      </trkpt>
      <trkpt lat="45.47253" lon="6.88935">
        <ele>2401.51</ele>
        <time>2011-06-26T10:39:15Z</time>
      </trkpt>
      <trkpt lat="45.4725" lon="6.88936">
        <ele>2397.18</ele>
        <time>2011-06-26T10:39:16Z</time>
      </trkpt>
      <trkpt lat="45.47247" lon="6.88936">
        <ele>2401.03</ele>
        <time>2011-06-26T10:39:17Z</time>
      </trkpt>
      <trkpt lat="45.47236" lon="6.88939">
        <ele>2395.74</ele>
        <time>2011-06-26T10:39:21Z</time>
      </trkpt>
      <trkpt lat="45.47233" lon="6.88939">
        <ele>2400.55</ele>
        <time>2011-06-26T10:39:22Z</time>
      </trkpt>
      <trkpt lat="45.47227" lon="6.88939">
        <ele>2397.18</ele>
        <time>2011-06-26T10:39:24Z</time>
      </trkpt>
      <trkpt lat="45.47225" lon="6.88939">
        <ele>2400.55</ele>
        <time>2011-06-26T10:39:25Z</time>
      </trkpt>
      <trkpt lat="45.47222" lon="6.88939">
        <ele>2397.18</ele>
        <time>2011-06-26T10:39:26Z</time>
      </trkpt>
      <trkpt lat="45.47198" lon="6.88936">
        <ele>2393.34</ele>
        <time>2011-06-26T10:39:35Z</time>
      </trkpt>
      <trkpt lat="45.47195" lon="6.88936">
        <ele>2394.78</ele>
        <time>2011-06-26T10:39:36Z</time>
      </trkpt>
      <trkpt lat="45.47193" lon="6.88935">
        <ele>2397.67</ele>
        <time>2011-06-26T10:39:37Z</time>
      </trkpt>
      <trkpt lat="45.47191" lon="6.88935">
        <ele>2396.22</ele>
        <time>2011-06-26T10:39:38Z</time>
      </trkpt>
      <trkpt lat="45.47186" lon="6.88936">
        <ele>2394.3</ele>
        <time>2011-06-26T10:39:40Z</time>
      </trkpt>
      <trkpt lat="45.47181" lon="6.88936">
        <ele>2390.46</ele>
        <time>2011-06-26T10:39:42Z</time>
      </trkpt>
      <trkpt lat="45.47174" lon="6.88938">
        <ele>2394.3</ele>
        <time>2011-06-26T10:39:45Z</time>
      </trkpt>
      <trkpt lat="45.47171" lon="6.88938">
        <ele>2390.46</ele>
        <time>2011-06-26T10:39:46Z</time>
      </trkpt>
      <trkpt lat="45.47164" lon="6.88938">
        <ele>2388.53</ele>
        <time>2011-06-26T10:39:49Z</time>
      </trkpt>
      <trkpt lat="45.4715" lon="6.88941">
        <ele>2385.65</ele>
        <time>2011-06-26T10:39:55Z</time>
      </trkpt>
      <trkpt lat="45.47118" lon="6.88949">
        <ele>2385.65</ele>
        <time>2011-06-26T10:40:06Z</time>
      </trkpt>
      <trkpt lat="45.47115" lon="6.88949">
        <ele>2389.97</ele>
        <time>2011-06-26T10:40:07Z</time>
      </trkpt>
      <trkpt lat="45.47113" lon="6.8895">
        <ele>2385.17</ele>
        <time>2011-06-26T10:40:08Z</time>
      </trkpt>
      <trkpt lat="45.47085" lon="6.88961">
        <ele>2384.21</ele>
        <time>2011-06-26T10:40:18Z</time>
      </trkpt>
      <trkpt lat="45.4708" lon="6.88963">
        <ele>2388.05</ele>
        <time>2011-06-26T10:40:20Z</time>
      </trkpt>
      <trkpt lat="45.47077" lon="6.88964">
        <ele>2384.69</ele>
        <time>2011-06-26T10:40:21Z</time>
      </trkpt>
      <trkpt lat="45.47065" lon="6.88971">
        <ele>2384.21</ele>
        <time>2011-06-26T10:40:26Z</time>
      </trkpt>
      <trkpt lat="45.47053" lon="6.88975">
        <ele>2383.25</ele>
        <time>2011-06-26T10:40:31Z</time>
      </trkpt>
      <trkpt lat="45.47043" lon="6.88978">
        <ele>2389.01</ele>
        <time>2011-06-26T10:40:35Z</time>
      </trkpt>
      <trkpt lat="45.47041" lon="6.88978">
        <ele>2383.73</ele>
        <time>2011-06-26T10:40:36Z</time>
      </trkpt>
      <trkpt lat="45.47031" lon="6.88979">
        <ele>2381.8</ele>
        <time>2011-06-26T10:40:40Z</time>
      </trkpt>
      <trkpt lat="45.4702" lon="6.88979">
        <ele>2376.04</ele>
        <time>2011-06-26T10:40:44Z</time>
      </trkpt>
      <trkpt lat="45.47017" lon="6.88979">
        <ele>2379.88</ele>
        <time>2011-06-26T10:40:45Z</time>
      </trkpt>
      <trkpt lat="45.47009" lon="6.8898">
        <ele>2380.36</ele>
        <time>2011-06-26T10:40:48Z</time>
      </trkpt>
      <trkpt lat="45.47002" lon="6.88981">
        <ele>2376.52</ele>
        <time>2011-06-26T10:40:51Z</time>
      </trkpt>
      <trkpt lat="45.46996" lon="6.88982">
        <ele>2380.36</ele>
        <time>2011-06-26T10:40:53Z</time>
      </trkpt>
      <trkpt lat="45.46989" lon="6.88985">
        <ele>2375.07</ele>
        <time>2011-06-26T10:40:56Z</time>
      </trkpt>
      <trkpt lat="45.46986" lon="6.88986">
        <ele>2371.23</ele>
        <time>2011-06-26T10:40:57Z</time>
      </trkpt>
      <trkpt lat="45.46984" lon="6.88986">
        <ele>2377</ele>
        <time>2011-06-26T10:40:58Z</time>
      </trkpt>
      <trkpt lat="45.46982" lon="6.88986">
        <ele>2377</ele>
        <time>2011-06-26T10:40:59Z</time>
      </trkpt>
      <trkpt lat="45.4698" lon="6.88986">
        <ele>2373.15</ele>
        <time>2011-06-26T10:41:00Z</time>
      </trkpt>
      <trkpt lat="45.46959" lon="6.88973">
        <ele>2373.15</ele>
        <time>2011-06-26T10:41:10Z</time>
      </trkpt>
      <trkpt lat="45.46936" lon="6.88949">
        <ele>2375.07</ele>
        <time>2011-06-26T10:41:22Z</time>
      </trkpt>
      <trkpt lat="45.46934" lon="6.88946">
        <ele>2371.23</ele>
        <time>2011-06-26T10:41:23Z</time>
      </trkpt>
      <trkpt lat="45.46933" lon="6.88944">
        <ele>2374.59</ele>
        <time>2011-06-26T10:41:24Z</time>
      </trkpt>
      <trkpt lat="45.46931" lon="6.88941">
        <ele>2370.75</ele>
        <time>2011-06-26T10:41:25Z</time>
      </trkpt>
      <trkpt lat="45.46929" lon="6.88939">
        <ele>2377.48</ele>
        <time>2011-06-26T10:41:26Z</time>
      </trkpt>
      <trkpt lat="45.46928" lon="6.88936">
        <ele>2372.19</ele>
        <time>2011-06-26T10:41:27Z</time>
      </trkpt>
      <trkpt lat="45.46925" lon="6.88931">
        <ele>2375.07</ele>
        <time>2011-06-26T10:41:29Z</time>
      </trkpt>
      <trkpt lat="45.46923" lon="6.88929">
        <ele>2370.75</ele>
        <time>2011-06-26T10:41:30Z</time>
      </trkpt>
      <trkpt lat="45.46921" lon="6.88927">
        <ele>2375.55</ele>
        <time>2011-06-26T10:41:31Z</time>
      </trkpt>
      <trkpt lat="45.46918" lon="6.88921">
        <ele>2371.71</ele>
        <time>2011-06-26T10:41:33Z</time>
      </trkpt>
      <trkpt lat="45.46917" lon="6.88919">
        <ele>2376.52</ele>
        <time>2011-06-26T10:41:34Z</time>
      </trkpt>
      <trkpt lat="45.46912" lon="6.88911">
        <ele>2374.11</ele>
        <time>2011-06-26T10:41:37Z</time>
      </trkpt>
      <trkpt lat="45.46909" lon="6.88906">
        <ele>2371.23</ele>
        <time>2011-06-26T10:41:39Z</time>
      </trkpt>
      <trkpt lat="45.46908" lon="6.88903">
        <ele>2375.55</ele>
        <time>2011-06-26T10:41:40Z</time>
      </trkpt>
      <trkpt lat="45.46906" lon="6.88901">
        <ele>2372.19</ele>
        <time>2011-06-26T10:41:41Z</time>
      </trkpt>
      <trkpt lat="45.46881" lon="6.88871">
        <ele>2372.67</ele>
        <time>2011-06-26T10:41:55Z</time>
      </trkpt>
      <trkpt lat="45.46866" lon="6.88865">
        <ele>2374.11</ele>
        <time>2011-06-26T10:42:01Z</time>
      </trkpt>
      <trkpt lat="45.46859" lon="6.8886">
        <ele>2371.23</ele>
        <time>2011-06-26T10:42:04Z</time>
      </trkpt>
      <trkpt lat="45.46857" lon="6.88859">
        <ele>2375.07</ele>
        <time>2011-06-26T10:42:05Z</time>
      </trkpt>
      <trkpt lat="45.46844" lon="6.88853">
        <ele>2370.75</ele>
        <time>2011-06-26T10:42:10Z</time>
      </trkpt>
      <trkpt lat="45.46842" lon="6.88852">
        <ele>2370.75</ele>
        <time>2011-06-26T10:42:11Z</time>
      </trkpt>
      <trkpt lat="45.46832" lon="6.88849">
        <ele>2374.11</ele>
        <time>2011-06-26T10:42:15Z</time>
      </trkpt>
      <trkpt lat="45.4683" lon="6.88847">
        <ele>2371.23</ele>
        <time>2011-06-26T10:42:16Z</time>
      </trkpt>
      <trkpt lat="45.46827" lon="6.88846">
        <ele>2371.23</ele>
        <time>2011-06-26T10:42:17Z</time>
      </trkpt>
      <trkpt lat="45.4682" lon="6.88843">
        <ele>2372.67</ele>
        <time>2011-06-26T10:42:20Z</time>
      </trkpt>
      <trkpt lat="45.46814" lon="6.88841">
        <ele>2370.75</ele>
        <time>2011-06-26T10:42:22Z</time>
      </trkpt>
      <trkpt lat="45.46797" lon="6.88838">
        <ele>2374.59</ele>
        <time>2011-06-26T10:42:28Z</time>
      </trkpt>
      <trkpt lat="45.46792" lon="6.88839">
        <ele>2371.23</ele>
        <time>2011-06-26T10:42:30Z</time>
      </trkpt>
      <trkpt lat="45.46789" lon="6.88839">
        <ele>2371.71</ele>
        <time>2011-06-26T10:42:31Z</time>
      </trkpt>
      <trkpt lat="45.46765" lon="6.88841">
        <ele>2374.59</ele>
        <time>2011-06-26T10:42:40Z</time>
      </trkpt>
      <trkpt lat="45.46762" lon="6.88841">
        <ele>2371.71</ele>
        <time>2011-06-26T10:42:41Z</time>
      </trkpt>
      <trkpt lat="45.46759" lon="6.88841">
        <ele>2372.19</ele>
        <time>2011-06-26T10:42:42Z</time>
      </trkpt>
      <trkpt lat="45.46752" lon="6.88843">
        <ele>2371.71</ele>
        <time>2011-06-26T10:42:45Z</time>
      </trkpt>
      <trkpt lat="45.46748" lon="6.88848">
        <ele>2370.75</ele>
        <time>2011-06-26T10:42:47Z</time>
      </trkpt>
      <trkpt lat="45.46746" lon="6.8885">
        <ele>2372.19</ele>
        <time>2011-06-26T10:42:48Z</time>
      </trkpt>
      <trkpt lat="45.46736" lon="6.88853">
        <ele>2370.27</ele>
        <time>2011-06-26T10:42:52Z</time>
      </trkpt>
      <trkpt lat="45.46732" lon="6.88849">
        <ele>2370.75</ele>
        <time>2011-06-26T10:42:54Z</time>
      </trkpt>
      <trkpt lat="45.46729" lon="6.88846">
        <ele>2375.07</ele>
        <time>2011-06-26T10:42:55Z</time>
      </trkpt>
      <trkpt lat="45.46727" lon="6.88844">
        <ele>2371.23</ele>
        <time>2011-06-26T10:42:56Z</time>
      </trkpt>
      <trkpt lat="45.46724" lon="6.88838">
        <ele>2377</ele>
        <time>2011-06-26T10:42:58Z</time>
      </trkpt>
      <trkpt lat="45.46723" lon="6.88836">
        <ele>2370.27</ele>
        <time>2011-06-26T10:42:59Z</time>
      </trkpt>
      <trkpt lat="45.46722" lon="6.88835">
        <ele>2369.31</ele>
        <time>2011-06-26T10:43:06Z</time>
      </trkpt>
      <trkpt lat="45.46722" lon="6.88836">
        <ele>2365.94</ele>
        <time>2011-06-26T10:43:08Z</time>
      </trkpt>
      <trkpt lat="45.46722" lon="6.88836">
        <ele>2369.79</ele>
        <time>2011-06-26T10:43:09Z</time>
      </trkpt>
      <trkpt lat="45.46722" lon="6.88836">
        <ele>2373.15</ele>
        <time>2011-06-26T10:43:10Z</time>
      </trkpt>
      <trkpt lat="45.46722" lon="6.88836">
        <ele>2371.71</ele>
        <time>2011-06-26T10:43:11Z</time>
      </trkpt>
      <trkpt lat="45.46722" lon="6.88836">
        <ele>2369.31</ele>
        <time>2011-06-26T10:43:13Z</time>
      </trkpt>
      <trkpt lat="45.46722" lon="6.88835">
        <ele>2374.11</ele>
        <time>2011-06-26T10:43:25Z</time>
      </trkpt>
      <trkpt lat="45.46722" lon="6.88835">
        <ele>2370.75</ele>
        <time>2011-06-26T10:43:26Z</time>
      </trkpt>
      <trkpt lat="45.4672" lon="6.88832">
        <ele>2366.9</ele>
        <time>2011-06-26T10:43:28Z</time>
      </trkpt>
      <trkpt lat="45.46719" lon="6.88831">
        <ele>2367.86</ele>
        <time>2011-06-26T10:43:29Z</time>
      </trkpt>
      <trkpt lat="45.46717" lon="6.88828">
        <ele>2369.31</ele>
        <time>2011-06-26T10:43:31Z</time>
      </trkpt>
      <trkpt lat="45.46715" lon="6.88826">
        <ele>2366.9</ele>
        <time>2011-06-26T10:43:33Z</time>
      </trkpt>
      <trkpt lat="45.46715" lon="6.88825">
        <ele>2369.79</ele>
        <time>2011-06-26T10:43:38Z</time>
      </trkpt>
      <trkpt lat="45.46714" lon="6.88824">
        <ele>2370.75</ele>
        <time>2011-06-26T10:43:40Z</time>
      </trkpt>
      <trkpt lat="45.46706" lon="6.88818">
        <ele>2372.19</ele>
        <time>2011-06-26T10:43:44Z</time>
      </trkpt>
      <trkpt lat="45.46694" lon="6.8881">
        <ele>2370.27</ele>
        <time>2011-06-26T10:43:49Z</time>
      </trkpt>
      <trkpt lat="45.46691" lon="6.88808">
        <ele>2366.9</ele>
        <time>2011-06-26T10:43:51Z</time>
      </trkpt>
      <trkpt lat="45.46689" lon="6.88808">
        <ele>2371.71</ele>
        <time>2011-06-26T10:43:52Z</time>
      </trkpt>
      <trkpt lat="45.46688" lon="6.88808">
        <ele>2371.71</ele>
        <time>2011-06-26T10:43:53Z</time>
      </trkpt>
      <trkpt lat="45.46669" lon="6.88808">
        <ele>2370.27</ele>
        <time>2011-06-26T10:44:01Z</time>
      </trkpt>
      <trkpt lat="45.46666" lon="6.88804">
        <ele>2373.15</ele>
        <time>2011-06-26T10:44:04Z</time>
      </trkpt>
      <trkpt lat="45.46666" lon="6.88803">
        <ele>2371.71</ele>
        <time>2011-06-26T10:44:05Z</time>
      </trkpt>
      <trkpt lat="45.46666" lon="6.888">
        <ele>2374.11</ele>
        <time>2011-06-26T10:44:07Z</time>
      </trkpt>
      <trkpt lat="45.46665" lon="6.88798">
        <ele>2373.15</ele>
        <time>2011-06-26T10:44:10Z</time>
      </trkpt>
      <trkpt lat="45.46663" lon="6.88799">
        <ele>2374.11</ele>
        <time>2011-06-26T10:44:12Z</time>
      </trkpt>
      <trkpt lat="45.46658" lon="6.88802">
        <ele>2377.96</ele>
        <time>2011-06-26T10:44:16Z</time>
      </trkpt>
      <trkpt lat="45.46656" lon="6.88805">
        <ele>2382.28</ele>
        <time>2011-06-26T10:44:19Z</time>
      </trkpt>
      <trkpt lat="45.46655" lon="6.88805">
        <ele>2377.48</ele>
        <time>2011-06-26T10:44:20Z</time>
      </trkpt>
      <trkpt lat="45.46653" lon="6.88806">
        <ele>2377.96</ele>
        <time>2011-06-26T10:44:22Z</time>
      </trkpt>
      <trkpt lat="45.46649" lon="6.8881">
        <ele>2381.8</ele>
        <time>2011-06-26T10:44:28Z</time>
      </trkpt>
      <trkpt lat="45.46645" lon="6.88809">
        <ele>2377.48</ele>
        <time>2011-06-26T10:44:33Z</time>
      </trkpt>
      <trkpt lat="45.46645" lon="6.88809">
        <ele>2381.32</ele>
        <time>2011-06-26T10:44:34Z</time>
      </trkpt>
      <trkpt lat="45.46642" lon="6.88811">
        <ele>2386.13</ele>
        <time>2011-06-26T10:44:41Z</time>
      </trkpt>
      <trkpt lat="45.46641" lon="6.88812">
        <ele>2381.32</ele>
        <time>2011-06-26T10:44:42Z</time>
      </trkpt>
      <trkpt lat="45.4664" lon="6.88812">
        <ele>2385.65</ele>
        <time>2011-06-26T10:44:44Z</time>
      </trkpt>
      <trkpt lat="45.4664" lon="6.88813">
        <ele>2385.65</ele>
        <time>2011-06-26T10:44:45Z</time>
      </trkpt>
      <trkpt lat="45.46637" lon="6.88815">
        <ele>2389.01</ele>
        <time>2011-06-26T10:44:50Z</time>
      </trkpt>
      <trkpt lat="45.46636" lon="6.88815">
        <ele>2384.69</ele>
        <time>2011-06-26T10:44:51Z</time>
      </trkpt>
      <trkpt lat="45.46633" lon="6.88817">
        <ele>2388.05</ele>
        <time>2011-06-26T10:44:57Z</time>
      </trkpt>
      <trkpt lat="45.46632" lon="6.88817">
        <ele>2388.05</ele>
        <time>2011-06-26T10:44:58Z</time>
      </trkpt>
      <trkpt lat="45.46631" lon="6.88818">
        <ele>2385.17</ele>
        <time>2011-06-26T10:45:00Z</time>
      </trkpt>
      <trkpt lat="45.4663" lon="6.88819">
        <ele>2389.49</ele>
        <time>2011-06-26T10:45:01Z</time>
      </trkpt>
      <trkpt lat="45.46622" lon="6.88825">
        <ele>2390.46</ele>
        <time>2011-06-26T10:45:12Z</time>
      </trkpt>
      <trkpt lat="45.46618" lon="6.88827">
        <ele>2391.42</ele>
        <time>2011-06-26T10:45:19Z</time>
      </trkpt>
      <trkpt lat="45.46611" lon="6.88833">
        <ele>2394.3</ele>
        <time>2011-06-26T10:45:29Z</time>
      </trkpt>
      <trkpt lat="45.46609" lon="6.88834">
        <ele>2396.7</ele>
        <time>2011-06-26T10:45:31Z</time>
      </trkpt>
      <trkpt lat="45.46608" lon="6.88837">
        <ele>2397.18</ele>
        <time>2011-06-26T10:45:34Z</time>
      </trkpt>
      <trkpt lat="45.46603" lon="6.88844">
        <ele>2397.18</ele>
        <time>2011-06-26T10:45:41Z</time>
      </trkpt>
      <trkpt lat="45.466" lon="6.88845">
        <ele>2399.59</ele>
        <time>2011-06-26T10:45:45Z</time>
      </trkpt>
      <trkpt lat="45.46599" lon="6.88845">
        <ele>2398.15</ele>
        <time>2011-06-26T10:45:46Z</time>
      </trkpt>
      <trkpt lat="45.46588" lon="6.88849">
        <ele>2404.88</ele>
        <time>2011-06-26T10:45:55Z</time>
      </trkpt>
      <trkpt lat="45.46587" lon="6.88849">
        <ele>2400.55</ele>
        <time>2011-06-26T10:45:56Z</time>
      </trkpt>
      <trkpt lat="45.46586" lon="6.88849">
        <ele>2401.99</ele>
        <time>2011-06-26T10:45:57Z</time>
      </trkpt>
      <trkpt lat="45.46583" lon="6.88849">
        <ele>2403.43</ele>
        <time>2011-06-26T10:45:59Z</time>
      </trkpt>
      <trkpt lat="45.46582" lon="6.8885">
        <ele>2403.43</ele>
        <time>2011-06-26T10:46:00Z</time>
      </trkpt>
      <trkpt lat="45.46581" lon="6.8885">
        <ele>2399.11</ele>
        <time>2011-06-26T10:46:01Z</time>
      </trkpt>
      <trkpt lat="45.46579" lon="6.88851">
        <ele>2401.03</ele>
        <time>2011-06-26T10:46:02Z</time>
      </trkpt>
      <trkpt lat="45.46575" lon="6.88854">
        <ele>2397.18</ele>
        <time>2011-06-26T10:46:05Z</time>
      </trkpt>
      <trkpt lat="45.46571" lon="6.88856">
        <ele>2400.55</ele>
        <time>2011-06-26T10:46:07Z</time>
      </trkpt>
      <trkpt lat="45.46569" lon="6.88858">
        <ele>2404.88</ele>
        <time>2011-06-26T10:46:08Z</time>
      </trkpt>
      <trkpt lat="45.46567" lon="6.88859">
        <ele>2398.15</ele>
        <time>2011-06-26T10:46:09Z</time>
      </trkpt>
      <trkpt lat="45.46562" lon="6.88862">
        <ele>2401.99</ele>
        <time>2011-06-26T10:46:11Z</time>
      </trkpt>
      <trkpt lat="45.46559" lon="6.88863">
        <ele>2397.67</ele>
        <time>2011-06-26T10:46:12Z</time>
      </trkpt>
      <trkpt lat="45.46552" lon="6.88866">
        <ele>2399.59</ele>
        <time>2011-06-26T10:46:15Z</time>
      </trkpt>
      <trkpt lat="45.4654" lon="6.88872">
        <ele>2393.82</ele>
        <time>2011-06-26T10:46:20Z</time>
      </trkpt>
      <trkpt lat="45.46537" lon="6.88872">
        <ele>2393.82</ele>
        <time>2011-06-26T10:46:21Z</time>
      </trkpt>
      <trkpt lat="45.4651" lon="6.88881">
        <ele>2390.46</ele>
        <time>2011-06-26T10:46:30Z</time>
      </trkpt>
      <trkpt lat="45.465" lon="6.88884">
        <ele>2393.34</ele>
        <time>2011-06-26T10:46:33Z</time>
      </trkpt>
      <trkpt lat="45.4649" lon="6.88887">
        <ele>2389.49</ele>
        <time>2011-06-26T10:46:37Z</time>
      </trkpt>
      <trkpt lat="45.46488" lon="6.88887">
        <ele>2393.82</ele>
        <time>2011-06-26T10:46:38Z</time>
      </trkpt>
      <trkpt lat="45.46484" lon="6.88887">
        <ele>2389.49</ele>
        <time>2011-06-26T10:46:40Z</time>
      </trkpt>
      <trkpt lat="45.46482" lon="6.88886">
        <ele>2394.3</ele>
        <time>2011-06-26T10:46:41Z</time>
      </trkpt>
      <trkpt lat="45.46473" lon="6.88884">
        <ele>2389.49</ele>
        <time>2011-06-26T10:46:45Z</time>
      </trkpt>
      <trkpt lat="45.46461" lon="6.8888">
        <ele>2386.13</ele>
        <time>2011-06-26T10:46:50Z</time>
      </trkpt>
      <trkpt lat="45.46458" lon="6.88879">
        <ele>2388.53</ele>
        <time>2011-06-26T10:46:51Z</time>
      </trkpt>
      <trkpt lat="45.46456" lon="6.88879">
        <ele>2385.65</ele>
        <time>2011-06-26T10:46:52Z</time>
      </trkpt>
      <trkpt lat="45.46452" lon="6.8888">
        <ele>2385.17</ele>
        <time>2011-06-26T10:46:54Z</time>
      </trkpt>
      <trkpt lat="45.46441" lon="6.8888">
        <ele>2386.13</ele>
        <time>2011-06-26T10:46:58Z</time>
      </trkpt>
      <trkpt lat="45.46432" lon="6.88882">
        <ele>2383.73</ele>
        <time>2011-06-26T10:47:01Z</time>
      </trkpt>
      <trkpt lat="45.46428" lon="6.88885">
        <ele>2379.88</ele>
        <time>2011-06-26T10:47:03Z</time>
      </trkpt>
      <trkpt lat="45.46426" lon="6.88886">
        <ele>2383.73</ele>
        <time>2011-06-26T10:47:04Z</time>
      </trkpt>
      <trkpt lat="45.46419" lon="6.88894">
        <ele>2382.28</ele>
        <time>2011-06-26T10:47:12Z</time>
      </trkpt>
      <trkpt lat="45.4642" lon="6.88895">
        <ele>2379.4</ele>
        <time>2011-06-26T10:47:14Z</time>
      </trkpt>
      <trkpt lat="45.46421" lon="6.88898">
        <ele>2380.36</ele>
        <time>2011-06-26T10:47:16Z</time>
      </trkpt>
      <trkpt lat="45.46423" lon="6.88903">
        <ele>2380.84</ele>
        <time>2011-06-26T10:47:19Z</time>
      </trkpt>
      <trkpt lat="45.46424" lon="6.88907">
        <ele>2377</ele>
        <time>2011-06-26T10:47:21Z</time>
      </trkpt>
      <trkpt lat="45.46421" lon="6.88917">
        <ele>2374.11</ele>
        <time>2011-06-26T10:47:26Z</time>
      </trkpt>
      <trkpt lat="45.46425" lon="6.88917">
        <ele>2373.63</ele>
        <time>2011-06-26T10:47:30Z</time>
      </trkpt>
      <trkpt lat="45.4643" lon="6.88915">
        <ele>2373.15</ele>
        <time>2011-06-26T10:47:33Z</time>
      </trkpt>
      <trkpt lat="45.46435" lon="6.88919">
        <ele>2368.83</ele>
        <time>2011-06-26T10:47:37Z</time>
      </trkpt>
      <trkpt lat="45.46437" lon="6.88923">
        <ele>2368.35</ele>
        <time>2011-06-26T10:47:39Z</time>
      </trkpt>
      <trkpt lat="45.46439" lon="6.88933">
        <ele>2364.98</ele>
        <time>2011-06-26T10:47:46Z</time>
      </trkpt>
      <trkpt lat="45.46439" lon="6.88934">
        <ele>2365.94</ele>
        <time>2011-06-26T10:47:48Z</time>
      </trkpt>
      <trkpt lat="45.46437" lon="6.88943">
        <ele>2364.5</ele>
        <time>2011-06-26T10:47:53Z</time>
      </trkpt>
      <trkpt lat="45.46437" lon="6.88947">
        <ele>2362.58</ele>
        <time>2011-06-26T10:47:55Z</time>
      </trkpt>
      <trkpt lat="45.46437" lon="6.8895">
        <ele>2359.69</ele>
        <time>2011-06-26T10:47:56Z</time>
      </trkpt>
      <trkpt lat="45.46437" lon="6.88952">
        <ele>2359.69</ele>
        <time>2011-06-26T10:47:57Z</time>
      </trkpt>
      <trkpt lat="45.46437" lon="6.88957">
        <ele>2360.65</ele>
        <time>2011-06-26T10:47:59Z</time>
      </trkpt>
      <trkpt lat="45.46434" lon="6.88964">
        <ele>2353.93</ele>
        <time>2011-06-26T10:48:03Z</time>
      </trkpt>
      <trkpt lat="45.46432" lon="6.88964">
        <ele>2354.41</ele>
        <time>2011-06-26T10:48:04Z</time>
      </trkpt>
      <trkpt lat="45.4643" lon="6.88963">
        <ele>2356.33</ele>
        <time>2011-06-26T10:48:05Z</time>
      </trkpt>
      <trkpt lat="45.46428" lon="6.88964">
        <ele>2352.48</ele>
        <time>2011-06-26T10:48:08Z</time>
      </trkpt>
      <trkpt lat="45.46432" lon="6.88978">
        <ele>2350.56</ele>
        <time>2011-06-26T10:48:13Z</time>
      </trkpt>
      <trkpt lat="45.4644" lon="6.88995">
        <ele>2345.75</ele>
        <time>2011-06-26T10:48:19Z</time>
      </trkpt>
      <trkpt lat="45.46442" lon="6.89005">
        <ele>2342.87</ele>
        <time>2011-06-26T10:48:23Z</time>
      </trkpt>
      <trkpt lat="45.46444" lon="6.89017">
        <ele>2340.47</ele>
        <time>2011-06-26T10:48:28Z</time>
      </trkpt>
      <trkpt lat="45.46447" lon="6.89028">
        <ele>2337.58</ele>
        <time>2011-06-26T10:48:33Z</time>
      </trkpt>
      <trkpt lat="45.46449" lon="6.89042">
        <ele>2334.22</ele>
        <time>2011-06-26T10:48:38Z</time>
      </trkpt>
      <trkpt lat="45.4645" lon="6.89045">
        <ele>2333.26</ele>
        <time>2011-06-26T10:48:39Z</time>
      </trkpt>
      <trkpt lat="45.46451" lon="6.89054">
        <ele>2332.3</ele>
        <time>2011-06-26T10:48:43Z</time>
      </trkpt>
      <trkpt lat="45.46448" lon="6.89053">
        <ele>2331.81</ele>
        <time>2011-06-26T10:48:45Z</time>
      </trkpt>
      <trkpt lat="45.46443" lon="6.89049">
        <ele>2330.37</ele>
        <time>2011-06-26T10:48:47Z</time>
      </trkpt>
      <trkpt lat="45.46432" lon="6.89039">
        <ele>2328.45</ele>
        <time>2011-06-26T10:48:52Z</time>
      </trkpt>
      <trkpt lat="45.46414" lon="6.89031">
        <ele>2325.57</ele>
        <time>2011-06-26T10:49:00Z</time>
      </trkpt>
      <trkpt lat="45.46409" lon="6.8903">
        <ele>2326.05</ele>
        <time>2011-06-26T10:49:02Z</time>
      </trkpt>
      <trkpt lat="45.464" lon="6.89037">
        <ele>2321.24</ele>
        <time>2011-06-26T10:49:08Z</time>
      </trkpt>
      <trkpt lat="45.464" lon="6.8904">
        <ele>2319.8</ele>
        <time>2011-06-26T10:49:09Z</time>
      </trkpt>
      <trkpt lat="45.4641" lon="6.89049">
        <ele>2317.4</ele>
        <time>2011-06-26T10:49:14Z</time>
      </trkpt>
      <trkpt lat="45.46421" lon="6.89061">
        <ele>2315.47</ele>
        <time>2011-06-26T10:49:19Z</time>
      </trkpt>
      <trkpt lat="45.46422" lon="6.89064">
        <ele>2314.51</ele>
        <time>2011-06-26T10:49:21Z</time>
      </trkpt>
      <trkpt lat="45.46415" lon="6.89064">
        <ele>2312.59</ele>
        <time>2011-06-26T10:49:24Z</time>
      </trkpt>
      <trkpt lat="45.46403" lon="6.89062">
        <ele>2310.19</ele>
        <time>2011-06-26T10:49:29Z</time>
      </trkpt>
      <trkpt lat="45.46392" lon="6.89069">
        <ele>2307.78</ele>
        <time>2011-06-26T10:49:35Z</time>
      </trkpt>
      <trkpt lat="45.464" lon="6.89073">
        <ele>2306.34</ele>
        <time>2011-06-26T10:49:40Z</time>
      </trkpt>
      <trkpt lat="45.4641" lon="6.8909">
        <ele>2302.98</ele>
        <time>2011-06-26T10:49:49Z</time>
      </trkpt>
      <trkpt lat="45.4641" lon="6.89092">
        <ele>2302.49</ele>
        <time>2011-06-26T10:49:50Z</time>
      </trkpt>
      <trkpt lat="45.4641" lon="6.89095">
        <ele>2302.01</ele>
        <time>2011-06-26T10:49:52Z</time>
      </trkpt>
      <trkpt lat="45.4641" lon="6.89105">
        <ele>2299.61</ele>
        <time>2011-06-26T10:49:56Z</time>
      </trkpt>
      <trkpt lat="45.46407" lon="6.89118">
        <ele>2294.8</ele>
        <time>2011-06-26T10:50:01Z</time>
      </trkpt>
      <trkpt lat="45.46406" lon="6.8912">
        <ele>2293.36</ele>
        <time>2011-06-26T10:50:02Z</time>
      </trkpt>
      <trkpt lat="45.46402" lon="6.8913">
        <ele>2291.92</ele>
        <time>2011-06-26T10:50:07Z</time>
      </trkpt>
      <trkpt lat="45.46399" lon="6.89137">
        <ele>2290.48</ele>
        <time>2011-06-26T10:50:10Z</time>
      </trkpt>
      <trkpt lat="45.46396" lon="6.89148">
        <ele>2286.63</ele>
        <time>2011-06-26T10:50:15Z</time>
      </trkpt>
      <trkpt lat="45.46393" lon="6.89159">
        <ele>2282.79</ele>
        <time>2011-06-26T10:50:20Z</time>
      </trkpt>
      <trkpt lat="45.4639" lon="6.89167">
        <ele>2282.31</ele>
        <time>2011-06-26T10:50:23Z</time>
      </trkpt>
      <trkpt lat="45.46388" lon="6.89177">
        <ele>2278.94</ele>
        <time>2011-06-26T10:50:27Z</time>
      </trkpt>
      <trkpt lat="45.46385" lon="6.89183">
        <ele>2276.54</ele>
        <time>2011-06-26T10:50:30Z</time>
      </trkpt>
      <trkpt lat="45.46383" lon="6.8919">
        <ele>2274.14</ele>
        <time>2011-06-26T10:50:33Z</time>
      </trkpt>
      <trkpt lat="45.46377" lon="6.89204">
        <ele>2270.77</ele>
        <time>2011-06-26T10:50:40Z</time>
      </trkpt>
      <trkpt lat="45.46375" lon="6.8921">
        <ele>2269.33</ele>
        <time>2011-06-26T10:50:43Z</time>
      </trkpt>
      <trkpt lat="45.46372" lon="6.89216">
        <ele>2266.45</ele>
        <time>2011-06-26T10:50:46Z</time>
      </trkpt>
      <trkpt lat="45.46371" lon="6.89225">
        <ele>2264.52</ele>
        <time>2011-06-26T10:50:50Z</time>
      </trkpt>
      <trkpt lat="45.4637" lon="6.89231">
        <ele>2263.08</ele>
        <time>2011-06-26T10:50:53Z</time>
      </trkpt>
      <trkpt lat="45.46369" lon="6.89237">
        <ele>2261.16</ele>
        <time>2011-06-26T10:50:56Z</time>
      </trkpt>
      <trkpt lat="45.46369" lon="6.89253">
        <ele>2257.31</ele>
        <time>2011-06-26T10:51:02Z</time>
      </trkpt>
      <trkpt lat="45.46368" lon="6.89264">
        <ele>2255.87</ele>
        <time>2011-06-26T10:51:06Z</time>
      </trkpt>
      <trkpt lat="45.46366" lon="6.89269">
        <ele>2255.39</ele>
        <time>2011-06-26T10:51:08Z</time>
      </trkpt>
      <trkpt lat="45.46362" lon="6.89285">
        <ele>2251.06</ele>
        <time>2011-06-26T10:51:15Z</time>
      </trkpt>
      <trkpt lat="45.4636" lon="6.89301">
        <ele>2248.18</ele>
        <time>2011-06-26T10:51:21Z</time>
      </trkpt>
      <trkpt lat="45.46354" lon="6.89318">
        <ele>2244.33</ele>
        <time>2011-06-26T10:51:28Z</time>
      </trkpt>
      <trkpt lat="45.46349" lon="6.89329">
        <ele>2241.45</ele>
        <time>2011-06-26T10:51:33Z</time>
      </trkpt>
      <trkpt lat="45.46348" lon="6.89331">
        <ele>2241.93</ele>
        <time>2011-06-26T10:51:34Z</time>
      </trkpt>
      <trkpt lat="45.46345" lon="6.8934">
        <ele>2238.09</ele>
        <time>2011-06-26T10:51:38Z</time>
      </trkpt>
      <trkpt lat="45.46341" lon="6.89347">
        <ele>2236.64</ele>
        <time>2011-06-26T10:51:41Z</time>
      </trkpt>
      <trkpt lat="45.46337" lon="6.89355">
        <ele>2234.72</ele>
        <time>2011-06-26T10:51:44Z</time>
      </trkpt>
      <trkpt lat="45.46332" lon="6.89366">
        <ele>2231.84</ele>
        <time>2011-06-26T10:51:48Z</time>
      </trkpt>
      <trkpt lat="45.46326" lon="6.89379">
        <ele>2227.99</ele>
        <time>2011-06-26T10:51:53Z</time>
      </trkpt>
      <trkpt lat="45.46326" lon="6.89382">
        <ele>2228.95</ele>
        <time>2011-06-26T10:51:54Z</time>
      </trkpt>
      <trkpt lat="45.46324" lon="6.89402">
        <ele>2227.99</ele>
        <time>2011-06-26T10:52:00Z</time>
      </trkpt>
      <trkpt lat="45.46324" lon="6.89411">
        <ele>2225.11</ele>
        <time>2011-06-26T10:52:04Z</time>
      </trkpt>
      <trkpt lat="45.4632" lon="6.89419">
        <ele>2222.71</ele>
        <time>2011-06-26T10:52:08Z</time>
      </trkpt>
      <trkpt lat="45.46317" lon="6.89422">
        <ele>2221.74</ele>
        <time>2011-06-26T10:52:10Z</time>
      </trkpt>
      <trkpt lat="45.46312" lon="6.89429">
        <ele>2220.3</ele>
        <time>2011-06-26T10:52:14Z</time>
      </trkpt>
      <trkpt lat="45.46307" lon="6.89433">
        <ele>2217.9</ele>
        <time>2011-06-26T10:52:17Z</time>
      </trkpt>
      <trkpt lat="45.46298" lon="6.89437">
        <ele>2216.46</ele>
        <time>2011-06-26T10:52:21Z</time>
      </trkpt>
      <trkpt lat="45.46294" lon="6.89447">
        <ele>2214.05</ele>
        <time>2011-06-26T10:52:27Z</time>
      </trkpt>
      <trkpt lat="45.46291" lon="6.89453">
        <ele>2211.65</ele>
        <time>2011-06-26T10:52:30Z</time>
      </trkpt>
      <trkpt lat="45.46287" lon="6.89463">
        <ele>2209.73</ele>
        <time>2011-06-26T10:52:34Z</time>
      </trkpt>
      <trkpt lat="45.46282" lon="6.8947">
        <ele>2207.81</ele>
        <time>2011-06-26T10:52:37Z</time>
      </trkpt>
      <trkpt lat="45.46277" lon="6.89473">
        <ele>2206.36</ele>
        <time>2011-06-26T10:52:39Z</time>
      </trkpt>
      <trkpt lat="45.46268" lon="6.89479">
        <ele>2205.4</ele>
        <time>2011-06-26T10:52:42Z</time>
      </trkpt>
      <trkpt lat="45.46254" lon="6.89491">
        <ele>2203.96</ele>
        <time>2011-06-26T10:52:47Z</time>
      </trkpt>
      <trkpt lat="45.46248" lon="6.89495">
        <ele>2203.48</ele>
        <time>2011-06-26T10:52:49Z</time>
      </trkpt>
      <trkpt lat="45.46237" lon="6.89505">
        <ele>2200.11</ele>
        <time>2011-06-26T10:52:53Z</time>
      </trkpt>
      <trkpt lat="45.46233" lon="6.89509">
        <ele>2199.63</ele>
        <time>2011-06-26T10:52:55Z</time>
      </trkpt>
      <trkpt lat="45.46227" lon="6.89516">
        <ele>2196.27</ele>
        <time>2011-06-26T10:52:58Z</time>
      </trkpt>
      <trkpt lat="45.46225" lon="6.89517">
        <ele>2196.27</ele>
        <time>2011-06-26T10:52:59Z</time>
      </trkpt>
      <trkpt lat="45.46225" lon="6.89518">
        <ele>2197.23</ele>
        <time>2011-06-26T10:53:04Z</time>
      </trkpt>
      <trkpt lat="45.46228" lon="6.89525">
        <ele>2195.79</ele>
        <time>2011-06-26T10:53:08Z</time>
      </trkpt>
      <trkpt lat="45.4623" lon="6.8953">
        <ele>2194.35</ele>
        <time>2011-06-26T10:53:10Z</time>
      </trkpt>
      <trkpt lat="45.46238" lon="6.89535">
        <ele>2193.39</ele>
        <time>2011-06-26T10:53:15Z</time>
      </trkpt>
      <trkpt lat="45.46258" lon="6.89543">
        <ele>2190.02</ele>
        <time>2011-06-26T10:53:23Z</time>
      </trkpt>
      <trkpt lat="45.4626" lon="6.8957">
        <ele>2188.58</ele>
        <time>2011-06-26T10:53:30Z</time>
      </trkpt>
      <trkpt lat="45.46269" lon="6.89598">
        <ele>2186.18</ele>
        <time>2011-06-26T10:53:39Z</time>
      </trkpt>
      <trkpt lat="45.46276" lon="6.89604">
        <ele>2183.77</ele>
        <time>2011-06-26T10:53:43Z</time>
      </trkpt>
      <trkpt lat="45.46281" lon="6.89609">
        <ele>2181.85</ele>
        <time>2011-06-26T10:53:47Z</time>
      </trkpt>
      <trkpt lat="45.46291" lon="6.89613">
        <ele>2178.97</ele>
        <time>2011-06-26T10:53:54Z</time>
      </trkpt>
      <trkpt lat="45.46302" lon="6.89621">
        <ele>2177.52</ele>
        <time>2011-06-26T10:53:59Z</time>
      </trkpt>
      <trkpt lat="45.46315" lon="6.89633">
        <ele>2174.64</ele>
        <time>2011-06-26T10:54:05Z</time>
      </trkpt>
      <trkpt lat="45.4632" lon="6.89637">
        <ele>2176.08</ele>
        <time>2011-06-26T10:54:10Z</time>
      </trkpt>
      <trkpt lat="45.4632" lon="6.89637">
        <ele>2176.56</ele>
        <time>2011-06-26T10:54:11Z</time>
      </trkpt>
      <trkpt lat="45.46322" lon="6.89636">
        <ele>2173.68</ele>
        <time>2011-06-26T10:54:13Z</time>
      </trkpt>
      <trkpt lat="45.46325" lon="6.89637">
        <ele>2175.6</ele>
        <time>2011-06-26T10:54:15Z</time>
      </trkpt>
      <trkpt lat="45.46358" lon="6.89658">
        <ele>2175.12</ele>
        <time>2011-06-26T10:54:27Z</time>
      </trkpt>
      <trkpt lat="45.46363" lon="6.89661">
        <ele>2174.16</ele>
        <time>2011-06-26T10:54:29Z</time>
      </trkpt>
      <trkpt lat="45.4638" lon="6.89678">
        <ele>2171.76</ele>
        <time>2011-06-26T10:54:36Z</time>
      </trkpt>
      <trkpt lat="45.46403" lon="6.89697">
        <ele>2168.87</ele>
        <time>2011-06-26T10:54:46Z</time>
      </trkpt>
      <trkpt lat="45.4642" lon="6.8971">
        <ele>2165.51</ele>
        <time>2011-06-26T10:54:56Z</time>
      </trkpt>
      <trkpt lat="45.46432" lon="6.89718">
        <ele>2165.51</ele>
        <time>2011-06-26T10:55:02Z</time>
      </trkpt>
      <trkpt lat="45.46447" lon="6.89728">
        <ele>2161.66</ele>
        <time>2011-06-26T10:55:09Z</time>
      </trkpt>
      <trkpt lat="45.4645" lon="6.8973">
        <ele>2161.18</ele>
        <time>2011-06-26T10:55:11Z</time>
      </trkpt>
      <trkpt lat="45.46454" lon="6.89732">
        <ele>2160.7</ele>
        <time>2011-06-26T10:55:13Z</time>
      </trkpt>
      <trkpt lat="45.46462" lon="6.89737">
        <ele>2158.78</ele>
        <time>2011-06-26T10:55:17Z</time>
      </trkpt>
      <trkpt lat="45.46474" lon="6.89746">
        <ele>2155.89</ele>
        <time>2011-06-26T10:55:24Z</time>
      </trkpt>
      <trkpt lat="45.46487" lon="6.89756">
        <ele>2152.05</ele>
        <time>2011-06-26T10:55:32Z</time>
      </trkpt>
      <trkpt lat="45.46496" lon="6.8976">
        <ele>2153.01</ele>
        <time>2011-06-26T10:55:36Z</time>
      </trkpt>
      <trkpt lat="45.46508" lon="6.89771">
        <ele>2149.65</ele>
        <time>2011-06-26T10:55:42Z</time>
      </trkpt>
      <trkpt lat="45.46509" lon="6.89775">
        <ele>2147.24</ele>
        <time>2011-06-26T10:55:45Z</time>
      </trkpt>
      <trkpt lat="45.46508" lon="6.89777">
        <ele>2147.72</ele>
        <time>2011-06-26T10:55:46Z</time>
      </trkpt>
      <trkpt lat="45.46502" lon="6.89783">
        <ele>2145.32</ele>
        <time>2011-06-26T10:55:51Z</time>
      </trkpt>
      <trkpt lat="45.46509" lon="6.89788">
        <ele>2143.4</ele>
        <time>2011-06-26T10:55:57Z</time>
      </trkpt>
      <trkpt lat="45.46516" lon="6.89793">
        <ele>2141.95</ele>
        <time>2011-06-26T10:56:00Z</time>
      </trkpt>
      <trkpt lat="45.4652" lon="6.89796">
        <ele>2140.51</ele>
        <time>2011-06-26T10:56:02Z</time>
      </trkpt>
      <trkpt lat="45.4654" lon="6.89807">
        <ele>2138.59</ele>
        <time>2011-06-26T10:56:11Z</time>
      </trkpt>
      <trkpt lat="45.46571" lon="6.89825">
        <ele>2134.74</ele>
        <time>2011-06-26T10:56:22Z</time>
      </trkpt>
      <trkpt lat="45.46573" lon="6.89825">
        <ele>2135.23</ele>
        <time>2011-06-26T10:56:23Z</time>
      </trkpt>
      <trkpt lat="45.46581" lon="6.89826">
        <ele>2132.34</ele>
        <time>2011-06-26T10:56:27Z</time>
      </trkpt>
      <trkpt lat="45.46588" lon="6.89832">
        <ele>2129.46</ele>
        <time>2011-06-26T10:56:31Z</time>
      </trkpt>
      <trkpt lat="45.46597" lon="6.89845">
        <ele>2129.46</ele>
        <time>2011-06-26T10:56:36Z</time>
      </trkpt>
      <trkpt lat="45.46602" lon="6.89851">
        <ele>2127.05</ele>
        <time>2011-06-26T10:56:39Z</time>
      </trkpt>
      <trkpt lat="45.46603" lon="6.89857">
        <ele>2124.65</ele>
        <time>2011-06-26T10:56:42Z</time>
      </trkpt>
      <trkpt lat="45.46604" lon="6.89862">
        <ele>2123.69</ele>
        <time>2011-06-26T10:56:44Z</time>
      </trkpt>
      <trkpt lat="45.46599" lon="6.89873">
        <ele>2119.84</ele>
        <time>2011-06-26T10:56:48Z</time>
      </trkpt>
      <trkpt lat="45.466" lon="6.89882">
        <ele>2116</ele>
        <time>2011-06-26T10:56:54Z</time>
      </trkpt>
      <trkpt lat="45.46609" lon="6.89891">
        <ele>2113.6</ele>
        <time>2011-06-26T10:56:58Z</time>
      </trkpt>
      <trkpt lat="45.46611" lon="6.899">
        <ele>2114.56</ele>
        <time>2011-06-26T10:57:02Z</time>
      </trkpt>
      <trkpt lat="45.46609" lon="6.89908">
        <ele>2111.19</ele>
        <time>2011-06-26T10:57:05Z</time>
      </trkpt>
      <trkpt lat="45.46619" lon="6.89944">
        <ele>2109.27</ele>
        <time>2011-06-26T10:57:12Z</time>
      </trkpt>
      <trkpt lat="45.46621" lon="6.8996">
        <ele>2104.46</ele>
        <time>2011-06-26T10:57:18Z</time>
      </trkpt>
      <trkpt lat="45.46619" lon="6.89967">
        <ele>2103.02</ele>
        <time>2011-06-26T10:57:22Z</time>
      </trkpt>
      <trkpt lat="45.46619" lon="6.89971">
        <ele>2101.1</ele>
        <time>2011-06-26T10:57:24Z</time>
      </trkpt>
      <trkpt lat="45.4662" lon="6.89975">
        <ele>2102.06</ele>
        <time>2011-06-26T10:57:27Z</time>
      </trkpt>
      <trkpt lat="45.46612" lon="6.89985">
        <ele>2100.14</ele>
        <time>2011-06-26T10:57:35Z</time>
      </trkpt>
      <trkpt lat="45.46607" lon="6.89983">
        <ele>2100.62</ele>
        <time>2011-06-26T10:57:37Z</time>
      </trkpt>
      <trkpt lat="45.46603" lon="6.89978">
        <ele>2099.66</ele>
        <time>2011-06-26T10:57:39Z</time>
      </trkpt>
      <trkpt lat="45.4659" lon="6.89971">
        <ele>2100.14</ele>
        <time>2011-06-26T10:57:45Z</time>
      </trkpt>
      <trkpt lat="45.46573" lon="6.89938">
        <ele>2101.58</ele>
        <time>2011-06-26T10:57:58Z</time>
      </trkpt>
      <trkpt lat="45.46552" lon="6.89908">
        <ele>2102.54</ele>
        <time>2011-06-26T10:58:09Z</time>
      </trkpt>
      <trkpt lat="45.46525" lon="6.8989">
        <ele>2101.1</ele>
        <time>2011-06-26T10:58:20Z</time>
      </trkpt>
      <trkpt lat="45.46486" lon="6.89876">
        <ele>2101.58</ele>
        <time>2011-06-26T10:58:35Z</time>
      </trkpt>
      <trkpt lat="45.46467" lon="6.8988">
        <ele>2101.1</ele>
        <time>2011-06-26T10:58:42Z</time>
      </trkpt>
      <trkpt lat="45.46461" lon="6.89886">
        <ele>2099.18</ele>
        <time>2011-06-26T10:58:45Z</time>
      </trkpt>
      <trkpt lat="45.46459" lon="6.89889">
        <ele>2099.18</ele>
        <time>2011-06-26T10:58:46Z</time>
      </trkpt>
      <trkpt lat="45.46455" lon="6.89896">
        <ele>2097.73</ele>
        <time>2011-06-26T10:58:48Z</time>
      </trkpt>
      <trkpt lat="45.46451" lon="6.89904">
        <ele>2098.21</ele>
        <time>2011-06-26T10:58:50Z</time>
      </trkpt>
      <trkpt lat="45.46421" lon="6.89933">
        <ele>2097.73</ele>
        <time>2011-06-26T10:59:02Z</time>
      </trkpt>
      <trkpt lat="45.46389" lon="6.89948">
        <ele>2098.7</ele>
        <time>2011-06-26T10:59:13Z</time>
      </trkpt>
      <trkpt lat="45.46366" lon="6.89972">
        <ele>2098.7</ele>
        <time>2011-06-26T10:59:23Z</time>
      </trkpt>
      <trkpt lat="45.46342" lon="6.90003">
        <ele>2095.81</ele>
        <time>2011-06-26T10:59:36Z</time>
      </trkpt>
      <trkpt lat="45.46335" lon="6.90013">
        <ele>2098.7</ele>
        <time>2011-06-26T10:59:40Z</time>
      </trkpt>
      <trkpt lat="45.46329" lon="6.90025">
        <ele>2097.73</ele>
        <time>2011-06-26T10:59:44Z</time>
      </trkpt>
      <trkpt lat="45.46313" lon="6.90061">
        <ele>2096.77</ele>
        <time>2011-06-26T10:59:56Z</time>
      </trkpt>
      <trkpt lat="45.46298" lon="6.90083">
        <ele>2101.1</ele>
        <time>2011-06-26T11:00:05Z</time>
      </trkpt>
      <trkpt lat="45.46295" lon="6.9009">
        <ele>2098.21</ele>
        <time>2011-06-26T11:00:08Z</time>
      </trkpt>
      <trkpt lat="45.46295" lon="6.901">
        <ele>2097.73</ele>
        <time>2011-06-26T11:00:12Z</time>
      </trkpt>
      <trkpt lat="45.46296" lon="6.90106">
        <ele>2101.58</ele>
        <time>2011-06-26T11:00:14Z</time>
      </trkpt>
      <trkpt lat="45.46296" lon="6.90109">
        <ele>2099.18</ele>
        <time>2011-06-26T11:00:15Z</time>
      </trkpt>
      <trkpt lat="45.46295" lon="6.90116">
        <ele>2095.81</ele>
        <time>2011-06-26T11:00:17Z</time>
      </trkpt>
      <trkpt lat="45.46292" lon="6.90124">
        <ele>2099.18</ele>
        <time>2011-06-26T11:00:19Z</time>
      </trkpt>
      <trkpt lat="45.46291" lon="6.90136">
        <ele>2096.29</ele>
        <time>2011-06-26T11:00:22Z</time>
      </trkpt>
      <trkpt lat="45.46292" lon="6.90147">
        <ele>2100.14</ele>
        <time>2011-06-26T11:00:25Z</time>
      </trkpt>
      <trkpt lat="45.46297" lon="6.90164">
        <ele>2096.77</ele>
        <time>2011-06-26T11:00:30Z</time>
      </trkpt>
      <trkpt lat="45.46307" lon="6.9018">
        <ele>2100.14</ele>
        <time>2011-06-26T11:00:36Z</time>
      </trkpt>
      <trkpt lat="45.46317" lon="6.90194">
        <ele>2096.77</ele>
        <time>2011-06-26T11:00:41Z</time>
      </trkpt>
      <trkpt lat="45.46322" lon="6.90202">
        <ele>2098.7</ele>
        <time>2011-06-26T11:00:44Z</time>
      </trkpt>
      <trkpt lat="45.46328" lon="6.90221">
        <ele>2097.73</ele>
        <time>2011-06-26T11:00:49Z</time>
      </trkpt>
      <trkpt lat="45.46329" lon="6.90231">
        <ele>2094.85</ele>
        <time>2011-06-26T11:00:52Z</time>
      </trkpt>
      <trkpt lat="45.4633" lon="6.90234">
        <ele>2098.7</ele>
        <time>2011-06-26T11:00:53Z</time>
      </trkpt>
      <trkpt lat="45.46333" lon="6.90244">
        <ele>2095.81</ele>
        <time>2011-06-26T11:00:57Z</time>
      </trkpt>
      <trkpt lat="45.46336" lon="6.90252">
        <ele>2099.66</ele>
        <time>2011-06-26T11:01:00Z</time>
      </trkpt>
      <trkpt lat="45.46337" lon="6.90254">
        <ele>2099.18</ele>
        <time>2011-06-26T11:01:01Z</time>
      </trkpt>
      <trkpt lat="45.46339" lon="6.9026">
        <ele>2097.73</ele>
        <time>2011-06-26T11:01:03Z</time>
      </trkpt>
      <trkpt lat="45.46341" lon="6.90266">
        <ele>2094.37</ele>
        <time>2011-06-26T11:01:05Z</time>
      </trkpt>
      <trkpt lat="45.46342" lon="6.90269">
        <ele>2096.29</ele>
        <time>2011-06-26T11:01:06Z</time>
      </trkpt>
      <trkpt lat="45.46343" lon="6.90278">
        <ele>2100.14</ele>
        <time>2011-06-26T11:01:09Z</time>
      </trkpt>
      <trkpt lat="45.46351" lon="6.90314">
        <ele>2099.66</ele>
        <time>2011-06-26T11:01:21Z</time>
      </trkpt>
      <trkpt lat="45.46363" lon="6.90356">
        <ele>2096.77</ele>
        <time>2011-06-26T11:01:34Z</time>
      </trkpt>
      <trkpt lat="45.46363" lon="6.90359">
        <ele>2098.21</ele>
        <time>2011-06-26T11:01:35Z</time>
      </trkpt>
      <trkpt lat="45.46362" lon="6.9039">
        <ele>2102.06</ele>
        <time>2011-06-26T11:01:45Z</time>
      </trkpt>
      <trkpt lat="45.46361" lon="6.90395">
        <ele>2102.54</ele>
        <time>2011-06-26T11:01:47Z</time>
      </trkpt>
      <trkpt lat="45.46361" lon="6.904">
        <ele>2102.06</ele>
        <time>2011-06-26T11:01:49Z</time>
      </trkpt>
      <trkpt lat="45.46364" lon="6.90425">
        <ele>2104.46</ele>
        <time>2011-06-26T11:01:58Z</time>
      </trkpt>
      <trkpt lat="45.46367" lon="6.90442">
        <ele>2102.06</ele>
        <time>2011-06-26T11:02:04Z</time>
      </trkpt>
      <trkpt lat="45.46369" lon="6.90446">
        <ele>2103.98</ele>
        <time>2011-06-26T11:02:06Z</time>
      </trkpt>
      <trkpt lat="45.46371" lon="6.90465">
        <ele>2105.91</ele>
        <time>2011-06-26T11:02:13Z</time>
      </trkpt>
      <trkpt lat="45.46374" lon="6.90478">
        <ele>2104.46</ele>
        <time>2011-06-26T11:02:18Z</time>
      </trkpt>
      <trkpt lat="45.46379" lon="6.90496">
        <ele>2108.31</ele>
        <time>2011-06-26T11:02:24Z</time>
      </trkpt>
      <trkpt lat="45.4638" lon="6.90498">
        <ele>2104.46</ele>
        <time>2011-06-26T11:02:25Z</time>
      </trkpt>
      <trkpt lat="45.4639" lon="6.9051">
        <ele>2103.98</ele>
        <time>2011-06-26T11:02:31Z</time>
      </trkpt>
      <trkpt lat="45.46402" lon="6.90519">
        <ele>2099.66</ele>
        <time>2011-06-26T11:02:37Z</time>
      </trkpt>
      <trkpt lat="45.46404" lon="6.90521">
        <ele>2101.58</ele>
        <time>2011-06-26T11:02:38Z</time>
      </trkpt>
      <trkpt lat="45.46411" lon="6.90525">
        <ele>2104.94</ele>
        <time>2011-06-26T11:02:41Z</time>
      </trkpt>
      <trkpt lat="45.46412" lon="6.90527">
        <ele>2101.58</ele>
        <time>2011-06-26T11:02:42Z</time>
      </trkpt>
      <trkpt lat="45.4643" lon="6.90553">
        <ele>2101.58</ele>
        <time>2011-06-26T11:02:54Z</time>
      </trkpt>
      <trkpt lat="45.46431" lon="6.9056">
        <ele>2098.21</ele>
        <time>2011-06-26T11:02:56Z</time>
      </trkpt>
      <trkpt lat="45.46432" lon="6.90576">
        <ele>2094.85</ele>
        <time>2011-06-26T11:03:01Z</time>
      </trkpt>
      <trkpt lat="45.46431" lon="6.90579">
        <ele>2101.58</ele>
        <time>2011-06-26T11:03:02Z</time>
      </trkpt>
      <trkpt lat="45.46431" lon="6.90582">
        <ele>2100.14</ele>
        <time>2011-06-26T11:03:03Z</time>
      </trkpt>
      <trkpt lat="45.4643" lon="6.90587">
        <ele>2099.18</ele>
        <time>2011-06-26T11:03:05Z</time>
      </trkpt>
      <trkpt lat="45.46427" lon="6.90597">
        <ele>2095.81</ele>
        <time>2011-06-26T11:03:09Z</time>
      </trkpt>
      <trkpt lat="45.46426" lon="6.90599">
        <ele>2097.73</ele>
        <time>2011-06-26T11:03:10Z</time>
      </trkpt>
      <trkpt lat="45.46422" lon="6.90613">
        <ele>2100.62</ele>
        <time>2011-06-26T11:03:14Z</time>
      </trkpt>
      <trkpt lat="45.46421" lon="6.90617">
        <ele>2098.21</ele>
        <time>2011-06-26T11:03:15Z</time>
      </trkpt>
      <trkpt lat="45.46416" lon="6.90628">
        <ele>2097.73</ele>
        <time>2011-06-26T11:03:19Z</time>
      </trkpt>
      <trkpt lat="45.46415" lon="6.9063">
        <ele>2102.54</ele>
        <time>2011-06-26T11:03:20Z</time>
      </trkpt>
      <trkpt lat="45.46404" lon="6.9066">
        <ele>2102.06</ele>
        <time>2011-06-26T11:03:31Z</time>
      </trkpt>
      <trkpt lat="45.46398" lon="6.90697">
        <ele>2101.58</ele>
        <time>2011-06-26T11:03:44Z</time>
      </trkpt>
      <trkpt lat="45.46396" lon="6.90707">
        <ele>2098.21</ele>
        <time>2011-06-26T11:03:47Z</time>
      </trkpt>
      <trkpt lat="45.46396" lon="6.9071">
        <ele>2104.94</ele>
        <time>2011-06-26T11:03:48Z</time>
      </trkpt>
      <trkpt lat="45.46396" lon="6.90713">
        <ele>2097.25</ele>
        <time>2011-06-26T11:03:49Z</time>
      </trkpt>
      <trkpt lat="45.46395" lon="6.90716">
        <ele>2101.1</ele>
        <time>2011-06-26T11:03:50Z</time>
      </trkpt>
      <trkpt lat="45.46399" lon="6.90753">
        <ele>2097.73</ele>
        <time>2011-06-26T11:04:01Z</time>
      </trkpt>
      <trkpt lat="45.46411" lon="6.90785">
        <ele>2099.18</ele>
        <time>2011-06-26T11:04:12Z</time>
      </trkpt>
      <trkpt lat="45.4642" lon="6.90816">
        <ele>2096.29</ele>
        <time>2011-06-26T11:04:22Z</time>
      </trkpt>
      <trkpt lat="45.46421" lon="6.90819">
        <ele>2099.66</ele>
        <time>2011-06-26T11:04:23Z</time>
      </trkpt>
      <trkpt lat="45.46433" lon="6.90838">
        <ele>2096.29</ele>
        <time>2011-06-26T11:04:30Z</time>
      </trkpt>
      <trkpt lat="45.46435" lon="6.9084">
        <ele>2096.29</ele>
        <time>2011-06-26T11:04:31Z</time>
      </trkpt>
      <trkpt lat="45.46439" lon="6.90844">
        <ele>2101.58</ele>
        <time>2011-06-26T11:04:33Z</time>
      </trkpt>
      <trkpt lat="45.46441" lon="6.90847">
        <ele>2099.66</ele>
        <time>2011-06-26T11:04:34Z</time>
      </trkpt>
      <trkpt lat="45.46462" lon="6.90878">
        <ele>2100.14</ele>
        <time>2011-06-26T11:04:47Z</time>
      </trkpt>
      <trkpt lat="45.46465" lon="6.90883">
        <ele>2101.1</ele>
        <time>2011-06-26T11:04:49Z</time>
      </trkpt>
      <trkpt lat="45.46484" lon="6.9091">
        <ele>2103.02</ele>
        <time>2011-06-26T11:05:01Z</time>
      </trkpt>
      <trkpt lat="45.46486" lon="6.90911">
        <ele>2102.06</ele>
        <time>2011-06-26T11:05:02Z</time>
      </trkpt>
      <trkpt lat="45.4651" lon="6.90919">
        <ele>2104.46</ele>
        <time>2011-06-26T11:05:13Z</time>
      </trkpt>
      <trkpt lat="45.46521" lon="6.90922">
        <ele>2101.1</ele>
        <time>2011-06-26T11:05:18Z</time>
      </trkpt>
      <trkpt lat="45.46524" lon="6.90922">
        <ele>2106.87</ele>
        <time>2011-06-26T11:05:20Z</time>
      </trkpt>
      <trkpt lat="45.46526" lon="6.90923">
        <ele>2103.02</ele>
        <time>2011-06-26T11:05:21Z</time>
      </trkpt>
      <trkpt lat="45.46531" lon="6.90924">
        <ele>2107.83</ele>
        <time>2011-06-26T11:05:24Z</time>
      </trkpt>
      <trkpt lat="45.46534" lon="6.90925">
        <ele>2105.91</ele>
        <time>2011-06-26T11:05:26Z</time>
      </trkpt>
      <trkpt lat="45.46537" lon="6.90928">
        <ele>2104.46</ele>
        <time>2011-06-26T11:05:29Z</time>
      </trkpt>
      <trkpt lat="45.4654" lon="6.9093">
        <ele>2109.75</ele>
        <time>2011-06-26T11:05:31Z</time>
      </trkpt>
      <trkpt lat="45.46542" lon="6.90931">
        <ele>2112.15</ele>
        <time>2011-06-26T11:05:33Z</time>
      </trkpt>
      <trkpt lat="45.46548" lon="6.90932">
        <ele>2110.23</ele>
        <time>2011-06-26T11:05:37Z</time>
      </trkpt>
      <trkpt lat="45.4655" lon="6.90932">
        <ele>2108.79</ele>
        <time>2011-06-26T11:05:39Z</time>
      </trkpt>
      <trkpt lat="45.46553" lon="6.90933">
        <ele>2108.31</ele>
        <time>2011-06-26T11:05:41Z</time>
      </trkpt>
      <trkpt lat="45.46557" lon="6.90938">
        <ele>2109.27</ele>
        <time>2011-06-26T11:05:46Z</time>
      </trkpt>
      <trkpt lat="45.46557" lon="6.90938">
        <ele>2105.42</ele>
        <time>2011-06-26T11:05:49Z</time>
      </trkpt>
      <trkpt lat="45.46557" lon="6.90938">
        <ele>2106.39</ele>
        <time>2011-06-26T11:05:50Z</time>
      </trkpt>
      <trkpt lat="45.46557" lon="6.90937">
        <ele>2103.98</ele>
        <time>2011-06-26T11:05:52Z</time>
      </trkpt>
      <trkpt lat="45.46559" lon="6.90932">
        <ele>2104.46</ele>
        <time>2011-06-26T11:05:56Z</time>
      </trkpt>
      <trkpt lat="45.46563" lon="6.90929">
        <ele>2107.83</ele>
        <time>2011-06-26T11:05:58Z</time>
      </trkpt>
      <trkpt lat="45.46568" lon="6.90926">
        <ele>2109.75</ele>
        <time>2011-06-26T11:06:00Z</time>
      </trkpt>
      <trkpt lat="45.4657" lon="6.90924">
        <ele>2102.54</ele>
        <time>2011-06-26T11:06:01Z</time>
      </trkpt>
      <trkpt lat="45.46572" lon="6.90922">
        <ele>2107.83</ele>
        <time>2011-06-26T11:06:02Z</time>
      </trkpt>
      <trkpt lat="45.46576" lon="6.90914">
        <ele>2104.46</ele>
        <time>2011-06-26T11:06:05Z</time>
      </trkpt>
      <trkpt lat="45.46577" lon="6.90911">
        <ele>2107.83</ele>
        <time>2011-06-26T11:06:06Z</time>
      </trkpt>
      <trkpt lat="45.46579" lon="6.90908">
        <ele>2106.39</ele>
        <time>2011-06-26T11:06:07Z</time>
      </trkpt>
      <trkpt lat="45.46598" lon="6.90877">
        <ele>2104.46</ele>
        <time>2011-06-26T11:06:18Z</time>
      </trkpt>
      <trkpt lat="45.46613" lon="6.90866">
        <ele>2099.18</ele>
        <time>2011-06-26T11:06:24Z</time>
      </trkpt>
      <trkpt lat="45.46617" lon="6.9086">
        <ele>2102.54</ele>
        <time>2011-06-26T11:06:26Z</time>
      </trkpt>
      <trkpt lat="45.46621" lon="6.90852">
        <ele>2098.7</ele>
        <time>2011-06-26T11:06:28Z</time>
      </trkpt>
      <trkpt lat="45.46626" lon="6.90835">
        <ele>2095.33</ele>
        <time>2011-06-26T11:06:32Z</time>
      </trkpt>
      <trkpt lat="45.4663" lon="6.90818">
        <ele>2098.7</ele>
        <time>2011-06-26T11:06:36Z</time>
      </trkpt>
      <trkpt lat="45.46632" lon="6.9081">
        <ele>2095.33</ele>
        <time>2011-06-26T11:06:38Z</time>
      </trkpt>
      <trkpt lat="45.46642" lon="6.90792">
        <ele>2098.7</ele>
        <time>2011-06-26T11:06:44Z</time>
      </trkpt>
      <trkpt lat="45.46651" lon="6.90783">
        <ele>2095.33</ele>
        <time>2011-06-26T11:06:48Z</time>
      </trkpt>
      <trkpt lat="45.46653" lon="6.9078">
        <ele>2095.33</ele>
        <time>2011-06-26T11:06:49Z</time>
      </trkpt>
      <trkpt lat="45.46673" lon="6.90736">
        <ele>2095.81</ele>
        <time>2011-06-26T11:07:02Z</time>
      </trkpt>
      <trkpt lat="45.46678" lon="6.90723">
        <ele>2096.29</ele>
        <time>2011-06-26T11:07:05Z</time>
      </trkpt>
      <trkpt lat="45.46683" lon="6.90717">
        <ele>2098.7</ele>
        <time>2011-06-26T11:07:07Z</time>
      </trkpt>
      <trkpt lat="45.46685" lon="6.90714">
        <ele>2094.85</ele>
        <time>2011-06-26T11:07:08Z</time>
      </trkpt>
      <trkpt lat="45.46698" lon="6.90712">
        <ele>2096.29</ele>
        <time>2011-06-26T11:07:12Z</time>
      </trkpt>
      <trkpt lat="45.46708" lon="6.90715">
        <ele>2100.62</ele>
        <time>2011-06-26T11:07:15Z</time>
      </trkpt>
      <trkpt lat="45.46718" lon="6.9072">
        <ele>2096.77</ele>
        <time>2011-06-26T11:07:18Z</time>
      </trkpt>
      <trkpt lat="45.46721" lon="6.90722">
        <ele>2100.14</ele>
        <time>2011-06-26T11:07:19Z</time>
      </trkpt>
      <trkpt lat="45.46724" lon="6.90724">
        <ele>2097.25</ele>
        <time>2011-06-26T11:07:20Z</time>
      </trkpt>
      <trkpt lat="45.4673" lon="6.90729">
        <ele>2093.89</ele>
        <time>2011-06-26T11:07:22Z</time>
      </trkpt>
      <trkpt lat="45.46734" lon="6.90731">
        <ele>2098.21</ele>
        <time>2011-06-26T11:07:23Z</time>
      </trkpt>
      <trkpt lat="45.4676" lon="6.90748">
        <ele>2099.66</ele>
        <time>2011-06-26T11:07:32Z</time>
      </trkpt>
      <trkpt lat="45.46788" lon="6.90762">
        <ele>2100.62</ele>
        <time>2011-06-26T11:07:41Z</time>
      </trkpt>
      <trkpt lat="45.46795" lon="6.90756">
        <ele>2094.85</ele>
        <time>2011-06-26T11:07:45Z</time>
      </trkpt>
      <trkpt lat="45.46797" lon="6.90738">
        <ele>2096.77</ele>
        <time>2011-06-26T11:07:50Z</time>
      </trkpt>
      <trkpt lat="45.46796" lon="6.90731">
        <ele>2095.33</ele>
        <time>2011-06-26T11:07:54Z</time>
      </trkpt>
      <trkpt lat="45.46792" lon="6.90733">
        <ele>2095.33</ele>
        <time>2011-06-26T11:08:17Z</time>
      </trkpt>
      <trkpt lat="45.46792" lon="6.90735">
        <ele>2096.29</ele>
        <time>2011-06-26T11:08:22Z</time>
      </trkpt>
      <trkpt lat="45.46792" lon="6.90734">
        <ele>2096.29</ele>
        <time>2011-06-26T11:08:26Z</time>
      </trkpt>
      <trkpt lat="45.46793" lon="6.90731">
        <ele>2097.25</ele>
        <time>2011-06-26T11:08:29Z</time>
      </trkpt>
      <trkpt lat="45.46801" lon="6.90723">
        <ele>2093.41</ele>
        <time>2011-06-26T11:08:36Z</time>
      </trkpt>
      <trkpt lat="45.46802" lon="6.90721">
        <ele>2096.77</ele>
        <time>2011-06-26T11:08:37Z</time>
      </trkpt>
      <trkpt lat="45.46803" lon="6.90719">
        <ele>2098.21</ele>
        <time>2011-06-26T11:08:38Z</time>
      </trkpt>
      <trkpt lat="45.46807" lon="6.90713">
        <ele>2096.77</ele>
        <time>2011-06-26T11:08:42Z</time>
      </trkpt>
      <trkpt lat="45.4681" lon="6.9071">
        <ele>2094.85</ele>
        <time>2011-06-26T11:08:44Z</time>
      </trkpt>
      <trkpt lat="45.4682" lon="6.90699">
        <ele>2098.7</ele>
        <time>2011-06-26T11:08:49Z</time>
      </trkpt>
      <trkpt lat="45.46827" lon="6.90691">
        <ele>2095.33</ele>
        <time>2011-06-26T11:08:52Z</time>
      </trkpt>
      <trkpt lat="45.46829" lon="6.90689">
        <ele>2099.18</ele>
        <time>2011-06-26T11:08:53Z</time>
      </trkpt>
      <trkpt lat="45.46841" lon="6.9068">
        <ele>2098.7</ele>
        <time>2011-06-26T11:08:59Z</time>
      </trkpt>
      <trkpt lat="45.46855" lon="6.90671">
        <ele>2102.54</ele>
        <time>2011-06-26T11:09:07Z</time>
      </trkpt>
      <trkpt lat="45.46858" lon="6.90669">
        <ele>2102.06</ele>
        <time>2011-06-26T11:09:08Z</time>
      </trkpt>
      <trkpt lat="45.4687" lon="6.90659">
        <ele>2097.73</ele>
        <time>2011-06-26T11:09:15Z</time>
      </trkpt>
      <trkpt lat="45.46871" lon="6.90659">
        <ele>2099.18</ele>
        <time>2011-06-26T11:09:16Z</time>
      </trkpt>
      <trkpt lat="45.46873" lon="6.90659">
        <ele>2100.62</ele>
        <time>2011-06-26T11:09:18Z</time>
      </trkpt>
      <trkpt lat="45.46886" lon="6.90656">
        <ele>2102.06</ele>
        <time>2011-06-26T11:09:28Z</time>
      </trkpt>
      <trkpt lat="45.46893" lon="6.90657">
        <ele>2103.5</ele>
        <time>2011-06-26T11:09:33Z</time>
      </trkpt>
      <trkpt lat="45.46895" lon="6.90658">
        <ele>2099.66</ele>
        <time>2011-06-26T11:09:34Z</time>
      </trkpt>
      <trkpt lat="45.46909" lon="6.90658">
        <ele>2103.98</ele>
        <time>2011-06-26T11:09:43Z</time>
      </trkpt>
      <trkpt lat="45.46929" lon="6.90647">
        <ele>2103.02</ele>
        <time>2011-06-26T11:09:56Z</time>
      </trkpt>
      <trkpt lat="45.46934" lon="6.90641">
        <ele>2101.1</ele>
        <time>2011-06-26T11:09:59Z</time>
      </trkpt>
      <trkpt lat="45.4694" lon="6.90631">
        <ele>2103.98</ele>
        <time>2011-06-26T11:10:07Z</time>
      </trkpt>
      <trkpt lat="45.46956" lon="6.90614">
        <ele>2107.35</ele>
        <time>2011-06-26T11:10:23Z</time>
      </trkpt>
      <trkpt lat="45.46957" lon="6.90614">
        <ele>2106.87</ele>
        <time>2011-06-26T11:10:24Z</time>
      </trkpt>
      <trkpt lat="45.4696" lon="6.90613">
        <ele>2102.54</ele>
        <time>2011-06-26T11:10:26Z</time>
      </trkpt>
      <trkpt lat="45.46961" lon="6.90612">
        <ele>2103.5</ele>
        <time>2011-06-26T11:10:27Z</time>
      </trkpt>
      <trkpt lat="45.46962" lon="6.90611">
        <ele>2105.42</ele>
        <time>2011-06-26T11:10:29Z</time>
      </trkpt>
      <trkpt lat="45.46983" lon="6.90607">
        <ele>2108.79</ele>
        <time>2011-06-26T11:10:43Z</time>
      </trkpt>
      <trkpt lat="45.46993" lon="6.90602">
        <ele>2111.67</ele>
        <time>2011-06-26T11:10:55Z</time>
      </trkpt>
      <trkpt lat="45.46994" lon="6.90602">
        <ele>2112.15</ele>
        <time>2011-06-26T11:10:56Z</time>
      </trkpt>
      <trkpt lat="45.47004" lon="6.90602">
        <ele>2114.56</ele>
        <time>2011-06-26T11:11:06Z</time>
      </trkpt>
      <trkpt lat="45.47021" lon="6.90604">
        <ele>2116.96</ele>
        <time>2011-06-26T11:11:20Z</time>
      </trkpt>
      <trkpt lat="45.47044" lon="6.90601">
        <ele>2119.84</ele>
        <time>2011-06-26T11:11:35Z</time>
      </trkpt>
      <trkpt lat="45.47051" lon="6.90599">
        <ele>2119.84</ele>
        <time>2011-06-26T11:11:39Z</time>
      </trkpt>
      <trkpt lat="45.47067" lon="6.90598">
        <ele>2122.25</ele>
        <time>2011-06-26T11:11:48Z</time>
      </trkpt>
      <trkpt lat="45.47085" lon="6.90592">
        <ele>2124.17</ele>
        <time>2011-06-26T11:12:00Z</time>
      </trkpt>
      <trkpt lat="45.47099" lon="6.90584">
        <ele>2126.09</ele>
        <time>2011-06-26T11:12:13Z</time>
      </trkpt>
      <trkpt lat="45.47103" lon="6.90581">
        <ele>2126.57</ele>
        <time>2011-06-26T11:12:17Z</time>
      </trkpt>
      <trkpt lat="45.47111" lon="6.90578">
        <ele>2128.02</ele>
        <time>2011-06-26T11:12:24Z</time>
      </trkpt>
      <trkpt lat="45.47118" lon="6.90571">
        <ele>2128.98</ele>
        <time>2011-06-26T11:12:31Z</time>
      </trkpt>
      <trkpt lat="45.47126" lon="6.90561">
        <ele>2132.34</ele>
        <time>2011-06-26T11:12:40Z</time>
      </trkpt>
      <trkpt lat="45.47139" lon="6.90546">
        <ele>2132.34</ele>
        <time>2011-06-26T11:12:52Z</time>
      </trkpt>
      <trkpt lat="45.47146" lon="6.90525">
        <ele>2136.19</ele>
        <time>2011-06-26T11:13:06Z</time>
      </trkpt>
      <trkpt lat="45.47146" lon="6.90523">
        <ele>2135.71</ele>
        <time>2011-06-26T11:13:07Z</time>
      </trkpt>
      <trkpt lat="45.47151" lon="6.90508">
        <ele>2136.67</ele>
        <time>2011-06-26T11:13:17Z</time>
      </trkpt>
      <trkpt lat="45.47165" lon="6.90496">
        <ele>2139.55</ele>
        <time>2011-06-26T11:13:31Z</time>
      </trkpt>
      <trkpt lat="45.47185" lon="6.90495">
        <ele>2142.92</ele>
        <time>2011-06-26T11:13:45Z</time>
      </trkpt>
      <trkpt lat="45.47186" lon="6.90494">
        <ele>2140.03</ele>
        <time>2011-06-26T11:13:46Z</time>
      </trkpt>
      <trkpt lat="45.4719" lon="6.90493">
        <ele>2142.92</ele>
        <time>2011-06-26T11:13:50Z</time>
      </trkpt>
      <trkpt lat="45.472" lon="6.90493">
        <ele>2143.88</ele>
        <time>2011-06-26T11:13:58Z</time>
      </trkpt>
      <trkpt lat="45.47225" lon="6.90501">
        <ele>2147.24</ele>
        <time>2011-06-26T11:14:15Z</time>
      </trkpt>
      <trkpt lat="45.47241" lon="6.90512">
        <ele>2147.72</ele>
        <time>2011-06-26T11:14:27Z</time>
      </trkpt>
      <trkpt lat="45.47256" lon="6.9053">
        <ele>2150.13</ele>
        <time>2011-06-26T11:14:40Z</time>
      </trkpt>
      <trkpt lat="45.47266" lon="6.90545">
        <ele>2152.05</ele>
        <time>2011-06-26T11:14:50Z</time>
      </trkpt>
      <trkpt lat="45.4727" lon="6.9055">
        <ele>2152.05</ele>
        <time>2011-06-26T11:14:55Z</time>
      </trkpt>
      <trkpt lat="45.47282" lon="6.90564">
        <ele>2156.37</ele>
        <time>2011-06-26T11:15:09Z</time>
      </trkpt>
      <trkpt lat="45.47286" lon="6.90567">
        <ele>2156.37</ele>
        <time>2011-06-26T11:15:12Z</time>
      </trkpt>
      <trkpt lat="45.4729" lon="6.90571">
        <ele>2156.86</ele>
        <time>2011-06-26T11:15:16Z</time>
      </trkpt>
      <trkpt lat="45.47306" lon="6.90582">
        <ele>2158.78</ele>
        <time>2011-06-26T11:15:31Z</time>
      </trkpt>
      <trkpt lat="45.47324" lon="6.90592">
        <ele>2162.14</ele>
        <time>2011-06-26T11:15:47Z</time>
      </trkpt>
      <trkpt lat="45.47333" lon="6.90597">
        <ele>2162.14</ele>
        <time>2011-06-26T11:15:55Z</time>
      </trkpt>
      <trkpt lat="45.47348" lon="6.90611">
        <ele>2165.03</ele>
        <time>2011-06-26T11:16:08Z</time>
      </trkpt>
      <trkpt lat="45.47362" lon="6.90626">
        <ele>2168.39</ele>
        <time>2011-06-26T11:16:22Z</time>
      </trkpt>
      <trkpt lat="45.47386" lon="6.9065">
        <ele>2169.35</ele>
        <time>2011-06-26T11:16:46Z</time>
      </trkpt>
      <trkpt lat="45.47398" lon="6.90664">
        <ele>2172.72</ele>
        <time>2011-06-26T11:16:59Z</time>
      </trkpt>
      <trkpt lat="45.47412" lon="6.90678">
        <ele>2173.68</ele>
        <time>2011-06-26T11:17:10Z</time>
      </trkpt>
      <trkpt lat="45.47429" lon="6.90698">
        <ele>2176.08</ele>
        <time>2011-06-26T11:17:24Z</time>
      </trkpt>
      <trkpt lat="45.47434" lon="6.90704">
        <ele>2177.04</ele>
        <time>2011-06-26T11:17:28Z</time>
      </trkpt>
      <trkpt lat="45.4745" lon="6.9073">
        <ele>2178.48</ele>
        <time>2011-06-26T11:17:43Z</time>
      </trkpt>
      <trkpt lat="45.47458" lon="6.9075">
        <ele>2179.45</ele>
        <time>2011-06-26T11:17:53Z</time>
      </trkpt>
      <trkpt lat="45.47472" lon="6.90772">
        <ele>2181.37</ele>
        <time>2011-06-26T11:18:07Z</time>
      </trkpt>
      <trkpt lat="45.47479" lon="6.90781">
        <ele>2182.33</ele>
        <time>2011-06-26T11:18:14Z</time>
      </trkpt>
      <trkpt lat="45.47481" lon="6.90766">
        <ele>2184.25</ele>
        <time>2011-06-26T11:18:24Z</time>
      </trkpt>
      <trkpt lat="45.47472" lon="6.90744">
        <ele>2185.21</ele>
        <time>2011-06-26T11:18:36Z</time>
      </trkpt>
      <trkpt lat="45.47471" lon="6.90734">
        <ele>2186.18</ele>
        <time>2011-06-26T11:18:41Z</time>
      </trkpt>
      <trkpt lat="45.47473" lon="6.90709">
        <ele>2188.1</ele>
        <time>2011-06-26T11:18:55Z</time>
      </trkpt>
      <trkpt lat="45.47477" lon="6.90698">
        <ele>2189.54</ele>
        <time>2011-06-26T11:19:02Z</time>
      </trkpt>
      <trkpt lat="45.47482" lon="6.90695">
        <ele>2190.98</ele>
        <time>2011-06-26T11:19:06Z</time>
      </trkpt>
      <trkpt lat="45.47498" lon="6.90707">
        <ele>2192.42</ele>
        <time>2011-06-26T11:19:18Z</time>
      </trkpt>
      <trkpt lat="45.47501" lon="6.90711">
        <ele>2194.35</ele>
        <time>2011-06-26T11:19:21Z</time>
      </trkpt>
      <trkpt lat="45.47504" lon="6.90714">
        <ele>2194.35</ele>
        <time>2011-06-26T11:19:23Z</time>
      </trkpt>
      <trkpt lat="45.4751" lon="6.90719">
        <ele>2193.87</ele>
        <time>2011-06-26T11:19:28Z</time>
      </trkpt>
      <trkpt lat="45.47514" lon="6.90725">
        <ele>2195.31</ele>
        <time>2011-06-26T11:19:32Z</time>
      </trkpt>
      <trkpt lat="45.47533" lon="6.90738">
        <ele>2197.71</ele>
        <time>2011-06-26T11:19:48Z</time>
      </trkpt>
      <trkpt lat="45.47533" lon="6.90737">
        <ele>2195.31</ele>
        <time>2011-06-26T11:19:59Z</time>
      </trkpt>
      <trkpt lat="45.47533" lon="6.90737">
        <ele>2197.23</ele>
        <time>2011-06-26T11:20:01Z</time>
      </trkpt>
      <trkpt lat="45.47533" lon="6.90737">
        <ele>2198.19</ele>
        <time>2011-06-26T11:20:13Z</time>
      </trkpt>
      <trkpt lat="45.47535" lon="6.9075">
        <ele>2198.19</ele>
        <time>2011-06-26T11:20:20Z</time>
      </trkpt>
      <trkpt lat="45.47543" lon="6.90766">
        <ele>2201.08</ele>
        <time>2011-06-26T11:20:30Z</time>
      </trkpt>
      <trkpt lat="45.47557" lon="6.90783">
        <ele>2202.52</ele>
        <time>2011-06-26T11:20:43Z</time>
      </trkpt>
      <trkpt lat="45.47572" lon="6.90793">
        <ele>2203.96</ele>
        <time>2011-06-26T11:20:56Z</time>
      </trkpt>
      <trkpt lat="45.47579" lon="6.90802">
        <ele>2204.92</ele>
        <time>2011-06-26T11:21:02Z</time>
      </trkpt>
      <trkpt lat="45.47593" lon="6.90836">
        <ele>2207.32</ele>
        <time>2011-06-26T11:21:21Z</time>
      </trkpt>
      <trkpt lat="45.47606" lon="6.90858">
        <ele>2209.25</ele>
        <time>2011-06-26T11:21:34Z</time>
      </trkpt>
      <trkpt lat="45.47622" lon="6.90879">
        <ele>2210.69</ele>
        <time>2011-06-26T11:21:49Z</time>
      </trkpt>
      <trkpt lat="45.47637" lon="6.90893">
        <ele>2212.61</ele>
        <time>2011-06-26T11:22:03Z</time>
      </trkpt>
      <trkpt lat="45.47647" lon="6.90899">
        <ele>2213.57</ele>
        <time>2011-06-26T11:22:12Z</time>
      </trkpt>
      <trkpt lat="45.47666" lon="6.90892">
        <ele>2216.46</ele>
        <time>2011-06-26T11:22:28Z</time>
      </trkpt>
      <trkpt lat="45.47675" lon="6.90874">
        <ele>2217.9</ele>
        <time>2011-06-26T11:22:39Z</time>
      </trkpt>
      <trkpt lat="45.47683" lon="6.90861">
        <ele>2218.86</ele>
        <time>2011-06-26T11:22:48Z</time>
      </trkpt>
      <trkpt lat="45.47701" lon="6.90853">
        <ele>2223.19</ele>
        <time>2011-06-26T11:23:02Z</time>
      </trkpt>
      <trkpt lat="45.4771" lon="6.90854">
        <ele>2224.15</ele>
        <time>2011-06-26T11:23:09Z</time>
      </trkpt>
      <trkpt lat="45.47721" lon="6.90856">
        <ele>2224.63</ele>
        <time>2011-06-26T11:23:17Z</time>
      </trkpt>
      <trkpt lat="45.47729" lon="6.90859">
        <ele>2226.55</ele>
        <time>2011-06-26T11:23:23Z</time>
      </trkpt>
      <trkpt lat="45.47748" lon="6.90874">
        <ele>2227.51</ele>
        <time>2011-06-26T11:23:35Z</time>
      </trkpt>
      <trkpt lat="45.47762" lon="6.90896">
        <ele>2230.4</ele>
        <time>2011-06-26T11:23:49Z</time>
      </trkpt>
      <trkpt lat="45.47775" lon="6.90916">
        <ele>2231.36</ele>
        <time>2011-06-26T11:24:02Z</time>
      </trkpt>
      <trkpt lat="45.4779" lon="6.90946">
        <ele>2231.36</ele>
        <time>2011-06-26T11:24:14Z</time>
      </trkpt>
      <trkpt lat="45.47807" lon="6.9097">
        <ele>2232.8</ele>
        <time>2011-06-26T11:24:25Z</time>
      </trkpt>
      <trkpt lat="45.47816" lon="6.9098">
        <ele>2232.8</ele>
        <time>2011-06-26T11:24:35Z</time>
      </trkpt>
      <trkpt lat="45.47815" lon="6.9098">
        <ele>2233.28</ele>
        <time>2011-06-26T11:24:39Z</time>
      </trkpt>
      <trkpt lat="45.47827" lon="6.90987">
        <ele>2234.24</ele>
        <time>2011-06-26T11:24:49Z</time>
      </trkpt>
      <trkpt lat="45.47841" lon="6.90981">
        <ele>2234.72</ele>
        <time>2011-06-26T11:25:01Z</time>
      </trkpt>
      <trkpt lat="45.47845" lon="6.90979">
        <ele>2235.68</ele>
        <time>2011-06-26T11:25:04Z</time>
      </trkpt>
      <trkpt lat="45.4786" lon="6.90968">
        <ele>2236.16</ele>
        <time>2011-06-26T11:25:16Z</time>
      </trkpt>
      <trkpt lat="45.47875" lon="6.90967">
        <ele>2235.68</ele>
        <time>2011-06-26T11:25:27Z</time>
      </trkpt>
      <trkpt lat="45.47896" lon="6.90971">
        <ele>2237.13</ele>
        <time>2011-06-26T11:25:39Z</time>
      </trkpt>
      <trkpt lat="45.47915" lon="6.90971">
        <ele>2238.09</ele>
        <time>2011-06-26T11:25:53Z</time>
      </trkpt>
      <trkpt lat="45.47936" lon="6.90974">
        <ele>2239.05</ele>
        <time>2011-06-26T11:26:07Z</time>
      </trkpt>
      <trkpt lat="45.47959" lon="6.9098">
        <ele>2240.01</ele>
        <time>2011-06-26T11:26:21Z</time>
      </trkpt>
      <trkpt lat="45.47977" lon="6.9099">
        <ele>2241.45</ele>
        <time>2011-06-26T11:26:33Z</time>
      </trkpt>
      <trkpt lat="45.47997" lon="6.9101">
        <ele>2243.37</ele>
        <time>2011-06-26T11:26:49Z</time>
      </trkpt>
      <trkpt lat="45.48013" lon="6.91027">
        <ele>2244.33</ele>
        <time>2011-06-26T11:27:03Z</time>
      </trkpt>
      <trkpt lat="45.48018" lon="6.91032">
        <ele>2244.33</ele>
        <time>2011-06-26T11:27:07Z</time>
      </trkpt>
      <trkpt lat="45.48037" lon="6.91044">
        <ele>2246.74</ele>
        <time>2011-06-26T11:27:22Z</time>
      </trkpt>
      <trkpt lat="45.48061" lon="6.91059">
        <ele>2247.7</ele>
        <time>2011-06-26T11:27:38Z</time>
      </trkpt>
      <trkpt lat="45.48063" lon="6.91061">
        <ele>2248.66</ele>
        <time>2011-06-26T11:27:40Z</time>
      </trkpt>
      <trkpt lat="45.48083" lon="6.91072">
        <ele>2252.03</ele>
        <time>2011-06-26T11:27:55Z</time>
      </trkpt>
      <trkpt lat="45.48109" lon="6.91091">
        <ele>2253.47</ele>
        <time>2011-06-26T11:28:15Z</time>
      </trkpt>
      <trkpt lat="45.48128" lon="6.91106">
        <ele>2256.35</ele>
        <time>2011-06-26T11:28:31Z</time>
      </trkpt>
      <trkpt lat="45.48145" lon="6.91136">
        <ele>2255.87</ele>
        <time>2011-06-26T11:28:48Z</time>
      </trkpt>
      <trkpt lat="45.48145" lon="6.91157">
        <ele>2253.95</ele>
        <time>2011-06-26T11:28:58Z</time>
      </trkpt>
      <trkpt lat="45.48145" lon="6.91159">
        <ele>2254.91</ele>
        <time>2011-06-26T11:28:59Z</time>
      </trkpt>
      <trkpt lat="45.48147" lon="6.91168">
        <ele>2254.43</ele>
        <time>2011-06-26T11:29:03Z</time>
      </trkpt>
      <trkpt lat="45.48148" lon="6.9118">
        <ele>2253.47</ele>
        <time>2011-06-26T11:29:09Z</time>
      </trkpt>
      <trkpt lat="45.48149" lon="6.91183">
        <ele>2254.43</ele>
        <time>2011-06-26T11:29:11Z</time>
      </trkpt>
      <trkpt lat="45.48149" lon="6.91193">
        <ele>2255.39</ele>
        <time>2011-06-26T11:29:17Z</time>
      </trkpt>
      <trkpt lat="45.48148" lon="6.91203">
        <ele>2252.99</ele>
        <time>2011-06-26T11:29:22Z</time>
      </trkpt>
      <trkpt lat="45.48146" lon="6.91222">
        <ele>2250.1</ele>
        <time>2011-06-26T11:29:33Z</time>
      </trkpt>
      <trkpt lat="45.48139" lon="6.91252">
        <ele>2247.7</ele>
        <time>2011-06-26T11:29:50Z</time>
      </trkpt>
      <trkpt lat="45.48124" lon="6.91273">
        <ele>2244.82</ele>
        <time>2011-06-26T11:30:04Z</time>
      </trkpt>
      <trkpt lat="45.48119" lon="6.91291">
        <ele>2244.82</ele>
        <time>2011-06-26T11:30:14Z</time>
      </trkpt>
      <trkpt lat="45.4812" lon="6.91305">
        <ele>2241.93</ele>
        <time>2011-06-26T11:30:20Z</time>
      </trkpt>
      <trkpt lat="45.48129" lon="6.91339">
        <ele>2240.49</ele>
        <time>2011-06-26T11:30:33Z</time>
      </trkpt>
      <trkpt lat="45.48137" lon="6.9135">
        <ele>2238.09</ele>
        <time>2011-06-26T11:30:38Z</time>
      </trkpt>
      <trkpt lat="45.48155" lon="6.91376">
        <ele>2235.68</ele>
        <time>2011-06-26T11:30:49Z</time>
      </trkpt>
      <trkpt lat="45.4816" lon="6.91406">
        <ele>2232.8</ele>
        <time>2011-06-26T11:30:59Z</time>
      </trkpt>
      <trkpt lat="45.48159" lon="6.91417">
        <ele>2231.84</ele>
        <time>2011-06-26T11:31:03Z</time>
      </trkpt>
      <trkpt lat="45.48171" lon="6.91441">
        <ele>2229.92</ele>
        <time>2011-06-26T11:31:14Z</time>
      </trkpt>
      <trkpt lat="45.48191" lon="6.91459">
        <ele>2227.99</ele>
        <time>2011-06-26T11:31:25Z</time>
      </trkpt>
      <trkpt lat="45.48205" lon="6.91492">
        <ele>2225.59</ele>
        <time>2011-06-26T11:31:37Z</time>
      </trkpt>
      <trkpt lat="45.48207" lon="6.91532">
        <ele>2222.71</ele>
        <time>2011-06-26T11:31:49Z</time>
      </trkpt>
      <trkpt lat="45.48212" lon="6.91569">
        <ele>2220.3</ele>
        <time>2011-06-26T11:32:01Z</time>
      </trkpt>
      <trkpt lat="45.48216" lon="6.91578">
        <ele>2218.86</ele>
        <time>2011-06-26T11:32:04Z</time>
      </trkpt>
      <trkpt lat="45.48222" lon="6.91593">
        <ele>2217.42</ele>
        <time>2011-06-26T11:32:09Z</time>
      </trkpt>
      <trkpt lat="45.4823" lon="6.91609">
        <ele>2214.05</ele>
        <time>2011-06-26T11:32:15Z</time>
      </trkpt>
      <trkpt lat="45.48237" lon="6.91623">
        <ele>2213.57</ele>
        <time>2011-06-26T11:32:20Z</time>
      </trkpt>
      <trkpt lat="45.48241" lon="6.91636">
        <ele>2212.61</ele>
        <time>2011-06-26T11:32:25Z</time>
      </trkpt>
      <trkpt lat="45.48241" lon="6.9164">
        <ele>2213.09</ele>
        <time>2011-06-26T11:32:35Z</time>
      </trkpt>
      <trkpt lat="45.48255" lon="6.91658">
        <ele>2212.13</ele>
        <time>2011-06-26T11:32:48Z</time>
      </trkpt>
      <trkpt lat="45.48273" lon="6.91673">
        <ele>2210.21</ele>
        <time>2011-06-26T11:32:57Z</time>
      </trkpt>
      <trkpt lat="45.48294" lon="6.91687">
        <ele>2205.4</ele>
        <time>2011-06-26T11:33:07Z</time>
      </trkpt>
      <trkpt lat="45.48308" lon="6.91697">
        <ele>2203.48</ele>
        <time>2011-06-26T11:33:17Z</time>
      </trkpt>
      <trkpt lat="45.48325" lon="6.91709">
        <ele>2201.08</ele>
        <time>2011-06-26T11:33:25Z</time>
      </trkpt>
      <trkpt lat="45.48349" lon="6.91724">
        <ele>2198.19</ele>
        <time>2011-06-26T11:33:37Z</time>
      </trkpt>
      <trkpt lat="45.48372" lon="6.91734">
        <ele>2194.35</ele>
        <time>2011-06-26T11:33:47Z</time>
      </trkpt>
      <trkpt lat="45.48397" lon="6.91751">
        <ele>2192.9</ele>
        <time>2011-06-26T11:33:59Z</time>
      </trkpt>
      <trkpt lat="45.48402" lon="6.91752">
        <ele>2191.46</ele>
        <time>2011-06-26T11:34:01Z</time>
      </trkpt>
      <trkpt lat="45.48419" lon="6.91754">
        <ele>2188.58</ele>
        <time>2011-06-26T11:34:09Z</time>
      </trkpt>
      <trkpt lat="45.48443" lon="6.91755">
        <ele>2186.18</ele>
        <time>2011-06-26T11:34:20Z</time>
      </trkpt>
      <trkpt lat="45.48461" lon="6.91754">
        <ele>2182.81</ele>
        <time>2011-06-26T11:34:27Z</time>
      </trkpt>
      <trkpt lat="45.48489" lon="6.91747">
        <ele>2181.37</ele>
        <time>2011-06-26T11:34:39Z</time>
      </trkpt>
      <trkpt lat="45.48506" lon="6.91745">
        <ele>2178</ele>
        <time>2011-06-26T11:34:45Z</time>
      </trkpt>
      <trkpt lat="45.48508" lon="6.91745">
        <ele>2178.48</ele>
        <time>2011-06-26T11:34:46Z</time>
      </trkpt>
      <trkpt lat="45.48527" lon="6.91733">
        <ele>2177.52</ele>
        <time>2011-06-26T11:34:56Z</time>
      </trkpt>
      <trkpt lat="45.48542" lon="6.91721">
        <ele>2175.12</ele>
        <time>2011-06-26T11:35:03Z</time>
      </trkpt>
      <trkpt lat="45.48547" lon="6.91713">
        <ele>2174.16</ele>
        <time>2011-06-26T11:35:08Z</time>
      </trkpt>
      <trkpt lat="45.4855" lon="6.91705">
        <ele>2174.16</ele>
        <time>2011-06-26T11:35:12Z</time>
      </trkpt>
      <trkpt lat="45.48557" lon="6.9169">
        <ele>2171.76</ele>
        <time>2011-06-26T11:35:19Z</time>
      </trkpt>
      <trkpt lat="45.48564" lon="6.91682">
        <ele>2171.76</ele>
        <time>2011-06-26T11:35:25Z</time>
      </trkpt>
      <trkpt lat="45.48569" lon="6.91677">
        <ele>2170.79</ele>
        <time>2011-06-26T11:35:29Z</time>
      </trkpt>
      <trkpt lat="45.48571" lon="6.91674">
        <ele>2169.83</ele>
        <time>2011-06-26T11:35:31Z</time>
      </trkpt>
      <trkpt lat="45.48581" lon="6.91663">
        <ele>2169.35</ele>
        <time>2011-06-26T11:35:39Z</time>
      </trkpt>
      <trkpt lat="45.48591" lon="6.91658">
        <ele>2168.39</ele>
        <time>2011-06-26T11:35:45Z</time>
      </trkpt>
      <trkpt lat="45.48612" lon="6.9165">
        <ele>2167.43</ele>
        <time>2011-06-26T11:35:59Z</time>
      </trkpt>
      <trkpt lat="45.48615" lon="6.91649">
        <ele>2166.47</ele>
        <time>2011-06-26T11:36:01Z</time>
      </trkpt>
      <trkpt lat="45.48638" lon="6.9163">
        <ele>2164.55</ele>
        <time>2011-06-26T11:36:12Z</time>
      </trkpt>
      <trkpt lat="45.4866" lon="6.91616">
        <ele>2165.51</ele>
        <time>2011-06-26T11:36:24Z</time>
      </trkpt>
      <trkpt lat="45.48671" lon="6.91611">
        <ele>2166.95</ele>
        <time>2011-06-26T11:36:29Z</time>
      </trkpt>
      <trkpt lat="45.48683" lon="6.91608">
        <ele>2164.55</ele>
        <time>2011-06-26T11:36:35Z</time>
      </trkpt>
      <trkpt lat="45.48702" lon="6.91595">
        <ele>2163.1</ele>
        <time>2011-06-26T11:36:44Z</time>
      </trkpt>
      <trkpt lat="45.48721" lon="6.91584">
        <ele>2163.58</ele>
        <time>2011-06-26T11:36:55Z</time>
      </trkpt>
      <trkpt lat="45.48734" lon="6.91572">
        <ele>2165.51</ele>
        <time>2011-06-26T11:37:07Z</time>
      </trkpt>
      <trkpt lat="45.48757" lon="6.91556">
        <ele>2166.95</ele>
        <time>2011-06-26T11:37:26Z</time>
      </trkpt>
      <trkpt lat="45.48759" lon="6.91554">
        <ele>2168.39</ele>
        <time>2011-06-26T11:37:28Z</time>
      </trkpt>
      <trkpt lat="45.48763" lon="6.91541">
        <ele>2167.91</ele>
        <time>2011-06-26T11:37:35Z</time>
      </trkpt>
      <trkpt lat="45.48765" lon="6.91536">
        <ele>2168.39</ele>
        <time>2011-06-26T11:37:38Z</time>
      </trkpt>
      <trkpt lat="45.48768" lon="6.91534">
        <ele>2167.91</ele>
        <time>2011-06-26T11:37:41Z</time>
      </trkpt>
      <trkpt lat="45.4877" lon="6.91531">
        <ele>2166.95</ele>
        <time>2011-06-26T11:37:43Z</time>
      </trkpt>
      <trkpt lat="45.48774" lon="6.91527">
        <ele>2165.99</ele>
        <time>2011-06-26T11:37:46Z</time>
      </trkpt>
      <trkpt lat="45.48779" lon="6.91524">
        <ele>2166.47</ele>
        <time>2011-06-26T11:37:49Z</time>
      </trkpt>
      <trkpt lat="45.48802" lon="6.91518">
        <ele>2167.91</ele>
        <time>2011-06-26T11:38:05Z</time>
      </trkpt>
      <trkpt lat="45.48806" lon="6.91517">
        <ele>2169.35</ele>
        <time>2011-06-26T11:38:08Z</time>
      </trkpt>
      <trkpt lat="45.48815" lon="6.91511">
        <ele>2170.79</ele>
        <time>2011-06-26T11:38:16Z</time>
      </trkpt>
      <trkpt lat="45.48819" lon="6.9151">
        <ele>2171.27</ele>
        <time>2011-06-26T11:38:19Z</time>
      </trkpt>
      <trkpt lat="45.48841" lon="6.91498">
        <ele>2173.68</ele>
        <time>2011-06-26T11:38:36Z</time>
      </trkpt>
      <trkpt lat="45.48862" lon="6.91481">
        <ele>2174.16</ele>
        <time>2011-06-26T11:38:52Z</time>
      </trkpt>
      <trkpt lat="45.48864" lon="6.91479">
        <ele>2174.64</ele>
        <time>2011-06-26T11:38:53Z</time>
      </trkpt>
      <trkpt lat="45.48869" lon="6.91474">
        <ele>2174.16</ele>
        <time>2011-06-26T11:38:57Z</time>
      </trkpt>
      <trkpt lat="45.48873" lon="6.91467">
        <ele>2173.2</ele>
        <time>2011-06-26T11:39:02Z</time>
      </trkpt>
      <trkpt lat="45.48876" lon="6.91462">
        <ele>2171.76</ele>
        <time>2011-06-26T11:39:05Z</time>
      </trkpt>
      <trkpt lat="45.48881" lon="6.91458">
        <ele>2173.68</ele>
        <time>2011-06-26T11:39:08Z</time>
      </trkpt>
      <trkpt lat="45.48885" lon="6.91453">
        <ele>2173.68</ele>
        <time>2011-06-26T11:39:11Z</time>
      </trkpt>
      <trkpt lat="45.48903" lon="6.91432">
        <ele>2175.6</ele>
        <time>2011-06-26T11:39:24Z</time>
      </trkpt>
      <trkpt lat="45.48904" lon="6.91431">
        <ele>2175.6</ele>
        <time>2011-06-26T11:39:25Z</time>
      </trkpt>
      <trkpt lat="45.48916" lon="6.9142">
        <ele>2178.48</ele>
        <time>2011-06-26T11:39:33Z</time>
      </trkpt>
      <trkpt lat="45.48923" lon="6.91414">
        <ele>2177.04</ele>
        <time>2011-06-26T11:39:37Z</time>
      </trkpt>
      <trkpt lat="45.48928" lon="6.9141">
        <ele>2177.52</ele>
        <time>2011-06-26T11:39:40Z</time>
      </trkpt>
      <trkpt lat="45.48935" lon="6.91406">
        <ele>2178</ele>
        <time>2011-06-26T11:39:44Z</time>
      </trkpt>
      <trkpt lat="45.48959" lon="6.91407">
        <ele>2177.52</ele>
        <time>2011-06-26T11:39:54Z</time>
      </trkpt>
      <trkpt lat="45.48987" lon="6.9139">
        <ele>2177.52</ele>
        <time>2011-06-26T11:40:07Z</time>
      </trkpt>
      <trkpt lat="45.48993" lon="6.91387">
        <ele>2178.97</ele>
        <time>2011-06-26T11:40:10Z</time>
      </trkpt>
      <trkpt lat="45.49018" lon="6.9138">
        <ele>2178.97</ele>
        <time>2011-06-26T11:40:23Z</time>
      </trkpt>
      <trkpt lat="45.49044" lon="6.91383">
        <ele>2177.52</ele>
        <time>2011-06-26T11:40:34Z</time>
      </trkpt>
      <trkpt lat="45.49072" lon="6.91394">
        <ele>2177.04</ele>
        <time>2011-06-26T11:40:45Z</time>
      </trkpt>
      <trkpt lat="45.49099" lon="6.91401">
        <ele>2175.6</ele>
        <time>2011-06-26T11:40:57Z</time>
      </trkpt>
      <trkpt lat="45.49126" lon="6.91411">
        <ele>2172.24</ele>
        <time>2011-06-26T11:41:08Z</time>
      </trkpt>
      <trkpt lat="45.49141" lon="6.91421">
        <ele>2170.31</ele>
        <time>2011-06-26T11:41:14Z</time>
      </trkpt>
      <trkpt lat="45.49155" lon="6.9143">
        <ele>2168.39</ele>
        <time>2011-06-26T11:41:20Z</time>
      </trkpt>
      <trkpt lat="45.49166" lon="6.91436">
        <ele>2165.03</ele>
        <time>2011-06-26T11:41:24Z</time>
      </trkpt>
      <trkpt lat="45.49202" lon="6.91463">
        <ele>2163.58</ele>
        <time>2011-06-26T11:41:38Z</time>
      </trkpt>
      <trkpt lat="45.49214" lon="6.91474">
        <ele>2162.14</ele>
        <time>2011-06-26T11:41:43Z</time>
      </trkpt>
      <trkpt lat="45.49237" lon="6.91486">
        <ele>2158.78</ele>
        <time>2011-06-26T11:41:53Z</time>
      </trkpt>
      <trkpt lat="45.4925" lon="6.91495">
        <ele>2156.86</ele>
        <time>2011-06-26T11:41:59Z</time>
      </trkpt>
      <trkpt lat="45.49268" lon="6.91512">
        <ele>2153.49</ele>
        <time>2011-06-26T11:42:08Z</time>
      </trkpt>
      <trkpt lat="45.49271" lon="6.91514">
        <ele>2152.05</ele>
        <time>2011-06-26T11:42:26Z</time>
      </trkpt>
      <trkpt lat="45.49273" lon="6.91517">
        <ele>2152.05</ele>
        <time>2011-06-26T11:42:40Z</time>
      </trkpt>
      <trkpt lat="45.49279" lon="6.91525">
        <ele>2150.13</ele>
        <time>2011-06-26T11:42:44Z</time>
      </trkpt>
      <trkpt lat="45.49281" lon="6.9153">
        <ele>2150.13</ele>
        <time>2011-06-26T11:42:57Z</time>
      </trkpt>
      <trkpt lat="45.49285" lon="6.91539">
        <ele>2147.24</ele>
        <time>2011-06-26T11:43:02Z</time>
      </trkpt>
      <trkpt lat="45.49291" lon="6.91545">
        <ele>2144.84</ele>
        <time>2011-06-26T11:43:08Z</time>
      </trkpt>
      <trkpt lat="45.49298" lon="6.91553">
        <ele>2141.95</ele>
        <time>2011-06-26T11:43:13Z</time>
      </trkpt>
      <trkpt lat="45.493" lon="6.91558">
        <ele>2140.99</ele>
        <time>2011-06-26T11:43:15Z</time>
      </trkpt>
      <trkpt lat="45.49299" lon="6.91572">
        <ele>2137.63</ele>
        <time>2011-06-26T11:43:20Z</time>
      </trkpt>
      <trkpt lat="45.49299" lon="6.91575">
        <ele>2137.63</ele>
        <time>2011-06-26T11:43:21Z</time>
      </trkpt>
      <trkpt lat="45.49304" lon="6.91594">
        <ele>2134.26</ele>
        <time>2011-06-26T11:43:28Z</time>
      </trkpt>
      <trkpt lat="45.49305" lon="6.91596">
        <ele>2134.26</ele>
        <time>2011-06-26T11:43:29Z</time>
      </trkpt>
      <trkpt lat="45.49322" lon="6.91601">
        <ele>2129.94</ele>
        <time>2011-06-26T11:43:37Z</time>
      </trkpt>
      <trkpt lat="45.49325" lon="6.91601">
        <ele>2128.98</ele>
        <time>2011-06-26T11:43:39Z</time>
      </trkpt>
      <trkpt lat="45.49333" lon="6.916">
        <ele>2127.53</ele>
        <time>2011-06-26T11:43:49Z</time>
      </trkpt>
      <trkpt lat="45.49334" lon="6.916">
        <ele>2127.53</ele>
        <time>2011-06-26T11:43:50Z</time>
      </trkpt>
      <trkpt lat="45.49338" lon="6.91598">
        <ele>2126.57</ele>
        <time>2011-06-26T11:43:53Z</time>
      </trkpt>
      <trkpt lat="45.49353" lon="6.91593">
        <ele>2123.21</ele>
        <time>2011-06-26T11:44:01Z</time>
      </trkpt>
      <trkpt lat="45.49355" lon="6.91592">
        <ele>2124.17</ele>
        <time>2011-06-26T11:44:02Z</time>
      </trkpt>
      <trkpt lat="45.49365" lon="6.916">
        <ele>2119.36</ele>
        <time>2011-06-26T11:44:08Z</time>
      </trkpt>
      <trkpt lat="45.49363" lon="6.91628">
        <ele>2115.52</ele>
        <time>2011-06-26T11:44:18Z</time>
      </trkpt>
      <trkpt lat="45.49355" lon="6.9165">
        <ele>2112.63</ele>
        <time>2011-06-26T11:44:28Z</time>
      </trkpt>
      <trkpt lat="45.49354" lon="6.91655">
        <ele>2111.19</ele>
        <time>2011-06-26T11:44:31Z</time>
      </trkpt>
      <trkpt lat="45.49347" lon="6.91671">
        <ele>2107.83</ele>
        <time>2011-06-26T11:44:39Z</time>
      </trkpt>
      <trkpt lat="45.49344" lon="6.9168">
        <ele>2104.94</ele>
        <time>2011-06-26T11:44:42Z</time>
      </trkpt>
      <trkpt lat="45.49336" lon="6.91699">
        <ele>2102.54</ele>
        <time>2011-06-26T11:44:50Z</time>
      </trkpt>
      <trkpt lat="45.49339" lon="6.91718">
        <ele>2097.73</ele>
        <time>2011-06-26T11:44:57Z</time>
      </trkpt>
      <trkpt lat="45.49343" lon="6.91726">
        <ele>2095.33</ele>
        <time>2011-06-26T11:45:01Z</time>
      </trkpt>
      <trkpt lat="45.49342" lon="6.91736">
        <ele>2093.89</ele>
        <time>2011-06-26T11:45:05Z</time>
      </trkpt>
      <trkpt lat="45.49343" lon="6.91745">
        <ele>2091.97</ele>
        <time>2011-06-26T11:45:09Z</time>
      </trkpt>
      <trkpt lat="45.49349" lon="6.91755">
        <ele>2091</ele>
        <time>2011-06-26T11:45:20Z</time>
      </trkpt>
      <trkpt lat="45.4935" lon="6.91758">
        <ele>2091.49</ele>
        <time>2011-06-26T11:45:26Z</time>
      </trkpt>
      <trkpt lat="45.49356" lon="6.91756">
        <ele>2089.08</ele>
        <time>2011-06-26T11:45:32Z</time>
      </trkpt>
      <trkpt lat="45.49359" lon="6.91753">
        <ele>2087.64</ele>
        <time>2011-06-26T11:45:35Z</time>
      </trkpt>
      <trkpt lat="45.49361" lon="6.91752">
        <ele>2086.2</ele>
        <time>2011-06-26T11:45:37Z</time>
      </trkpt>
      <trkpt lat="45.49367" lon="6.91756">
        <ele>2082.83</ele>
        <time>2011-06-26T11:45:41Z</time>
      </trkpt>
      <trkpt lat="45.49372" lon="6.91779">
        <ele>2080.43</ele>
        <time>2011-06-26T11:45:49Z</time>
      </trkpt>
      <trkpt lat="45.49378" lon="6.91783">
        <ele>2078.51</ele>
        <time>2011-06-26T11:45:52Z</time>
      </trkpt>
      <trkpt lat="45.49383" lon="6.91786">
        <ele>2076.59</ele>
        <time>2011-06-26T11:45:55Z</time>
      </trkpt>
      <trkpt lat="45.4939" lon="6.91789">
        <ele>2075.62</ele>
        <time>2011-06-26T11:45:58Z</time>
      </trkpt>
      <trkpt lat="45.49394" lon="6.91788">
        <ele>2074.18</ele>
        <time>2011-06-26T11:46:00Z</time>
      </trkpt>
      <trkpt lat="45.49403" lon="6.91776">
        <ele>2072.74</ele>
        <time>2011-06-26T11:46:05Z</time>
      </trkpt>
      <trkpt lat="45.49411" lon="6.91762">
        <ele>2071.3</ele>
        <time>2011-06-26T11:46:10Z</time>
      </trkpt>
      <trkpt lat="45.4942" lon="6.91746">
        <ele>2068.89</ele>
        <time>2011-06-26T11:46:17Z</time>
      </trkpt>
      <trkpt lat="45.49432" lon="6.91731">
        <ele>2066.49</ele>
        <time>2011-06-26T11:46:25Z</time>
      </trkpt>
      <trkpt lat="45.49434" lon="6.9173">
        <ele>2066.49</ele>
        <time>2011-06-26T11:46:26Z</time>
      </trkpt>
      <trkpt lat="45.49438" lon="6.91726">
        <ele>2064.57</ele>
        <time>2011-06-26T11:46:28Z</time>
      </trkpt>
      <trkpt lat="45.49441" lon="6.91722">
        <ele>2064.57</ele>
        <time>2011-06-26T11:46:30Z</time>
      </trkpt>
      <trkpt lat="45.4945" lon="6.91715">
        <ele>2063.13</ele>
        <time>2011-06-26T11:46:34Z</time>
      </trkpt>
      <trkpt lat="45.49452" lon="6.91713">
        <ele>2062.65</ele>
        <time>2011-06-26T11:46:46Z</time>
      </trkpt>
      <trkpt lat="45.49452" lon="6.91714">
        <ele>2063.13</ele>
        <time>2011-06-26T11:46:48Z</time>
      </trkpt>
      <trkpt lat="45.49455" lon="6.91714">
        <ele>2062.17</ele>
        <time>2011-06-26T11:47:09Z</time>
      </trkpt>
      <trkpt lat="45.49459" lon="6.91711">
        <ele>2064.09</ele>
        <time>2011-06-26T11:47:12Z</time>
      </trkpt>
      <trkpt lat="45.49469" lon="6.91701">
        <ele>2060.24</ele>
        <time>2011-06-26T11:47:20Z</time>
      </trkpt>
      <trkpt lat="45.4947" lon="6.91702">
        <ele>2059.76</ele>
        <time>2011-06-26T11:47:22Z</time>
      </trkpt>
      <trkpt lat="45.4946" lon="6.91718">
        <ele>2061.2</ele>
        <time>2011-06-26T11:47:39Z</time>
      </trkpt>
      <trkpt lat="45.49477" lon="6.917">
        <ele>2060.72</ele>
        <time>2011-06-26T11:47:54Z</time>
      </trkpt>
      <trkpt lat="45.49483" lon="6.91689">
        <ele>2057.36</ele>
        <time>2011-06-26T11:48:01Z</time>
      </trkpt>
      <trkpt lat="45.49493" lon="6.91676">
        <ele>2052.07</ele>
        <time>2011-06-26T11:48:08Z</time>
      </trkpt>
      <trkpt lat="45.49496" lon="6.91674">
        <ele>2055.44</ele>
        <time>2011-06-26T11:48:09Z</time>
      </trkpt>
      <trkpt lat="45.49521" lon="6.9167">
        <ele>2052.07</ele>
        <time>2011-06-26T11:48:19Z</time>
      </trkpt>
      <trkpt lat="45.49536" lon="6.91667">
        <ele>2048.71</ele>
        <time>2011-06-26T11:48:28Z</time>
      </trkpt>
      <trkpt lat="45.49548" lon="6.91665">
        <ele>2047.75</ele>
        <time>2011-06-26T11:48:50Z</time>
      </trkpt>
      <trkpt lat="45.49557" lon="6.91666">
        <ele>2045.82</ele>
        <time>2011-06-26T11:48:58Z</time>
      </trkpt>
      <trkpt lat="45.4958" lon="6.91663">
        <ele>2044.38</ele>
        <time>2011-06-26T11:49:10Z</time>
      </trkpt>
      <trkpt lat="45.49592" lon="6.91661">
        <ele>2043.42</ele>
        <time>2011-06-26T11:49:15Z</time>
      </trkpt>
      <trkpt lat="45.49622" lon="6.91652">
        <ele>2040.05</ele>
        <time>2011-06-26T11:49:27Z</time>
      </trkpt>
      <trkpt lat="45.49648" lon="6.91643">
        <ele>2037.65</ele>
        <time>2011-06-26T11:49:38Z</time>
      </trkpt>
      <trkpt lat="45.49656" lon="6.91641">
        <ele>2036.69</ele>
        <time>2011-06-26T11:49:42Z</time>
      </trkpt>
      <trkpt lat="45.49667" lon="6.91638">
        <ele>2035.25</ele>
        <time>2011-06-26T11:49:48Z</time>
      </trkpt>
      <trkpt lat="45.49679" lon="6.91633">
        <ele>2034.77</ele>
        <time>2011-06-26T11:49:55Z</time>
      </trkpt>
      <trkpt lat="45.49689" lon="6.91628">
        <ele>2033.81</ele>
        <time>2011-06-26T11:50:02Z</time>
      </trkpt>
      <trkpt lat="45.49696" lon="6.91625">
        <ele>2031.88</ele>
        <time>2011-06-26T11:50:06Z</time>
      </trkpt>
      <trkpt lat="45.497" lon="6.91624">
        <ele>2030.92</ele>
        <time>2011-06-26T11:50:09Z</time>
      </trkpt>
      <trkpt lat="45.49706" lon="6.91626">
        <ele>2028.52</ele>
        <time>2011-06-26T11:50:13Z</time>
      </trkpt>
      <trkpt lat="45.49717" lon="6.91625">
        <ele>2025.15</ele>
        <time>2011-06-26T11:50:23Z</time>
      </trkpt>
      <trkpt lat="45.49725" lon="6.91623">
        <ele>2021.79</ele>
        <time>2011-06-26T11:50:29Z</time>
      </trkpt>
      <trkpt lat="45.49727" lon="6.91623">
        <ele>2021.79</ele>
        <time>2011-06-26T11:50:30Z</time>
      </trkpt>
      <trkpt lat="45.49737" lon="6.91622">
        <ele>2017.94</ele>
        <time>2011-06-26T11:50:39Z</time>
      </trkpt>
      <trkpt lat="45.49742" lon="6.91616">
        <ele>2016.02</ele>
        <time>2011-06-26T11:50:44Z</time>
      </trkpt>
      <trkpt lat="45.4975" lon="6.91611">
        <ele>2013.62</ele>
        <time>2011-06-26T11:50:51Z</time>
      </trkpt>
      <trkpt lat="45.49751" lon="6.9161">
        <ele>2011.7</ele>
        <time>2011-06-26T11:50:52Z</time>
      </trkpt>
      <trkpt lat="45.49758" lon="6.91607">
        <ele>2010.73</ele>
        <time>2011-06-26T11:50:56Z</time>
      </trkpt>
      <trkpt lat="45.49763" lon="6.91605">
        <ele>2008.81</ele>
        <time>2011-06-26T11:50:59Z</time>
      </trkpt>
      <trkpt lat="45.49765" lon="6.91604">
        <ele>2008.33</ele>
        <time>2011-06-26T11:51:00Z</time>
      </trkpt>
      <trkpt lat="45.49782" lon="6.91595">
        <ele>2004.49</ele>
        <time>2011-06-26T11:51:11Z</time>
      </trkpt>
      <trkpt lat="45.49785" lon="6.91594">
        <ele>2003.04</ele>
        <time>2011-06-26T11:51:13Z</time>
      </trkpt>
      <trkpt lat="45.49789" lon="6.91593">
        <ele>2001.6</ele>
        <time>2011-06-26T11:51:15Z</time>
      </trkpt>
      <trkpt lat="45.49799" lon="6.91591">
        <ele>1999.68</ele>
        <time>2011-06-26T11:51:22Z</time>
      </trkpt>
      <trkpt lat="45.49808" lon="6.91588">
        <ele>1996.8</ele>
        <time>2011-06-26T11:51:28Z</time>
      </trkpt>
      <trkpt lat="45.49814" lon="6.91589">
        <ele>1995.83</ele>
        <time>2011-06-26T11:51:32Z</time>
      </trkpt>
      <trkpt lat="45.49815" lon="6.91589">
        <ele>1995.83</ele>
        <time>2011-06-26T11:51:33Z</time>
      </trkpt>
      <trkpt lat="45.49818" lon="6.91587">
        <ele>1994.39</ele>
        <time>2011-06-26T11:51:35Z</time>
      </trkpt>
      <trkpt lat="45.49821" lon="6.91584">
        <ele>1993.91</ele>
        <time>2011-06-26T11:51:37Z</time>
      </trkpt>
      <trkpt lat="45.49826" lon="6.91579">
        <ele>1991.51</ele>
        <time>2011-06-26T11:51:41Z</time>
      </trkpt>
      <trkpt lat="45.49831" lon="6.91578">
        <ele>1990.55</ele>
        <time>2011-06-26T11:51:45Z</time>
      </trkpt>
      <trkpt lat="45.49835" lon="6.91574">
        <ele>1988.14</ele>
        <time>2011-06-26T11:51:49Z</time>
      </trkpt>
      <trkpt lat="45.49843" lon="6.91575">
        <ele>1985.74</ele>
        <time>2011-06-26T11:51:56Z</time>
      </trkpt>
      <trkpt lat="45.49848" lon="6.91571">
        <ele>1983.34</ele>
        <time>2011-06-26T11:52:01Z</time>
      </trkpt>
      <trkpt lat="45.49852" lon="6.91567">
        <ele>1980.93</ele>
        <time>2011-06-26T11:52:05Z</time>
      </trkpt>
      <trkpt lat="45.49855" lon="6.91568">
        <ele>1979.97</ele>
        <time>2011-06-26T11:52:08Z</time>
      </trkpt>
      <trkpt lat="45.49862" lon="6.91567">
        <ele>1978.05</ele>
        <time>2011-06-26T11:52:13Z</time>
      </trkpt>
      <trkpt lat="45.49865" lon="6.91565">
        <ele>1976.13</ele>
        <time>2011-06-26T11:52:16Z</time>
      </trkpt>
      <trkpt lat="45.49867" lon="6.91563">
        <ele>1974.69</ele>
        <time>2011-06-26T11:52:18Z</time>
      </trkpt>
      <trkpt lat="45.49874" lon="6.91563">
        <ele>1971.32</ele>
        <time>2011-06-26T11:52:24Z</time>
      </trkpt>
      <trkpt lat="45.49878" lon="6.91561">
        <ele>1970.36</ele>
        <time>2011-06-26T11:52:27Z</time>
      </trkpt>
      <trkpt lat="45.49889" lon="6.91558">
        <ele>1966.51</ele>
        <time>2011-06-26T11:52:36Z</time>
      </trkpt>
      <trkpt lat="45.49892" lon="6.91557">
        <ele>1965.55</ele>
        <time>2011-06-26T11:52:38Z</time>
      </trkpt>
      <trkpt lat="45.49895" lon="6.91555">
        <ele>1964.11</ele>
        <time>2011-06-26T11:52:42Z</time>
      </trkpt>
      <trkpt lat="45.49901" lon="6.91562">
        <ele>1961.71</ele>
        <time>2011-06-26T11:52:48Z</time>
      </trkpt>
      <trkpt lat="45.49906" lon="6.91563">
        <ele>1958.82</ele>
        <time>2011-06-26T11:52:53Z</time>
      </trkpt>
      <trkpt lat="45.49909" lon="6.91563">
        <ele>1958.34</ele>
        <time>2011-06-26T11:52:57Z</time>
      </trkpt>
      <trkpt lat="45.49912" lon="6.91562">
        <ele>1954.98</ele>
        <time>2011-06-26T11:53:03Z</time>
      </trkpt>
      <trkpt lat="45.49921" lon="6.91566">
        <ele>1950.17</ele>
        <time>2011-06-26T11:53:13Z</time>
      </trkpt>
      <trkpt lat="45.49922" lon="6.91567">
        <ele>1950.65</ele>
        <time>2011-06-26T11:53:14Z</time>
      </trkpt>
      <trkpt lat="45.49926" lon="6.91569">
        <ele>1947.77</ele>
        <time>2011-06-26T11:53:20Z</time>
      </trkpt>
      <trkpt lat="45.49929" lon="6.91571">
        <ele>1946.33</ele>
        <time>2011-06-26T11:53:23Z</time>
      </trkpt>
      <trkpt lat="45.49931" lon="6.91573">
        <ele>1946.33</ele>
        <time>2011-06-26T11:53:26Z</time>
      </trkpt>
      <trkpt lat="45.49933" lon="6.91572">
        <ele>1944.4</ele>
        <time>2011-06-26T11:53:30Z</time>
      </trkpt>
      <trkpt lat="45.49937" lon="6.91576">
        <ele>1939.6</ele>
        <time>2011-06-26T11:53:37Z</time>
      </trkpt>
      <trkpt lat="45.49941" lon="6.91578">
        <ele>1939.12</ele>
        <time>2011-06-26T11:53:41Z</time>
      </trkpt>
      <trkpt lat="45.49944" lon="6.91581">
        <ele>1937.67</ele>
        <time>2011-06-26T11:53:45Z</time>
      </trkpt>
      <trkpt lat="45.49952" lon="6.91583">
        <ele>1933.83</ele>
        <time>2011-06-26T11:53:54Z</time>
      </trkpt>
      <trkpt lat="45.49956" lon="6.91588">
        <ele>1932.87</ele>
        <time>2011-06-26T11:53:58Z</time>
      </trkpt>
      <trkpt lat="45.49959" lon="6.9159">
        <ele>1930.95</ele>
        <time>2011-06-26T11:54:01Z</time>
      </trkpt>
      <trkpt lat="45.4996" lon="6.91588">
        <ele>1928.54</ele>
        <time>2011-06-26T11:54:18Z</time>
      </trkpt>
      <trkpt lat="45.4996" lon="6.91588">
        <ele>1929.5</ele>
        <time>2011-06-26T11:54:20Z</time>
      </trkpt>
      <trkpt lat="45.49964" lon="6.9159">
        <ele>1927.1</ele>
        <time>2011-06-26T11:54:29Z</time>
      </trkpt>
      <trkpt lat="45.49967" lon="6.91592">
        <ele>1926.14</ele>
        <time>2011-06-26T11:54:32Z</time>
      </trkpt>
      <trkpt lat="45.49974" lon="6.91599">
        <ele>1922.29</ele>
        <time>2011-06-26T11:54:44Z</time>
      </trkpt>
      <trkpt lat="45.49977" lon="6.91598">
        <ele>1919.41</ele>
        <time>2011-06-26T11:54:53Z</time>
      </trkpt>
      <trkpt lat="45.49979" lon="6.91597">
        <ele>1918.93</ele>
        <time>2011-06-26T11:54:56Z</time>
      </trkpt>
      <trkpt lat="45.49985" lon="6.91602">
        <ele>1915.56</ele>
        <time>2011-06-26T11:55:04Z</time>
      </trkpt>
      <trkpt lat="45.49991" lon="6.91602">
        <ele>1912.68</ele>
        <time>2011-06-26T11:55:10Z</time>
      </trkpt>
      <trkpt lat="45.49999" lon="6.91602">
        <ele>1908.35</ele>
        <time>2011-06-26T11:55:16Z</time>
      </trkpt>
      <trkpt lat="45.50005" lon="6.91604">
        <ele>1907.39</ele>
        <time>2011-06-26T11:55:20Z</time>
      </trkpt>
      <trkpt lat="45.50008" lon="6.91606">
        <ele>1905.47</ele>
        <time>2011-06-26T11:55:23Z</time>
      </trkpt>
      <trkpt lat="45.50014" lon="6.91605">
        <ele>1902.59</ele>
        <time>2011-06-26T11:55:28Z</time>
      </trkpt>
      <trkpt lat="45.50021" lon="6.91609">
        <ele>1898.26</ele>
        <time>2011-06-26T11:55:36Z</time>
      </trkpt>
      <trkpt lat="45.50023" lon="6.9161">
        <ele>1898.74</ele>
        <time>2011-06-26T11:55:38Z</time>
      </trkpt>
      <trkpt lat="45.50025" lon="6.91611">
        <ele>1897.3</ele>
        <time>2011-06-26T11:55:41Z</time>
      </trkpt>
      <trkpt lat="45.50031" lon="6.91608">
        <ele>1892.97</ele>
        <time>2011-06-26T11:55:50Z</time>
      </trkpt>
      <trkpt lat="45.50034" lon="6.91608">
        <ele>1891.53</ele>
        <time>2011-06-26T11:55:56Z</time>
      </trkpt>
      <trkpt lat="45.50041" lon="6.91604">
        <ele>1887.21</ele>
        <time>2011-06-26T11:56:05Z</time>
      </trkpt>
      <trkpt lat="45.50047" lon="6.91602">
        <ele>1885.76</ele>
        <time>2011-06-26T11:56:10Z</time>
      </trkpt>
      <trkpt lat="45.50053" lon="6.91598">
        <ele>1882.4</ele>
        <time>2011-06-26T11:56:15Z</time>
      </trkpt>
      <trkpt lat="45.50056" lon="6.91596">
        <ele>1880.48</ele>
        <time>2011-06-26T11:56:17Z</time>
      </trkpt>
      <trkpt lat="45.50066" lon="6.91593">
        <ele>1879.03</ele>
        <time>2011-06-26T11:56:23Z</time>
      </trkpt>
      <trkpt lat="45.50081" lon="6.9158">
        <ele>1876.15</ele>
        <time>2011-06-26T11:56:32Z</time>
      </trkpt>
      <trkpt lat="45.50093" lon="6.91567">
        <ele>1872.3</ele>
        <time>2011-06-26T11:56:41Z</time>
      </trkpt>
      <trkpt lat="45.50104" lon="6.91561">
        <ele>1870.38</ele>
        <time>2011-06-26T11:56:47Z</time>
      </trkpt>
      <trkpt lat="45.50112" lon="6.91556">
        <ele>1868.46</ele>
        <time>2011-06-26T11:56:52Z</time>
      </trkpt>
      <trkpt lat="45.50121" lon="6.91552">
        <ele>1866.54</ele>
        <time>2011-06-26T11:56:57Z</time>
      </trkpt>
      <trkpt lat="45.50128" lon="6.91549">
        <ele>1865.09</ele>
        <time>2011-06-26T11:57:00Z</time>
      </trkpt>
      <trkpt lat="45.5014" lon="6.9154">
        <ele>1863.17</ele>
        <time>2011-06-26T11:57:07Z</time>
      </trkpt>
      <trkpt lat="45.50154" lon="6.91532">
        <ele>1860.29</ele>
        <time>2011-06-26T11:57:15Z</time>
      </trkpt>
      <trkpt lat="45.50156" lon="6.91533">
        <ele>1860.29</ele>
        <time>2011-06-26T11:57:16Z</time>
      </trkpt>
      <trkpt lat="45.5016" lon="6.91535">
        <ele>1859.81</ele>
        <time>2011-06-26T11:57:18Z</time>
      </trkpt>
      <trkpt lat="45.50167" lon="6.91534">
        <ele>1855.48</ele>
        <time>2011-06-26T11:57:23Z</time>
      </trkpt>
      <trkpt lat="45.50168" lon="6.91533">
        <ele>1856.44</ele>
        <time>2011-06-26T11:57:24Z</time>
      </trkpt>
      <trkpt lat="45.50173" lon="6.9153">
        <ele>1853.56</ele>
        <time>2011-06-26T11:57:28Z</time>
      </trkpt>
      <trkpt lat="45.50176" lon="6.91529">
        <ele>1853.56</ele>
        <time>2011-06-26T11:57:30Z</time>
      </trkpt>
      <trkpt lat="45.5018" lon="6.91529">
        <ele>1851.64</ele>
        <time>2011-06-26T11:57:34Z</time>
      </trkpt>
      <trkpt lat="45.50188" lon="6.91528">
        <ele>1847.79</ele>
        <time>2011-06-26T11:57:39Z</time>
      </trkpt>
      <trkpt lat="45.50194" lon="6.91528">
        <ele>1846.83</ele>
        <time>2011-06-26T11:57:43Z</time>
      </trkpt>
      <trkpt lat="45.50198" lon="6.91527">
        <ele>1844.91</ele>
        <time>2011-06-26T11:57:46Z</time>
      </trkpt>
      <trkpt lat="45.50202" lon="6.91527">
        <ele>1842.5</ele>
        <time>2011-06-26T11:57:49Z</time>
      </trkpt>
      <trkpt lat="45.50207" lon="6.91528">
        <ele>1841.06</ele>
        <time>2011-06-26T11:57:52Z</time>
      </trkpt>
      <trkpt lat="45.50215" lon="6.9153">
        <ele>1839.62</ele>
        <time>2011-06-26T11:57:56Z</time>
      </trkpt>
      <trkpt lat="45.50216" lon="6.91531">
        <ele>1838.18</ele>
        <time>2011-06-26T11:57:57Z</time>
      </trkpt>
      <trkpt lat="45.50221" lon="6.91534">
        <ele>1836.74</ele>
        <time>2011-06-26T11:58:00Z</time>
      </trkpt>
      <trkpt lat="45.50234" lon="6.91544">
        <ele>1832.41</ele>
        <time>2011-06-26T11:58:07Z</time>
      </trkpt>
      <trkpt lat="45.50236" lon="6.91545">
        <ele>1832.89</ele>
        <time>2011-06-26T11:58:08Z</time>
      </trkpt>
      <trkpt lat="45.50239" lon="6.91546">
        <ele>1832.41</ele>
        <time>2011-06-26T11:58:10Z</time>
      </trkpt>
      <trkpt lat="45.50244" lon="6.91547">
        <ele>1829.53</ele>
        <time>2011-06-26T11:58:15Z</time>
      </trkpt>
      <trkpt lat="45.50252" lon="6.91549">
        <ele>1826.64</ele>
        <time>2011-06-26T11:58:19Z</time>
      </trkpt>
      <trkpt lat="45.50256" lon="6.91551">
        <ele>1824.72</ele>
        <time>2011-06-26T11:58:21Z</time>
      </trkpt>
      <trkpt lat="45.50261" lon="6.91551">
        <ele>1824.24</ele>
        <time>2011-06-26T11:58:24Z</time>
      </trkpt>
      <trkpt lat="45.50267" lon="6.91552">
        <ele>1822.32</ele>
        <time>2011-06-26T11:58:28Z</time>
      </trkpt>
      <trkpt lat="45.50275" lon="6.91553">
        <ele>1819.91</ele>
        <time>2011-06-26T11:58:34Z</time>
      </trkpt>
      <trkpt lat="45.5028" lon="6.91555">
        <ele>1818.47</ele>
        <time>2011-06-26T11:58:38Z</time>
      </trkpt>
      <trkpt lat="45.50293" lon="6.91551">
        <ele>1814.15</ele>
        <time>2011-06-26T11:58:49Z</time>
      </trkpt>
      <trkpt lat="45.50296" lon="6.91549">
        <ele>1814.15</ele>
        <time>2011-06-26T11:58:52Z</time>
      </trkpt>
      <trkpt lat="45.50304" lon="6.91543">
        <ele>1811.74</ele>
        <time>2011-06-26T11:59:05Z</time>
      </trkpt>
      <trkpt lat="45.50306" lon="6.9154">
        <ele>1809.82</ele>
        <time>2011-06-26T11:59:08Z</time>
      </trkpt>
      <trkpt lat="45.50307" lon="6.91538">
        <ele>1808.86</ele>
        <time>2011-06-26T11:59:10Z</time>
      </trkpt>
      <trkpt lat="45.50308" lon="6.91536">
        <ele>1808.38</ele>
        <time>2011-06-26T11:59:12Z</time>
      </trkpt>
      <trkpt lat="45.50312" lon="6.91533">
        <ele>1806.94</ele>
        <time>2011-06-26T11:59:15Z</time>
      </trkpt>
      <trkpt lat="45.5032" lon="6.9153">
        <ele>1803.57</ele>
        <time>2011-06-26T11:59:21Z</time>
      </trkpt>
      <trkpt lat="45.50327" lon="6.9154">
        <ele>1801.17</ele>
        <time>2011-06-26T11:59:30Z</time>
      </trkpt>
      <trkpt lat="45.50328" lon="6.9155">
        <ele>1799.73</ele>
        <time>2011-06-26T11:59:36Z</time>
      </trkpt>
      <trkpt lat="45.50329" lon="6.91556">
        <ele>1798.28</ele>
        <time>2011-06-26T11:59:44Z</time>
      </trkpt>
      <trkpt lat="45.50331" lon="6.91554">
        <ele>1796.84</ele>
        <time>2011-06-26T11:59:46Z</time>
      </trkpt>
      <trkpt lat="45.50332" lon="6.91556">
        <ele>1794.92</ele>
        <time>2011-06-26T11:59:51Z</time>
      </trkpt>
      <trkpt lat="45.50328" lon="6.91566">
        <ele>1791.07</ele>
        <time>2011-06-26T12:00:00Z</time>
      </trkpt>
      <trkpt lat="45.50335" lon="6.91562">
        <ele>1789.63</ele>
        <time>2011-06-26T12:00:04Z</time>
      </trkpt>
      <trkpt lat="45.50339" lon="6.91561">
        <ele>1789.15</ele>
        <time>2011-06-26T12:00:06Z</time>
      </trkpt>
      <trkpt lat="45.5034" lon="6.91566">
        <ele>1787.71</ele>
        <time>2011-06-26T12:00:10Z</time>
      </trkpt>
      <trkpt lat="45.50336" lon="6.91594">
        <ele>1781.46</ele>
        <time>2011-06-26T12:00:19Z</time>
      </trkpt>
      <trkpt lat="45.50335" lon="6.91597">
        <ele>1781.46</ele>
        <time>2011-06-26T12:00:20Z</time>
      </trkpt>
      <trkpt lat="45.50331" lon="6.91608">
        <ele>1778.1</ele>
        <time>2011-06-26T12:00:25Z</time>
      </trkpt>
      <trkpt lat="45.5033" lon="6.9161">
        <ele>1777.61</ele>
        <time>2011-06-26T12:00:26Z</time>
      </trkpt>
      <trkpt lat="45.50325" lon="6.9162">
        <ele>1776.17</ele>
        <time>2011-06-26T12:00:30Z</time>
      </trkpt>
      <trkpt lat="45.5032" lon="6.91626">
        <ele>1774.25</ele>
        <time>2011-06-26T12:00:34Z</time>
      </trkpt>
      <trkpt lat="45.50314" lon="6.91633">
        <ele>1771.37</ele>
        <time>2011-06-26T12:00:39Z</time>
      </trkpt>
      <trkpt lat="45.50313" lon="6.91635">
        <ele>1771.85</ele>
        <time>2011-06-26T12:00:40Z</time>
      </trkpt>
      <trkpt lat="45.50307" lon="6.91643">
        <ele>1768.96</ele>
        <time>2011-06-26T12:00:45Z</time>
      </trkpt>
      <trkpt lat="45.50305" lon="6.91647">
        <ele>1768</ele>
        <time>2011-06-26T12:00:47Z</time>
      </trkpt>
      <trkpt lat="45.50303" lon="6.91652">
        <ele>1766.08</ele>
        <time>2011-06-26T12:00:49Z</time>
      </trkpt>
      <trkpt lat="45.50303" lon="6.91657">
        <ele>1763.68</ele>
        <time>2011-06-26T12:01:01Z</time>
      </trkpt>
      <trkpt lat="45.50311" lon="6.91657">
        <ele>1763.2</ele>
        <time>2011-06-26T12:01:05Z</time>
      </trkpt>
      <trkpt lat="45.5032" lon="6.91653">
        <ele>1762.23</ele>
        <time>2011-06-26T12:01:09Z</time>
      </trkpt>
      <trkpt lat="45.50328" lon="6.91645">
        <ele>1760.31</ele>
        <time>2011-06-26T12:01:17Z</time>
      </trkpt>
      <trkpt lat="45.50346" lon="6.91642">
        <ele>1755.99</ele>
        <time>2011-06-26T12:01:28Z</time>
      </trkpt>
      <trkpt lat="45.50349" lon="6.9164">
        <ele>1755.99</ele>
        <time>2011-06-26T12:01:30Z</time>
      </trkpt>
      <trkpt lat="45.50356" lon="6.91636">
        <ele>1754.06</ele>
        <time>2011-06-26T12:01:33Z</time>
      </trkpt>
      <trkpt lat="45.50358" lon="6.91635">
        <ele>1754.06</ele>
        <time>2011-06-26T12:01:34Z</time>
      </trkpt>
      <trkpt lat="45.50364" lon="6.91631">
        <ele>1752.14</ele>
        <time>2011-06-26T12:01:37Z</time>
      </trkpt>
      <trkpt lat="45.50369" lon="6.91623">
        <ele>1750.7</ele>
        <time>2011-06-26T12:01:41Z</time>
      </trkpt>
      <trkpt lat="45.50374" lon="6.91616">
        <ele>1748.78</ele>
        <time>2011-06-26T12:01:45Z</time>
      </trkpt>
      <trkpt lat="45.50378" lon="6.91608">
        <ele>1745.41</ele>
        <time>2011-06-26T12:01:49Z</time>
      </trkpt>
      <trkpt lat="45.50379" lon="6.91607">
        <ele>1745.41</ele>
        <time>2011-06-26T12:01:51Z</time>
      </trkpt>
      <trkpt lat="45.50383" lon="6.91627">
        <ele>1741.57</ele>
        <time>2011-06-26T12:01:59Z</time>
      </trkpt>
      <trkpt lat="45.50386" lon="6.9164">
        <ele>1738.2</ele>
        <time>2011-06-26T12:02:04Z</time>
      </trkpt>
      <trkpt lat="45.50386" lon="6.91642">
        <ele>1738.2</ele>
        <time>2011-06-26T12:02:05Z</time>
      </trkpt>
      <trkpt lat="45.50389" lon="6.91655">
        <ele>1735.32</ele>
        <time>2011-06-26T12:02:10Z</time>
      </trkpt>
      <trkpt lat="45.50389" lon="6.91662">
        <ele>1734.36</ele>
        <time>2011-06-26T12:02:13Z</time>
      </trkpt>
      <trkpt lat="45.50386" lon="6.9167">
        <ele>1730.99</ele>
        <time>2011-06-26T12:02:17Z</time>
      </trkpt>
      <trkpt lat="45.50378" lon="6.91685">
        <ele>1727.15</ele>
        <time>2011-06-26T12:02:23Z</time>
      </trkpt>
      <trkpt lat="45.50361" lon="6.91714">
        <ele>1722.82</ele>
        <time>2011-06-26T12:02:33Z</time>
      </trkpt>
      <trkpt lat="45.50359" lon="6.91716">
        <ele>1722.82</ele>
        <time>2011-06-26T12:02:34Z</time>
      </trkpt>
      <trkpt lat="45.5034" lon="6.91728">
        <ele>1719.46</ele>
        <time>2011-06-26T12:02:42Z</time>
      </trkpt>
      <trkpt lat="45.50339" lon="6.91729">
        <ele>1719.46</ele>
        <time>2011-06-26T12:02:43Z</time>
      </trkpt>
      <trkpt lat="45.50326" lon="6.91742">
        <ele>1716.09</ele>
        <time>2011-06-26T12:02:50Z</time>
      </trkpt>
      <trkpt lat="45.5032" lon="6.9174">
        <ele>1715.61</ele>
        <time>2011-06-26T12:02:59Z</time>
      </trkpt>
      <trkpt lat="45.50321" lon="6.91739">
        <ele>1715.61</ele>
        <time>2011-06-26T12:03:06Z</time>
      </trkpt>
      <trkpt lat="45.50318" lon="6.91738">
        <ele>1714.65</ele>
        <time>2011-06-26T12:03:17Z</time>
      </trkpt>
      <trkpt lat="45.50316" lon="6.9174">
        <ele>1715.13</ele>
        <time>2011-06-26T12:03:19Z</time>
      </trkpt>
      <trkpt lat="45.50316" lon="6.91747">
        <ele>1713.69</ele>
        <time>2011-06-26T12:03:23Z</time>
      </trkpt>
      <trkpt lat="45.50321" lon="6.91751">
        <ele>1711.76</ele>
        <time>2011-06-26T12:03:27Z</time>
      </trkpt>
      <trkpt lat="45.50325" lon="6.91753">
        <ele>1710.8</ele>
        <time>2011-06-26T12:03:29Z</time>
      </trkpt>
      <trkpt lat="45.50335" lon="6.91758">
        <ele>1707.44</ele>
        <time>2011-06-26T12:03:34Z</time>
      </trkpt>
      <trkpt lat="45.5034" lon="6.91768">
        <ele>1706.48</ele>
        <time>2011-06-26T12:03:39Z</time>
      </trkpt>
      <trkpt lat="45.50331" lon="6.91782">
        <ele>1703.11</ele>
        <time>2011-06-26T12:03:46Z</time>
      </trkpt>
      <trkpt lat="45.50328" lon="6.91791">
        <ele>1701.67</ele>
        <time>2011-06-26T12:03:50Z</time>
      </trkpt>
      <trkpt lat="45.50326" lon="6.91798">
        <ele>1700.23</ele>
        <time>2011-06-26T12:03:53Z</time>
      </trkpt>
      <trkpt lat="45.50324" lon="6.91803">
        <ele>1698.31</ele>
        <time>2011-06-26T12:03:55Z</time>
      </trkpt>
      <trkpt lat="45.50315" lon="6.91826">
        <ele>1695.9</ele>
        <time>2011-06-26T12:04:04Z</time>
      </trkpt>
      <trkpt lat="45.50319" lon="6.91822">
        <ele>1695.9</ele>
        <time>2011-06-26T12:04:08Z</time>
      </trkpt>
      <trkpt lat="45.50333" lon="6.91809">
        <ele>1693.02</ele>
        <time>2011-06-26T12:04:17Z</time>
      </trkpt>
      <trkpt lat="45.50343" lon="6.91808">
        <ele>1690.62</ele>
        <time>2011-06-26T12:04:23Z</time>
      </trkpt>
      <trkpt lat="45.50347" lon="6.91806">
        <ele>1689.65</ele>
        <time>2011-06-26T12:04:25Z</time>
      </trkpt>
      <trkpt lat="45.50358" lon="6.91809">
        <ele>1685.33</ele>
        <time>2011-06-26T12:04:32Z</time>
      </trkpt>
      <trkpt lat="45.50359" lon="6.9181">
        <ele>1685.33</ele>
        <time>2011-06-26T12:04:33Z</time>
      </trkpt>
      <trkpt lat="45.50364" lon="6.91812">
        <ele>1683.41</ele>
        <time>2011-06-26T12:04:36Z</time>
      </trkpt>
      <trkpt lat="45.50369" lon="6.91812">
        <ele>1680.52</ele>
        <time>2011-06-26T12:04:39Z</time>
      </trkpt>
      <trkpt lat="45.50373" lon="6.91812">
        <ele>1679.56</ele>
        <time>2011-06-26T12:04:41Z</time>
      </trkpt>
      <trkpt lat="45.50375" lon="6.91811">
        <ele>1679.56</ele>
        <time>2011-06-26T12:04:42Z</time>
      </trkpt>
      <trkpt lat="45.50384" lon="6.91807">
        <ele>1676.68</ele>
        <time>2011-06-26T12:04:47Z</time>
      </trkpt>
      <trkpt lat="45.50395" lon="6.918">
        <ele>1675.23</ele>
        <time>2011-06-26T12:04:52Z</time>
      </trkpt>
      <trkpt lat="45.50407" lon="6.91788">
        <ele>1671.39</ele>
        <time>2011-06-26T12:04:59Z</time>
      </trkpt>
      <trkpt lat="45.5041" lon="6.91786">
        <ele>1670.91</ele>
        <time>2011-06-26T12:05:01Z</time>
      </trkpt>
      <trkpt lat="45.50419" lon="6.91781">
        <ele>1668.02</ele>
        <time>2011-06-26T12:05:07Z</time>
      </trkpt>
      <trkpt lat="45.50425" lon="6.91776">
        <ele>1666.58</ele>
        <time>2011-06-26T12:05:15Z</time>
      </trkpt>
      <trkpt lat="45.50428" lon="6.91769">
        <ele>1664.18</ele>
        <time>2011-06-26T12:05:20Z</time>
      </trkpt>
      <trkpt lat="45.50429" lon="6.91765">
        <ele>1662.26</ele>
        <time>2011-06-26T12:05:23Z</time>
      </trkpt>
      <trkpt lat="45.50433" lon="6.9177">
        <ele>1660.81</ele>
        <time>2011-06-26T12:05:29Z</time>
      </trkpt>
      <trkpt lat="45.50438" lon="6.91784">
        <ele>1658.41</ele>
        <time>2011-06-26T12:05:35Z</time>
      </trkpt>
      <trkpt lat="45.50439" lon="6.91777">
        <ele>1656.97</ele>
        <time>2011-06-26T12:05:40Z</time>
      </trkpt>
      <trkpt lat="45.5044" lon="6.91772">
        <ele>1656.01</ele>
        <time>2011-06-26T12:05:42Z</time>
      </trkpt>
      <trkpt lat="45.50442" lon="6.91775">
        <ele>1652.64</ele>
        <time>2011-06-26T12:05:48Z</time>
      </trkpt>
      <trkpt lat="45.50443" lon="6.9178">
        <ele>1653.6</ele>
        <time>2011-06-26T12:05:50Z</time>
      </trkpt>
      <trkpt lat="45.50448" lon="6.91791">
        <ele>1650.24</ele>
        <time>2011-06-26T12:05:55Z</time>
      </trkpt>
      <trkpt lat="45.50449" lon="6.91792">
        <ele>1648.8</ele>
        <time>2011-06-26T12:05:56Z</time>
      </trkpt>
      <trkpt lat="45.5045" lon="6.9179">
        <ele>1649.28</ele>
        <time>2011-06-26T12:05:58Z</time>
      </trkpt>
      <trkpt lat="45.50452" lon="6.91783">
        <ele>1645.91</ele>
        <time>2011-06-26T12:06:02Z</time>
      </trkpt>
      <trkpt lat="45.50453" lon="6.91778">
        <ele>1646.4</ele>
        <time>2011-06-26T12:06:05Z</time>
      </trkpt>
      <trkpt lat="45.50454" lon="6.91775">
        <ele>1644.95</ele>
        <time>2011-06-26T12:06:08Z</time>
      </trkpt>
      <trkpt lat="45.5046" lon="6.91787">
        <ele>1642.07</ele>
        <time>2011-06-26T12:06:15Z</time>
      </trkpt>
      <trkpt lat="45.50464" lon="6.91794">
        <ele>1640.15</ele>
        <time>2011-06-26T12:06:20Z</time>
      </trkpt>
      <trkpt lat="45.50466" lon="6.91791">
        <ele>1639.19</ele>
        <time>2011-06-26T12:06:22Z</time>
      </trkpt>
      <trkpt lat="45.50466" lon="6.91789">
        <ele>1638.7</ele>
        <time>2011-06-26T12:06:23Z</time>
      </trkpt>
      <trkpt lat="45.50467" lon="6.91786">
        <ele>1638.22</ele>
        <time>2011-06-26T12:06:25Z</time>
      </trkpt>
      <trkpt lat="45.50472" lon="6.91791">
        <ele>1634.86</ele>
        <time>2011-06-26T12:06:31Z</time>
      </trkpt>
      <trkpt lat="45.50476" lon="6.91796">
        <ele>1632.46</ele>
        <time>2011-06-26T12:06:36Z</time>
      </trkpt>
      <trkpt lat="45.50485" lon="6.91803">
        <ele>1629.09</ele>
        <time>2011-06-26T12:06:43Z</time>
      </trkpt>
      <trkpt lat="45.50487" lon="6.91806">
        <ele>1628.13</ele>
        <time>2011-06-26T12:06:45Z</time>
      </trkpt>
      <trkpt lat="45.50494" lon="6.91824">
        <ele>1627.17</ele>
        <time>2011-06-26T12:06:52Z</time>
      </trkpt>
      <trkpt lat="45.50499" lon="6.91831">
        <ele>1625.25</ele>
        <time>2011-06-26T12:06:56Z</time>
      </trkpt>
      <trkpt lat="45.50505" lon="6.91839">
        <ele>1621.88</ele>
        <time>2011-06-26T12:07:01Z</time>
      </trkpt>
      <trkpt lat="45.50512" lon="6.9185">
        <ele>1619.48</ele>
        <time>2011-06-26T12:07:07Z</time>
      </trkpt>
      <trkpt lat="45.50517" lon="6.91854">
        <ele>1618.04</ele>
        <time>2011-06-26T12:07:11Z</time>
      </trkpt>
      <trkpt lat="45.50519" lon="6.91858">
        <ele>1616.59</ele>
        <time>2011-06-26T12:07:13Z</time>
      </trkpt>
      <trkpt lat="45.50522" lon="6.91866">
        <ele>1615.15</ele>
        <time>2011-06-26T12:07:17Z</time>
      </trkpt>
      <trkpt lat="45.50532" lon="6.91888">
        <ele>1610.83</ele>
        <time>2011-06-26T12:07:26Z</time>
      </trkpt>
      <trkpt lat="45.50533" lon="6.9189">
        <ele>1610.83</ele>
        <time>2011-06-26T12:07:27Z</time>
      </trkpt>
      <trkpt lat="45.50535" lon="6.91894">
        <ele>1609.38</ele>
        <time>2011-06-26T12:07:29Z</time>
      </trkpt>
      <trkpt lat="45.50541" lon="6.91907">
        <ele>1605.54</ele>
        <time>2011-06-26T12:07:36Z</time>
      </trkpt>
      <trkpt lat="45.50542" lon="6.91909">
        <ele>1605.06</ele>
        <time>2011-06-26T12:07:37Z</time>
      </trkpt>
      <trkpt lat="45.50543" lon="6.91912">
        <ele>1604.58</ele>
        <time>2011-06-26T12:07:39Z</time>
      </trkpt>
      <trkpt lat="45.50547" lon="6.91911">
        <ele>1603.14</ele>
        <time>2011-06-26T12:07:42Z</time>
      </trkpt>
      <trkpt lat="45.50553" lon="6.91915">
        <ele>1601.21</ele>
        <time>2011-06-26T12:07:47Z</time>
      </trkpt>
      <trkpt lat="45.50556" lon="6.91955">
        <ele>1599.29</ele>
        <time>2011-06-26T12:08:00Z</time>
      </trkpt>
      <trkpt lat="45.5056" lon="6.91994">
        <ele>1596.41</ele>
        <time>2011-06-26T12:08:13Z</time>
      </trkpt>
      <trkpt lat="45.50574" lon="6.92024">
        <ele>1594.48</ele>
        <time>2011-06-26T12:08:26Z</time>
      </trkpt>
      <trkpt lat="45.5059" lon="6.92043">
        <ele>1594</ele>
        <time>2011-06-26T12:08:36Z</time>
      </trkpt>
      <trkpt lat="45.50614" lon="6.92051">
        <ele>1592.08</ele>
        <time>2011-06-26T12:08:47Z</time>
      </trkpt>
      <trkpt lat="45.50621" lon="6.92054">
        <ele>1592.08</ele>
        <time>2011-06-26T12:08:50Z</time>
      </trkpt>
      <trkpt lat="45.50635" lon="6.92054">
        <ele>1591.12</ele>
        <time>2011-06-26T12:08:56Z</time>
      </trkpt>
      <trkpt lat="45.50658" lon="6.92053">
        <ele>1592.08</ele>
        <time>2011-06-26T12:09:06Z</time>
      </trkpt>
      <trkpt lat="45.50687" lon="6.92059">
        <ele>1590.64</ele>
        <time>2011-06-26T12:09:19Z</time>
      </trkpt>
    </trkseg>
  </trk>
  <trk>
    <name><![CDATA[ACTIVE LOG: 26 JUN 2011 14:12]]></name>
    <trkseg>
      <trkpt lat="45.50839" lon="6.91987">
        <ele>1564.68</ele>
        <time>2011-06-26T12:12:11Z</time>
      </trkpt>
      <trkpt lat="45.50836" lon="6.91986">
        <ele>1548.34</ele>
        <time>2011-06-26T12:12:13Z</time>
      </trkpt>
      <trkpt lat="45.50835" lon="6.91984">
        <ele>1548.34</ele>
        <time>2011-06-26T12:12:14Z</time>
      </trkpt>
      <trkpt lat="45.50851" lon="6.91978">
        <ele>1549.3</ele>
        <time>2011-06-26T12:12:27Z</time>
      </trkpt>
      <trkpt lat="45.50859" lon="6.91978">
        <ele>1549.78</ele>
        <time>2011-06-26T12:12:31Z</time>
      </trkpt>
      <trkpt lat="45.50889" lon="6.91977">
        <ele>1549.78</ele>
        <time>2011-06-26T12:12:44Z</time>
      </trkpt>
      <trkpt lat="45.50909" lon="6.91976">
        <ele>1550.26</ele>
        <time>2011-06-26T12:12:55Z</time>
      </trkpt>
      <trkpt lat="45.50929" lon="6.91989">
        <ele>1549.78</ele>
        <time>2011-06-26T12:13:09Z</time>
      </trkpt>
      <trkpt lat="45.50958" lon="6.91999">
        <ele>1550.26</ele>
        <time>2011-06-26T12:13:26Z</time>
      </trkpt>
      <trkpt lat="45.50984" lon="6.91993">
        <ele>1551.71</ele>
        <time>2011-06-26T12:13:37Z</time>
      </trkpt>
      <trkpt lat="45.51005" lon="6.91983">
        <ele>1550.74</ele>
        <time>2011-06-26T12:13:48Z</time>
      </trkpt>
      <trkpt lat="45.51031" lon="6.91965">
        <ele>1550.74</ele>
        <time>2011-06-26T12:14:01Z</time>
      </trkpt>
      <trkpt lat="45.51039" lon="6.91953">
        <ele>1551.71</ele>
        <time>2011-06-26T12:14:06Z</time>
      </trkpt>
      <trkpt lat="45.51041" lon="6.91947">
        <ele>1551.22</ele>
        <time>2011-06-26T12:14:08Z</time>
      </trkpt>
      <trkpt lat="45.51044" lon="6.91935">
        <ele>1552.67</ele>
        <time>2011-06-26T12:14:12Z</time>
      </trkpt>
      <trkpt lat="45.51049" lon="6.91926">
        <ele>1551.71</ele>
        <time>2011-06-26T12:14:16Z</time>
      </trkpt>
      <trkpt lat="45.51063" lon="6.91901">
        <ele>1552.67</ele>
        <time>2011-06-26T12:14:27Z</time>
      </trkpt>
      <trkpt lat="45.51073" lon="6.9187">
        <ele>1552.67</ele>
        <time>2011-06-26T12:14:38Z</time>
      </trkpt>
      <trkpt lat="45.51084" lon="6.91844">
        <ele>1552.67</ele>
        <time>2011-06-26T12:14:48Z</time>
      </trkpt>
      <trkpt lat="45.51096" lon="6.91816">
        <ele>1553.63</ele>
        <time>2011-06-26T12:14:59Z</time>
      </trkpt>
      <trkpt lat="45.511" lon="6.91804">
        <ele>1553.63</ele>
        <time>2011-06-26T12:15:04Z</time>
      </trkpt>
      <trkpt lat="45.51105" lon="6.9179">
        <ele>1553.63</ele>
        <time>2011-06-26T12:15:10Z</time>
      </trkpt>
      <trkpt lat="45.51107" lon="6.91785">
        <ele>1553.63</ele>
        <time>2011-06-26T12:15:12Z</time>
      </trkpt>
      <trkpt lat="45.51113" lon="6.91773">
        <ele>1554.11</ele>
        <time>2011-06-26T12:15:17Z</time>
      </trkpt>
      <trkpt lat="45.51128" lon="6.91747">
        <ele>1554.59</ele>
        <time>2011-06-26T12:15:29Z</time>
      </trkpt>
      <trkpt lat="45.51137" lon="6.91734">
        <ele>1554.59</ele>
        <time>2011-06-26T12:15:35Z</time>
      </trkpt>
      <trkpt lat="45.51153" lon="6.91701">
        <ele>1555.07</ele>
        <time>2011-06-26T12:15:48Z</time>
      </trkpt>
      <trkpt lat="45.51168" lon="6.91676">
        <ele>1554.59</ele>
        <time>2011-06-26T12:15:59Z</time>
      </trkpt>
      <trkpt lat="45.51187" lon="6.91657">
        <ele>1555.07</ele>
        <time>2011-06-26T12:16:10Z</time>
      </trkpt>
      <trkpt lat="45.512" lon="6.91648">
        <ele>1554.59</ele>
        <time>2011-06-26T12:16:16Z</time>
      </trkpt>
      <trkpt lat="45.51211" lon="6.91643">
        <ele>1555.07</ele>
        <time>2011-06-26T12:16:22Z</time>
      </trkpt>
      <trkpt lat="45.51216" lon="6.91639">
        <ele>1554.11</ele>
        <time>2011-06-26T12:16:25Z</time>
      </trkpt>
      <trkpt lat="45.51218" lon="6.91637">
        <ele>1555.07</ele>
        <time>2011-06-26T12:16:26Z</time>
      </trkpt>
      <trkpt lat="45.51227" lon="6.91632">
        <ele>1554.59</ele>
        <time>2011-06-26T12:16:31Z</time>
      </trkpt>
      <trkpt lat="45.51235" lon="6.91627">
        <ele>1555.07</ele>
        <time>2011-06-26T12:16:35Z</time>
      </trkpt>
      <trkpt lat="45.51243" lon="6.91623">
        <ele>1553.15</ele>
        <time>2011-06-26T12:16:39Z</time>
      </trkpt>
      <trkpt lat="45.51255" lon="6.91616">
        <ele>1550.26</ele>
        <time>2011-06-26T12:16:45Z</time>
      </trkpt>
      <trkpt lat="45.51259" lon="6.91614">
        <ele>1554.11</ele>
        <time>2011-06-26T12:16:47Z</time>
      </trkpt>
      <trkpt lat="45.51284" lon="6.91602">
        <ele>1553.63</ele>
        <time>2011-06-26T12:16:58Z</time>
      </trkpt>
      <trkpt lat="45.51304" lon="6.91586">
        <ele>1554.11</ele>
        <time>2011-06-26T12:17:09Z</time>
      </trkpt>
      <trkpt lat="45.51312" lon="6.91583">
        <ele>1553.15</ele>
        <time>2011-06-26T12:17:13Z</time>
      </trkpt>
      <trkpt lat="45.51316" lon="6.91582">
        <ele>1555.07</ele>
        <time>2011-06-26T12:17:15Z</time>
      </trkpt>
      <trkpt lat="45.51343" lon="6.91566">
        <ele>1554.59</ele>
        <time>2011-06-26T12:17:27Z</time>
      </trkpt>
      <trkpt lat="45.5137" lon="6.91549">
        <ele>1555.07</ele>
        <time>2011-06-26T12:17:39Z</time>
      </trkpt>
      <trkpt lat="45.51396" lon="6.91535">
        <ele>1556.03</ele>
        <time>2011-06-26T12:17:51Z</time>
      </trkpt>
      <trkpt lat="45.51417" lon="6.91523">
        <ele>1556.03</ele>
        <time>2011-06-26T12:18:02Z</time>
      </trkpt>
      <trkpt lat="45.51423" lon="6.91517">
        <ele>1553.63</ele>
        <time>2011-06-26T12:18:07Z</time>
      </trkpt>
      <trkpt lat="45.51428" lon="6.91507">
        <ele>1550.74</ele>
        <time>2011-06-26T12:18:16Z</time>
      </trkpt>
      <trkpt lat="45.51437" lon="6.91495">
        <ele>1549.78</ele>
        <time>2011-06-26T12:18:23Z</time>
      </trkpt>
      <trkpt lat="45.51441" lon="6.91491">
        <ele>1549.3</ele>
        <time>2011-06-26T12:18:26Z</time>
      </trkpt>
      <trkpt lat="45.51454" lon="6.91484">
        <ele>1548.82</ele>
        <time>2011-06-26T12:18:33Z</time>
      </trkpt>
      <trkpt lat="45.51461" lon="6.91478">
        <ele>1547.86</ele>
        <time>2011-06-26T12:18:38Z</time>
      </trkpt>
      <trkpt lat="45.51471" lon="6.91475">
        <ele>1548.34</ele>
        <time>2011-06-26T12:18:43Z</time>
      </trkpt>
      <trkpt lat="45.51481" lon="6.91477">
        <ele>1549.3</ele>
        <time>2011-06-26T12:18:50Z</time>
      </trkpt>
      <trkpt lat="45.51495" lon="6.91486">
        <ele>1547.86</ele>
        <time>2011-06-26T12:18:58Z</time>
      </trkpt>
      <trkpt lat="45.51516" lon="6.91488">
        <ele>1548.34</ele>
        <time>2011-06-26T12:19:08Z</time>
      </trkpt>
      <trkpt lat="45.5152" lon="6.91487">
        <ele>1548.34</ele>
        <time>2011-06-26T12:19:10Z</time>
      </trkpt>
      <trkpt lat="45.51528" lon="6.91483">
        <ele>1547.86</ele>
        <time>2011-06-26T12:19:14Z</time>
      </trkpt>
      <trkpt lat="45.51532" lon="6.91481">
        <ele>1549.3</ele>
        <time>2011-06-26T12:19:16Z</time>
      </trkpt>
      <trkpt lat="45.51544" lon="6.91464">
        <ele>1549.78</ele>
        <time>2011-06-26T12:19:27Z</time>
      </trkpt>
      <trkpt lat="45.51554" lon="6.91456">
        <ele>1548.82</ele>
        <time>2011-06-26T12:19:32Z</time>
      </trkpt>
      <trkpt lat="45.51568" lon="6.9145">
        <ele>1547.86</ele>
        <time>2011-06-26T12:19:39Z</time>
      </trkpt>
      <trkpt lat="45.51576" lon="6.91446">
        <ele>1546.42</ele>
        <time>2011-06-26T12:19:43Z</time>
      </trkpt>
      <trkpt lat="45.51584" lon="6.9144">
        <ele>1544.98</ele>
        <time>2011-06-26T12:19:47Z</time>
      </trkpt>
      <trkpt lat="45.51587" lon="6.91437">
        <ele>1543.53</ele>
        <time>2011-06-26T12:19:49Z</time>
      </trkpt>
      <trkpt lat="45.51603" lon="6.91427">
        <ele>1542.57</ele>
        <time>2011-06-26T12:19:57Z</time>
      </trkpt>
      <trkpt lat="45.51606" lon="6.9142">
        <ele>1541.61</ele>
        <time>2011-06-26T12:19:59Z</time>
      </trkpt>
      <trkpt lat="45.51615" lon="6.91408">
        <ele>1540.65</ele>
        <time>2011-06-26T12:20:04Z</time>
      </trkpt>
      <trkpt lat="45.51623" lon="6.91402">
        <ele>1540.17</ele>
        <time>2011-06-26T12:20:08Z</time>
      </trkpt>
      <trkpt lat="45.51625" lon="6.91396">
        <ele>1539.69</ele>
        <time>2011-06-26T12:20:17Z</time>
      </trkpt>
      <trkpt lat="45.51634" lon="6.91383">
        <ele>1539.21</ele>
        <time>2011-06-26T12:20:38Z</time>
      </trkpt>
      <trkpt lat="45.51638" lon="6.91363">
        <ele>1535.36</ele>
        <time>2011-06-26T12:20:47Z</time>
      </trkpt>
      <trkpt lat="45.51643" lon="6.91358">
        <ele>1534.88</ele>
        <time>2011-06-26T12:20:52Z</time>
      </trkpt>
      <trkpt lat="45.51645" lon="6.9136">
        <ele>1535.36</ele>
        <time>2011-06-26T12:20:59Z</time>
      </trkpt>
      <trkpt lat="45.51642" lon="6.91369">
        <ele>1536.32</ele>
        <time>2011-06-26T12:21:06Z</time>
      </trkpt>
      <trkpt lat="45.51637" lon="6.91377">
        <ele>1537.29</ele>
        <time>2011-06-26T12:21:12Z</time>
      </trkpt>
      <trkpt lat="45.51636" lon="6.9138">
        <ele>1538.25</ele>
        <time>2011-06-26T12:21:14Z</time>
      </trkpt>
      <trkpt lat="45.51635" lon="6.91389">
        <ele>1538.73</ele>
        <time>2011-06-26T12:21:22Z</time>
      </trkpt>
      <trkpt lat="45.51639" lon="6.91385">
        <ele>1539.69</ele>
        <time>2011-06-26T12:21:26Z</time>
      </trkpt>
      <trkpt lat="45.51648" lon="6.91373">
        <ele>1540.17</ele>
        <time>2011-06-26T12:21:34Z</time>
      </trkpt>
      <trkpt lat="45.51663" lon="6.9137">
        <ele>1539.69</ele>
        <time>2011-06-26T12:21:46Z</time>
      </trkpt>
      <trkpt lat="45.51669" lon="6.91361">
        <ele>1539.69</ele>
        <time>2011-06-26T12:21:53Z</time>
      </trkpt>
      <trkpt lat="45.51684" lon="6.91346">
        <ele>1541.13</ele>
        <time>2011-06-26T12:22:08Z</time>
      </trkpt>
      <trkpt lat="45.51686" lon="6.91346">
        <ele>1540.65</ele>
        <time>2011-06-26T12:22:09Z</time>
      </trkpt>
      <trkpt lat="45.5169" lon="6.91344">
        <ele>1541.13</ele>
        <time>2011-06-26T12:22:12Z</time>
      </trkpt>
      <trkpt lat="45.51705" lon="6.91343">
        <ele>1540.65</ele>
        <time>2011-06-26T12:22:22Z</time>
      </trkpt>
      <trkpt lat="45.51707" lon="6.91344">
        <ele>1540.65</ele>
        <time>2011-06-26T12:22:23Z</time>
      </trkpt>
      <trkpt lat="45.51726" lon="6.91326">
        <ele>1542.57</ele>
        <time>2011-06-26T12:22:40Z</time>
      </trkpt>
      <trkpt lat="45.51734" lon="6.91324">
        <ele>1543.05</ele>
        <time>2011-06-26T12:22:45Z</time>
      </trkpt>
      <trkpt lat="45.51737" lon="6.91322">
        <ele>1543.05</ele>
        <time>2011-06-26T12:22:47Z</time>
      </trkpt>
      <trkpt lat="45.51738" lon="6.91302">
        <ele>1541.61</ele>
        <time>2011-06-26T12:22:57Z</time>
      </trkpt>
      <trkpt lat="45.51741" lon="6.91298">
        <ele>1537.77</ele>
        <time>2011-06-26T12:23:03Z</time>
      </trkpt>
      <trkpt lat="45.51745" lon="6.91298">
        <ele>1536.8</ele>
        <time>2011-06-26T12:23:06Z</time>
      </trkpt>
      <trkpt lat="45.51748" lon="6.91298">
        <ele>1534.4</ele>
        <time>2011-06-26T12:23:09Z</time>
      </trkpt>
      <trkpt lat="45.51763" lon="6.913">
        <ele>1533.92</ele>
        <time>2011-06-26T12:23:13Z</time>
      </trkpt>
      <trkpt lat="45.5177" lon="6.91301">
        <ele>1533.92</ele>
        <time>2011-06-26T12:23:15Z</time>
      </trkpt>
      <trkpt lat="45.51785" lon="6.913">
        <ele>1533.44</ele>
        <time>2011-06-26T12:23:25Z</time>
      </trkpt>
      <trkpt lat="45.5179" lon="6.91299">
        <ele>1531.52</ele>
        <time>2011-06-26T12:23:33Z</time>
      </trkpt>
      <trkpt lat="45.51796" lon="6.91298">
        <ele>1531.52</ele>
        <time>2011-06-26T12:23:38Z</time>
      </trkpt>
      <trkpt lat="45.51801" lon="6.91299">
        <ele>1531.04</ele>
        <time>2011-06-26T12:23:42Z</time>
      </trkpt>
      <trkpt lat="45.51804" lon="6.91299">
        <ele>1531.04</ele>
        <time>2011-06-26T12:23:44Z</time>
      </trkpt>
      <trkpt lat="45.51808" lon="6.91292">
        <ele>1529.11</ele>
        <time>2011-06-26T12:23:52Z</time>
      </trkpt>
      <trkpt lat="45.51814" lon="6.91293">
        <ele>1528.63</ele>
        <time>2011-06-26T12:23:55Z</time>
      </trkpt>
      <trkpt lat="45.51839" lon="6.91314">
        <ele>1528.15</ele>
        <time>2011-06-26T12:24:04Z</time>
      </trkpt>
      <trkpt lat="45.51847" lon="6.91322">
        <ele>1530.56</ele>
        <time>2011-06-26T12:24:13Z</time>
      </trkpt>
      <trkpt lat="45.51852" lon="6.91319">
        <ele>1530.56</ele>
        <time>2011-06-26T12:24:27Z</time>
      </trkpt>
      <trkpt lat="45.51852" lon="6.91319">
        <ele>1529.59</ele>
        <time>2011-06-26T12:24:33Z</time>
      </trkpt>
      <trkpt lat="45.51854" lon="6.91318">
        <ele>1529.59</ele>
        <time>2011-06-26T12:24:36Z</time>
      </trkpt>
      <trkpt lat="45.5186" lon="6.91315">
        <ele>1530.56</ele>
        <time>2011-06-26T12:24:41Z</time>
      </trkpt>
      <trkpt lat="45.51863" lon="6.91307">
        <ele>1531.52</ele>
        <time>2011-06-26T12:24:46Z</time>
      </trkpt>
      <trkpt lat="45.51866" lon="6.91302">
        <ele>1531.52</ele>
        <time>2011-06-26T12:24:55Z</time>
      </trkpt>
      <trkpt lat="45.51878" lon="6.91295">
        <ele>1532</ele>
        <time>2011-06-26T12:25:06Z</time>
      </trkpt>
      <trkpt lat="45.51896" lon="6.91289">
        <ele>1532</ele>
        <time>2011-06-26T12:25:18Z</time>
      </trkpt>
      <trkpt lat="45.51901" lon="6.91287">
        <ele>1531.52</ele>
        <time>2011-06-26T12:25:21Z</time>
      </trkpt>
      <trkpt lat="45.51913" lon="6.91285">
        <ele>1531.04</ele>
        <time>2011-06-26T12:25:27Z</time>
      </trkpt>
      <trkpt lat="45.51921" lon="6.91281">
        <ele>1531.04</ele>
        <time>2011-06-26T12:25:32Z</time>
      </trkpt>
      <trkpt lat="45.51928" lon="6.9128">
        <ele>1529.59</ele>
        <time>2011-06-26T12:25:36Z</time>
      </trkpt>
      <trkpt lat="45.51931" lon="6.91282">
        <ele>1528.63</ele>
        <time>2011-06-26T12:25:38Z</time>
      </trkpt>
      <trkpt lat="45.51943" lon="6.91284">
        <ele>1528.15</ele>
        <time>2011-06-26T12:25:43Z</time>
      </trkpt>
      <trkpt lat="45.51951" lon="6.91278">
        <ele>1527.19</ele>
        <time>2011-06-26T12:25:47Z</time>
      </trkpt>
      <trkpt lat="45.51967" lon="6.91262">
        <ele>1528.63</ele>
        <time>2011-06-26T12:25:58Z</time>
      </trkpt>
      <trkpt lat="45.51971" lon="6.91254">
        <ele>1524.31</ele>
        <time>2011-06-26T12:26:02Z</time>
      </trkpt>
      <trkpt lat="45.51974" lon="6.91253">
        <ele>1523.83</ele>
        <time>2011-06-26T12:26:05Z</time>
      </trkpt>
      <trkpt lat="45.51977" lon="6.91252">
        <ele>1523.83</ele>
        <time>2011-06-26T12:26:07Z</time>
      </trkpt>
      <trkpt lat="45.5198" lon="6.91247">
        <ele>1522.87</ele>
        <time>2011-06-26T12:26:12Z</time>
      </trkpt>
      <trkpt lat="45.51979" lon="6.91246">
        <ele>1524.31</ele>
        <time>2011-06-26T12:26:13Z</time>
      </trkpt>
      <trkpt lat="45.51979" lon="6.91238">
        <ele>1523.83</ele>
        <time>2011-06-26T12:26:26Z</time>
      </trkpt>
      <trkpt lat="45.5198" lon="6.91234">
        <ele>1524.31</ele>
        <time>2011-06-26T12:26:29Z</time>
      </trkpt>
      <trkpt lat="45.51984" lon="6.91221">
        <ele>1525.27</ele>
        <time>2011-06-26T12:26:37Z</time>
      </trkpt>
      <trkpt lat="45.51988" lon="6.91217">
        <ele>1527.19</ele>
        <time>2011-06-26T12:26:43Z</time>
      </trkpt>
      <trkpt lat="45.51999" lon="6.91208">
        <ele>1531.04</ele>
        <time>2011-06-26T12:26:57Z</time>
      </trkpt>
      <trkpt lat="45.52" lon="6.91207">
        <ele>1531.52</ele>
        <time>2011-06-26T12:26:58Z</time>
      </trkpt>
      <trkpt lat="45.52013" lon="6.91207">
        <ele>1533.44</ele>
        <time>2011-06-26T12:27:09Z</time>
      </trkpt>
      <trkpt lat="45.52015" lon="6.91206">
        <ele>1533.44</ele>
        <time>2011-06-26T12:27:11Z</time>
      </trkpt>
      <trkpt lat="45.52022" lon="6.91208">
        <ele>1534.88</ele>
        <time>2011-06-26T12:27:19Z</time>
      </trkpt>
      <trkpt lat="45.52031" lon="6.91203">
        <ele>1536.8</ele>
        <time>2011-06-26T12:27:28Z</time>
      </trkpt>
      <trkpt lat="45.52039" lon="6.91202">
        <ele>1536.32</ele>
        <time>2011-06-26T12:27:34Z</time>
      </trkpt>
      <trkpt lat="45.5206" lon="6.91199">
        <ele>1538.73</ele>
        <time>2011-06-26T12:27:48Z</time>
      </trkpt>
      <trkpt lat="45.52077" lon="6.91194">
        <ele>1540.65</ele>
        <time>2011-06-26T12:28:04Z</time>
      </trkpt>
      <trkpt lat="45.52081" lon="6.91194">
        <ele>1540.65</ele>
        <time>2011-06-26T12:28:07Z</time>
      </trkpt>
      <trkpt lat="45.52085" lon="6.91192">
        <ele>1540.65</ele>
        <time>2011-06-26T12:28:10Z</time>
      </trkpt>
      <trkpt lat="45.52097" lon="6.9119">
        <ele>1541.13</ele>
        <time>2011-06-26T12:28:21Z</time>
      </trkpt>
      <trkpt lat="45.52102" lon="6.91188">
        <ele>1541.13</ele>
        <time>2011-06-26T12:28:25Z</time>
      </trkpt>
      <trkpt lat="45.52122" lon="6.91183">
        <ele>1540.65</ele>
        <time>2011-06-26T12:28:37Z</time>
      </trkpt>
      <trkpt lat="45.52128" lon="6.9118">
        <ele>1541.13</ele>
        <time>2011-06-26T12:28:41Z</time>
      </trkpt>
      <trkpt lat="45.52152" lon="6.91168">
        <ele>1542.09</ele>
        <time>2011-06-26T12:28:55Z</time>
      </trkpt>
      <trkpt lat="45.52167" lon="6.91156">
        <ele>1543.53</ele>
        <time>2011-06-26T12:29:06Z</time>
      </trkpt>
      <trkpt lat="45.52187" lon="6.91141">
        <ele>1543.05</ele>
        <time>2011-06-26T12:29:21Z</time>
      </trkpt>
      <trkpt lat="45.52197" lon="6.91134">
        <ele>1541.61</ele>
        <time>2011-06-26T12:29:26Z</time>
      </trkpt>
      <trkpt lat="45.52212" lon="6.91126">
        <ele>1538.25</ele>
        <time>2011-06-26T12:29:35Z</time>
      </trkpt>
      <trkpt lat="45.52218" lon="6.91123">
        <ele>1539.69</ele>
        <time>2011-06-26T12:29:38Z</time>
      </trkpt>
      <trkpt lat="45.52231" lon="6.9111">
        <ele>1537.29</ele>
        <time>2011-06-26T12:29:46Z</time>
      </trkpt>
      <trkpt lat="45.52248" lon="6.91099">
        <ele>1535.84</ele>
        <time>2011-06-26T12:29:54Z</time>
      </trkpt>
      <trkpt lat="45.52252" lon="6.91095">
        <ele>1535.84</ele>
        <time>2011-06-26T12:29:56Z</time>
      </trkpt>
      <trkpt lat="45.5226" lon="6.91084">
        <ele>1535.84</ele>
        <time>2011-06-26T12:30:02Z</time>
      </trkpt>
      <trkpt lat="45.52274" lon="6.91064">
        <ele>1535.36</ele>
        <time>2011-06-26T12:30:12Z</time>
      </trkpt>
      <trkpt lat="45.52285" lon="6.91059">
        <ele>1534.88</ele>
        <time>2011-06-26T12:30:17Z</time>
      </trkpt>
      <trkpt lat="45.52298" lon="6.91052">
        <ele>1532.48</ele>
        <time>2011-06-26T12:30:23Z</time>
      </trkpt>
      <trkpt lat="45.52319" lon="6.91045">
        <ele>1533.44</ele>
        <time>2011-06-26T12:30:34Z</time>
      </trkpt>
      <trkpt lat="45.52321" lon="6.91044">
        <ele>1533.92</ele>
        <time>2011-06-26T12:30:35Z</time>
      </trkpt>
      <trkpt lat="45.52339" lon="6.9103">
        <ele>1534.4</ele>
        <time>2011-06-26T12:30:47Z</time>
      </trkpt>
      <trkpt lat="45.5234" lon="6.91028">
        <ele>1534.88</ele>
        <time>2011-06-26T12:30:48Z</time>
      </trkpt>
      <trkpt lat="45.52362" lon="6.91013">
        <ele>1534.4</ele>
        <time>2011-06-26T12:31:00Z</time>
      </trkpt>
      <trkpt lat="45.52375" lon="6.90993">
        <ele>1534.88</ele>
        <time>2011-06-26T12:31:10Z</time>
      </trkpt>
      <trkpt lat="45.52397" lon="6.90982">
        <ele>1535.84</ele>
        <time>2011-06-26T12:31:22Z</time>
      </trkpt>
      <trkpt lat="45.52401" lon="6.90979">
        <ele>1534.88</ele>
        <time>2011-06-26T12:31:24Z</time>
      </trkpt>
      <trkpt lat="45.52417" lon="6.90971">
        <ele>1534.88</ele>
        <time>2011-06-26T12:31:35Z</time>
      </trkpt>
      <trkpt lat="45.52419" lon="6.9097">
        <ele>1535.84</ele>
        <time>2011-06-26T12:31:37Z</time>
      </trkpt>
      <trkpt lat="45.52422" lon="6.90968">
        <ele>1537.29</ele>
        <time>2011-06-26T12:31:40Z</time>
      </trkpt>
      <trkpt lat="45.52427" lon="6.90965">
        <ele>1537.77</ele>
        <time>2011-06-26T12:31:45Z</time>
      </trkpt>
      <trkpt lat="45.5244" lon="6.90956">
        <ele>1539.21</ele>
        <time>2011-06-26T12:31:55Z</time>
      </trkpt>
      <trkpt lat="45.52453" lon="6.90947">
        <ele>1537.77</ele>
        <time>2011-06-26T12:32:05Z</time>
      </trkpt>
      <trkpt lat="45.52469" lon="6.9093">
        <ele>1538.25</ele>
        <time>2011-06-26T12:32:19Z</time>
      </trkpt>
      <trkpt lat="45.52471" lon="6.90928">
        <ele>1539.21</ele>
        <time>2011-06-26T12:32:21Z</time>
      </trkpt>
      <trkpt lat="45.52474" lon="6.90925">
        <ele>1539.69</ele>
        <time>2011-06-26T12:32:24Z</time>
      </trkpt>
      <trkpt lat="45.52478" lon="6.90919">
        <ele>1540.17</ele>
        <time>2011-06-26T12:32:29Z</time>
      </trkpt>
      <trkpt lat="45.52499" lon="6.90911">
        <ele>1543.05</ele>
        <time>2011-06-26T12:32:44Z</time>
      </trkpt>
      <trkpt lat="45.52505" lon="6.9091">
        <ele>1542.09</ele>
        <time>2011-06-26T12:32:47Z</time>
      </trkpt>
      <trkpt lat="45.52518" lon="6.909">
        <ele>1542.57</ele>
        <time>2011-06-26T12:32:56Z</time>
      </trkpt>
      <trkpt lat="45.52527" lon="6.90897">
        <ele>1541.61</ele>
        <time>2011-06-26T12:33:00Z</time>
      </trkpt>
      <trkpt lat="45.52552" lon="6.90901">
        <ele>1540.65</ele>
        <time>2011-06-26T12:33:12Z</time>
      </trkpt>
      <trkpt lat="45.52568" lon="6.90899">
        <ele>1541.13</ele>
        <time>2011-06-26T12:33:23Z</time>
      </trkpt>
      <trkpt lat="45.5257" lon="6.90897">
        <ele>1545.46</ele>
        <time>2011-06-26T12:33:26Z</time>
      </trkpt>
      <trkpt lat="45.52571" lon="6.90896">
        <ele>1541.13</ele>
        <time>2011-06-26T12:33:27Z</time>
      </trkpt>
      <trkpt lat="45.52574" lon="6.90894">
        <ele>1544.5</ele>
        <time>2011-06-26T12:33:30Z</time>
      </trkpt>
      <trkpt lat="45.52575" lon="6.90894">
        <ele>1544.98</ele>
        <time>2011-06-26T12:33:31Z</time>
      </trkpt>
      <trkpt lat="45.52577" lon="6.90892">
        <ele>1542.57</ele>
        <time>2011-06-26T12:33:33Z</time>
      </trkpt>
      <trkpt lat="45.52578" lon="6.90891">
        <ele>1546.42</ele>
        <time>2011-06-26T12:33:34Z</time>
      </trkpt>
      <trkpt lat="45.52578" lon="6.90891">
        <ele>1546.42</ele>
        <time>2011-06-26T12:33:35Z</time>
      </trkpt>
      <trkpt lat="45.5258" lon="6.90889">
        <ele>1544.98</ele>
        <time>2011-06-26T12:33:38Z</time>
      </trkpt>
      <trkpt lat="45.52586" lon="6.90885">
        <ele>1544.98</ele>
        <time>2011-06-26T12:33:44Z</time>
      </trkpt>
      <trkpt lat="45.52589" lon="6.90884">
        <ele>1544.98</ele>
        <time>2011-06-26T12:33:46Z</time>
      </trkpt>
      <trkpt lat="45.52594" lon="6.90882">
        <ele>1543.53</ele>
        <time>2011-06-26T12:33:50Z</time>
      </trkpt>
      <trkpt lat="45.52619" lon="6.90882">
        <ele>1542.09</ele>
        <time>2011-06-26T12:34:02Z</time>
      </trkpt>
      <trkpt lat="45.52629" lon="6.90881">
        <ele>1540.17</ele>
        <time>2011-06-26T12:34:07Z</time>
      </trkpt>
      <trkpt lat="45.52631" lon="6.9088">
        <ele>1540.65</ele>
        <time>2011-06-26T12:34:08Z</time>
      </trkpt>
      <trkpt lat="45.5265" lon="6.90878">
        <ele>1536.8</ele>
        <time>2011-06-26T12:34:17Z</time>
      </trkpt>
      <trkpt lat="45.52664" lon="6.90876">
        <ele>1533.44</ele>
        <time>2011-06-26T12:34:23Z</time>
      </trkpt>
      <trkpt lat="45.52666" lon="6.90876">
        <ele>1533.92</ele>
        <time>2011-06-26T12:34:24Z</time>
      </trkpt>
      <trkpt lat="45.52672" lon="6.90876">
        <ele>1534.88</ele>
        <time>2011-06-26T12:34:26Z</time>
      </trkpt>
      <trkpt lat="45.52689" lon="6.90886">
        <ele>1532.96</ele>
        <time>2011-06-26T12:34:34Z</time>
      </trkpt>
      <trkpt lat="45.52718" lon="6.90882">
        <ele>1530.08</ele>
        <time>2011-06-26T12:34:46Z</time>
      </trkpt>
      <trkpt lat="45.52733" lon="6.90877">
        <ele>1529.11</ele>
        <time>2011-06-26T12:34:53Z</time>
      </trkpt>
      <trkpt lat="45.52753" lon="6.90871">
        <ele>1526.23</ele>
        <time>2011-06-26T12:35:03Z</time>
      </trkpt>
      <trkpt lat="45.52764" lon="6.90865">
        <ele>1526.23</ele>
        <time>2011-06-26T12:35:08Z</time>
      </trkpt>
      <trkpt lat="45.52788" lon="6.90861">
        <ele>1525.27</ele>
        <time>2011-06-26T12:35:19Z</time>
      </trkpt>
      <trkpt lat="45.52801" lon="6.90852">
        <ele>1524.31</ele>
        <time>2011-06-26T12:35:26Z</time>
      </trkpt>
      <trkpt lat="45.52807" lon="6.90847">
        <ele>1525.27</ele>
        <time>2011-06-26T12:35:29Z</time>
      </trkpt>
      <trkpt lat="45.52836" lon="6.90847">
        <ele>1523.35</ele>
        <time>2011-06-26T12:35:42Z</time>
      </trkpt>
      <trkpt lat="45.52857" lon="6.90843">
        <ele>1522.87</ele>
        <time>2011-06-26T12:35:52Z</time>
      </trkpt>
      <trkpt lat="45.5286" lon="6.90843">
        <ele>1522.87</ele>
        <time>2011-06-26T12:35:53Z</time>
      </trkpt>
      <trkpt lat="45.52868" lon="6.90834">
        <ele>1522.87</ele>
        <time>2011-06-26T12:35:58Z</time>
      </trkpt>
      <trkpt lat="45.52871" lon="6.90825">
        <ele>1523.83</ele>
        <time>2011-06-26T12:36:02Z</time>
      </trkpt>
      <trkpt lat="45.52872" lon="6.90824">
        <ele>1523.35</ele>
        <time>2011-06-26T12:36:03Z</time>
      </trkpt>
      <trkpt lat="45.52897" lon="6.90811">
        <ele>1523.83</ele>
        <time>2011-06-26T12:36:16Z</time>
      </trkpt>
      <trkpt lat="45.52898" lon="6.9081">
        <ele>1523.83</ele>
        <time>2011-06-26T12:36:17Z</time>
      </trkpt>
      <trkpt lat="45.52915" lon="6.90806">
        <ele>1520.94</ele>
        <time>2011-06-26T12:36:26Z</time>
      </trkpt>
      <trkpt lat="45.5292" lon="6.90805">
        <ele>1519.98</ele>
        <time>2011-06-26T12:36:28Z</time>
      </trkpt>
      <trkpt lat="45.52928" lon="6.908">
        <ele>1519.5</ele>
        <time>2011-06-26T12:36:32Z</time>
      </trkpt>
      <trkpt lat="45.52944" lon="6.9079">
        <ele>1518.06</ele>
        <time>2011-06-26T12:36:41Z</time>
      </trkpt>
      <trkpt lat="45.52971" lon="6.90786">
        <ele>1517.1</ele>
        <time>2011-06-26T12:36:53Z</time>
      </trkpt>
      <trkpt lat="45.52989" lon="6.90791">
        <ele>1513.73</ele>
        <time>2011-06-26T12:37:02Z</time>
      </trkpt>
      <trkpt lat="45.52992" lon="6.90792">
        <ele>1513.25</ele>
        <time>2011-06-26T12:37:03Z</time>
      </trkpt>
      <trkpt lat="45.53008" lon="6.90799">
        <ele>1510.37</ele>
        <time>2011-06-26T12:37:12Z</time>
      </trkpt>
      <trkpt lat="45.53017" lon="6.90801">
        <ele>1507.97</ele>
        <time>2011-06-26T12:37:16Z</time>
      </trkpt>
      <trkpt lat="45.53033" lon="6.9081">
        <ele>1507.97</ele>
        <time>2011-06-26T12:37:23Z</time>
      </trkpt>
      <trkpt lat="45.53046" lon="6.90809">
        <ele>1506.04</ele>
        <time>2011-06-26T12:37:30Z</time>
      </trkpt>
      <trkpt lat="45.53058" lon="6.90801">
        <ele>1506.04</ele>
        <time>2011-06-26T12:37:37Z</time>
      </trkpt>
      <trkpt lat="45.53074" lon="6.90802">
        <ele>1507.97</ele>
        <time>2011-06-26T12:37:49Z</time>
      </trkpt>
      <trkpt lat="45.53076" lon="6.90802">
        <ele>1507.97</ele>
        <time>2011-06-26T12:37:51Z</time>
      </trkpt>
      <trkpt lat="45.53079" lon="6.90806">
        <ele>1508.45</ele>
        <time>2011-06-26T12:37:55Z</time>
      </trkpt>
      <trkpt lat="45.53083" lon="6.9083">
        <ele>1509.41</ele>
        <time>2011-06-26T12:38:04Z</time>
      </trkpt>
      <trkpt lat="45.53084" lon="6.9084">
        <ele>1510.85</ele>
        <time>2011-06-26T12:38:11Z</time>
      </trkpt>
      <trkpt lat="45.53084" lon="6.90843">
        <ele>1511.81</ele>
        <time>2011-06-26T12:38:13Z</time>
      </trkpt>
      <trkpt lat="45.53086" lon="6.9085">
        <ele>1512.77</ele>
        <time>2011-06-26T12:38:18Z</time>
      </trkpt>
      <trkpt lat="45.53088" lon="6.90859">
        <ele>1510.85</ele>
        <time>2011-06-26T12:38:23Z</time>
      </trkpt>
      <trkpt lat="45.53101" lon="6.90884">
        <ele>1509.89</ele>
        <time>2011-06-26T12:38:40Z</time>
      </trkpt>
      <trkpt lat="45.5311" lon="6.90899">
        <ele>1510.85</ele>
        <time>2011-06-26T12:38:51Z</time>
      </trkpt>
      <trkpt lat="45.53117" lon="6.90902">
        <ele>1512.77</ele>
        <time>2011-06-26T12:38:58Z</time>
      </trkpt>
      <trkpt lat="45.53128" lon="6.9091">
        <ele>1514.69</ele>
        <time>2011-06-26T12:39:09Z</time>
      </trkpt>
      <trkpt lat="45.53149" lon="6.90922">
        <ele>1517.1</ele>
        <time>2011-06-26T12:39:27Z</time>
      </trkpt>
      <trkpt lat="45.53158" lon="6.90927">
        <ele>1517.58</ele>
        <time>2011-06-26T12:39:35Z</time>
      </trkpt>
      <trkpt lat="45.53159" lon="6.90927">
        <ele>1518.54</ele>
        <time>2011-06-26T12:39:36Z</time>
      </trkpt>
      <trkpt lat="45.53177" lon="6.90943">
        <ele>1521.42</ele>
        <time>2011-06-26T12:39:55Z</time>
      </trkpt>
      <trkpt lat="45.53184" lon="6.90953">
        <ele>1522.39</ele>
        <time>2011-06-26T12:40:03Z</time>
      </trkpt>
      <trkpt lat="45.53195" lon="6.90967">
        <ele>1525.27</ele>
        <time>2011-06-26T12:40:13Z</time>
      </trkpt>
      <trkpt lat="45.53196" lon="6.9097">
        <ele>1524.79</ele>
        <time>2011-06-26T12:40:15Z</time>
      </trkpt>
      <trkpt lat="45.53198" lon="6.90976">
        <ele>1526.23</ele>
        <time>2011-06-26T12:40:19Z</time>
      </trkpt>
      <trkpt lat="45.53203" lon="6.90986">
        <ele>1526.23</ele>
        <time>2011-06-26T12:40:25Z</time>
      </trkpt>
      <trkpt lat="45.53208" lon="6.90989">
        <ele>1527.19</ele>
        <time>2011-06-26T12:40:29Z</time>
      </trkpt>
      <trkpt lat="45.53228" lon="6.90984">
        <ele>1524.79</ele>
        <time>2011-06-26T12:40:39Z</time>
      </trkpt>
      <trkpt lat="45.53262" lon="6.90981">
        <ele>1522.39</ele>
        <time>2011-06-26T12:40:53Z</time>
      </trkpt>
      <trkpt lat="45.53267" lon="6.90979">
        <ele>1522.87</ele>
        <time>2011-06-26T12:40:55Z</time>
      </trkpt>
      <trkpt lat="45.53288" lon="6.9097">
        <ele>1515.18</ele>
        <time>2011-06-26T12:41:07Z</time>
      </trkpt>
      <trkpt lat="45.53288" lon="6.90969">
        <ele>1520.94</ele>
        <time>2011-06-26T12:41:09Z</time>
      </trkpt>
      <trkpt lat="45.53288" lon="6.90971">
        <ele>1522.87</ele>
        <time>2011-06-26T12:41:13Z</time>
      </trkpt>
      <trkpt lat="45.53314" lon="6.90972">
        <ele>1525.27</ele>
        <time>2011-06-26T12:41:29Z</time>
      </trkpt>
      <trkpt lat="45.53326" lon="6.90969">
        <ele>1526.71</ele>
        <time>2011-06-26T12:41:35Z</time>
      </trkpt>
      <trkpt lat="45.53361" lon="6.90967">
        <ele>1528.63</ele>
        <time>2011-06-26T12:41:51Z</time>
      </trkpt>
      <trkpt lat="45.53405" lon="6.90956">
        <ele>1527.67</ele>
        <time>2011-06-26T12:42:09Z</time>
      </trkpt>
    </trkseg>
  </trk>
</gpx>